<?xml version='1.0' encoding='UTF-8'?><gpx version="1.1" creator="JPX - https://github.com/jenetics/jpx" xmlns="http://www.topografix.com/GPX/1/1"><trk><trkseg><trkpt lat="44.7279428" lon="7.8219008"><ele>323.0</ele><time>2026-04-10T06:38:26.604Z</time></trkpt><trkpt lat="44.727865" lon="7.8217933"><ele>316.0</ele><time>2026-04-10T06:40:01.022Z</time></trkpt><trkpt lat="44.727159" lon="7.8200243"><ele>273.0</ele><time>2026-04-10T06:41:29.853Z</time></trkpt><trkpt lat="44.7259972" lon="7.8174694"><ele>272.0</ele><time>2026-04-10T06:42:32.358Z</time></trkpt><trkpt lat="44.7249815" lon="7.8183679"><ele>273.0</ele><time>2026-04-10T06:42:53.613Z</time></trkpt><trkpt lat="44.7220078" lon="7.8194458"><ele>330.0</ele><time>2026-04-10T06:44:13.677Z</time></trkpt><trkpt lat="44.7245236" lon="7.825948"><ele>269.0</ele><time>2026-04-10T06:44:33.644Z</time></trkpt><trkpt lat="44.7173892" lon="7.8079431"><ele>295.0</ele><time>2026-04-10T06:46:36.885Z</time></trkpt><trkpt lat="44.7243643" lon="7.8240117"><ele>360.0</ele><time>2026-04-10T06:48:08.162Z</time></trkpt><trkpt lat="44.7272486" lon="7.8254132"><ele>295.0</ele><time>2026-04-10T06:49:00.06Z</time></trkpt><trkpt lat="44.7243683" lon="7.824017"><ele>274.0</ele><time>2026-04-10T06:49:23.29Z</time></trkpt><trkpt lat="44.7278805" lon="7.8159974"><ele>284.0</ele><time>2026-04-10T06:49:42.295Z</time></trkpt><trkpt lat="44.7424934" lon="7.8096266"><ele>265.0</ele><time>2026-04-10T06:52:02.762Z</time></trkpt><trkpt lat="44.7370318" lon="7.8010167"><ele>285.0</ele><time>2026-04-10T06:52:54.729Z</time></trkpt><trkpt lat="44.7400232" lon="7.8106984"><ele>310.0</ele><time>2026-04-10T06:53:02.828Z</time></trkpt><trkpt lat="44.7511258" lon="7.8072786"><ele>274.0</ele><time>2026-04-10T06:54:31.14Z</time></trkpt><trkpt lat="44.7445774" lon="7.8060528"><ele>274.5</ele><time>2026-04-10T06:54:36.211Z</time></trkpt><trkpt lat="44.7443659" lon="7.8065808"><ele>275.0</ele><time>2026-04-10T06:54:42.717Z</time></trkpt><trkpt lat="44.7423077" lon="7.8093895"><ele>275.0</ele><time>2026-04-10T06:54:50.254Z</time></trkpt><trkpt lat="44.7467457" lon="7.807452"><ele>276.0</ele><time>2026-04-10T06:55:43.82Z</time></trkpt><trkpt lat="44.7474896" lon="7.8068589"><ele>284.0</ele><time>2026-04-10T06:57:56.96Z</time></trkpt><trkpt lat="44.7522439" lon="7.8039565"><ele>284.0</ele><time>2026-04-10T06:59:03.507Z</time></trkpt><trkpt lat="44.751981" lon="7.8035381"><ele>284.0</ele><time>2026-04-10T07:01:13.691Z</time></trkpt><trkpt lat="44.7523808" lon="7.8264521"><ele>309.5</ele><time>2026-04-10T07:04:15.812Z</time></trkpt><trkpt lat="44.752465" lon="7.8265865"><ele>335.0</ele><time>2026-04-10T07:04:23.373Z</time></trkpt><trkpt lat="44.7519658" lon="7.8266932"><ele>340.0</ele><time>2026-04-10T07:05:02.134Z</time></trkpt><trkpt lat="44.7501264" lon="7.8257475"><ele>340.0</ele><time>2026-04-10T07:05:12.814Z</time></trkpt><trkpt lat="44.7499471" lon="7.826037"><ele>340.0</ele><time>2026-04-10T07:05:22.866Z</time></trkpt><trkpt lat="44.7489209" lon="7.8272307"><ele>354.0</ele><time>2026-04-10T07:05:37.006Z</time></trkpt><trkpt lat="44.7481706" lon="7.8327261"><ele>357.0</ele><time>2026-04-10T07:06:22.129Z</time></trkpt><trkpt lat="44.7482649" lon="7.8348659"><ele>357.0</ele><time>2026-04-10T07:06:54.757Z</time></trkpt><trkpt lat="44.7482996" lon="7.8347895"><ele>357.0</ele><time>2026-04-10T07:08:27.375Z</time></trkpt><trkpt lat="44.7711462" lon="7.7969832"><ele>288.0</ele><time>2026-04-10T07:49:50.793Z</time></trkpt><trkpt lat="44.7728564" lon="7.7941992"><ele>329.0</ele><time>2026-04-10T07:50:58.893Z</time></trkpt><trkpt lat="44.7697448" lon="7.8261389"><ele>332.0</ele><time>2026-04-10T07:59:58.276Z</time></trkpt><trkpt lat="44.7679747" lon="7.8275237"><ele>337.0</ele><time>2026-04-10T08:00:12.806Z</time></trkpt><trkpt lat="44.7672036" lon="7.8363615"><ele>337.0</ele><time>2026-04-10T08:02:21.354Z</time></trkpt><trkpt lat="44.7671609" lon="7.8366619"><ele>337.0</ele><time>2026-04-10T08:02:26.589Z</time></trkpt><trkpt lat="44.766624" lon="7.8474875"><ele>349.0</ele><time>2026-04-10T08:05:36.45Z</time></trkpt><trkpt lat="44.7649725" lon="7.8477693"><ele>356.0</ele><time>2026-04-10T08:05:51.783Z</time></trkpt><trkpt lat="44.7537062" lon="7.8969353"><ele>422.0</ele><time>2026-04-10T08:30:57.408Z</time></trkpt><trkpt lat="44.7521017" lon="7.8814517"><ele>422.0</ele><time>2026-04-10T08:35:35.192Z</time></trkpt><trkpt lat="44.75215" lon="7.8813867"><ele>422.0</ele><time>2026-04-10T08:35:51.041Z</time></trkpt><trkpt lat="44.7521633" lon="7.881295"><ele>422.0</ele><time>2026-04-10T08:35:54.042Z</time></trkpt><trkpt lat="44.8391522" lon="7.8173989"><ele>274.0</ele><time>2026-04-10T09:30:32.879Z</time></trkpt><trkpt lat="44.8399211" lon="7.8175618"><ele>256.0</ele><time>2026-04-10T09:30:55.444Z</time></trkpt><trkpt lat="44.8628388" lon="7.8045752"><ele>248.0</ele><time>2026-04-10T09:36:20.489Z</time></trkpt><trkpt lat="44.8619046" lon="7.7946425"><ele>257.0</ele><time>2026-04-10T09:38:13.497Z</time></trkpt><trkpt lat="44.8720541" lon="7.7921667"><ele>251.0</ele><time>2026-04-10T09:39:48.462Z</time></trkpt><trkpt lat="44.8714464" lon="7.7931555"><ele>257.0</ele><time>2026-04-10T09:40:07.282Z</time></trkpt><trkpt lat="44.8723649" lon="7.7923642"><ele>257.0</ele><time>2026-04-10T09:40:18.806Z</time></trkpt><trkpt lat="44.8718436" lon="7.7919887"><ele>251.0</ele><time>2026-04-10T09:40:26.382Z</time></trkpt><trkpt lat="44.8712884" lon="7.7931213"><ele>251.0</ele><time>2026-04-10T09:40:31.9Z</time></trkpt><trkpt lat="44.8726238" lon="7.7898232"><ele>251.0</ele><time>2026-04-10T09:40:51.854Z</time></trkpt><trkpt lat="44.8719939" lon="7.7882185"><ele>251.0</ele><time>2026-04-10T09:41:12.791Z</time></trkpt><trkpt lat="44.8674706" lon="7.788956"><ele>251.0</ele><time>2026-04-10T09:42:24.561Z</time></trkpt><trkpt lat="44.8719661" lon="7.7882348"><ele>246.0</ele><time>2026-04-10T09:42:30.94Z</time></trkpt><trkpt lat="44.8723978" lon="7.7781595"><ele>240.0</ele><time>2026-04-10T09:44:13.437Z</time></trkpt><trkpt lat="44.8671176" lon="7.7619065"><ele>244.0</ele><time>2026-04-10T09:45:32.401Z</time></trkpt><trkpt lat="44.8544195" lon="7.7479599"><ele>238.0</ele><time>2026-04-10T09:49:38.218Z</time></trkpt><trkpt lat="44.8787397" lon="7.7497087"><ele>237.0</ele><time>2026-04-10T09:57:03.608Z</time></trkpt><trkpt lat="44.8811066" lon="7.7363238"><ele>235.0</ele><time>2026-04-10T09:58:04.171Z</time></trkpt><trkpt lat="44.8813929" lon="7.7350334"><ele>235.0</ele><time>2026-04-10T09:59:11.228Z</time></trkpt><trkpt lat="44.8814477" lon="7.73493"><ele>235.0</ele><time>2026-04-10T10:00:02.747Z</time></trkpt><trkpt lat="44.8804059" lon="7.7197482"><ele>238.0</ele><time>2026-04-10T10:02:14.977Z</time></trkpt><trkpt lat="44.8685134" lon="7.7221189"><ele>236.0</ele><time>2026-04-10T10:04:20.667Z</time></trkpt><trkpt lat="44.8871363" lon="7.711815"><ele>235.0</ele><time>2026-04-10T10:05:11.845Z</time></trkpt><trkpt lat="44.8892675" lon="7.7103955"><ele>233.0</ele><time>2026-04-10T10:05:30.426Z</time></trkpt><trkpt lat="44.9074096" lon="7.7112052"><ele>229.0</ele><time>2026-04-10T10:09:57.449Z</time></trkpt><trkpt lat="44.9141034" lon="7.6960344"><ele>230.0</ele><time>2026-04-10T10:15:15.871Z</time></trkpt><trkpt lat="44.9073215" lon="7.6887837"><ele>230.0</ele><time>2026-04-10T10:16:23.848Z</time></trkpt><trkpt lat="44.9077886" lon="7.6857641"><ele>232.0</ele><time>2026-04-10T10:17:04.963Z</time></trkpt><trkpt lat="44.905799" lon="7.6817097"><ele>232.0</ele><time>2026-04-10T10:17:40.844Z</time></trkpt><trkpt lat="44.9058871" lon="7.6815457"><ele>232.0</ele><time>2026-04-10T10:17:46.545Z</time></trkpt><trkpt lat="44.9057217" lon="7.6797746"><ele>232.0</ele><time>2026-04-10T10:17:53.077Z</time></trkpt><trkpt lat="44.905715" lon="7.6792688"><ele>232.0</ele><time>2026-04-10T10:18:00.142Z</time></trkpt><trkpt lat="44.9062152" lon="7.6773316"><ele>244.0</ele><time>2026-04-10T10:18:23.215Z</time></trkpt><trkpt lat="44.9065152" lon="7.6751502"><ele>244.0</ele><time>2026-04-10T10:18:52.777Z</time></trkpt><trkpt lat="44.906608" lon="7.674909"><ele>244.0</ele><time>2026-04-10T10:18:58.562Z</time></trkpt><trkpt lat="44.9055539" lon="7.6739405"><ele>237.0</ele><time>2026-04-10T10:19:40.43Z</time></trkpt><trkpt lat="44.9047049" lon="7.6736123"><ele>240.0</ele><time>2026-04-10T10:19:56.962Z</time></trkpt><trkpt lat="44.906326" lon="7.6743977"><ele>241.0</ele><time>2026-04-10T10:21:22.879Z</time></trkpt><trkpt lat="44.9070487" lon="7.6749736"><ele>246.0</ele><time>2026-04-10T10:22:09.007Z</time></trkpt><trkpt lat="44.9066898" lon="7.6756266"><ele>241.0</ele><time>2026-04-10T10:23:16.316Z</time></trkpt><trkpt lat="44.9071685" lon="7.6744997"><ele>239.0</ele><time>2026-04-10T10:24:38.487Z</time></trkpt><trkpt lat="44.9090104" lon="7.6712546"><ele>239.0</ele><time>2026-04-10T10:27:11.714Z</time></trkpt><trkpt lat="44.9087087" lon="7.6691751"><ele>234.0</ele><time>2026-04-10T10:27:34.398Z</time></trkpt><trkpt lat="44.9094559" lon="7.6650425"><ele>236.0</ele><time>2026-04-10T10:28:21.554Z</time></trkpt><trkpt lat="44.9108935" lon="7.6628229"><ele>237.0</ele><time>2026-04-10T10:28:53.725Z</time></trkpt><trkpt lat="44.9122499" lon="7.6617728"><ele>235.0</ele><time>2026-04-10T10:29:21.054Z</time></trkpt><trkpt lat="44.91562" lon="7.6625054"><ele>235.0</ele><time>2026-04-10T10:29:34.837Z</time></trkpt><trkpt lat="44.9157386" lon="7.6422938"><ele>235.0</ele><time>2026-04-10T10:32:00.769Z</time></trkpt><trkpt lat="44.9158124" lon="7.6419108"><ele>235.0</ele><time>2026-04-10T10:32:07.11Z</time></trkpt><trkpt lat="44.9157924" lon="7.6420827"><ele>235.0</ele><time>2026-04-10T10:32:34.525Z</time></trkpt><trkpt lat="44.9163052" lon="7.6423644"><ele>233.0</ele><time>2026-04-10T10:32:48.589Z</time></trkpt><trkpt lat="44.91631" lon="7.6399167"><ele>234.0</ele><time>2026-04-10T10:35:45.734Z</time></trkpt><trkpt lat="44.9170455" lon="7.6378031"><ele>236.0</ele><time>2026-04-10T10:38:29.711Z</time></trkpt><trkpt lat="44.916007" lon="7.6366144"><ele>236.0</ele><time>2026-04-10T10:39:02.063Z</time></trkpt><trkpt lat="44.9162245" lon="7.636605"><ele>236.0</ele><time>2026-04-10T10:39:27.792Z</time></trkpt><trkpt lat="44.9165217" lon="7.6362487"><ele>234.0</ele><time>2026-04-10T10:39:35.858Z</time></trkpt><trkpt lat="44.9171834" lon="7.6354491"><ele>234.0</ele><time>2026-04-10T10:39:42.163Z</time></trkpt><trkpt lat="44.9161686" lon="7.6350075"><ele>234.0</ele><time>2026-04-10T10:39:48.481Z</time></trkpt><trkpt lat="44.9160741" lon="7.6347624"><ele>234.0</ele><time>2026-04-10T10:39:54.788Z</time></trkpt><trkpt lat="44.9228206" lon="7.6336061"><ele>237.0</ele><time>2026-04-10T10:42:53.784Z</time></trkpt><trkpt lat="44.9273899" lon="7.6266373"><ele>237.0</ele><time>2026-04-10T10:44:10.972Z</time></trkpt><trkpt lat="44.9287836" lon="7.6135423"><ele>236.0</ele><time>2026-04-10T10:46:44.323Z</time></trkpt><trkpt lat="44.9304663" lon="7.6126888"><ele>236.0</ele><time>2026-04-10T10:47:21.243Z</time></trkpt><trkpt lat="44.9315482" lon="7.612452"><ele>240.0</ele><time>2026-04-10T10:47:37.18Z</time></trkpt><trkpt lat="44.932424" lon="7.6111029"><ele>237.0</ele><time>2026-04-10T10:48:12.536Z</time></trkpt><trkpt lat="44.9342374" lon="7.6119749"><ele>236.0</ele><time>2026-04-10T10:48:56.631Z</time></trkpt><trkpt lat="44.9352263" lon="7.6117464"><ele>233.0</ele><time>2026-04-10T10:50:40.002Z</time></trkpt><trkpt lat="44.9371091" lon="7.6102828"><ele>233.0</ele><time>2026-04-10T10:51:59.641Z</time></trkpt><trkpt lat="44.9371894" lon="7.6101412"><ele>233.0</ele><time>2026-04-10T10:52:18.367Z</time></trkpt><trkpt lat="44.9369748" lon="7.6124236"><ele>232.0</ele><time>2026-04-10T10:53:10.179Z</time></trkpt><trkpt lat="44.9361267" lon="7.61416"><ele>234.0</ele><time>2026-04-10T10:53:38.315Z</time></trkpt><trkpt lat="44.9408654" lon="7.6203153"><ele>236.0</ele><time>2026-04-10T10:55:03.821Z</time></trkpt><trkpt lat="44.9409323" lon="7.6199443"><ele>238.0</ele><time>2026-04-10T10:55:10.075Z</time></trkpt><trkpt lat="44.9443418" lon="7.6249044"><ele>230.0</ele><time>2026-04-10T10:55:58.677Z</time></trkpt><trkpt lat="44.9448189" lon="7.6251216"><ele>230.0</ele><time>2026-04-10T10:56:32.916Z</time></trkpt><trkpt lat="44.9457599" lon="7.6257807"><ele>228.0</ele><time>2026-04-10T10:57:00.439Z</time></trkpt><trkpt lat="44.9517589" lon="7.6292825"><ele>232.0</ele><time>2026-04-10T10:59:14.22Z</time></trkpt><trkpt lat="44.9521417" lon="7.6251604"><ele>229.0</ele><time>2026-04-10T11:00:26.367Z</time></trkpt><trkpt lat="44.9532327" lon="7.6206895"><ele>232.0</ele><time>2026-04-10T11:01:21.389Z</time></trkpt><trkpt lat="44.9537068" lon="7.6205759"><ele>232.0</ele><time>2026-04-10T11:01:35.143Z</time></trkpt><trkpt lat="44.9556754" lon="7.6182418"><ele>233.0</ele><time>2026-04-10T11:02:03.805Z</time></trkpt><trkpt lat="44.9589504" lon="7.6109451"><ele>234.0</ele><time>2026-04-10T11:03:11.048Z</time></trkpt><trkpt lat="44.9588734" lon="7.6078354"><ele>235.0</ele><time>2026-04-10T11:04:18.909Z</time></trkpt><trkpt lat="44.9553148" lon="7.6064923"><ele>237.0</ele><time>2026-04-10T11:05:01.795Z</time></trkpt><trkpt lat="44.9546457" lon="7.6058585"><ele>235.0</ele><time>2026-04-10T11:05:24.036Z</time></trkpt><trkpt lat="44.9539505" lon="7.6030544"><ele>238.0</ele><time>2026-04-10T11:05:30.338Z</time></trkpt><trkpt lat="44.9553493" lon="7.6039726"><ele>238.0</ele><time>2026-04-10T11:05:48.06Z</time></trkpt><trkpt lat="44.955218" lon="7.6037289"><ele>238.0</ele><time>2026-04-10T11:06:00.558Z</time></trkpt><trkpt lat="44.9564476" lon="7.5996622"><ele>241.0</ele><time>2026-04-10T11:06:55.461Z</time></trkpt><trkpt lat="44.9584416" lon="7.5983579"><ele>239.0</ele><time>2026-04-10T11:07:52.572Z</time></trkpt><trkpt lat="44.9590281" lon="7.599375"><ele>239.0</ele><time>2026-04-10T11:08:11.761Z</time></trkpt><trkpt lat="44.9602433" lon="7.599656"><ele>238.0</ele><time>2026-04-10T11:09:11.103Z</time></trkpt><trkpt lat="44.9606281" lon="7.5972148"><ele>239.0</ele><time>2026-04-10T11:09:35.877Z</time></trkpt><trkpt lat="44.9610443" lon="7.5948489"><ele>246.0</ele><time>2026-04-10T11:10:03.303Z</time></trkpt><trkpt lat="45.0041122" lon="7.6021646"><ele>246.0</ele><time>2026-04-10T11:20:28.246Z</time></trkpt><trkpt lat="45.005703" lon="7.6046746"><ele>240.0</ele><time>2026-04-10T11:20:59.295Z</time></trkpt><trkpt lat="44.9938515" lon="7.6032361"><ele>240.0</ele><time>2026-04-10T11:24:02.551Z</time></trkpt><trkpt lat="44.9938818" lon="7.6035899"><ele>240.0</ele><time>2026-04-10T11:24:17.196Z</time></trkpt><trkpt lat="44.9962577" lon="7.6070616"><ele>243.0</ele><time>2026-04-10T11:25:08.333Z</time></trkpt><trkpt lat="44.9978779" lon="7.6068105"><ele>243.0</ele><time>2026-04-10T11:26:15.048Z</time></trkpt><trkpt lat="44.997811" lon="7.6067949"><ele>243.0</ele><time>2026-04-10T11:30:20.145Z</time></trkpt><trkpt lat="44.9975655" lon="7.6069994"><ele>243.0</ele><time>2026-04-10T11:31:42.875Z</time></trkpt><trkpt lat="44.997895" lon="7.6067367"><ele>243.0</ele><time>2026-04-10T11:32:00.033Z</time></trkpt><trkpt lat="44.9979183" lon="7.6066267"><ele>243.0</ele><time>2026-04-10T11:32:03.032Z</time></trkpt><trkpt lat="44.9978817" lon="7.6067017"><ele>243.0</ele><time>2026-04-10T11:32:12.04Z</time></trkpt><trkpt lat="44.9978583" lon="7.6068083"><ele>243.0</ele><time>2026-04-10T11:32:16.04Z</time></trkpt><trkpt lat="44.9978533" lon="7.6069167"><ele>243.0</ele><time>2026-04-10T11:32:20.04Z</time></trkpt><trkpt lat="44.9978067" lon="7.60698"><ele>243.0</ele><time>2026-04-10T11:32:28.04Z</time></trkpt><trkpt lat="44.9976717" lon="7.6068906"><ele>243.0</ele><time>2026-04-10T11:39:44.284Z</time></trkpt><trkpt lat="44.9977233" lon="7.607085"><ele>243.0</ele><time>2026-04-10T11:43:58.847Z</time></trkpt><trkpt lat="44.9976876" lon="7.6068982"><ele>243.0</ele><time>2026-04-10T11:44:21.272Z</time></trkpt><trkpt lat="44.997875" lon="7.6066967"><ele>243.0</ele><time>2026-04-10T11:52:30.553Z</time></trkpt><trkpt lat="44.997905" lon="7.60661"><ele>243.0</ele><time>2026-04-10T11:52:31.552Z</time></trkpt><trkpt lat="44.99794" lon="7.6065217"><ele>243.0</ele><time>2026-04-10T11:52:32.552Z</time></trkpt><trkpt lat="44.9979233" lon="7.6066233"><ele>243.0</ele><time>2026-04-10T11:52:38.04Z</time></trkpt><trkpt lat="44.99789" lon="7.6067067"><ele>243.0</ele><time>2026-04-10T11:52:40.041Z</time></trkpt><trkpt lat="44.9978583" lon="7.6068067"><ele>243.0</ele><time>2026-04-10T11:52:44.041Z</time></trkpt><trkpt lat="44.9976771" lon="7.6069095"><ele>243.5</ele><time>2026-04-10T11:54:42.339Z</time></trkpt><trkpt lat="44.9976956" lon="7.6072295"><ele>244.0</ele><time>2026-04-10T11:56:13.626Z</time></trkpt><trkpt lat="44.9979036" lon="7.6077484"><ele>244.5</ele><time>2026-04-10T11:56:20.388Z</time></trkpt><trkpt lat="44.9982337" lon="7.6079991"><ele>245.0</ele><time>2026-04-10T11:56:28.393Z</time></trkpt><trkpt lat="44.9983231" lon="7.6081182"><ele>245.0</ele><time>2026-04-10T11:56:35.321Z</time></trkpt><trkpt lat="45.0010897" lon="7.6038873"><ele>245.0</ele><time>2026-04-10T11:58:03.961Z</time></trkpt><trkpt lat="45.0012137" lon="7.6035711"><ele>245.0</ele><time>2026-04-10T11:58:23.286Z</time></trkpt><trkpt lat="45.0019714" lon="7.6022917"><ele>248.0</ele><time>2026-04-10T11:58:44.19Z</time></trkpt><trkpt lat="45.0030832" lon="7.5998937"><ele>252.0</ele><time>2026-04-10T11:59:23.031Z</time></trkpt><trkpt lat="45.003561" lon="7.5971311"><ele>246.0</ele><time>2026-04-10T12:00:31.436Z</time></trkpt><trkpt lat="45.0072184" lon="7.5948129"><ele>245.0</ele><time>2026-04-10T12:01:49.404Z</time></trkpt><trkpt lat="45.00938" lon="7.59138"><ele>247.0</ele><time>2026-04-10T12:02:56.676Z</time></trkpt><trkpt lat="45.0108147" lon="7.5906308"><ele>258.0</ele><time>2026-04-10T12:03:12.355Z</time></trkpt><trkpt lat="45.0202697" lon="7.5862136"><ele>251.0</ele><time>2026-04-10T12:05:52.402Z</time></trkpt><trkpt lat="45.0207736" lon="7.5820359"><ele>256.0</ele><time>2026-04-10T12:06:48.296Z</time></trkpt><trkpt lat="45.0209728" lon="7.5814532"><ele>254.0</ele><time>2026-04-10T12:07:27.035Z</time></trkpt><trkpt lat="45.0209191" lon="7.5753744"><ele>269.0</ele><time>2026-04-10T12:08:33.837Z</time></trkpt><trkpt lat="45.0147917" lon="7.5425793"><ele>280.0</ele><time>2026-04-10T12:15:21.309Z</time></trkpt><trkpt lat="45.021539" lon="7.5251932"><ele>279.0</ele><time>2026-04-10T12:19:53.532Z</time></trkpt><trkpt lat="45.0215022" lon="7.5226113"><ele>284.0</ele><time>2026-04-10T12:20:23.645Z</time></trkpt><trkpt lat="45.0218404" lon="7.5203795"><ele>285.0</ele><time>2026-04-10T12:20:52.719Z</time></trkpt><trkpt lat="45.022639" lon="7.5173473"><ele>285.0</ele><time>2026-04-10T12:21:31.809Z</time></trkpt><trkpt lat="45.0238254" lon="7.5141697"><ele>289.0</ele><time>2026-04-10T12:22:30.685Z</time></trkpt><trkpt lat="45.0244417" lon="7.5140226"><ele>289.0</ele><time>2026-04-10T12:22:37.097Z</time></trkpt><trkpt lat="45.0249065" lon="7.514367"><ele>290.0</ele><time>2026-04-10T12:22:43.461Z</time></trkpt><trkpt lat="45.0251047" lon="7.5144934"><ele>291.0</ele><time>2026-04-10T12:22:49.906Z</time></trkpt><trkpt lat="45.025521" lon="7.5150739"><ele>288.0</ele><time>2026-04-10T12:22:56.347Z</time></trkpt><trkpt lat="45.0269484" lon="7.516591"><ele>289.0</ele><time>2026-04-10T12:23:39.349Z</time></trkpt><trkpt lat="45.0283966" lon="7.5170174"><ele>297.0</ele><time>2026-04-10T12:24:09.359Z</time></trkpt><trkpt lat="45.0322368" lon="7.5220877"><ele>297.5</ele><time>2026-04-10T12:27:02.299Z</time></trkpt><trkpt lat="45.0325871" lon="7.5217919"><ele>298.0</ele><time>2026-04-10T12:27:16.349Z</time></trkpt><trkpt lat="45.0330424" lon="7.521508"><ele>297.0</ele><time>2026-04-10T12:27:43.133Z</time></trkpt><trkpt lat="45.0368348" lon="7.5229372"><ele>298.0</ele><time>2026-04-10T12:29:07.149Z</time></trkpt><trkpt lat="45.0386933" lon="7.5218124"><ele>301.0</ele><time>2026-04-10T12:29:39.95Z</time></trkpt><trkpt lat="45.0397746" lon="7.5190985"><ele>302.0</ele><time>2026-04-10T12:30:16.189Z</time></trkpt><trkpt lat="45.0406888" lon="7.5193852"><ele>307.0</ele><time>2026-04-10T12:30:28.865Z</time></trkpt><trkpt lat="45.0413452" lon="7.5197453"><ele>319.0</ele><time>2026-04-10T12:30:53.103Z</time></trkpt><trkpt lat="45.0442412" lon="7.5188225"><ele>350.0</ele><time>2026-04-10T12:32:43.443Z</time></trkpt><trkpt lat="45.0618279" lon="7.5183217"><ele>350.0</ele><time>2026-04-10T12:38:19.305Z</time></trkpt><trkpt lat="45.0624507" lon="7.5184836"><ele>350.0</ele><time>2026-04-10T12:38:42.321Z</time></trkpt><trkpt lat="45.062701" lon="7.5183375"><ele>350.0</ele><time>2026-04-10T12:38:55.471Z</time></trkpt><trkpt lat="45.0638614" lon="7.516586"><ele>365.0</ele><time>2026-04-10T12:39:40.865Z</time></trkpt><trkpt lat="45.0661309" lon="7.5160945"><ele>378.0</ele><time>2026-04-10T12:40:30.236Z</time></trkpt><trkpt lat="45.0664757" lon="7.5130102"><ele>386.0</ele><time>2026-04-10T12:41:37.761Z</time></trkpt><trkpt lat="45.0679839" lon="7.511411"><ele>389.5</ele><time>2026-04-10T12:42:43.549Z</time></trkpt><trkpt lat="45.0682879" lon="7.5112276"><ele>393.0</ele><time>2026-04-10T12:42:55.251Z</time></trkpt><trkpt lat="45.0684054" lon="7.5110943"><ele>393.0</ele><time>2026-04-10T12:43:00.751Z</time></trkpt><trkpt lat="45.0688287" lon="7.5107941"><ele>396.0</ele><time>2026-04-10T12:43:33.426Z</time></trkpt><trkpt lat="45.0698813" lon="7.5115951"><ele>413.0</ele><time>2026-04-10T12:44:20.9Z</time></trkpt><trkpt lat="45.069435" lon="7.5105454"><ele>425.0</ele><time>2026-04-10T12:45:37.661Z</time></trkpt><trkpt lat="45.0699046" lon="7.5096562"><ele>429.0</ele><time>2026-04-10T12:46:50.177Z</time></trkpt><trkpt lat="45.0693355" lon="7.509138"><ele>408.0</ele><time>2026-04-10T12:49:16.694Z</time></trkpt><trkpt lat="45.0703704" lon="7.5079533"><ele>389.0</ele><time>2026-04-10T12:50:29.309Z</time></trkpt><trkpt lat="45.0710233" lon="7.5085535"><ele>386.5</ele><time>2026-04-10T12:51:30.014Z</time></trkpt><trkpt lat="45.0713041" lon="7.5089122"><ele>384.0</ele><time>2026-04-10T12:51:50.655Z</time></trkpt><trkpt lat="45.0716213" lon="7.5124478"><ele>376.0</ele><time>2026-04-10T12:52:39.633Z</time></trkpt><trkpt lat="45.0714599" lon="7.5145962"><ele>376.0</ele><time>2026-04-10T12:53:34.157Z</time></trkpt><trkpt lat="45.0715116" lon="7.5152755"><ele>374.0</ele><time>2026-04-10T12:53:46.506Z</time></trkpt><trkpt lat="45.0714768" lon="7.5158851"><ele>372.0</ele><time>2026-04-10T12:53:56.567Z</time></trkpt><trkpt lat="45.0722745" lon="7.519002"><ele>358.0</ele><time>2026-04-10T12:55:14.192Z</time></trkpt><trkpt lat="45.0720132" lon="7.5198038"><ele>358.0</ele><time>2026-04-10T12:55:23.423Z</time></trkpt><trkpt lat="45.0719906" lon="7.5199115"><ele>358.0</ele><time>2026-04-10T12:55:30.174Z</time></trkpt><trkpt lat="45.0723372" lon="7.5199643"><ele>358.0</ele><time>2026-04-10T12:55:36.987Z</time></trkpt><trkpt lat="45.0726172" lon="7.5199351"><ele>357.5</ele><time>2026-04-10T12:55:44.591Z</time></trkpt><trkpt lat="45.0729401" lon="7.5199095"><ele>357.0</ele><time>2026-04-10T12:55:53.679Z</time></trkpt><trkpt lat="45.073082" lon="7.5199539"><ele>357.0</ele><time>2026-04-10T12:58:40.759Z</time></trkpt><trkpt lat="45.0731703" lon="7.5200394"><ele>357.0</ele><time>2026-04-10T12:58:46.173Z</time></trkpt><trkpt lat="45.0737802" lon="7.5199327"><ele>355.0</ele><time>2026-04-10T12:59:11.88Z</time></trkpt><trkpt lat="45.0744275" lon="7.5198518"><ele>352.0</ele><time>2026-04-10T12:59:29.57Z</time></trkpt><trkpt lat="45.0761164" lon="7.5205757"><ele>359.0</ele><time>2026-04-10T13:00:07.713Z</time></trkpt><trkpt lat="45.0766573" lon="7.522293"><ele>352.0</ele><time>2026-04-10T13:00:40.179Z</time></trkpt><trkpt lat="45.0763422" lon="7.5246237"><ele>356.0</ele><time>2026-04-10T13:01:12.923Z</time></trkpt><trkpt lat="45.0778376" lon="7.5247271"><ele>349.0</ele><time>2026-04-10T13:01:53.155Z</time></trkpt><trkpt lat="45.0815211" lon="7.531977"><ele>316.0</ele><time>2026-04-10T13:03:24.003Z</time></trkpt><trkpt lat="45.086563" lon="7.5474381"><ele>317.0</ele><time>2026-04-10T13:08:04.331Z</time></trkpt><trkpt lat="45.0876368" lon="7.545652"><ele>317.0</ele><time>2026-04-10T13:08:45.973Z</time></trkpt><trkpt lat="45.0881648" lon="7.5454321"><ele>311.0</ele><time>2026-04-10T13:08:55.977Z</time></trkpt><trkpt lat="45.0909189" lon="7.5482853"><ele>309.0</ele><time>2026-04-10T13:10:03.966Z</time></trkpt><trkpt lat="45.0903658" lon="7.5492983"><ele>310.0</ele><time>2026-04-10T13:10:17.481Z</time></trkpt><trkpt lat="45.089871" lon="7.5515618"><ele>335.0</ele><time>2026-04-10T13:11:24.462Z</time></trkpt><trkpt lat="45.0961733" lon="7.523337"><ele>304.0</ele><time>2026-04-10T13:14:10.984Z</time></trkpt><trkpt lat="45.0967817" lon="7.5493096"><ele>298.0</ele><time>2026-04-10T13:15:59.51Z</time></trkpt><trkpt lat="45.0956198" lon="7.5478533"><ele>301.0</ele><time>2026-04-10T13:16:24.514Z</time></trkpt><trkpt lat="45.096309" lon="7.5453215"><ele>311.0</ele><time>2026-04-10T13:17:27.689Z</time></trkpt><trkpt lat="45.0950499" lon="7.5425038"><ele>312.0</ele><time>2026-04-10T13:18:10.663Z</time></trkpt><trkpt lat="45.1005293" lon="7.5411349"><ele>322.0</ele><time>2026-04-10T13:21:53.478Z</time></trkpt><trkpt lat="45.1007868" lon="7.5415207"><ele>332.0</ele><time>2026-04-10T13:22:10.196Z</time></trkpt><trkpt lat="45.1002576" lon="7.5444492"><ele>327.0</ele><time>2026-04-10T13:22:44.182Z</time></trkpt><trkpt lat="45.1028081" lon="7.5477485"><ele>327.3333333333333</ele><time>2026-04-10T13:24:03.093Z</time></trkpt><trkpt lat="45.1029955" lon="7.5478957"><ele>327.66666666666663</ele><time>2026-04-10T13:24:18.228Z</time></trkpt><trkpt lat="45.103216" lon="7.5478773"><ele>328.0</ele><time>2026-04-10T13:25:47.013Z</time></trkpt><trkpt lat="45.1035521" lon="7.5474082"><ele>328.0</ele><time>2026-04-10T13:28:29.294Z</time></trkpt><trkpt lat="45.1036191" lon="7.5474078"><ele>328.0</ele><time>2026-04-10T13:29:37.754Z</time></trkpt><trkpt lat="45.1046006" lon="7.5468371"><ele>327.0</ele><time>2026-04-10T13:30:05.231Z</time></trkpt><trkpt lat="45.1050927" lon="7.5464535"><ele>325.0</ele><time>2026-04-10T13:30:17.823Z</time></trkpt><trkpt lat="45.1091097" lon="7.5461419"><ele>326.0</ele><time>2026-04-10T13:31:35.377Z</time></trkpt><trkpt lat="45.1092176" lon="7.5438393"><ele>326.0</ele><time>2026-04-10T13:32:42.952Z</time></trkpt><trkpt lat="45.1092851" lon="7.5444267"><ele>326.0</ele><time>2026-04-10T13:33:08.167Z</time></trkpt><trkpt lat="45.1096381" lon="7.5456953"><ele>325.0</ele><time>2026-04-10T13:34:03.541Z</time></trkpt><trkpt lat="45.1105227" lon="7.545088"><ele>328.0</ele><time>2026-04-10T13:35:11.873Z</time></trkpt><trkpt lat="45.1115154" lon="7.5439782"><ele>326.0</ele><time>2026-04-10T13:35:38.287Z</time></trkpt><trkpt lat="45.1132227" lon="7.5422216"><ele>322.0</ele><time>2026-04-10T13:36:12.964Z</time></trkpt><trkpt lat="45.1147427" lon="7.5423522"><ele>325.0</ele><time>2026-04-10T13:36:53.292Z</time></trkpt><trkpt lat="45.1165868" lon="7.5400838"><ele>326.0</ele><time>2026-04-10T13:38:32.227Z</time></trkpt><trkpt lat="45.1228672" lon="7.5304994"><ele>331.0</ele><time>2026-04-10T13:42:16.54Z</time></trkpt><trkpt lat="45.1225603" lon="7.5295377"><ele>329.0</ele><time>2026-04-10T13:42:23.898Z</time></trkpt><trkpt lat="45.1229188" lon="7.5302528"><ele>324.0</ele><time>2026-04-10T13:42:41.236Z</time></trkpt><trkpt lat="45.1257144" lon="7.5379919"><ele>331.0</ele><time>2026-04-10T13:42:48.959Z</time></trkpt><trkpt lat="45.1279121" lon="7.5253758"><ele>323.0</ele><time>2026-04-10T13:44:04.29Z</time></trkpt><trkpt lat="45.1297377" lon="7.53485"><ele>319.0</ele><time>2026-04-10T13:45:13.892Z</time></trkpt><trkpt lat="45.1337586" lon="7.5454028"><ele>316.0</ele><time>2026-04-10T13:48:21.738Z</time></trkpt><trkpt lat="45.1344498" lon="7.5476181"><ele>314.0</ele><time>2026-04-10T13:48:41.837Z</time></trkpt><trkpt lat="45.1377707" lon="7.5520772"><ele>313.0</ele><time>2026-04-10T13:49:28.664Z</time></trkpt><trkpt lat="45.1373316" lon="7.554117"><ele>311.0</ele><time>2026-04-10T13:50:26.145Z</time></trkpt><trkpt lat="45.1374674" lon="7.5551776"><ele>300.0</ele><time>2026-04-10T13:50:35.055Z</time></trkpt><trkpt lat="45.1363405" lon="7.559489"><ele>297.0</ele><time>2026-04-10T13:51:51.339Z</time></trkpt><trkpt lat="45.1378984" lon="7.5630262"><ele>271.0</ele><time>2026-04-10T13:52:34.401Z</time></trkpt><trkpt lat="45.1395646" lon="7.5738048"><ele>272.0</ele><time>2026-04-10T13:53:25.427Z</time></trkpt><trkpt lat="45.1388993" lon="7.5745682"><ele>271.0</ele><time>2026-04-10T13:54:43.759Z</time></trkpt><trkpt lat="45.1396069" lon="7.5737463"><ele>269.0</ele><time>2026-04-10T13:55:23.974Z</time></trkpt><trkpt lat="45.1406012" lon="7.5731401"><ele>274.0</ele><time>2026-04-10T13:55:32.197Z</time></trkpt><trkpt lat="45.1439512" lon="7.5700576"><ele>275.0</ele><time>2026-04-10T13:56:20.571Z</time></trkpt><trkpt lat="45.1475586" lon="7.5723464"><ele>288.0</ele><time>2026-04-10T13:57:57.125Z</time></trkpt><trkpt lat="45.151902" lon="7.569073"><ele>289.0</ele><time>2026-04-10T14:01:06.421Z</time></trkpt><trkpt lat="45.1472403" lon="7.599271"><ele>291.0</ele><time>2026-04-10T14:09:53.816Z</time></trkpt><trkpt lat="45.1466167" lon="7.5977867"><ele>291.0</ele><time>2026-04-10T14:10:14.432Z</time></trkpt></trkseg><trkseg><trkpt lat="45.1472403" lon="7.599271"><ele>290.0</ele><time>2026-04-10T14:32:40.723Z</time></trkpt><trkpt lat="45.1461955" lon="7.6009314"><ele>290.0</ele><time>2026-04-10T14:35:47.563Z</time></trkpt><trkpt lat="45.1461196" lon="7.6011241"><ele>290.0</ele><time>2026-04-10T14:35:54.952Z</time></trkpt><trkpt lat="45.1437271" lon="7.6055778"><ele>256.0</ele><time>2026-04-10T14:37:34.14Z</time></trkpt><trkpt lat="45.1399406" lon="7.615263"><ele>257.0</ele><time>2026-04-10T14:39:28.373Z</time></trkpt><trkpt lat="45.1399464" lon="7.6186491"><ele>258.0</ele><time>2026-04-10T14:40:29.879Z</time></trkpt><trkpt lat="45.1405933" lon="7.6207262"><ele>258.0</ele><time>2026-04-10T14:40:47.742Z</time></trkpt><trkpt lat="45.1359906" lon="7.6261662"><ele>262.0</ele><time>2026-04-10T14:41:58.388Z</time></trkpt><trkpt lat="45.1351805" lon="7.6256981"><ele>263.0</ele><time>2026-04-10T14:42:41.372Z</time></trkpt><trkpt lat="45.1339407" lon="7.6299973"><ele>259.0</ele><time>2026-04-10T14:43:48.371Z</time></trkpt><trkpt lat="45.1335107" lon="7.6314201"><ele>260.0</ele><time>2026-04-10T14:44:51.979Z</time></trkpt><trkpt lat="45.1329728" lon="7.633693"><ele>253.0</ele><time>2026-04-10T14:45:22.167Z</time></trkpt><trkpt lat="45.1358622" lon="7.6353804"><ele>253.0</ele><time>2026-04-10T14:46:04.213Z</time></trkpt><trkpt lat="45.1364439" lon="7.6356572"><ele>255.0</ele><time>2026-04-10T14:46:58.328Z</time></trkpt><trkpt lat="45.1396313" lon="7.6383101"><ele>256.0</ele><time>2026-04-10T14:48:09.112Z</time></trkpt><trkpt lat="45.142504" lon="7.6383348"><ele>259.0</ele><time>2026-04-10T14:49:22.484Z</time></trkpt><trkpt lat="45.1456046" lon="7.6339869"><ele>260.0</ele><time>2026-04-10T14:50:55.054Z</time></trkpt><trkpt lat="45.1468699" lon="7.6336827"><ele>253.0</ele><time>2026-04-10T14:51:11.575Z</time></trkpt><trkpt lat="45.1424605" lon="7.650881"><ele>253.0</ele><time>2026-04-10T15:01:43.563Z</time></trkpt><trkpt lat="45.1426251" lon="7.6517852"><ele>253.0</ele><time>2026-04-10T15:02:20.793Z</time></trkpt><trkpt lat="45.1427671" lon="7.6518944"><ele>253.0</ele><time>2026-04-10T15:02:28.495Z</time></trkpt><trkpt lat="45.1441898" lon="7.6523218"><ele>251.0</ele><time>2026-04-10T15:02:43.268Z</time></trkpt><trkpt lat="45.1455373" lon="7.6528755"><ele>250.0</ele><time>2026-04-10T15:03:28.973Z</time></trkpt><trkpt lat="45.1447338" lon="7.6546125"><ele>251.0</ele><time>2026-04-10T15:04:21.638Z</time></trkpt><trkpt lat="45.144532" lon="7.6580594"><ele>250.0</ele><time>2026-04-10T15:04:46.647Z</time></trkpt><trkpt lat="45.1436514" lon="7.6609018"><ele>247.0</ele><time>2026-04-10T15:05:21.937Z</time></trkpt><trkpt lat="45.1426936" lon="7.6615861"><ele>248.0</ele><time>2026-04-10T15:05:53.026Z</time></trkpt><trkpt lat="45.1418945" lon="7.6610356"><ele>238.0</ele><time>2026-04-10T15:06:35.408Z</time></trkpt><trkpt lat="45.1368649" lon="7.685977"><ele>238.0</ele><time>2026-04-10T15:16:41.278Z</time></trkpt><trkpt lat="45.1367555" lon="7.6860209"><ele>238.0</ele><time>2026-04-10T15:16:53.853Z</time></trkpt><trkpt lat="45.1359995" lon="7.6887587"><ele>234.0</ele><time>2026-04-10T15:16:59.171Z</time></trkpt><trkpt lat="45.1357078" lon="7.6896296"><ele>234.0</ele><time>2026-04-10T15:17:12.177Z</time></trkpt><trkpt lat="45.1355008" lon="7.6897941"><ele>234.0</ele><time>2026-04-10T15:18:18.672Z</time></trkpt><trkpt lat="45.1348883" lon="7.694268"><ele>225.0</ele><time>2026-04-10T15:19:44.596Z</time></trkpt><trkpt lat="45.1361187" lon="7.7309811"><ele>218.0</ele><time>2026-04-10T15:30:13.229Z</time></trkpt><trkpt lat="45.139375" lon="7.7352104"><ele>221.0</ele><time>2026-04-10T15:31:56.608Z</time></trkpt><trkpt lat="45.1395378" lon="7.7361384"><ele>221.0</ele><time>2026-04-10T15:32:16.603Z</time></trkpt><trkpt lat="45.1412019" lon="7.7375101"><ele>220.0</ele><time>2026-04-10T15:33:02.878Z</time></trkpt><trkpt lat="45.1403479" lon="7.7407247"><ele>218.0</ele><time>2026-04-10T15:33:25.602Z</time></trkpt><trkpt lat="45.1413752" lon="7.7403099"><ele>218.5</ele><time>2026-04-10T15:33:39.727Z</time></trkpt><trkpt lat="45.1413986" lon="7.7400316"><ele>219.0</ele><time>2026-04-10T15:33:46.348Z</time></trkpt><trkpt lat="45.1411053" lon="7.7376213"><ele>219.0</ele><time>2026-04-10T15:34:17.678Z</time></trkpt><trkpt lat="45.1408652" lon="7.740046"><ele>222.0</ele><time>2026-04-10T15:34:36.651Z</time></trkpt><trkpt lat="45.139079" lon="7.7402169"><ele>220.0</ele><time>2026-04-10T15:34:42.907Z</time></trkpt><trkpt lat="45.1403794" lon="7.7358832"><ele>216.0</ele><time>2026-04-10T15:34:51.405Z</time></trkpt><trkpt lat="45.13749" lon="7.7351737"><ele>212.0</ele><time>2026-04-10T15:35:23.953Z</time></trkpt><trkpt lat="45.136505" lon="7.7357636"><ele>218.0</ele><time>2026-04-10T15:36:06.263Z</time></trkpt><trkpt lat="45.1337532" lon="7.7365399"><ele>219.0</ele><time>2026-04-10T15:36:27.959Z</time></trkpt><trkpt lat="45.1325678" lon="7.7330161"><ele>213.0</ele><time>2026-04-10T15:36:41.102Z</time></trkpt><trkpt lat="45.1316285" lon="7.7369974"><ele>213.0</ele><time>2026-04-10T15:38:00.434Z</time></trkpt><trkpt lat="45.1324795" lon="7.739756"><ele>214.0</ele><time>2026-04-10T15:38:32.132Z</time></trkpt><trkpt lat="45.1331916" lon="7.7520894"><ele>214.0</ele><time>2026-04-10T15:42:44.627Z</time></trkpt><trkpt lat="45.132982" lon="7.7524809"><ele>214.0</ele><time>2026-04-10T15:42:50.94Z</time></trkpt><trkpt lat="45.1330221" lon="7.7527218"><ele>210.0</ele><time>2026-04-10T15:42:56.86Z</time></trkpt><trkpt lat="45.132625" lon="7.751615"><ele>210.0</ele><time>2026-04-10T15:44:05.589Z</time></trkpt><trkpt lat="45.1326917" lon="7.7516467"><ele>210.0</ele><time>2026-04-10T15:44:06.589Z</time></trkpt><trkpt lat="45.1326983" lon="7.7517467"><ele>210.0</ele><time>2026-04-10T15:44:14.043Z</time></trkpt><trkpt lat="45.1328767" lon="7.7524757"><ele>210.0</ele><time>2026-04-10T15:44:27.745Z</time></trkpt><trkpt lat="45.13271" lon="7.751755"><ele>214.0</ele><time>2026-04-10T15:44:31.747Z</time></trkpt><trkpt lat="45.1330624" lon="7.7525745"><ele>214.0</ele><time>2026-04-10T15:44:47.29Z</time></trkpt><trkpt lat="45.1331922" lon="7.7522097"><ele>214.0</ele><time>2026-04-10T15:45:25.816Z</time></trkpt><trkpt lat="45.1329652" lon="7.7525515"><ele>215.5</ele><time>2026-04-10T15:46:05.728Z</time></trkpt><trkpt lat="45.1332669" lon="7.7521703"><ele>217.0</ele><time>2026-04-10T15:46:46.236Z</time></trkpt><trkpt lat="45.132872" lon="7.7515378"><ele>211.0</ele><time>2026-04-10T15:46:54.296Z</time></trkpt><trkpt lat="45.1320145" lon="7.7514752"><ele>211.0</ele><time>2026-04-10T15:47:07.69Z</time></trkpt><trkpt lat="45.1317411" lon="7.7514547"><ele>211.0</ele><time>2026-04-10T15:47:13.042Z</time></trkpt><trkpt lat="45.1311005" lon="7.7516039"><ele>215.0</ele><time>2026-04-10T15:47:21.398Z</time></trkpt><trkpt lat="45.1312018" lon="7.7524958"><ele>215.0</ele><time>2026-04-10T15:47:27.056Z</time></trkpt><trkpt lat="45.1314211" lon="7.7525146"><ele>215.0</ele><time>2026-04-10T15:47:34.524Z</time></trkpt><trkpt lat="45.1312351" lon="7.7522699"><ele>215.0</ele><time>2026-04-10T15:48:02.481Z</time></trkpt><trkpt lat="45.1311509" lon="7.7520497"><ele>215.0</ele><time>2026-04-10T15:48:08.22Z</time></trkpt><trkpt lat="45.1311054" lon="7.7526592"><ele>215.0</ele><time>2026-04-10T15:48:36.389Z</time></trkpt><trkpt lat="45.1311553" lon="7.752847"><ele>215.0</ele><time>2026-04-10T15:48:42.032Z</time></trkpt><trkpt lat="45.1319023" lon="7.7531055"><ele>213.5</ele><time>2026-04-10T15:48:55.429Z</time></trkpt><trkpt lat="45.1319439" lon="7.7531763"><ele>212.0</ele><time>2026-04-10T15:49:02.07Z</time></trkpt><trkpt lat="45.131598" lon="7.7537182"><ele>212.0</ele><time>2026-04-10T15:49:08.247Z</time></trkpt><trkpt lat="45.131633" lon="7.7538283"><ele>212.0</ele><time>2026-04-10T15:49:14.532Z</time></trkpt><trkpt lat="45.1321718" lon="7.7543159"><ele>212.5</ele><time>2026-04-10T15:49:21.086Z</time></trkpt><trkpt lat="45.1320669" lon="7.7549077"><ele>213.0</ele><time>2026-04-10T15:49:27.524Z</time></trkpt><trkpt lat="45.1320373" lon="7.7550972"><ele>214.0</ele><time>2026-04-10T15:49:34.71Z</time></trkpt><trkpt lat="45.1310605" lon="7.7568601"><ele>214.0</ele><time>2026-04-10T15:49:49.368Z</time></trkpt><trkpt lat="45.1310815" lon="7.7566137"><ele>214.0</ele><time>2026-04-10T15:50:01.807Z</time></trkpt><trkpt lat="45.1310076" lon="7.756551"><ele>214.0</ele><time>2026-04-10T15:50:08.858Z</time></trkpt><trkpt lat="45.130841" lon="7.7563036"><ele>213.0</ele><time>2026-04-10T15:50:15.565Z</time></trkpt><trkpt lat="45.1306574" lon="7.7565295"><ele>212.0</ele><time>2026-04-10T15:50:22.425Z</time></trkpt><trkpt lat="45.130479" lon="7.7567833"><ele>212.0</ele><time>2026-04-10T15:50:29.049Z</time></trkpt><trkpt lat="45.13013" lon="7.7570784"><ele>212.0</ele><time>2026-04-10T15:50:36.211Z</time></trkpt><trkpt lat="45.1296352" lon="7.7573497"><ele>211.5</ele><time>2026-04-10T15:50:43.853Z</time></trkpt><trkpt lat="45.129372" lon="7.757735"><ele>211.0</ele><time>2026-04-10T15:50:50.777Z</time></trkpt><trkpt lat="45.1292337" lon="7.7583232"><ele>208.0</ele><time>2026-04-10T15:50:59.246Z</time></trkpt><trkpt lat="45.1287055" lon="7.7584747"><ele>208.0</ele><time>2026-04-10T15:51:32.033Z</time></trkpt><trkpt lat="45.1286114" lon="7.7584633"><ele>208.0</ele><time>2026-04-10T15:52:34.31Z</time></trkpt><trkpt lat="45.1285566" lon="7.7583665"><ele>208.0</ele><time>2026-04-10T15:52:40.982Z</time></trkpt><trkpt lat="45.1285815" lon="7.7582139"><ele>208.0</ele><time>2026-04-10T15:55:25.83Z</time></trkpt><trkpt lat="45.1284619" lon="7.7581257"><ele>208.0</ele><time>2026-04-10T15:55:39.044Z</time></trkpt><trkpt lat="45.1285948" lon="7.7581897"><ele>208.0</ele><time>2026-04-10T15:56:39.152Z</time></trkpt><trkpt lat="45.1286516" lon="7.7582572"><ele>208.0</ele><time>2026-04-10T15:56:47.031Z</time></trkpt><trkpt lat="45.1285767" lon="7.7581612"><ele>208.0</ele><time>2026-04-10T15:58:32.369Z</time></trkpt><trkpt lat="45.1284869" lon="7.7581052"><ele>208.0</ele><time>2026-04-10T15:58:39.166Z</time></trkpt><trkpt lat="45.1284238" lon="7.7581822"><ele>208.0</ele><time>2026-04-10T15:58:45.612Z</time></trkpt><trkpt lat="45.1285716" lon="7.7582882"><ele>208.0</ele><time>2026-04-10T15:59:00.049Z</time></trkpt><trkpt lat="45.1285645" lon="7.7584497"><ele>208.0</ele><time>2026-04-10T15:59:06.634Z</time></trkpt><trkpt lat="45.128559" lon="7.7583444"><ele>208.0</ele><time>2026-04-10T15:59:12.959Z</time></trkpt><trkpt lat="45.1285323" lon="7.7582161"><ele>208.0</ele><time>2026-04-10T15:59:21.13Z</time></trkpt><trkpt lat="45.1284326" lon="7.7582291"><ele>208.0</ele><time>2026-04-10T15:59:31.063Z</time></trkpt><trkpt lat="45.1286228" lon="7.758284"><ele>208.0</ele><time>2026-04-10T16:00:14.085Z</time></trkpt></trkseg><trkseg><trkpt lat="45.1145957" lon="7.7634561"><ele>205.0</ele><time>2026-04-10T16:37:00.192Z</time></trkpt><trkpt lat="45.1143129" lon="7.7652137"><ele>197.0</ele><time>2026-04-10T16:37:45.261Z</time></trkpt><trkpt lat="45.1119148" lon="7.7661045"><ele>198.0</ele><time>2026-04-10T16:37:51.598Z</time></trkpt><trkpt lat="45.1098613" lon="7.7644719"><ele>200.0</ele><time>2026-04-10T16:38:38.502Z</time></trkpt><trkpt lat="45.1076813" lon="7.7637887"><ele>203.0</ele><time>2026-04-10T16:39:16.268Z</time></trkpt><trkpt lat="45.1073143" lon="7.7624517"><ele>206.0</ele><time>2026-04-10T16:39:35.751Z</time></trkpt><trkpt lat="45.1065069" lon="7.7626931"><ele>201.0</ele><time>2026-04-10T16:39:42.097Z</time></trkpt><trkpt lat="45.1045136" lon="7.7624957"><ele>201.0</ele><time>2026-04-10T16:40:14.309Z</time></trkpt><trkpt lat="45.1041573" lon="7.761971"><ele>204.0</ele><time>2026-04-10T16:40:32.502Z</time></trkpt><trkpt lat="45.1029549" lon="7.7617548"><ele>214.0</ele><time>2026-04-10T16:40:46.561Z</time></trkpt><trkpt lat="45.1027685" lon="7.7654845"><ele>214.0</ele><time>2026-04-10T16:41:28.109Z</time></trkpt><trkpt lat="45.1026105" lon="7.7653099"><ele>214.0</ele><time>2026-04-10T16:41:55.706Z</time></trkpt><trkpt lat="45.1034804" lon="7.760265"><ele>201.0</ele><time>2026-04-10T16:42:02.312Z</time></trkpt><trkpt lat="45.1044767" lon="7.7621613"><ele>201.0</ele><time>2026-04-10T16:42:21.305Z</time></trkpt><trkpt lat="45.1045032" lon="7.7623846"><ele>201.0</ele><time>2026-04-10T16:42:27.906Z</time></trkpt><trkpt lat="45.1033301" lon="7.7604367"><ele>204.0</ele><time>2026-04-10T16:42:47.914Z</time></trkpt><trkpt lat="45.1022239" lon="7.7610579"><ele>209.0</ele><time>2026-04-10T16:43:07.606Z</time></trkpt><trkpt lat="45.1022246" lon="7.7646824"><ele>209.0</ele><time>2026-04-10T16:43:14.625Z</time></trkpt><trkpt lat="45.1020513" lon="7.7645421"><ele>209.0</ele><time>2026-04-10T16:43:21.248Z</time></trkpt><trkpt lat="45.1020414" lon="7.7651343"><ele>209.0</ele><time>2026-04-10T16:43:40.48Z</time></trkpt><trkpt lat="45.1017803" lon="7.7651195"><ele>209.0</ele><time>2026-04-10T16:43:47.007Z</time></trkpt><trkpt lat="45.1014804" lon="7.7647969"><ele>210.0</ele><time>2026-04-10T16:43:53.497Z</time></trkpt><trkpt lat="45.1010594" lon="7.7645122"><ele>210.0</ele><time>2026-04-10T16:44:00.544Z</time></trkpt><trkpt lat="45.100863" lon="7.7643146"><ele>210.0</ele><time>2026-04-10T16:44:07.561Z</time></trkpt><trkpt lat="45.1004252" lon="7.763786"><ele>210.0</ele><time>2026-04-10T16:44:14.263Z</time></trkpt><trkpt lat="45.1001379" lon="7.7634257"><ele>210.0</ele><time>2026-04-10T16:44:23.098Z</time></trkpt><trkpt lat="45.099782" lon="7.7630295"><ele>209.0</ele><time>2026-04-10T16:44:28.892Z</time></trkpt><trkpt lat="45.0994842" lon="7.7625739"><ele>208.0</ele><time>2026-04-10T16:44:35.78Z</time></trkpt><trkpt lat="45.0993704" lon="7.762366"><ele>208.0</ele><time>2026-04-10T16:44:42.28Z</time></trkpt><trkpt lat="45.0991477" lon="7.7623315"><ele>208.0</ele><time>2026-04-10T16:44:49.075Z</time></trkpt><trkpt lat="45.0982518" lon="7.7605574"><ele>209.5</ele><time>2026-04-10T16:45:00.64Z</time></trkpt><trkpt lat="45.098128" lon="7.7601305"><ele>211.0</ele><time>2026-04-10T16:45:19.955Z</time></trkpt><trkpt lat="45.09798" lon="7.7595283"><ele>211.5</ele><time>2026-04-10T16:45:26.123Z</time></trkpt><trkpt lat="45.0979681" lon="7.759283"><ele>212.0</ele><time>2026-04-10T16:45:39.835Z</time></trkpt><trkpt lat="45.0973271" lon="7.758185"><ele>208.0</ele><time>2026-04-10T16:45:45.399Z</time></trkpt><trkpt lat="45.097431" lon="7.7573941"><ele>211.0</ele><time>2026-04-10T16:45:59.05Z</time></trkpt><trkpt lat="45.0973356" lon="7.7568795"><ele>214.0</ele><time>2026-04-10T16:46:04.416Z</time></trkpt><trkpt lat="45.0971833" lon="7.7563766"><ele>214.0</ele><time>2026-04-10T16:46:11.941Z</time></trkpt><trkpt lat="45.0971873" lon="7.756204"><ele>214.0</ele><time>2026-04-10T16:46:24.857Z</time></trkpt><trkpt lat="45.0969241" lon="7.7554912"><ele>213.5</ele><time>2026-04-10T16:46:31.144Z</time></trkpt><trkpt lat="45.0967805" lon="7.7552156"><ele>213.0</ele><time>2026-04-10T16:46:37.364Z</time></trkpt><trkpt lat="45.0965331" lon="7.754539"><ele>212.5</ele><time>2026-04-10T16:46:42.766Z</time></trkpt><trkpt lat="45.0963362" lon="7.7540058"><ele>212.0</ele><time>2026-04-10T16:46:49.799Z</time></trkpt><trkpt lat="45.0962874" lon="7.7539046"><ele>211.0</ele><time>2026-04-10T16:46:56.024Z</time></trkpt><trkpt lat="45.0954994" lon="7.7530672"><ele>211.0</ele><time>2026-04-10T16:47:08.569Z</time></trkpt><trkpt lat="45.0946348" lon="7.751576"><ele>213.0</ele><time>2026-04-10T16:47:14.922Z</time></trkpt><trkpt lat="45.0931182" lon="7.7500838"><ele>211.0</ele><time>2026-04-10T16:47:34.002Z</time></trkpt><trkpt lat="45.0931606" lon="7.7510911"><ele>210.0</ele><time>2026-04-10T16:47:58.226Z</time></trkpt><trkpt lat="45.0930748" lon="7.7466056"><ele>216.0</ele><time>2026-04-10T16:48:18.453Z</time></trkpt><trkpt lat="45.0923824" lon="7.7454369"><ele>216.0</ele><time>2026-04-10T16:48:31.214Z</time></trkpt><trkpt lat="45.0923031" lon="7.745392"><ele>216.0</ele><time>2026-04-10T16:48:37.591Z</time></trkpt><trkpt lat="45.0912873" lon="7.7439881"><ele>220.0</ele><time>2026-04-10T16:49:07.723Z</time></trkpt><trkpt lat="45.0914839" lon="7.7466429"><ele>220.0</ele><time>2026-04-10T16:49:32.65Z</time></trkpt><trkpt lat="45.0896863" lon="7.7393759"><ele>210.0</ele><time>2026-04-10T16:49:52.704Z</time></trkpt><trkpt lat="45.0947274" lon="7.7316729"><ele>210.0</ele><time>2026-04-10T16:51:52.759Z</time></trkpt><trkpt lat="45.0944493" lon="7.728707"><ele>214.0</ele><time>2026-04-10T16:52:29.665Z</time></trkpt><trkpt lat="45.0961657" lon="7.7185865"><ele>214.0</ele><time>2026-04-10T16:53:14.732Z</time></trkpt><trkpt lat="45.0894141" lon="7.7247196"><ele>214.0</ele><time>2026-04-10T16:54:25.817Z</time></trkpt><trkpt lat="45.0892456" lon="7.7246902"><ele>214.0</ele><time>2026-04-10T16:54:32.071Z</time></trkpt><trkpt lat="45.0858202" lon="7.723098"><ele>212.0</ele><time>2026-04-10T16:55:16.143Z</time></trkpt><trkpt lat="45.0829294" lon="7.7248477"><ele>222.0</ele><time>2026-04-10T16:56:25.25Z</time></trkpt><trkpt lat="45.0806137" lon="7.7303537"><ele>219.0</ele><time>2026-04-10T16:58:00.215Z</time></trkpt><trkpt lat="45.080421" lon="7.7294648"><ele>222.0</ele><time>2026-04-10T16:58:39.181Z</time></trkpt><trkpt lat="45.0806263" lon="7.7305104"><ele>222.0</ele><time>2026-04-10T16:58:51.01Z</time></trkpt><trkpt lat="45.0801314" lon="7.730822"><ele>223.33333333333331</ele><time>2026-04-10T16:58:57.882Z</time></trkpt><trkpt lat="45.0800467" lon="7.7312157"><ele>224.66666666666666</ele><time>2026-04-10T16:59:05.391Z</time></trkpt><trkpt lat="45.0798984" lon="7.7312572"><ele>226.0</ele><time>2026-04-10T16:59:11.456Z</time></trkpt><trkpt lat="45.0798099" lon="7.7312453"><ele>226.0</ele><time>2026-04-10T16:59:17.915Z</time></trkpt><trkpt lat="45.0796322" lon="7.7314081"><ele>226.0</ele><time>2026-04-10T16:59:23.628Z</time></trkpt><trkpt lat="45.0798979" lon="7.7313591"><ele>226.0</ele><time>2026-04-10T16:59:44.029Z</time></trkpt><trkpt lat="45.0801296" lon="7.7321576"><ele>226.0</ele><time>2026-04-10T16:59:50.483Z</time></trkpt><trkpt lat="45.0802574" lon="7.7326065"><ele>226.0</ele><time>2026-04-10T16:59:56.526Z</time></trkpt><trkpt lat="45.0802918" lon="7.7330007"><ele>227.5</ele><time>2026-04-10T17:00:02.825Z</time></trkpt><trkpt lat="45.08042" lon="7.7333509"><ele>229.0</ele><time>2026-04-10T17:00:10.108Z</time></trkpt><trkpt lat="45.0800603" lon="7.7333377"><ele>232.0</ele><time>2026-04-10T17:00:16.243Z</time></trkpt><trkpt lat="45.0796169" lon="7.733955"><ele>232.0</ele><time>2026-04-10T17:00:29.222Z</time></trkpt><trkpt lat="45.0795836" lon="7.734347"><ele>232.0</ele><time>2026-04-10T17:00:36.088Z</time></trkpt><trkpt lat="45.0794862" lon="7.7347702"><ele>233.5</ele><time>2026-04-10T17:00:43.266Z</time></trkpt><trkpt lat="45.0794698" lon="7.7351067"><ele>235.0</ele><time>2026-04-10T17:00:48.906Z</time></trkpt><trkpt lat="45.0793296" lon="7.7353387"><ele>236.5</ele><time>2026-04-10T17:00:55.539Z</time></trkpt><trkpt lat="45.0791037" lon="7.7356118"><ele>238.0</ele><time>2026-04-10T17:01:01.929Z</time></trkpt><trkpt lat="45.078912" lon="7.7358857"><ele>238.0</ele><time>2026-04-10T17:01:07.636Z</time></trkpt><trkpt lat="45.0788296" lon="7.7362132"><ele>238.0</ele><time>2026-04-10T17:01:14.614Z</time></trkpt><trkpt lat="45.0787395" lon="7.73661"><ele>238.0</ele><time>2026-04-10T17:01:20.736Z</time></trkpt><trkpt lat="45.0785537" lon="7.7368217"><ele>238.0</ele><time>2026-04-10T17:01:27.223Z</time></trkpt><trkpt lat="45.0784309" lon="7.7370857"><ele>238.66666666666666</ele><time>2026-04-10T17:01:33.734Z</time></trkpt><trkpt lat="45.0782616" lon="7.7375109"><ele>239.33333333333331</ele><time>2026-04-10T17:01:39.712Z</time></trkpt><trkpt lat="45.0783314" lon="7.7375987"><ele>240.0</ele><time>2026-04-10T17:01:46.982Z</time></trkpt><trkpt lat="45.0778228" lon="7.737956"><ele>241.5</ele><time>2026-04-10T17:01:53.419Z</time></trkpt><trkpt lat="45.07761" lon="7.7382045"><ele>243.0</ele><time>2026-04-10T17:01:59.818Z</time></trkpt><trkpt lat="45.0773423" lon="7.7384612"><ele>245.5</ele><time>2026-04-10T17:02:05.505Z</time></trkpt><trkpt lat="45.0770613" lon="7.7385671"><ele>248.0</ele><time>2026-04-10T17:02:11.699Z</time></trkpt><trkpt lat="45.076935" lon="7.7387214"><ele>248.0</ele><time>2026-04-10T17:02:18.495Z</time></trkpt><trkpt lat="45.076763" lon="7.7386981"><ele>248.0</ele><time>2026-04-10T17:02:25.263Z</time></trkpt><trkpt lat="45.0764204" lon="7.7389827"><ele>251.0</ele><time>2026-04-10T17:02:30.732Z</time></trkpt><trkpt lat="45.0760243" lon="7.7395731"><ele>251.0</ele><time>2026-04-10T17:02:37.268Z</time></trkpt><trkpt lat="45.0761109" lon="7.7396777"><ele>251.0</ele><time>2026-04-10T17:02:43.064Z</time></trkpt><trkpt lat="45.0761667" lon="7.7395035"><ele>251.0</ele><time>2026-04-10T17:02:49.496Z</time></trkpt><trkpt lat="45.0760584" lon="7.7393963"><ele>251.0</ele><time>2026-04-10T17:02:56.318Z</time></trkpt><trkpt lat="45.0759349" lon="7.7395117"><ele>251.0</ele><time>2026-04-10T17:03:09.654Z</time></trkpt><trkpt lat="45.0760671" lon="7.7395807"><ele>251.0</ele><time>2026-04-10T17:03:24.37Z</time></trkpt><trkpt lat="45.0764424" lon="7.7400192"><ele>253.0</ele><time>2026-04-10T17:03:30.733Z</time></trkpt><trkpt lat="45.0756355" lon="7.7406334"><ele>266.0</ele><time>2026-04-10T17:03:50.614Z</time></trkpt><trkpt lat="45.074631" lon="7.7416088"><ele>256.0</ele><time>2026-04-10T17:03:56.843Z</time></trkpt><trkpt lat="45.0751703" lon="7.7430571"><ele>267.0</ele><time>2026-04-10T17:04:25.28Z</time></trkpt><trkpt lat="45.0748296" lon="7.7434634"><ele>278.0</ele><time>2026-04-10T17:04:38.261Z</time></trkpt><trkpt lat="45.0747533" lon="7.7434326"><ele>291.0</ele><time>2026-04-10T17:04:52.269Z</time></trkpt><trkpt lat="45.0739857" lon="7.7444478"><ele>291.0</ele><time>2026-04-10T17:05:05.614Z</time></trkpt><trkpt lat="45.0739274" lon="7.7445749"><ele>291.0</ele><time>2026-04-10T17:05:13.255Z</time></trkpt><trkpt lat="45.073807" lon="7.7452087"><ele>288.0</ele><time>2026-04-10T17:05:27.335Z</time></trkpt><trkpt lat="45.0739793" lon="7.7456297"><ele>285.0</ele><time>2026-04-10T17:05:34.339Z</time></trkpt><trkpt lat="45.0738892" lon="7.7461137"><ele>283.3333333333333</ele><time>2026-04-10T17:05:41.356Z</time></trkpt><trkpt lat="45.0739129" lon="7.7464315"><ele>281.66666666666663</ele><time>2026-04-10T17:05:48.874Z</time></trkpt><trkpt lat="45.0739682" lon="7.7466092"><ele>280.0</ele><time>2026-04-10T17:05:55.692Z</time></trkpt><trkpt lat="45.073585" lon="7.7470376"><ele>278.0</ele><time>2026-04-10T17:06:03.272Z</time></trkpt><trkpt lat="45.0734844" lon="7.7474186"><ele>276.0</ele><time>2026-04-10T17:06:16.823Z</time></trkpt><trkpt lat="45.0734241" lon="7.7473155"><ele>274.0</ele><time>2026-04-10T17:06:24.38Z</time></trkpt><trkpt lat="45.07321" lon="7.7476755"><ele>281.0</ele><time>2026-04-10T17:06:30.668Z</time></trkpt><trkpt lat="45.0725873" lon="7.7494337"><ele>281.0</ele><time>2026-04-10T17:07:14.794Z</time></trkpt><trkpt lat="45.0726589" lon="7.7495286"><ele>281.0</ele><time>2026-04-10T17:07:21.073Z</time></trkpt><trkpt lat="45.0726397" lon="7.7496686"><ele>281.0</ele><time>2026-04-10T17:07:27.346Z</time></trkpt><trkpt lat="45.0721041" lon="7.7515096"><ele>297.0</ele><time>2026-04-10T17:07:46.196Z</time></trkpt><trkpt lat="45.0710631" lon="7.7521144"><ele>297.0</ele><time>2026-04-10T17:08:43.165Z</time></trkpt><trkpt lat="45.070904" lon="7.7520248"><ele>297.0</ele><time>2026-04-10T17:08:55.97Z</time></trkpt><trkpt lat="45.0699046" lon="7.7531055"><ele>300.0</ele><time>2026-04-10T17:09:08.641Z</time></trkpt><trkpt lat="45.0695186" lon="7.7531371"><ele>303.0</ele><time>2026-04-10T17:09:34.184Z</time></trkpt><trkpt lat="45.0693107" lon="7.7531019"><ele>318.0</ele><time>2026-04-10T17:09:40.045Z</time></trkpt><trkpt lat="45.0693154" lon="7.7566969"><ele>311.0</ele><time>2026-04-10T17:10:55.776Z</time></trkpt><trkpt lat="45.0683054" lon="7.7556535"><ele>318.0</ele><time>2026-04-10T17:11:08.319Z</time></trkpt><trkpt lat="45.0692337" lon="7.7566143"><ele>413.0</ele><time>2026-04-10T17:11:20.894Z</time></trkpt><trkpt lat="45.0730016" lon="7.7606398"><ele>248.0</ele><time>2026-04-10T17:21:42.178Z</time></trkpt><trkpt lat="45.0799673" lon="7.6695061"><ele>578.0</ele><time>2026-04-10T17:32:05.09Z</time></trkpt><trkpt lat="45.0778164" lon="7.7643257"><ele>549.0</ele><time>2026-04-10T17:35:19.33Z</time></trkpt><trkpt lat="45.0767042" lon="7.7630377"><ele>549.0</ele><time>2026-04-10T17:35:40.279Z</time></trkpt><trkpt lat="45.0771909" lon="7.7634133"><ele>549.0</ele><time>2026-04-10T17:35:53.132Z</time></trkpt><trkpt lat="45.0772585" lon="7.7634512"><ele>549.0</ele><time>2026-04-10T17:37:04.096Z</time></trkpt><trkpt lat="45.07762" lon="7.7644086"><ele>558.0</ele><time>2026-04-10T17:37:11.679Z</time></trkpt><trkpt lat="45.0778284" lon="7.7645244"><ele>567.0</ele><time>2026-04-10T17:37:37.206Z</time></trkpt><trkpt lat="45.0777615" lon="7.7644829"><ele>576.0</ele><time>2026-04-10T17:37:49.891Z</time></trkpt><trkpt lat="45.0775623" lon="7.7644456"><ele>576.0</ele><time>2026-04-10T17:37:54.991Z</time></trkpt><trkpt lat="45.0776344" lon="7.7644513"><ele>576.0</ele><time>2026-04-10T17:38:02.619Z</time></trkpt><trkpt lat="45.0778293" lon="7.7646485"><ele>576.0</ele><time>2026-04-10T17:38:09.012Z</time></trkpt><trkpt lat="45.0766492" lon="7.7678004"><ele>576.0</ele><time>2026-04-10T17:39:24.403Z</time></trkpt><trkpt lat="45.0774944" lon="7.7643788"><ele>605.0</ele><time>2026-04-10T17:39:36.883Z</time></trkpt><trkpt lat="45.0777431" lon="7.7664498"><ele>618.0</ele><time>2026-04-10T17:40:33.285Z</time></trkpt><trkpt lat="45.0776515" lon="7.7672301"><ele>617.0</ele><time>2026-04-10T17:41:53.027Z</time></trkpt><trkpt lat="45.0776633" lon="7.7687799"><ele>616.0</ele><time>2026-04-10T17:42:43.462Z</time></trkpt><trkpt lat="45.075529" lon="7.773196"><ele>617.0</ele><time>2026-04-10T17:42:49.719Z</time></trkpt><trkpt lat="45.0776704" lon="7.7687575"><ele>617.0</ele><time>2026-04-10T17:42:56.017Z</time></trkpt><trkpt lat="45.0777502" lon="7.768731"><ele>617.0</ele><time>2026-04-10T17:43:01.264Z</time></trkpt><trkpt lat="45.0777879" lon="7.7684672"><ele>617.0</ele><time>2026-04-10T17:43:08.711Z</time></trkpt><trkpt lat="45.0782585" lon="7.7670391"><ele>656.0</ele><time>2026-04-10T17:43:33.78Z</time></trkpt><trkpt lat="45.0791661" lon="7.7667846"><ele>606.0</ele><time>2026-04-10T17:43:39.293Z</time></trkpt><trkpt lat="45.0785964" lon="7.7651685"><ele>640.0</ele><time>2026-04-10T17:43:52.727Z</time></trkpt><trkpt lat="45.0792709" lon="7.7654669"><ele>656.0</ele><time>2026-04-10T17:43:59.153Z</time></trkpt><trkpt lat="45.0794979" lon="7.7663834"><ele>656.0</ele><time>2026-04-10T17:44:05.483Z</time></trkpt><trkpt lat="45.0797497" lon="7.7664539"><ele>656.0</ele><time>2026-04-10T17:44:11.756Z</time></trkpt><trkpt lat="45.0803061" lon="7.7658612"><ele>658.6666666666666</ele><time>2026-04-10T17:44:30.899Z</time></trkpt><trkpt lat="45.080389" lon="7.7658589"><ele>661.3333333333334</ele><time>2026-04-10T17:44:37.276Z</time></trkpt><trkpt lat="45.0805483" lon="7.7662652"><ele>664.0</ele><time>2026-04-10T17:44:56.803Z</time></trkpt><trkpt lat="45.0804161" lon="7.7667403"><ele>660.0</ele><time>2026-04-10T17:45:03.152Z</time></trkpt><trkpt lat="45.081237" lon="7.7664776"><ele>660.0</ele><time>2026-04-10T17:45:28.817Z</time></trkpt><trkpt lat="45.0813597" lon="7.7662756"><ele>660.0</ele><time>2026-04-10T17:45:35.236Z</time></trkpt><trkpt lat="45.0803782" lon="7.7667759"><ele>668.0</ele><time>2026-04-10T17:48:02.16Z</time></trkpt><trkpt lat="45.0807033" lon="7.7671183"><ele>676.0</ele><time>2026-04-10T17:50:39.787Z</time></trkpt><trkpt lat="45.0812019" lon="7.7676838"><ele>607.0</ele><time>2026-04-10T17:57:47.427Z</time></trkpt><trkpt lat="45.0780844" lon="7.7712291"><ele>607.0</ele><time>2026-04-10T18:02:05.483Z</time></trkpt><trkpt lat="45.0781578" lon="7.7712613"><ele>607.0</ele><time>2026-04-10T18:04:24.659Z</time></trkpt><trkpt lat="45.0783652" lon="7.7715349"><ele>607.0</ele><time>2026-04-10T18:04:34.471Z</time></trkpt><trkpt lat="45.0782966" lon="7.771803"><ele>624.0</ele><time>2026-04-10T18:04:42.091Z</time></trkpt><trkpt lat="45.0777329" lon="7.7742016"><ele>624.0</ele><time>2026-04-10T18:05:00.765Z</time></trkpt><trkpt lat="45.0776941" lon="7.7739476"><ele>624.0</ele><time>2026-04-10T18:05:26.435Z</time></trkpt><trkpt lat="45.0771498" lon="7.7737337"><ele>624.0</ele><time>2026-04-10T18:06:41.523Z</time></trkpt><trkpt lat="45.0774429" lon="7.7735851"><ele>624.0</ele><time>2026-04-10T18:06:50.918Z</time></trkpt><trkpt lat="45.0779702" lon="7.7697027"><ele>646.0</ele><time>2026-04-10T18:07:08.409Z</time></trkpt><trkpt lat="45.0760735" lon="7.7740774"><ele>646.0</ele><time>2026-04-10T18:07:32.993Z</time></trkpt><trkpt lat="45.0759246" lon="7.7738234"><ele>646.0</ele><time>2026-04-10T18:07:58.893Z</time></trkpt><trkpt lat="45.075739" lon="7.7733978"><ele>641.5</ele><time>2026-04-10T18:08:06.04Z</time></trkpt><trkpt lat="45.0755181" lon="7.7739043"><ele>637.0</ele><time>2026-04-10T18:08:14.991Z</time></trkpt><trkpt lat="45.0754431" lon="7.7748865"><ele>637.0</ele><time>2026-04-10T18:08:29.305Z</time></trkpt><trkpt lat="45.0753878" lon="7.7749607"><ele>637.0</ele><time>2026-04-10T18:08:40.79Z</time></trkpt><trkpt lat="45.0752994" lon="7.775093"><ele>637.0</ele><time>2026-04-10T18:08:56.01Z</time></trkpt><trkpt lat="45.0731744" lon="7.7919567"><ele>557.0</ele><time>2026-04-10T18:15:05.044Z</time></trkpt><trkpt lat="45.0732895" lon="7.7909136"><ele>553.0</ele><time>2026-04-10T18:15:34.649Z</time></trkpt><trkpt lat="45.0731675" lon="7.7917241"><ele>548.0</ele><time>2026-04-10T18:19:34.231Z</time></trkpt><trkpt lat="45.0732251" lon="7.7922932"><ele>543.0</ele><time>2026-04-10T18:19:45.261Z</time></trkpt><trkpt lat="45.0773185" lon="7.7976392"><ele>554.0</ele><time>2026-04-10T18:22:28.936Z</time></trkpt><trkpt lat="45.0774497" lon="7.7990825"><ele>546.0</ele><time>2026-04-10T18:23:06.444Z</time></trkpt><trkpt lat="45.0779241" lon="7.7995655"><ele>546.0</ele><time>2026-04-10T18:23:12.707Z</time></trkpt><trkpt lat="45.0780017" lon="7.8000715"><ele>546.0</ele><time>2026-04-10T18:23:19.012Z</time></trkpt><trkpt lat="45.0888584" lon="7.7980257"><ele>438.0</ele><time>2026-04-10T18:30:48.523Z</time></trkpt><trkpt lat="45.0763372" lon="7.8234419"><ele>454.0</ele><time>2026-04-10T18:35:07.958Z</time></trkpt><trkpt lat="45.0771532" lon="7.818739"><ele>410.0</ele><time>2026-04-10T18:35:34.18Z</time></trkpt><trkpt lat="45.0685669" lon="7.817527"><ele>349.0</ele><time>2026-04-10T18:37:22.776Z</time></trkpt><trkpt lat="45.0658826" lon="7.8260094"><ele>364.0</ele><time>2026-04-10T18:39:48.228Z</time></trkpt><trkpt lat="45.068549" lon="7.8343524"><ele>361.0</ele><time>2026-04-10T18:40:13.113Z</time></trkpt><trkpt lat="45.0688406" lon="7.8353217"><ele>324.0</ele><time>2026-04-10T18:45:24.365Z</time></trkpt><trkpt lat="45.0647995" lon="7.8473427"><ele>355.0</ele><time>2026-04-10T18:49:13.643Z</time></trkpt><trkpt lat="45.0643107" lon="7.8497548"><ele>355.0</ele><time>2026-04-10T18:50:21.308Z</time></trkpt><trkpt lat="45.0644086" lon="7.8500093"><ele>355.0</ele><time>2026-04-10T18:50:34.567Z</time></trkpt><trkpt lat="45.0646512" lon="7.8504311"><ele>356.0</ele><time>2026-04-10T18:50:58.623Z</time></trkpt><trkpt lat="45.0641128" lon="7.8506229"><ele>355.5</ele><time>2026-04-10T18:52:05.371Z</time></trkpt><trkpt lat="45.064297" lon="7.8500446"><ele>355.0</ele><time>2026-04-10T18:52:41.365Z</time></trkpt><trkpt lat="45.0646933" lon="7.8499233"><ele>355.0</ele><time>2026-04-10T18:53:16.213Z</time></trkpt><trkpt lat="45.0646317" lon="7.8499583"><ele>355.0</ele><time>2026-04-10T18:53:18.715Z</time></trkpt><trkpt lat="45.0644463" lon="7.8497322"><ele>355.0</ele><time>2026-04-10T18:55:59.176Z</time></trkpt><trkpt lat="45.0644275" lon="7.8495361"><ele>360.0</ele><time>2026-04-10T18:56:07.223Z</time></trkpt><trkpt lat="45.0655783" lon="7.8481631"><ele>363.0</ele><time>2026-04-10T18:57:28.72Z</time></trkpt><trkpt lat="45.061742" lon="7.8514108"><ele>348.0</ele><time>2026-04-10T18:58:37.774Z</time></trkpt><trkpt lat="45.0592433" lon="7.8541283"><ele>348.0</ele><time>2026-04-10T18:59:55.429Z</time></trkpt><trkpt lat="45.059335" lon="7.8540967"><ele>348.0</ele><time>2026-04-10T19:00:18.671Z</time></trkpt><trkpt lat="45.0427265" lon="7.8664429"><ele>297.0</ele><time>2026-04-10T19:09:42.642Z</time></trkpt><trkpt lat="45.0407927" lon="7.8656406"><ele>300.0</ele><time>2026-04-10T19:10:23.778Z</time></trkpt><trkpt lat="45.0390937" lon="7.8667252"><ele>303.0</ele><time>2026-04-10T19:11:06.723Z</time></trkpt><trkpt lat="45.0385501" lon="7.866843"><ele>303.0</ele><time>2026-04-10T19:11:29.581Z</time></trkpt><trkpt lat="45.0382739" lon="7.8665593"><ele>303.0</ele><time>2026-04-10T19:11:51.986Z</time></trkpt><trkpt lat="45.0371126" lon="7.8671874"><ele>281.0</ele><time>2026-04-10T19:12:35.904Z</time></trkpt><trkpt lat="45.0369689" lon="7.8691889"><ele>286.0</ele><time>2026-04-10T19:13:16.713Z</time></trkpt><trkpt lat="45.0364016" lon="7.8704929"><ele>293.0</ele><time>2026-04-10T19:13:31.295Z</time></trkpt><trkpt lat="45.037077" lon="7.8723252"><ele>284.0</ele><time>2026-04-10T19:14:34.78Z</time></trkpt><trkpt lat="45.0385254" lon="7.8741799"><ele>283.0</ele><time>2026-04-10T19:15:42.174Z</time></trkpt><trkpt lat="45.0392754" lon="7.8744882"><ele>282.0</ele><time>2026-04-10T19:15:56.856Z</time></trkpt><trkpt lat="45.040239" lon="7.8752349"><ele>292.0</ele><time>2026-04-10T19:16:17.971Z</time></trkpt><trkpt lat="45.0404743" lon="7.8763102"><ele>282.0</ele><time>2026-04-10T19:16:37.921Z</time></trkpt><trkpt lat="45.0402386" lon="7.8742377"><ele>316.0</ele><time>2026-04-10T19:17:26.54Z</time></trkpt><trkpt lat="45.0437622" lon="7.8779827"><ele>346.0</ele><time>2026-04-10T19:20:01.25Z</time></trkpt><trkpt lat="45.0472403" lon="7.8790447"><ele>338.0</ele><time>2026-04-10T19:21:08.515Z</time></trkpt><trkpt lat="45.0489935" lon="7.8791737"><ele>330.0</ele><time>2026-04-10T19:22:33.368Z</time></trkpt><trkpt lat="45.0487912" lon="7.8799097"><ele>346.0</ele><time>2026-04-10T19:23:18.585Z</time></trkpt><trkpt lat="45.0472652" lon="7.8790457"><ele>293.0</ele><time>2026-04-10T19:23:40.915Z</time></trkpt><trkpt lat="45.0454368" lon="7.8880178"><ele>310.0</ele><time>2026-04-10T19:25:33.914Z</time></trkpt><trkpt lat="45.0430936" lon="7.9005405"><ele>322.0</ele><time>2026-04-10T19:33:41.135Z</time></trkpt><trkpt lat="45.0436441" lon="7.9024991"><ele>317.0</ele><time>2026-04-10T19:36:11.393Z</time></trkpt><trkpt lat="45.0429283" lon="7.9031491"><ele>315.0</ele><time>2026-04-10T19:37:44.517Z</time></trkpt><trkpt lat="45.0421449" lon="7.9032735"><ele>313.0</ele><time>2026-04-10T19:38:03.84Z</time></trkpt><trkpt lat="45.0409334" lon="7.9029823"><ele>297.0</ele><time>2026-04-10T19:38:37.348Z</time></trkpt><trkpt lat="45.0394658" lon="7.9039322"><ele>295.0</ele><time>2026-04-10T19:39:01.248Z</time></trkpt><trkpt lat="45.0381371" lon="7.9042059"><ele>302.0</ele><time>2026-04-10T19:39:48.959Z</time></trkpt><trkpt lat="45.0372058" lon="7.9006741"><ele>309.0</ele><time>2026-04-10T19:40:36.907Z</time></trkpt><trkpt lat="45.0323258" lon="7.9050941"><ele>309.0</ele><time>2026-04-10T19:42:21.989Z</time></trkpt><trkpt lat="45.0318058" lon="7.9054156"><ele>308.5</ele><time>2026-04-10T19:42:37.852Z</time></trkpt><trkpt lat="45.031561" lon="7.9057065"><ele>308.0</ele><time>2026-04-10T19:42:47.52Z</time></trkpt><trkpt lat="45.0301269" lon="7.905219"><ele>296.0</ele><time>2026-04-10T19:44:04.262Z</time></trkpt><trkpt lat="45.0289183" lon="7.9052167"><ele>296.0</ele><time>2026-04-10T19:44:36.418Z</time></trkpt><trkpt lat="45.0291167" lon="7.9051333"><ele>296.0</ele><time>2026-04-10T19:44:41.919Z</time></trkpt><trkpt lat="45.0292683" lon="7.9051667"><ele>296.0</ele><time>2026-04-10T19:45:35.04Z</time></trkpt><trkpt lat="45.0293433" lon="7.9052267"><ele>296.0</ele><time>2026-04-10T19:50:00.042Z</time></trkpt><trkpt lat="45.0294033" lon="7.9053067"><ele>297.0</ele><time>2026-04-10T19:50:04.041Z</time></trkpt><trkpt lat="45.0294633" lon="7.9053367"><ele>298.0</ele><time>2026-04-10T19:50:07.041Z</time></trkpt><trkpt lat="45.0295367" lon="7.9053483"><ele>299.0</ele><time>2026-04-10T19:50:10.042Z</time></trkpt><trkpt lat="45.0296033" lon="7.9053783"><ele>300.0</ele><time>2026-04-10T19:50:13.041Z</time></trkpt><trkpt lat="45.0296867" lon="7.9053967"><ele>301.0</ele><time>2026-04-10T19:50:17.041Z</time></trkpt><trkpt lat="45.029755" lon="7.9054133"><ele>302.0</ele><time>2026-04-10T19:50:20.042Z</time></trkpt><trkpt lat="45.0298333" lon="7.90544"><ele>303.0</ele><time>2026-04-10T19:50:23.041Z</time></trkpt><trkpt lat="45.029905" lon="7.9054983"><ele>303.0</ele><time>2026-04-10T19:50:27.041Z</time></trkpt><trkpt lat="45.0299383" lon="7.9055933"><ele>303.0</ele><time>2026-04-10T19:50:30.042Z</time></trkpt><trkpt lat="45.0299217" lon="7.905705"><ele>303.0</ele><time>2026-04-10T19:50:33.042Z</time></trkpt><trkpt lat="45.02989" lon="7.905835"><ele>303.0</ele><time>2026-04-10T19:50:36.042Z</time></trkpt><trkpt lat="45.02986" lon="7.90595"><ele>303.0</ele><time>2026-04-10T19:50:38.041Z</time></trkpt><trkpt lat="45.0298267" lon="7.9060617"><ele>303.0</ele><time>2026-04-10T19:50:40.041Z</time></trkpt><trkpt lat="45.02979" lon="7.9061767"><ele>302.0</ele><time>2026-04-10T19:50:42.043Z</time></trkpt><trkpt lat="45.0297617" lon="7.90628"><ele>301.0</ele><time>2026-04-10T19:50:44.041Z</time></trkpt><trkpt lat="45.0297283" lon="7.9064083"><ele>300.0</ele><time>2026-04-10T19:50:46.043Z</time></trkpt><trkpt lat="45.02969" lon="7.9065533"><ele>299.0</ele><time>2026-04-10T19:50:48.042Z</time></trkpt><trkpt lat="45.02965" lon="7.9067183"><ele>298.0</ele><time>2026-04-10T19:50:50.041Z</time></trkpt><trkpt lat="45.0296117" lon="7.906865"><ele>297.8</ele><time>2026-04-10T19:50:52.042Z</time></trkpt><trkpt lat="45.0295467" lon="7.9070083"><ele>297.6</ele><time>2026-04-10T19:50:54.041Z</time></trkpt><trkpt lat="45.0294817" lon="7.9071317"><ele>297.4</ele><time>2026-04-10T19:50:56.041Z</time></trkpt><trkpt lat="45.0294067" lon="7.9072117"><ele>297.2</ele><time>2026-04-10T19:50:58.042Z</time></trkpt><trkpt lat="45.0293317" lon="7.9072767"><ele>297.0</ele><time>2026-04-10T19:51:00.042Z</time></trkpt><trkpt lat="45.029265" lon="7.9073117"><ele>297.0</ele><time>2026-04-10T19:51:02.042Z</time></trkpt><trkpt lat="45.0291733" lon="7.9073517"><ele>297.0</ele><time>2026-04-10T19:51:05.042Z</time></trkpt><trkpt lat="45.029105" lon="7.9073683"><ele>297.0</ele><time>2026-04-10T19:51:07.042Z</time></trkpt><trkpt lat="45.0290333" lon="7.9073717"><ele>297.0</ele><time>2026-04-10T19:51:09.042Z</time></trkpt><trkpt lat="45.0289633" lon="7.9073733"><ele>297.0</ele><time>2026-04-10T19:51:11.042Z</time></trkpt><trkpt lat="45.028885" lon="7.9073783"><ele>297.0</ele><time>2026-04-10T19:51:13.041Z</time></trkpt><trkpt lat="45.0288117" lon="7.90738"><ele>296.5</ele><time>2026-04-10T19:51:15.041Z</time></trkpt><trkpt lat="45.028735" lon="7.9073917"><ele>296.0</ele><time>2026-04-10T19:51:17.04Z</time></trkpt><trkpt lat="45.0286583" lon="7.9074133"><ele>295.5</ele><time>2026-04-10T19:51:19.04Z</time></trkpt><trkpt lat="45.0285883" lon="7.907445"><ele>295.0</ele><time>2026-04-10T19:51:21.041Z</time></trkpt><trkpt lat="45.02852" lon="7.9074767"><ele>294.5</ele><time>2026-04-10T19:51:23.042Z</time></trkpt><trkpt lat="45.0284483" lon="7.9075033"><ele>294.0</ele><time>2026-04-10T19:51:25.042Z</time></trkpt><trkpt lat="45.0283717" lon="7.9075333"><ele>293.6666666666667</ele><time>2026-04-10T19:51:27.041Z</time></trkpt><trkpt lat="45.0283" lon="7.90757"><ele>293.3333333333333</ele><time>2026-04-10T19:51:29.041Z</time></trkpt><trkpt lat="45.0282317" lon="7.90761"><ele>293.0</ele><time>2026-04-10T19:51:31.041Z</time></trkpt><trkpt lat="45.0281567" lon="7.9076433"><ele>292.66666666666663</ele><time>2026-04-10T19:51:33.041Z</time></trkpt><trkpt lat="45.0280767" lon="7.9076833"><ele>292.3333333333333</ele><time>2026-04-10T19:51:35.042Z</time></trkpt><trkpt lat="45.0279933" lon="7.907705"><ele>292.0</ele><time>2026-04-10T19:51:37.041Z</time></trkpt><trkpt lat="45.0279017" lon="7.9077083"><ele>292.0</ele><time>2026-04-10T19:51:39.041Z</time></trkpt><trkpt lat="45.027805" lon="7.90771"><ele>292.0</ele><time>2026-04-10T19:51:41.042Z</time></trkpt><trkpt lat="45.0277067" lon="7.9077"><ele>292.0</ele><time>2026-04-10T19:51:43.041Z</time></trkpt><trkpt lat="45.0276083" lon="7.9076933"><ele>292.0</ele><time>2026-04-10T19:51:45.041Z</time></trkpt><trkpt lat="45.0275067" lon="7.90768"><ele>292.0</ele><time>2026-04-10T19:51:47.041Z</time></trkpt><trkpt lat="45.0274" lon="7.907665"><ele>291.8</ele><time>2026-04-10T19:51:49.041Z</time></trkpt><trkpt lat="45.027285" lon="7.9076717"><ele>291.6</ele><time>2026-04-10T19:51:51.041Z</time></trkpt><trkpt lat="45.02718" lon="7.9076817"><ele>291.40000000000003</ele><time>2026-04-10T19:51:53.042Z</time></trkpt><trkpt lat="45.0270733" lon="7.907675"><ele>291.2</ele><time>2026-04-10T19:51:55.041Z</time></trkpt><trkpt lat="45.026975" lon="7.9076533"><ele>291.0</ele><time>2026-04-10T19:51:57.042Z</time></trkpt><trkpt lat="45.0268767" lon="7.9076333"><ele>291.0</ele><time>2026-04-10T19:51:59.041Z</time></trkpt><trkpt lat="45.0267767" lon="7.90762"><ele>291.0</ele><time>2026-04-10T19:52:01.041Z</time></trkpt><trkpt lat="45.0266667" lon="7.907605"><ele>291.0</ele><time>2026-04-10T19:52:03.041Z</time></trkpt><trkpt lat="45.02655" lon="7.9075783"><ele>291.0</ele><time>2026-04-10T19:52:05.041Z</time></trkpt><trkpt lat="45.0264417" lon="7.907555"><ele>291.0</ele><time>2026-04-10T19:52:07.042Z</time></trkpt><trkpt lat="45.0263283" lon="7.9075067"><ele>290.6</ele><time>2026-04-10T19:52:09.042Z</time></trkpt><trkpt lat="45.0262183" lon="7.9074617"><ele>290.20000000000005</ele><time>2026-04-10T19:52:11.042Z</time></trkpt><trkpt lat="45.0261117" lon="7.907415"><ele>289.79999999999995</ele><time>2026-04-10T19:52:13.042Z</time></trkpt><trkpt lat="45.0260083" lon="7.9073717"><ele>289.4</ele><time>2026-04-10T19:52:15.042Z</time></trkpt><trkpt lat="45.0259017" lon="7.90733"><ele>289.0</ele><time>2026-04-10T19:52:17.042Z</time></trkpt><trkpt lat="45.0257867" lon="7.90728"><ele>288.25</ele><time>2026-04-10T19:52:19.041Z</time></trkpt><trkpt lat="45.0256767" lon="7.907235"><ele>287.5</ele><time>2026-04-10T19:52:21.042Z</time></trkpt><trkpt lat="45.02556" lon="7.9071867"><ele>286.75</ele><time>2026-04-10T19:52:23.041Z</time></trkpt><trkpt lat="45.025445" lon="7.9071367"><ele>286.0</ele><time>2026-04-10T19:52:25.043Z</time></trkpt><trkpt lat="45.0253317" lon="7.9070883"><ele>286.0</ele><time>2026-04-10T19:52:27.042Z</time></trkpt><trkpt lat="45.02522" lon="7.907045"><ele>286.0</ele><time>2026-04-10T19:52:29.041Z</time></trkpt><trkpt lat="45.025115" lon="7.907"><ele>286.0</ele><time>2026-04-10T19:52:31.041Z</time></trkpt><trkpt lat="45.0250067" lon="7.9069683"><ele>286.0</ele><time>2026-04-10T19:52:33.041Z</time></trkpt><trkpt lat="45.0249" lon="7.9069383"><ele>286.0</ele><time>2026-04-10T19:52:35.041Z</time></trkpt><trkpt lat="45.0247967" lon="7.9069067"><ele>285.40000000000003</ele><time>2026-04-10T19:52:37.041Z</time></trkpt><trkpt lat="45.024695" lon="7.90687"><ele>284.8</ele><time>2026-04-10T19:52:39.041Z</time></trkpt><trkpt lat="45.0245883" lon="7.9068417"><ele>284.20000000000005</ele><time>2026-04-10T19:52:41.041Z</time></trkpt><trkpt lat="45.024475" lon="7.906815"><ele>283.6</ele><time>2026-04-10T19:52:43.041Z</time></trkpt><trkpt lat="45.0243667" lon="7.9067867"><ele>283.0</ele><time>2026-04-10T19:52:45.041Z</time></trkpt><trkpt lat="45.0242617" lon="7.9067633"><ele>283.0</ele><time>2026-04-10T19:52:47.042Z</time></trkpt><trkpt lat="45.0241567" lon="7.9067467"><ele>283.0</ele><time>2026-04-10T19:52:49.04Z</time></trkpt><trkpt lat="45.024045" lon="7.9067333"><ele>283.0</ele><time>2026-04-10T19:52:51.042Z</time></trkpt><trkpt lat="45.0239433" lon="7.90671"><ele>283.0</ele><time>2026-04-10T19:52:53.042Z</time></trkpt><trkpt lat="45.02384" lon="7.9066817"><ele>283.0</ele><time>2026-04-10T19:52:55.04Z</time></trkpt><trkpt lat="45.0237367" lon="7.9066583"><ele>283.4</ele><time>2026-04-10T19:52:57.042Z</time></trkpt><trkpt lat="45.0236367" lon="7.906645"><ele>283.8</ele><time>2026-04-10T19:52:59.041Z</time></trkpt><trkpt lat="45.0235433" lon="7.9066233"><ele>284.2</ele><time>2026-04-10T19:53:01.04Z</time></trkpt><trkpt lat="45.0234467" lon="7.9066017"><ele>284.6</ele><time>2026-04-10T19:53:03.041Z</time></trkpt><trkpt lat="45.0233533" lon="7.9065833"><ele>285.0</ele><time>2026-04-10T19:53:05.041Z</time></trkpt><trkpt lat="45.02326" lon="7.90657"><ele>285.0</ele><time>2026-04-10T19:53:07.041Z</time></trkpt><trkpt lat="45.0231683" lon="7.906555"><ele>285.0</ele><time>2026-04-10T19:53:09.041Z</time></trkpt><trkpt lat="45.0230717" lon="7.9065383"><ele>285.0</ele><time>2026-04-10T19:53:11.041Z</time></trkpt><trkpt lat="45.0229683" lon="7.9065183"><ele>285.0</ele><time>2026-04-10T19:53:13.041Z</time></trkpt><trkpt lat="45.0228633" lon="7.906495"><ele>285.0</ele><time>2026-04-10T19:53:15.042Z</time></trkpt><trkpt lat="45.0227533" lon="7.90647"><ele>285.0</ele><time>2026-04-10T19:53:17.04Z</time></trkpt><trkpt lat="45.0226417" lon="7.906445"><ele>285.0</ele><time>2026-04-10T19:53:19.041Z</time></trkpt><trkpt lat="45.0225317" lon="7.9064217"><ele>285.0</ele><time>2026-04-10T19:53:21.043Z</time></trkpt><trkpt lat="45.0224183" lon="7.9064033"><ele>285.0</ele><time>2026-04-10T19:53:23.041Z</time></trkpt><trkpt lat="45.0223167" lon="7.9063783"><ele>285.0</ele><time>2026-04-10T19:53:25.041Z</time></trkpt><trkpt lat="45.0222383" lon="7.9063683"><ele>284.6</ele><time>2026-04-10T19:53:27.041Z</time></trkpt><trkpt lat="45.02216" lon="7.9064383"><ele>284.2</ele><time>2026-04-10T19:53:30.041Z</time></trkpt><trkpt lat="45.02213" lon="7.906545"><ele>283.8</ele><time>2026-04-10T19:53:32.041Z</time></trkpt><trkpt lat="45.0221083" lon="7.9066817"><ele>283.4</ele><time>2026-04-10T19:53:34.04Z</time></trkpt><trkpt lat="45.0220867" lon="7.906835"><ele>283.0</ele><time>2026-04-10T19:53:36.041Z</time></trkpt><trkpt lat="45.0220683" lon="7.907"><ele>282.4</ele><time>2026-04-10T19:53:38.042Z</time></trkpt><trkpt lat="45.022055" lon="7.9071683"><ele>281.8</ele><time>2026-04-10T19:53:40.04Z</time></trkpt><trkpt lat="45.02204" lon="7.9073333"><ele>281.2</ele><time>2026-04-10T19:53:42.042Z</time></trkpt><trkpt lat="45.0220233" lon="7.9075133"><ele>280.6</ele><time>2026-04-10T19:53:44.041Z</time></trkpt><trkpt lat="45.0220133" lon="7.9076017"><ele>280.0</ele><time>2026-04-10T19:53:45.041Z</time></trkpt><trkpt lat="45.0220067" lon="7.9076917"><ele>279.8</ele><time>2026-04-10T19:53:46.04Z</time></trkpt><trkpt lat="45.021995" lon="7.9078567"><ele>279.6</ele><time>2026-04-10T19:53:48.041Z</time></trkpt><trkpt lat="45.0219883" lon="7.90801"><ele>279.4</ele><time>2026-04-10T19:53:50.041Z</time></trkpt><trkpt lat="45.0219683" lon="7.9081533"><ele>279.2</ele><time>2026-04-10T19:53:52.041Z</time></trkpt><trkpt lat="45.0219517" lon="7.908295"><ele>279.0</ele><time>2026-04-10T19:53:54.041Z</time></trkpt><trkpt lat="45.021935" lon="7.90844"><ele>278.8</ele><time>2026-04-10T19:53:56.041Z</time></trkpt><trkpt lat="45.0219267" lon="7.9085983"><ele>278.59999999999997</ele><time>2026-04-10T19:53:58.04Z</time></trkpt><trkpt lat="45.021915" lon="7.9087417"><ele>278.4</ele><time>2026-04-10T19:54:00.041Z</time></trkpt><trkpt lat="45.0219017" lon="7.9088883"><ele>278.2</ele><time>2026-04-10T19:54:02.04Z</time></trkpt><trkpt lat="45.02188" lon="7.909035"><ele>278.0</ele><time>2026-04-10T19:54:04.04Z</time></trkpt><trkpt lat="45.0218683" lon="7.9091683"><ele>278.0</ele><time>2026-04-10T19:54:06.043Z</time></trkpt><trkpt lat="45.021845" lon="7.90929"><ele>278.0</ele><time>2026-04-10T19:54:08.042Z</time></trkpt><trkpt lat="45.0218133" lon="7.909415"><ele>278.0</ele><time>2026-04-10T19:54:10.041Z</time></trkpt><trkpt lat="45.021775" lon="7.9095433"><ele>278.0</ele><time>2026-04-10T19:54:12.041Z</time></trkpt><trkpt lat="45.021735" lon="7.90967"><ele>278.0</ele><time>2026-04-10T19:54:14.04Z</time></trkpt><trkpt lat="45.021695" lon="7.9097933"><ele>278.0</ele><time>2026-04-10T19:54:16.041Z</time></trkpt><trkpt lat="45.02166" lon="7.90991"><ele>278.0</ele><time>2026-04-10T19:54:18.041Z</time></trkpt><trkpt lat="45.021625" lon="7.9100383"><ele>278.0</ele><time>2026-04-10T19:54:20.041Z</time></trkpt><trkpt lat="45.021595" lon="7.9101733"><ele>278.0</ele><time>2026-04-10T19:54:22.04Z</time></trkpt><trkpt lat="45.0215567" lon="7.9103067"><ele>278.0</ele><time>2026-04-10T19:54:24.042Z</time></trkpt><trkpt lat="45.0215167" lon="7.9104333"><ele>277.8</ele><time>2026-04-10T19:54:26.041Z</time></trkpt><trkpt lat="45.0214767" lon="7.910555"><ele>277.6</ele><time>2026-04-10T19:54:28.041Z</time></trkpt><trkpt lat="45.021445" lon="7.9106933"><ele>277.4</ele><time>2026-04-10T19:54:30.043Z</time></trkpt><trkpt lat="45.021445" lon="7.91082"><ele>277.2</ele><time>2026-04-10T19:54:32.042Z</time></trkpt><trkpt lat="45.0214683" lon="7.910945"><ele>277.0</ele><time>2026-04-10T19:54:34.042Z</time></trkpt><trkpt lat="45.0214833" lon="7.9110683"><ele>277.0</ele><time>2026-04-10T19:54:36.041Z</time></trkpt><trkpt lat="45.021485" lon="7.911195"><ele>277.0</ele><time>2026-04-10T19:54:38.042Z</time></trkpt><trkpt lat="45.0214833" lon="7.911325"><ele>277.0</ele><time>2026-04-10T19:54:40.042Z</time></trkpt><trkpt lat="45.021485" lon="7.9114633"><ele>277.0</ele><time>2026-04-10T19:54:42.041Z</time></trkpt><trkpt lat="45.021485" lon="7.91159"><ele>277.0</ele><time>2026-04-10T19:54:44.042Z</time></trkpt><trkpt lat="45.0214833" lon="7.9117317"><ele>278.2</ele><time>2026-04-10T19:54:46.04Z</time></trkpt><trkpt lat="45.0214967" lon="7.91186"><ele>279.4</ele><time>2026-04-10T19:54:48.042Z</time></trkpt><trkpt lat="45.0215017" lon="7.9119933"><ele>280.6</ele><time>2026-04-10T19:54:50.041Z</time></trkpt><trkpt lat="45.0214967" lon="7.9121283"><ele>281.8</ele><time>2026-04-10T19:54:52.041Z</time></trkpt><trkpt lat="45.0214833" lon="7.912255"><ele>283.0</ele><time>2026-04-10T19:54:54.041Z</time></trkpt><trkpt lat="45.0214617" lon="7.9123833"><ele>283.0</ele><time>2026-04-10T19:54:56.042Z</time></trkpt><trkpt lat="45.0214317" lon="7.9125"><ele>283.0</ele><time>2026-04-10T19:54:58.041Z</time></trkpt><trkpt lat="45.02141" lon="7.9126033"><ele>283.0</ele><time>2026-04-10T19:55:00.04Z</time></trkpt><trkpt lat="45.021375" lon="7.912705"><ele>283.0</ele><time>2026-04-10T19:55:02.041Z</time></trkpt><trkpt lat="45.0213633" lon="7.9128183"><ele>283.0</ele><time>2026-04-10T19:55:04.041Z</time></trkpt><trkpt lat="45.021355" lon="7.91295"><ele>283.0</ele><time>2026-04-10T19:55:06.04Z</time></trkpt><trkpt lat="45.02134" lon="7.9130817"><ele>282.8333333333333</ele><time>2026-04-10T19:55:08.04Z</time></trkpt><trkpt lat="45.0213283" lon="7.9132083"><ele>282.66666666666663</ele><time>2026-04-10T19:55:10.042Z</time></trkpt><trkpt lat="45.02131" lon="7.9133317"><ele>282.5</ele><time>2026-04-10T19:55:12.041Z</time></trkpt><trkpt lat="45.0212883" lon="7.9134567"><ele>282.3333333333333</ele><time>2026-04-10T19:55:14.041Z</time></trkpt><trkpt lat="45.0212617" lon="7.91357"><ele>282.1666666666667</ele><time>2026-04-10T19:55:16.041Z</time></trkpt><trkpt lat="45.0212267" lon="7.913685"><ele>282.0</ele><time>2026-04-10T19:55:18.041Z</time></trkpt><trkpt lat="45.021185" lon="7.9138083"><ele>282.0</ele><time>2026-04-10T19:55:20.042Z</time></trkpt><trkpt lat="45.0211467" lon="7.9139267"><ele>282.0</ele><time>2026-04-10T19:55:22.042Z</time></trkpt><trkpt lat="45.0211267" lon="7.9140367"><ele>282.0</ele><time>2026-04-10T19:55:24.041Z</time></trkpt><trkpt lat="45.0211133" lon="7.9141517"><ele>282.0</ele><time>2026-04-10T19:55:26.041Z</time></trkpt><trkpt lat="45.0211067" lon="7.9142617"><ele>282.0</ele><time>2026-04-10T19:55:28.041Z</time></trkpt><trkpt lat="45.021115" lon="7.914375"><ele>282.0</ele><time>2026-04-10T19:55:30.041Z</time></trkpt><trkpt lat="45.0210967" lon="7.9144933"><ele>282.0</ele><time>2026-04-10T19:55:32.04Z</time></trkpt><trkpt lat="45.02108" lon="7.9145983"><ele>282.0</ele><time>2026-04-10T19:55:34.041Z</time></trkpt><trkpt lat="45.0210833" lon="7.9146933"><ele>282.0</ele><time>2026-04-10T19:55:36.04Z</time></trkpt><trkpt lat="45.02108" lon="7.9148183"><ele>282.0</ele><time>2026-04-10T19:55:39.043Z</time></trkpt><trkpt lat="45.021075" lon="7.914955"><ele>282.0</ele><time>2026-04-10T19:55:42.041Z</time></trkpt><trkpt lat="45.02107" lon="7.9150667"><ele>282.0</ele><time>2026-04-10T19:55:44.042Z</time></trkpt><trkpt lat="45.021075" lon="7.9151717"><ele>282.0</ele><time>2026-04-10T19:55:46.041Z</time></trkpt><trkpt lat="45.021095" lon="7.9152767"><ele>282.0</ele><time>2026-04-10T19:55:48.04Z</time></trkpt><trkpt lat="45.021105" lon="7.9153833"><ele>282.0</ele><time>2026-04-10T19:55:50.041Z</time></trkpt><trkpt lat="45.0211133" lon="7.9154983"><ele>282.0</ele><time>2026-04-10T19:55:52.041Z</time></trkpt><trkpt lat="45.0211167" lon="7.9156117"><ele>282.0</ele><time>2026-04-10T19:55:54.041Z</time></trkpt><trkpt lat="45.0211217" lon="7.91573"><ele>282.0</ele><time>2026-04-10T19:55:56.042Z</time></trkpt><trkpt lat="45.0211267" lon="7.9159"><ele>283.0</ele><time>2026-04-10T19:55:59.04Z</time></trkpt><trkpt lat="45.0211333" lon="7.9160167"><ele>284.0</ele><time>2026-04-10T19:56:01.042Z</time></trkpt><trkpt lat="45.0211367" lon="7.9161317"><ele>285.0</ele><time>2026-04-10T19:56:03.043Z</time></trkpt><trkpt lat="45.0211367" lon="7.916235"><ele>286.0</ele><time>2026-04-10T19:56:05.041Z</time></trkpt><trkpt lat="45.0211383" lon="7.91633"><ele>287.0</ele><time>2026-04-10T19:56:07.042Z</time></trkpt><trkpt lat="45.021135" lon="7.9164267"><ele>288.0</ele><time>2026-04-10T19:56:09.041Z</time></trkpt><trkpt lat="45.0211317" lon="7.9165217"><ele>289.0</ele><time>2026-04-10T19:56:11.042Z</time></trkpt><trkpt lat="45.021125" lon="7.9166133"><ele>288.66666666666663</ele><time>2026-04-10T19:56:13.042Z</time></trkpt><trkpt lat="45.021105" lon="7.9167367"><ele>288.3333333333333</ele><time>2026-04-10T19:56:16.041Z</time></trkpt><trkpt lat="45.0210833" lon="7.9168517"><ele>288.0</ele><time>2026-04-10T19:56:19.041Z</time></trkpt><trkpt lat="45.0210633" lon="7.9169633"><ele>287.6666666666667</ele><time>2026-04-10T19:56:22.041Z</time></trkpt><trkpt lat="45.021015" lon="7.9170783"><ele>287.33333333333337</ele><time>2026-04-10T19:56:25.041Z</time></trkpt><trkpt lat="45.0210033" lon="7.917185"><ele>287.0</ele><time>2026-04-10T19:56:29.04Z</time></trkpt><trkpt lat="45.0209467" lon="7.917255"><ele>287.0</ele><time>2026-04-10T19:56:35.041Z</time></trkpt><trkpt lat="45.0208667" lon="7.9172917"><ele>287.0</ele><time>2026-04-10T19:56:38.04Z</time></trkpt><trkpt lat="45.02076" lon="7.91733"><ele>287.0</ele><time>2026-04-10T19:56:42.041Z</time></trkpt><trkpt lat="45.020705" lon="7.9173767"><ele>287.0</ele><time>2026-04-10T19:56:44.04Z</time></trkpt><trkpt lat="45.020635" lon="7.91744"><ele>287.0</ele><time>2026-04-10T19:56:46.041Z</time></trkpt><trkpt lat="45.0205783" lon="7.9175367"><ele>287.0</ele><time>2026-04-10T19:56:48.042Z</time></trkpt><trkpt lat="45.0205467" lon="7.9176183"><ele>287.0</ele><time>2026-04-10T19:56:50.041Z</time></trkpt><trkpt lat="45.02053" lon="7.9177317"><ele>287.0</ele><time>2026-04-10T19:56:52.041Z</time></trkpt><trkpt lat="45.020525" lon="7.9178767"><ele>287.0</ele><time>2026-04-10T19:56:54.041Z</time></trkpt><trkpt lat="45.02052" lon="7.9180283"><ele>287.0</ele><time>2026-04-10T19:56:56.041Z</time></trkpt><trkpt lat="45.0205133" lon="7.9181833"><ele>287.0</ele><time>2026-04-10T19:56:58.04Z</time></trkpt><trkpt lat="45.0204967" lon="7.9183533"><ele>286.0</ele><time>2026-04-10T19:57:00.041Z</time></trkpt><trkpt lat="45.0204967" lon="7.9184483"><ele>285.0</ele><time>2026-04-10T19:57:01.04Z</time></trkpt><trkpt lat="45.02049" lon="7.918545"><ele>284.0</ele><time>2026-04-10T19:57:02.041Z</time></trkpt><trkpt lat="45.0204733" lon="7.9187167"><ele>283.0</ele><time>2026-04-10T19:57:04.04Z</time></trkpt><trkpt lat="45.02046" lon="7.9188783"><ele>282.0</ele><time>2026-04-10T19:57:06.044Z</time></trkpt><trkpt lat="45.0204433" lon="7.9190367"><ele>282.0</ele><time>2026-04-10T19:57:08.041Z</time></trkpt><trkpt lat="45.0204267" lon="7.9191917"><ele>282.0</ele><time>2026-04-10T19:57:10.04Z</time></trkpt><trkpt lat="45.0204217" lon="7.91934"><ele>282.0</ele><time>2026-04-10T19:57:12.041Z</time></trkpt><trkpt lat="45.0204117" lon="7.9194867"><ele>282.0</ele><time>2026-04-10T19:57:14.04Z</time></trkpt><trkpt lat="45.0204" lon="7.919625"><ele>282.0</ele><time>2026-04-10T19:57:16.041Z</time></trkpt><trkpt lat="45.020395" lon="7.91977"><ele>282.4</ele><time>2026-04-10T19:57:18.042Z</time></trkpt><trkpt lat="45.0203833" lon="7.9199067"><ele>282.79999999999995</ele><time>2026-04-10T19:57:20.041Z</time></trkpt><trkpt lat="45.020375" lon="7.9200517"><ele>283.2</ele><time>2026-04-10T19:57:22.04Z</time></trkpt><trkpt lat="45.020365" lon="7.920185"><ele>283.59999999999997</ele><time>2026-04-10T19:57:24.041Z</time></trkpt><trkpt lat="45.0203683" lon="7.9203067"><ele>284.0</ele><time>2026-04-10T19:57:26.041Z</time></trkpt><trkpt lat="45.020375" lon="7.9204333"><ele>284.0</ele><time>2026-04-10T19:57:28.04Z</time></trkpt><trkpt lat="45.0203767" lon="7.92055"><ele>284.0</ele><time>2026-04-10T19:57:30.04Z</time></trkpt><trkpt lat="45.02038" lon="7.9206617"><ele>284.0</ele><time>2026-04-10T19:57:32.04Z</time></trkpt><trkpt lat="45.0203817" lon="7.9207667"><ele>284.0</ele><time>2026-04-10T19:57:34.042Z</time></trkpt><trkpt lat="45.02038" lon="7.9208567"><ele>284.0</ele><time>2026-04-10T19:57:36.04Z</time></trkpt><trkpt lat="45.0203817" lon="7.9209817"><ele>284.0</ele><time>2026-04-10T19:57:39.04Z</time></trkpt><trkpt lat="45.0203767" lon="7.921095"><ele>285.0</ele><time>2026-04-10T19:57:42.042Z</time></trkpt><trkpt lat="45.0203633" lon="7.9212167"><ele>286.0</ele><time>2026-04-10T19:57:45.041Z</time></trkpt><trkpt lat="45.0203567" lon="7.9213267"><ele>287.0</ele><time>2026-04-10T19:57:49.042Z</time></trkpt><trkpt lat="45.0203567" lon="7.9214367"><ele>288.0</ele><time>2026-04-10T19:57:53.041Z</time></trkpt><trkpt lat="45.0203667" lon="7.9215433"><ele>289.0</ele><time>2026-04-10T19:57:57.041Z</time></trkpt><trkpt lat="45.02037" lon="7.9216467"><ele>290.0</ele><time>2026-04-10T19:58:01.043Z</time></trkpt><trkpt lat="45.020355" lon="7.921765"><ele>290.1666666666667</ele><time>2026-04-10T19:58:05.042Z</time></trkpt><trkpt lat="45.0203433" lon="7.9218767"><ele>290.33333333333337</ele><time>2026-04-10T19:58:09.041Z</time></trkpt><trkpt lat="45.0203367" lon="7.9219883"><ele>290.5</ele><time>2026-04-10T19:58:13.04Z</time></trkpt><trkpt lat="45.02032" lon="7.9221"><ele>290.6666666666667</ele><time>2026-04-10T19:58:17.041Z</time></trkpt><trkpt lat="45.0202983" lon="7.9222133"><ele>290.8333333333333</ele><time>2026-04-10T19:58:21.041Z</time></trkpt><trkpt lat="45.0202867" lon="7.9223017"><ele>291.0</ele><time>2026-04-10T19:58:24.041Z</time></trkpt><trkpt lat="45.0202833" lon="7.922405"><ele>291.0</ele><time>2026-04-10T19:58:28.04Z</time></trkpt><trkpt lat="45.020255" lon="7.92251"><ele>291.0</ele><time>2026-04-10T19:58:32.041Z</time></trkpt><trkpt lat="45.020235" lon="7.9226233"><ele>291.0</ele><time>2026-04-10T19:58:35.041Z</time></trkpt><trkpt lat="45.0202233" lon="7.9227367"><ele>291.0</ele><time>2026-04-10T19:58:38.041Z</time></trkpt><trkpt lat="45.020225" lon="7.9228467"><ele>291.0</ele><time>2026-04-10T19:58:41.04Z</time></trkpt><trkpt lat="45.0202083" lon="7.92297"><ele>291.0</ele><time>2026-04-10T19:58:44.04Z</time></trkpt><trkpt lat="45.0201983" lon="7.92306"><ele>291.0</ele><time>2026-04-10T19:58:46.04Z</time></trkpt><trkpt lat="45.020195" lon="7.92315"><ele>291.0</ele><time>2026-04-10T19:58:48.043Z</time></trkpt><trkpt lat="45.020195" lon="7.9232883"><ele>291.0</ele><time>2026-04-10T19:58:51.043Z</time></trkpt><trkpt lat="45.0201917" lon="7.9233917"><ele>291.0</ele><time>2026-04-10T19:58:53.04Z</time></trkpt><trkpt lat="45.0201917" lon="7.9235"><ele>291.0</ele><time>2026-04-10T19:58:55.041Z</time></trkpt><trkpt lat="45.0201983" lon="7.92361"><ele>291.0</ele><time>2026-04-10T19:58:57.041Z</time></trkpt><trkpt lat="45.020205" lon="7.9237317"><ele>290.8</ele><time>2026-04-10T19:58:59.041Z</time></trkpt><trkpt lat="45.020215" lon="7.9238617"><ele>290.6</ele><time>2026-04-10T19:59:01.041Z</time></trkpt><trkpt lat="45.020235" lon="7.9239867"><ele>290.4</ele><time>2026-04-10T19:59:03.042Z</time></trkpt><trkpt lat="45.0202633" lon="7.92411"><ele>290.2</ele><time>2026-04-10T19:59:05.04Z</time></trkpt><trkpt lat="45.0202933" lon="7.9242367"><ele>290.0</ele><time>2026-04-10T19:59:07.041Z</time></trkpt><trkpt lat="45.0203283" lon="7.9243617"><ele>289.6</ele><time>2026-04-10T19:59:09.042Z</time></trkpt><trkpt lat="45.0203533" lon="7.924495"><ele>289.2</ele><time>2026-04-10T19:59:11.041Z</time></trkpt><trkpt lat="45.0203617" lon="7.9246317"><ele>288.8</ele><time>2026-04-10T19:59:13.04Z</time></trkpt><trkpt lat="45.0203567" lon="7.9247717"><ele>288.4</ele><time>2026-04-10T19:59:15.041Z</time></trkpt><trkpt lat="45.0203467" lon="7.9249017"><ele>288.0</ele><time>2026-04-10T19:59:17.041Z</time></trkpt><trkpt lat="45.02034" lon="7.9250283"><ele>287.8</ele><time>2026-04-10T19:59:19.041Z</time></trkpt><trkpt lat="45.0203317" lon="7.925155"><ele>287.6</ele><time>2026-04-10T19:59:21.042Z</time></trkpt><trkpt lat="45.0203267" lon="7.9252833"><ele>287.4</ele><time>2026-04-10T19:59:23.04Z</time></trkpt><trkpt lat="45.02032" lon="7.9254067"><ele>287.2</ele><time>2026-04-10T19:59:25.041Z</time></trkpt><trkpt lat="45.0203017" lon="7.9255367"><ele>287.0</ele><time>2026-04-10T19:59:27.042Z</time></trkpt><trkpt lat="45.0202817" lon="7.9256667"><ele>287.0</ele><time>2026-04-10T19:59:29.04Z</time></trkpt><trkpt lat="45.0202533" lon="7.9257967"><ele>287.0</ele><time>2026-04-10T19:59:31.042Z</time></trkpt><trkpt lat="45.0202217" lon="7.92591"><ele>287.0</ele><time>2026-04-10T19:59:33.041Z</time></trkpt><trkpt lat="45.020185" lon="7.9260067"><ele>287.0</ele><time>2026-04-10T19:59:35.04Z</time></trkpt><trkpt lat="45.0201533" lon="7.9261117"><ele>287.0</ele><time>2026-04-10T19:59:37.041Z</time></trkpt><trkpt lat="45.0201217" lon="7.9262133"><ele>287.0</ele><time>2026-04-10T19:59:39.042Z</time></trkpt><trkpt lat="45.0200933" lon="7.9263183"><ele>286.85714285714283</ele><time>2026-04-10T19:59:41.042Z</time></trkpt><trkpt lat="45.0200783" lon="7.9264117"><ele>286.7142857142857</ele><time>2026-04-10T19:59:43.041Z</time></trkpt><trkpt lat="45.02006" lon="7.9265417"><ele>286.57142857142856</ele><time>2026-04-10T19:59:46.041Z</time></trkpt><trkpt lat="45.02005" lon="7.9266417"><ele>286.42857142857144</ele><time>2026-04-10T19:59:48.04Z</time></trkpt><trkpt lat="45.0200367" lon="7.9267433"><ele>286.2857142857143</ele><time>2026-04-10T19:59:50.04Z</time></trkpt><trkpt lat="45.02002" lon="7.9268333"><ele>286.1428571428571</ele><time>2026-04-10T19:59:52.04Z</time></trkpt><trkpt lat="45.020005" lon="7.92694"><ele>286.0</ele><time>2026-04-10T19:59:54.041Z</time></trkpt><trkpt lat="45.0199883" lon="7.92705"><ele>285.66666666666663</ele><time>2026-04-10T19:59:56.041Z</time></trkpt><trkpt lat="45.0199717" lon="7.9271633"><ele>285.3333333333333</ele><time>2026-04-10T19:59:58.04Z</time></trkpt><trkpt lat="45.019955" lon="7.9272717"><ele>285.0</ele><time>2026-04-10T20:00:00.041Z</time></trkpt><trkpt lat="45.019945" lon="7.9273817"><ele>284.6666666666667</ele><time>2026-04-10T20:00:02.043Z</time></trkpt><trkpt lat="45.01994" lon="7.9274833"><ele>284.33333333333337</ele><time>2026-04-10T20:00:04.041Z</time></trkpt><trkpt lat="45.01994" lon="7.927595"><ele>284.0</ele><time>2026-04-10T20:00:06.042Z</time></trkpt><trkpt lat="45.0199333" lon="7.927695"><ele>283.6666666666667</ele><time>2026-04-10T20:00:08.04Z</time></trkpt><trkpt lat="45.0199333" lon="7.9277867"><ele>283.33333333333337</ele><time>2026-04-10T20:00:10.04Z</time></trkpt><trkpt lat="45.0199317" lon="7.9278867"><ele>283.0</ele><time>2026-04-10T20:00:12.041Z</time></trkpt><trkpt lat="45.01994" lon="7.9280033"><ele>282.6666666666667</ele><time>2026-04-10T20:00:14.04Z</time></trkpt><trkpt lat="45.01994" lon="7.9281133"><ele>282.3333333333333</ele><time>2026-04-10T20:00:16.041Z</time></trkpt><trkpt lat="45.0199467" lon="7.9282233"><ele>282.0</ele><time>2026-04-10T20:00:18.042Z</time></trkpt><trkpt lat="45.019935" lon="7.92834"><ele>282.1666666666667</ele><time>2026-04-10T20:00:20.041Z</time></trkpt><trkpt lat="45.01993" lon="7.9284467"><ele>282.3333333333333</ele><time>2026-04-10T20:00:22.041Z</time></trkpt><trkpt lat="45.0199333" lon="7.9285533"><ele>282.5</ele><time>2026-04-10T20:00:24.04Z</time></trkpt><trkpt lat="45.01993" lon="7.9286717"><ele>282.66666666666663</ele><time>2026-04-10T20:00:26.04Z</time></trkpt><trkpt lat="45.0199333" lon="7.92879"><ele>282.8333333333333</ele><time>2026-04-10T20:00:28.04Z</time></trkpt><trkpt lat="45.0199417" lon="7.928905"><ele>283.0</ele><time>2026-04-10T20:00:30.041Z</time></trkpt><trkpt lat="45.0199617" lon="7.9290067"><ele>283.0</ele><time>2026-04-10T20:00:32.041Z</time></trkpt><trkpt lat="45.01998" lon="7.92911"><ele>283.0</ele><time>2026-04-10T20:00:34.04Z</time></trkpt><trkpt lat="45.02" lon="7.9292117"><ele>283.0</ele><time>2026-04-10T20:00:36.04Z</time></trkpt><trkpt lat="45.0200233" lon="7.9293117"><ele>283.0</ele><time>2026-04-10T20:00:38.041Z</time></trkpt><trkpt lat="45.0200433" lon="7.92942"><ele>283.0</ele><time>2026-04-10T20:00:40.041Z</time></trkpt><trkpt lat="45.0200683" lon="7.9295317"><ele>283.0</ele><time>2026-04-10T20:00:42.041Z</time></trkpt><trkpt lat="45.0200983" lon="7.929665"><ele>283.2</ele><time>2026-04-10T20:00:44.04Z</time></trkpt><trkpt lat="45.0201267" lon="7.9297983"><ele>283.4</ele><time>2026-04-10T20:00:46.04Z</time></trkpt><trkpt lat="45.0201567" lon="7.929925"><ele>283.59999999999997</ele><time>2026-04-10T20:00:48.042Z</time></trkpt><trkpt lat="45.020175" lon="7.930045"><ele>283.8</ele><time>2026-04-10T20:00:50.041Z</time></trkpt><trkpt lat="45.02019" lon="7.9301767"><ele>284.0</ele><time>2026-04-10T20:00:52.04Z</time></trkpt><trkpt lat="45.020205" lon="7.930285"><ele>284.0</ele><time>2026-04-10T20:00:54.042Z</time></trkpt><trkpt lat="45.0202167" lon="7.9303933"><ele>284.0</ele><time>2026-04-10T20:00:56.041Z</time></trkpt><trkpt lat="45.0202167" lon="7.9305183"><ele>284.0</ele><time>2026-04-10T20:00:58.041Z</time></trkpt><trkpt lat="45.02021" lon="7.930645"><ele>284.0</ele><time>2026-04-10T20:01:00.04Z</time></trkpt><trkpt lat="45.0202017" lon="7.9307767"><ele>284.0</ele><time>2026-04-10T20:01:02.041Z</time></trkpt><trkpt lat="45.0201933" lon="7.930905"><ele>284.0</ele><time>2026-04-10T20:01:04.04Z</time></trkpt><trkpt lat="45.0201917" lon="7.931035"><ele>283.83333333333337</ele><time>2026-04-10T20:01:06.041Z</time></trkpt><trkpt lat="45.0201817" lon="7.9311667"><ele>283.6666666666667</ele><time>2026-04-10T20:01:08.04Z</time></trkpt><trkpt lat="45.02017" lon="7.9312883"><ele>283.5</ele><time>2026-04-10T20:01:10.041Z</time></trkpt><trkpt lat="45.0201617" lon="7.9314067"><ele>283.3333333333333</ele><time>2026-04-10T20:01:12.041Z</time></trkpt><trkpt lat="45.020155" lon="7.93152"><ele>283.16666666666663</ele><time>2026-04-10T20:01:14.041Z</time></trkpt><trkpt lat="45.0201433" lon="7.9316383"><ele>283.0</ele><time>2026-04-10T20:01:16.04Z</time></trkpt><trkpt lat="45.0201383" lon="7.9317567"><ele>283.3333333333333</ele><time>2026-04-10T20:01:18.041Z</time></trkpt><trkpt lat="45.02012" lon="7.93187"><ele>283.66666666666663</ele><time>2026-04-10T20:01:20.041Z</time></trkpt><trkpt lat="45.0201083" lon="7.9319817"><ele>284.0</ele><time>2026-04-10T20:01:22.041Z</time></trkpt><trkpt lat="45.0200967" lon="7.9320983"><ele>284.3333333333333</ele><time>2026-04-10T20:01:24.04Z</time></trkpt><trkpt lat="45.0200917" lon="7.9322117"><ele>284.6666666666667</ele><time>2026-04-10T20:01:26.041Z</time></trkpt><trkpt lat="45.0200867" lon="7.9323183"><ele>285.0</ele><time>2026-04-10T20:01:28.041Z</time></trkpt><trkpt lat="45.0200767" lon="7.9324267"><ele>285.0</ele><time>2026-04-10T20:01:30.04Z</time></trkpt><trkpt lat="45.020065" lon="7.93253"><ele>285.0</ele><time>2026-04-10T20:01:32.041Z</time></trkpt><trkpt lat="45.0200533" lon="7.932635"><ele>285.0</ele><time>2026-04-10T20:01:34.041Z</time></trkpt><trkpt lat="45.0200467" lon="7.9327367"><ele>285.0</ele><time>2026-04-10T20:01:36.041Z</time></trkpt><trkpt lat="45.02004" lon="7.9328283"><ele>285.0</ele><time>2026-04-10T20:01:38.042Z</time></trkpt><trkpt lat="45.02003" lon="7.9329217"><ele>285.0</ele><time>2026-04-10T20:01:40.041Z</time></trkpt><trkpt lat="45.020025" lon="7.933015"><ele>285.0</ele><time>2026-04-10T20:01:42.041Z</time></trkpt><trkpt lat="45.02002" lon="7.9331083"><ele>285.3333333333333</ele><time>2026-04-10T20:01:44.042Z</time></trkpt><trkpt lat="45.0200117" lon="7.9331983"><ele>285.6666666666667</ele><time>2026-04-10T20:01:46.041Z</time></trkpt><trkpt lat="45.02" lon="7.9333267"><ele>286.0</ele><time>2026-04-10T20:01:49.041Z</time></trkpt><trkpt lat="45.019985" lon="7.9334433"><ele>286.33333333333337</ele><time>2026-04-10T20:01:52.042Z</time></trkpt><trkpt lat="45.0199683" lon="7.9335333"><ele>286.6666666666667</ele><time>2026-04-10T20:01:54.042Z</time></trkpt><trkpt lat="45.019955" lon="7.93365"><ele>287.0</ele><time>2026-04-10T20:01:57.042Z</time></trkpt><trkpt lat="45.0199567" lon="7.93374"><ele>287.0</ele><time>2026-04-10T20:01:59.042Z</time></trkpt><trkpt lat="45.0199617" lon="7.9338633"><ele>287.0</ele><time>2026-04-10T20:02:02.041Z</time></trkpt><trkpt lat="45.0199683" lon="7.9339817"><ele>287.0</ele><time>2026-04-10T20:02:05.042Z</time></trkpt><trkpt lat="45.0199633" lon="7.9341017"><ele>287.0</ele><time>2026-04-10T20:02:08.041Z</time></trkpt><trkpt lat="45.0199583" lon="7.934195"><ele>287.0</ele><time>2026-04-10T20:02:10.041Z</time></trkpt><trkpt lat="45.0199517" lon="7.9343"><ele>287.0</ele><time>2026-04-10T20:02:12.041Z</time></trkpt><trkpt lat="45.0199417" lon="7.9344133"><ele>286.6666666666667</ele><time>2026-04-10T20:02:14.041Z</time></trkpt><trkpt lat="45.019925" lon="7.934535"><ele>286.33333333333337</ele><time>2026-04-10T20:02:16.041Z</time></trkpt><trkpt lat="45.01991" lon="7.9346583"><ele>286.0</ele><time>2026-04-10T20:02:18.042Z</time></trkpt><trkpt lat="45.019885" lon="7.934775"><ele>285.6666666666667</ele><time>2026-04-10T20:02:20.043Z</time></trkpt><trkpt lat="45.0198667" lon="7.93488"><ele>285.3333333333333</ele><time>2026-04-10T20:02:22.041Z</time></trkpt><trkpt lat="45.0198417" lon="7.934995"><ele>285.0</ele><time>2026-04-10T20:02:25.042Z</time></trkpt><trkpt lat="45.01977" lon="7.9350817"><ele>284.8333333333333</ele><time>2026-04-10T20:02:28.042Z</time></trkpt><trkpt lat="45.019725" lon="7.93515"><ele>284.6666666666667</ele><time>2026-04-10T20:02:38.042Z</time></trkpt><trkpt lat="45.0197367" lon="7.9352633"><ele>284.5</ele><time>2026-04-10T20:02:42.043Z</time></trkpt><trkpt lat="45.01976" lon="7.9353717"><ele>284.33333333333337</ele><time>2026-04-10T20:02:46.043Z</time></trkpt><trkpt lat="45.0197617" lon="7.9354917"><ele>284.1666666666667</ele><time>2026-04-10T20:02:49.042Z</time></trkpt><trkpt lat="45.01976" lon="7.9356083"><ele>284.0</ele><time>2026-04-10T20:02:51.045Z</time></trkpt><trkpt lat="45.019755" lon="7.935745"><ele>283.5</ele><time>2026-04-10T20:02:53.042Z</time></trkpt><trkpt lat="45.0197367" lon="7.9359"><ele>283.0</ele><time>2026-04-10T20:02:55.043Z</time></trkpt><trkpt lat="45.0197233" lon="7.9360667"><ele>282.5</ele><time>2026-04-10T20:02:57.042Z</time></trkpt><trkpt lat="45.0197133" lon="7.936235"><ele>282.0</ele><time>2026-04-10T20:02:59.042Z</time></trkpt><trkpt lat="45.0197033" lon="7.9363983"><ele>282.0</ele><time>2026-04-10T20:03:01.043Z</time></trkpt><trkpt lat="45.01969" lon="7.9365617"><ele>282.0</ele><time>2026-04-10T20:03:03.042Z</time></trkpt><trkpt lat="45.01968" lon="7.9367183"><ele>282.0</ele><time>2026-04-10T20:03:05.042Z</time></trkpt><trkpt lat="45.0196767" lon="7.9368733"><ele>282.0</ele><time>2026-04-10T20:03:07.042Z</time></trkpt><trkpt lat="45.019665" lon="7.9370183"><ele>282.0</ele><time>2026-04-10T20:03:09.042Z</time></trkpt><trkpt lat="45.0196567" lon="7.937155"><ele>282.3333333333333</ele><time>2026-04-10T20:03:11.042Z</time></trkpt><trkpt lat="45.0196367" lon="7.9372817"><ele>282.6666666666667</ele><time>2026-04-10T20:03:13.042Z</time></trkpt><trkpt lat="45.0196167" lon="7.9374017"><ele>283.0</ele><time>2026-04-10T20:03:15.042Z</time></trkpt><trkpt lat="45.0196033" lon="7.9375167"><ele>283.33333333333337</ele><time>2026-04-10T20:03:17.043Z</time></trkpt><trkpt lat="45.0195883" lon="7.9376233"><ele>283.6666666666667</ele><time>2026-04-10T20:03:19.042Z</time></trkpt><trkpt lat="45.01957" lon="7.937725"><ele>284.0</ele><time>2026-04-10T20:03:21.042Z</time></trkpt><trkpt lat="45.0195567" lon="7.937815"><ele>284.2857142857143</ele><time>2026-04-10T20:03:23.043Z</time></trkpt><trkpt lat="45.019545" lon="7.937935"><ele>284.57142857142856</ele><time>2026-04-10T20:03:26.043Z</time></trkpt><trkpt lat="45.0195317" lon="7.9380283"><ele>284.85714285714283</ele><time>2026-04-10T20:03:28.042Z</time></trkpt><trkpt lat="45.0195183" lon="7.93812"><ele>285.1428571428571</ele><time>2026-04-10T20:03:30.042Z</time></trkpt><trkpt lat="45.0195067" lon="7.93821"><ele>285.42857142857144</ele><time>2026-04-10T20:03:32.042Z</time></trkpt><trkpt lat="45.019495" lon="7.9383367"><ele>285.71428571428567</ele><time>2026-04-10T20:03:35.042Z</time></trkpt><trkpt lat="45.01949" lon="7.9384267"><ele>286.0</ele><time>2026-04-10T20:03:37.043Z</time></trkpt><trkpt lat="45.0194867" lon="7.9385183"><ele>286.16666666666663</ele><time>2026-04-10T20:03:39.042Z</time></trkpt><trkpt lat="45.0194767" lon="7.93861"><ele>286.3333333333333</ele><time>2026-04-10T20:03:41.042Z</time></trkpt><trkpt lat="45.01947" lon="7.9387467"><ele>286.5</ele><time>2026-04-10T20:03:44.043Z</time></trkpt><trkpt lat="45.0194667" lon="7.9388417"><ele>286.6666666666667</ele><time>2026-04-10T20:03:46.042Z</time></trkpt><trkpt lat="45.0194683" lon="7.938945"><ele>286.83333333333337</ele><time>2026-04-10T20:03:48.044Z</time></trkpt><trkpt lat="45.019465" lon="7.9390517"><ele>287.0</ele><time>2026-04-10T20:03:50.042Z</time></trkpt><trkpt lat="45.01947" lon="7.939155"><ele>287.33333333333337</ele><time>2026-04-10T20:03:52.043Z</time></trkpt><trkpt lat="45.0194767" lon="7.9392633"><ele>287.6666666666667</ele><time>2026-04-10T20:03:54.042Z</time></trkpt><trkpt lat="45.019475" lon="7.9393767"><ele>288.0</ele><time>2026-04-10T20:03:56.042Z</time></trkpt><trkpt lat="45.0194767" lon="7.9394833"><ele>288.3333333333333</ele><time>2026-04-10T20:03:58.041Z</time></trkpt><trkpt lat="45.0194817" lon="7.9395883"><ele>288.66666666666663</ele><time>2026-04-10T20:04:00.042Z</time></trkpt><trkpt lat="45.019485" lon="7.9396983"><ele>289.0</ele><time>2026-04-10T20:04:02.044Z</time></trkpt><trkpt lat="45.0194933" lon="7.9398117"><ele>289.0</ele><time>2026-04-10T20:04:04.042Z</time></trkpt><trkpt lat="45.0195033" lon="7.9399217"><ele>289.0</ele><time>2026-04-10T20:04:06.042Z</time></trkpt><trkpt lat="45.0195117" lon="7.9400317"><ele>289.0</ele><time>2026-04-10T20:04:08.042Z</time></trkpt><trkpt lat="45.0195183" lon="7.9401417"><ele>289.0</ele><time>2026-04-10T20:04:10.042Z</time></trkpt><trkpt lat="45.0195233" lon="7.9402533"><ele>289.0</ele><time>2026-04-10T20:04:12.042Z</time></trkpt><trkpt lat="45.019535" lon="7.94037"><ele>289.0</ele><time>2026-04-10T20:04:14.042Z</time></trkpt><trkpt lat="45.019545" lon="7.9405017"><ele>288.59999999999997</ele><time>2026-04-10T20:04:16.041Z</time></trkpt><trkpt lat="45.0195483" lon="7.9406483"><ele>288.2</ele><time>2026-04-10T20:04:18.041Z</time></trkpt><trkpt lat="45.0195467" lon="7.9408033"><ele>287.79999999999995</ele><time>2026-04-10T20:04:20.043Z</time></trkpt><trkpt lat="45.0195383" lon="7.94096"><ele>287.4</ele><time>2026-04-10T20:04:22.042Z</time></trkpt><trkpt lat="45.0195333" lon="7.9411183"><ele>287.0</ele><time>2026-04-10T20:04:24.043Z</time></trkpt><trkpt lat="45.0195233" lon="7.9412817"><ele>286.5</ele><time>2026-04-10T20:04:26.042Z</time></trkpt><trkpt lat="45.019515" lon="7.9414467"><ele>286.0</ele><time>2026-04-10T20:04:28.042Z</time></trkpt><trkpt lat="45.019505" lon="7.941535"><ele>285.5</ele><time>2026-04-10T20:04:29.041Z</time></trkpt><trkpt lat="45.01949" lon="7.9417133"><ele>285.0</ele><time>2026-04-10T20:04:31.042Z</time></trkpt><trkpt lat="45.0194733" lon="7.9418083"><ele>284.5</ele><time>2026-04-10T20:04:32.043Z</time></trkpt><trkpt lat="45.0194617" lon="7.9419"><ele>284.0</ele><time>2026-04-10T20:04:33.041Z</time></trkpt><trkpt lat="45.0194533" lon="7.94199"><ele>284.0</ele><time>2026-04-10T20:04:34.042Z</time></trkpt><trkpt lat="45.01944" lon="7.9421633"><ele>284.0</ele><time>2026-04-10T20:04:36.041Z</time></trkpt><trkpt lat="45.0194167" lon="7.9423367"><ele>284.0</ele><time>2026-04-10T20:04:38.041Z</time></trkpt><trkpt lat="45.0193917" lon="7.94251"><ele>284.0</ele><time>2026-04-10T20:04:40.042Z</time></trkpt><trkpt lat="45.0193783" lon="7.9425983"><ele>284.0</ele><time>2026-04-10T20:04:41.041Z</time></trkpt><trkpt lat="45.0193517" lon="7.9427617"><ele>283.75</ele><time>2026-04-10T20:04:43.041Z</time></trkpt><trkpt lat="45.0193217" lon="7.942925"><ele>283.5</ele><time>2026-04-10T20:04:45.041Z</time></trkpt><trkpt lat="45.0192933" lon="7.943085"><ele>283.25</ele><time>2026-04-10T20:04:47.041Z</time></trkpt><trkpt lat="45.01926" lon="7.9432367"><ele>283.0</ele><time>2026-04-10T20:04:49.042Z</time></trkpt><trkpt lat="45.0192283" lon="7.9433867"><ele>282.8</ele><time>2026-04-10T20:04:51.044Z</time></trkpt><trkpt lat="45.0191983" lon="7.9435333"><ele>282.6</ele><time>2026-04-10T20:04:53.041Z</time></trkpt><trkpt lat="45.01917" lon="7.9436733"><ele>282.4</ele><time>2026-04-10T20:04:55.043Z</time></trkpt><trkpt lat="45.0191517" lon="7.943805"><ele>282.2</ele><time>2026-04-10T20:04:57.042Z</time></trkpt><trkpt lat="45.0191417" lon="7.9439417"><ele>282.0</ele><time>2026-04-10T20:04:59.043Z</time></trkpt><trkpt lat="45.0191567" lon="7.9440783"><ele>282.0</ele><time>2026-04-10T20:05:01.041Z</time></trkpt><trkpt lat="45.0191883" lon="7.944215"><ele>282.0</ele><time>2026-04-10T20:05:03.042Z</time></trkpt><trkpt lat="45.0192417" lon="7.94433"><ele>282.0</ele><time>2026-04-10T20:05:05.042Z</time></trkpt><trkpt lat="45.0193017" lon="7.9444333"><ele>282.0</ele><time>2026-04-10T20:05:07.042Z</time></trkpt><trkpt lat="45.01937" lon="7.9445333"><ele>282.0</ele><time>2026-04-10T20:05:09.042Z</time></trkpt><trkpt lat="45.0194383" lon="7.944635"><ele>282.0</ele><time>2026-04-10T20:05:11.042Z</time></trkpt><trkpt lat="45.0194917" lon="7.944745"><ele>282.0</ele><time>2026-04-10T20:05:13.041Z</time></trkpt><trkpt lat="45.0195433" lon="7.9448483"><ele>282.0</ele><time>2026-04-10T20:05:15.042Z</time></trkpt><trkpt lat="45.0195917" lon="7.9449667"><ele>282.0</ele><time>2026-04-10T20:05:17.042Z</time></trkpt><trkpt lat="45.0196433" lon="7.9450883"><ele>282.0</ele><time>2026-04-10T20:05:19.042Z</time></trkpt><trkpt lat="45.0197" lon="7.9452067"><ele>281.8</ele><time>2026-04-10T20:05:21.042Z</time></trkpt><trkpt lat="45.0197583" lon="7.9453217"><ele>281.6</ele><time>2026-04-10T20:05:23.04Z</time></trkpt><trkpt lat="45.0198133" lon="7.9454367"><ele>281.40000000000003</ele><time>2026-04-10T20:05:25.04Z</time></trkpt><trkpt lat="45.0198683" lon="7.94555"><ele>281.2</ele><time>2026-04-10T20:05:27.043Z</time></trkpt><trkpt lat="45.0199167" lon="7.9456533"><ele>281.0</ele><time>2026-04-10T20:05:29.042Z</time></trkpt><trkpt lat="45.0199617" lon="7.9457633"><ele>281.6666666666667</ele><time>2026-04-10T20:05:31.042Z</time></trkpt><trkpt lat="45.0200083" lon="7.9458667"><ele>282.33333333333337</ele><time>2026-04-10T20:05:33.042Z</time></trkpt><trkpt lat="45.0200483" lon="7.94597"><ele>283.0</ele><time>2026-04-10T20:05:35.041Z</time></trkpt><trkpt lat="45.020085" lon="7.9460733"><ele>283.6666666666667</ele><time>2026-04-10T20:05:37.041Z</time></trkpt><trkpt lat="45.0201233" lon="7.9461533"><ele>284.3333333333333</ele><time>2026-04-10T20:05:39.042Z</time></trkpt><trkpt lat="45.0201683" lon="7.9462333"><ele>285.0</ele><time>2026-04-10T20:05:41.042Z</time></trkpt><trkpt lat="45.0202083" lon="7.9463117"><ele>285.3333333333333</ele><time>2026-04-10T20:05:43.042Z</time></trkpt><trkpt lat="45.0202583" lon="7.9464217"><ele>285.6666666666667</ele><time>2026-04-10T20:05:46.042Z</time></trkpt><trkpt lat="45.0202983" lon="7.9464983"><ele>286.0</ele><time>2026-04-10T20:05:48.041Z</time></trkpt><trkpt lat="45.020325" lon="7.9465983"><ele>286.33333333333337</ele><time>2026-04-10T20:05:50.042Z</time></trkpt><trkpt lat="45.0203683" lon="7.94668"><ele>286.6666666666667</ele><time>2026-04-10T20:05:52.041Z</time></trkpt><trkpt lat="45.0204133" lon="7.9467583"><ele>287.0</ele><time>2026-04-10T20:05:54.041Z</time></trkpt><trkpt lat="45.0204683" lon="7.9468217"><ele>287.33333333333337</ele><time>2026-04-10T20:05:56.041Z</time></trkpt><trkpt lat="45.0205317" lon="7.94687"><ele>287.6666666666667</ele><time>2026-04-10T20:05:58.041Z</time></trkpt><trkpt lat="45.0205967" lon="7.9469367"><ele>288.0</ele><time>2026-04-10T20:06:00.041Z</time></trkpt><trkpt lat="45.02066" lon="7.9470133"><ele>288.3333333333333</ele><time>2026-04-10T20:06:02.041Z</time></trkpt><trkpt lat="45.0207167" lon="7.9470917"><ele>288.66666666666663</ele><time>2026-04-10T20:06:04.041Z</time></trkpt><trkpt lat="45.02077" lon="7.9471717"><ele>289.0</ele><time>2026-04-10T20:06:06.041Z</time></trkpt><trkpt lat="45.0208083" lon="7.947245"><ele>289.0</ele><time>2026-04-10T20:06:08.041Z</time></trkpt><trkpt lat="45.0208533" lon="7.947315"><ele>289.0</ele><time>2026-04-10T20:06:10.041Z</time></trkpt><trkpt lat="45.0209" lon="7.94738"><ele>289.0</ele><time>2026-04-10T20:06:12.041Z</time></trkpt><trkpt lat="45.0209583" lon="7.94745"><ele>289.0</ele><time>2026-04-10T20:06:14.04Z</time></trkpt><trkpt lat="45.021015" lon="7.9475217"><ele>289.0</ele><time>2026-04-10T20:06:16.041Z</time></trkpt><trkpt lat="45.0210617" lon="7.9476083"><ele>289.0</ele><time>2026-04-10T20:06:18.041Z</time></trkpt><trkpt lat="45.02111" lon="7.947675"><ele>289.0</ele><time>2026-04-10T20:06:20.042Z</time></trkpt><trkpt lat="45.0211483" lon="7.94775"><ele>289.16666666666663</ele><time>2026-04-10T20:06:22.041Z</time></trkpt><trkpt lat="45.0211967" lon="7.9478217"><ele>289.3333333333333</ele><time>2026-04-10T20:06:24.041Z</time></trkpt><trkpt lat="45.0212617" lon="7.9478967"><ele>289.5</ele><time>2026-04-10T20:06:26.042Z</time></trkpt><trkpt lat="45.0213333" lon="7.9479667"><ele>289.6666666666667</ele><time>2026-04-10T20:06:28.041Z</time></trkpt><trkpt lat="45.0214033" lon="7.9480317"><ele>289.83333333333337</ele><time>2026-04-10T20:06:30.041Z</time></trkpt><trkpt lat="45.02146" lon="7.9480983"><ele>290.0</ele><time>2026-04-10T20:06:32.04Z</time></trkpt><trkpt lat="45.0215083" lon="7.9481667"><ele>290.0</ele><time>2026-04-10T20:06:34.041Z</time></trkpt><trkpt lat="45.02157" lon="7.948265"><ele>290.0</ele><time>2026-04-10T20:06:37.041Z</time></trkpt><trkpt lat="45.02161" lon="7.948355"><ele>290.0</ele><time>2026-04-10T20:06:40.042Z</time></trkpt><trkpt lat="45.0216617" lon="7.9484367"><ele>290.0</ele><time>2026-04-10T20:06:44.041Z</time></trkpt><trkpt lat="45.02169" lon="7.9485633"><ele>290.0</ele><time>2026-04-10T20:06:47.04Z</time></trkpt><trkpt lat="45.021705" lon="7.9486667"><ele>290.0</ele><time>2026-04-10T20:06:49.042Z</time></trkpt><trkpt lat="45.0216983" lon="7.9487733"><ele>289.83333333333337</ele><time>2026-04-10T20:06:51.041Z</time></trkpt><trkpt lat="45.0216817" lon="7.9488833"><ele>289.6666666666667</ele><time>2026-04-10T20:06:53.041Z</time></trkpt><trkpt lat="45.021655" lon="7.9489983"><ele>289.5</ele><time>2026-04-10T20:06:55.041Z</time></trkpt><trkpt lat="45.0216283" lon="7.9491133"><ele>289.3333333333333</ele><time>2026-04-10T20:06:57.042Z</time></trkpt><trkpt lat="45.0215983" lon="7.949225"><ele>289.16666666666663</ele><time>2026-04-10T20:06:59.042Z</time></trkpt><trkpt lat="45.0215717" lon="7.9493333"><ele>289.0</ele><time>2026-04-10T20:07:01.042Z</time></trkpt><trkpt lat="45.0215417" lon="7.94944"><ele>289.3333333333333</ele><time>2026-04-10T20:07:03.041Z</time></trkpt><trkpt lat="45.02151" lon="7.9495533"><ele>289.66666666666663</ele><time>2026-04-10T20:07:05.04Z</time></trkpt><trkpt lat="45.0214783" lon="7.94967"><ele>290.0</ele><time>2026-04-10T20:07:07.041Z</time></trkpt><trkpt lat="45.0214433" lon="7.949785"><ele>290.3333333333333</ele><time>2026-04-10T20:07:09.042Z</time></trkpt><trkpt lat="45.021415" lon="7.949905"><ele>290.6666666666667</ele><time>2026-04-10T20:07:11.041Z</time></trkpt><trkpt lat="45.021385" lon="7.9500233"><ele>291.0</ele><time>2026-04-10T20:07:13.041Z</time></trkpt><trkpt lat="45.021365" lon="7.9501167"><ele>291.1428571428571</ele><time>2026-04-10T20:07:15.041Z</time></trkpt><trkpt lat="45.02132" lon="7.950195"><ele>291.2857142857143</ele><time>2026-04-10T20:07:21.041Z</time></trkpt><trkpt lat="45.0212533" lon="7.9501717"><ele>291.42857142857144</ele><time>2026-04-10T20:07:26.041Z</time></trkpt><trkpt lat="45.021165" lon="7.9501483"><ele>291.57142857142856</ele><time>2026-04-10T20:07:29.041Z</time></trkpt><trkpt lat="45.0211017" lon="7.950135"><ele>291.7142857142857</ele><time>2026-04-10T20:07:31.043Z</time></trkpt><trkpt lat="45.021035" lon="7.9501217"><ele>291.85714285714283</ele><time>2026-04-10T20:07:33.042Z</time></trkpt><trkpt lat="45.02097" lon="7.9500983"><ele>292.0</ele><time>2026-04-10T20:07:35.042Z</time></trkpt><trkpt lat="45.0209" lon="7.95007"><ele>292.0</ele><time>2026-04-10T20:07:37.042Z</time></trkpt><trkpt lat="45.0208317" lon="7.9500367"><ele>292.0</ele><time>2026-04-10T20:07:39.042Z</time></trkpt><trkpt lat="45.020765" lon="7.9500117"><ele>292.0</ele><time>2026-04-10T20:07:41.041Z</time></trkpt><trkpt lat="45.0208517" lon="7.9500417"><ele>292.0</ele><time>2026-04-10T20:07:50.041Z</time></trkpt><trkpt lat="45.0209133" lon="7.950065"><ele>292.0</ele><time>2026-04-10T20:07:52.041Z</time></trkpt><trkpt lat="45.0209783" lon="7.950095"><ele>292.0</ele><time>2026-04-10T20:07:54.041Z</time></trkpt><trkpt lat="45.0210467" lon="7.950135"><ele>292.0</ele><time>2026-04-10T20:07:56.041Z</time></trkpt><trkpt lat="45.021105" lon="7.9501733"><ele>292.0</ele><time>2026-04-10T20:07:58.041Z</time></trkpt><trkpt lat="45.0211717" lon="7.9502083"><ele>292.0</ele><time>2026-04-10T20:08:01.041Z</time></trkpt><trkpt lat="45.02123" lon="7.9502433"><ele>292.0</ele><time>2026-04-10T20:08:04.041Z</time></trkpt><trkpt lat="45.0212533" lon="7.9503433"><ele>292.0</ele><time>2026-04-10T20:08:07.041Z</time></trkpt><trkpt lat="45.0212467" lon="7.950465"><ele>292.0</ele><time>2026-04-10T20:08:10.041Z</time></trkpt><trkpt lat="45.02124" lon="7.950555"><ele>292.0</ele><time>2026-04-10T20:08:12.041Z</time></trkpt><trkpt lat="45.0212233" lon="7.9506667"><ele>292.0</ele><time>2026-04-10T20:08:15.042Z</time></trkpt><trkpt lat="45.0212067" lon="7.95076"><ele>292.0</ele><time>2026-04-10T20:08:18.041Z</time></trkpt><trkpt lat="45.02123" lon="7.95067"><ele>292.0</ele><time>2026-04-10T20:08:23.041Z</time></trkpt><trkpt lat="45.0212567" lon="7.9505867"><ele>292.0</ele><time>2026-04-10T20:08:25.04Z</time></trkpt><trkpt lat="45.021285" lon="7.9505"><ele>292.0</ele><time>2026-04-10T20:08:27.042Z</time></trkpt><trkpt lat="45.0213167" lon="7.9504217"><ele>292.0</ele><time>2026-04-10T20:08:29.04Z</time></trkpt><trkpt lat="45.0213517" lon="7.95034"><ele>292.0</ele><time>2026-04-10T20:08:32.04Z</time></trkpt><trkpt lat="45.0214167" lon="7.950305"><ele>292.0</ele><time>2026-04-10T20:08:38.042Z</time></trkpt><trkpt lat="45.021495" lon="7.9503317"><ele>292.0</ele><time>2026-04-10T20:08:42.041Z</time></trkpt><trkpt lat="45.0215667" lon="7.9503817"><ele>292.0</ele><time>2026-04-10T20:08:45.042Z</time></trkpt><trkpt lat="45.02166" lon="7.95041"><ele>292.0</ele><time>2026-04-10T20:08:48.041Z</time></trkpt><trkpt lat="45.0217317" lon="7.95044"><ele>292.0</ele><time>2026-04-10T20:08:50.041Z</time></trkpt><trkpt lat="45.0217967" lon="7.9504717"><ele>292.0</ele><time>2026-04-10T20:08:52.04Z</time></trkpt><trkpt lat="45.0218567" lon="7.9505033"><ele>292.0</ele><time>2026-04-10T20:08:54.042Z</time></trkpt><trkpt lat="45.02192" lon="7.9505333"><ele>292.66666666666663</ele><time>2026-04-10T20:08:56.04Z</time></trkpt><trkpt lat="45.02199" lon="7.95058"><ele>293.3333333333333</ele><time>2026-04-10T20:08:58.04Z</time></trkpt><trkpt lat="45.0220467" lon="7.95064"><ele>294.0</ele><time>2026-04-10T20:09:00.041Z</time></trkpt><trkpt lat="45.0220983" lon="7.9506967"><ele>294.6666666666667</ele><time>2026-04-10T20:09:02.041Z</time></trkpt><trkpt lat="45.0221767" lon="7.950765"><ele>295.33333333333337</ele><time>2026-04-10T20:09:05.041Z</time></trkpt><trkpt lat="45.022245" lon="7.950745"><ele>296.0</ele><time>2026-04-10T20:09:08.041Z</time></trkpt><trkpt lat="45.0223117" lon="7.9506333"><ele>296.0</ele><time>2026-04-10T20:10:44.041Z</time></trkpt><trkpt lat="45.0222583" lon="7.95051"><ele>296.0</ele><time>2026-04-10T20:10:45.041Z</time></trkpt><trkpt lat="45.0221567" lon="7.9504533"><ele>296.0</ele><time>2026-04-10T20:11:37.04Z</time></trkpt><trkpt lat="45.0222317" lon="7.9504117"><ele>296.0</ele><time>2026-04-10T20:11:48.04Z</time></trkpt><trkpt lat="45.0223067" lon="7.9503633"><ele>296.0</ele><time>2026-04-10T20:11:50.041Z</time></trkpt><trkpt lat="45.0223433" lon="7.9502867"><ele>296.0</ele><time>2026-04-10T20:11:52.04Z</time></trkpt><trkpt lat="45.0223767" lon="7.9502083"><ele>296.0</ele><time>2026-04-10T20:11:54.042Z</time></trkpt><trkpt lat="45.0224333" lon="7.9501267"><ele>296.0</ele><time>2026-04-10T20:11:56.04Z</time></trkpt><trkpt lat="45.0224933" lon="7.950045"><ele>296.0</ele><time>2026-04-10T20:11:58.04Z</time></trkpt><trkpt lat="45.0225467" lon="7.9499233"><ele>296.0</ele><time>2026-04-10T20:12:01.041Z</time></trkpt><trkpt lat="45.0225733" lon="7.94982"><ele>296.0</ele><time>2026-04-10T20:12:03.043Z</time></trkpt><trkpt lat="45.0226133" lon="7.9497"><ele>296.0</ele><time>2026-04-10T20:12:05.041Z</time></trkpt><trkpt lat="45.0226417" lon="7.9495833"><ele>296.33333333333337</ele><time>2026-04-10T20:12:07.04Z</time></trkpt><trkpt lat="45.022675" lon="7.9494617"><ele>296.6666666666667</ele><time>2026-04-10T20:12:09.041Z</time></trkpt><trkpt lat="45.0227067" lon="7.9493433"><ele>297.0</ele><time>2026-04-10T20:12:11.041Z</time></trkpt><trkpt lat="45.02274" lon="7.9492267"><ele>297.3333333333333</ele><time>2026-04-10T20:12:13.041Z</time></trkpt><trkpt lat="45.0227733" lon="7.94911"><ele>297.66666666666663</ele><time>2026-04-10T20:12:15.04Z</time></trkpt><trkpt lat="45.022805" lon="7.9490033"><ele>298.0</ele><time>2026-04-10T20:12:17.04Z</time></trkpt><trkpt lat="45.0228333" lon="7.9489033"><ele>297.57142857142856</ele><time>2026-04-10T20:12:20.041Z</time></trkpt><trkpt lat="45.022885" lon="7.948845"><ele>297.1428571428571</ele><time>2026-04-10T20:12:24.04Z</time></trkpt><trkpt lat="45.02295" lon="7.948815"><ele>296.7142857142857</ele><time>2026-04-10T20:12:27.041Z</time></trkpt><trkpt lat="45.023015" lon="7.9488083"><ele>296.2857142857143</ele><time>2026-04-10T20:12:29.04Z</time></trkpt><trkpt lat="45.023085" lon="7.9487983"><ele>295.8571428571429</ele><time>2026-04-10T20:12:32.04Z</time></trkpt><trkpt lat="45.0231483" lon="7.9488033"><ele>295.42857142857144</ele><time>2026-04-10T20:12:34.04Z</time></trkpt><trkpt lat="45.023245" lon="7.9487817"><ele>295.0</ele><time>2026-04-10T20:12:37.04Z</time></trkpt><trkpt lat="45.023325" lon="7.948775"><ele>295.00000000000006</ele><time>2026-04-10T20:12:39.041Z</time></trkpt><trkpt lat="45.0234" lon="7.9487733"><ele>295.0</ele><time>2026-04-10T20:12:41.04Z</time></trkpt><trkpt lat="45.023465" lon="7.9487617"><ele>295.0</ele><time>2026-04-10T20:12:43.04Z</time></trkpt><trkpt lat="45.023535" lon="7.94875"><ele>295.0</ele><time>2026-04-10T20:12:45.04Z</time></trkpt><trkpt lat="45.023605" lon="7.9487433"><ele>295.0</ele><time>2026-04-10T20:12:47.04Z</time></trkpt><trkpt lat="45.0236767" lon="7.9487283"><ele>295.00000000000006</ele><time>2026-04-10T20:12:49.04Z</time></trkpt><trkpt lat="45.0237583" lon="7.9487"><ele>295.0</ele><time>2026-04-10T20:12:51.04Z</time></trkpt><trkpt lat="45.0238417" lon="7.9486633"><ele>295.0</ele><time>2026-04-10T20:12:53.04Z</time></trkpt><trkpt lat="45.023915" lon="7.9486183"><ele>295.0</ele><time>2026-04-10T20:12:55.041Z</time></trkpt><trkpt lat="45.0239917" lon="7.9485717"><ele>295.0</ele><time>2026-04-10T20:12:57.042Z</time></trkpt><trkpt lat="45.024085" lon="7.9485333"><ele>295.0</ele><time>2026-04-10T20:12:59.042Z</time></trkpt><trkpt lat="45.0241733" lon="7.9484867"><ele>295.0</ele><time>2026-04-10T20:13:01.042Z</time></trkpt><trkpt lat="45.0242617" lon="7.9484283"><ele>294.8</ele><time>2026-04-10T20:13:03.042Z</time></trkpt><trkpt lat="45.02434" lon="7.9483517"><ele>294.6</ele><time>2026-04-10T20:13:05.041Z</time></trkpt><trkpt lat="45.0244133" lon="7.948275"><ele>294.4</ele><time>2026-04-10T20:13:07.042Z</time></trkpt><trkpt lat="45.0244883" lon="7.948195"><ele>294.2</ele><time>2026-04-10T20:13:09.042Z</time></trkpt><trkpt lat="45.0245683" lon="7.9481133"><ele>294.0</ele><time>2026-04-10T20:13:11.041Z</time></trkpt><trkpt lat="45.02463" lon="7.9480283"><ele>294.0</ele><time>2026-04-10T20:13:13.041Z</time></trkpt><trkpt lat="45.0247067" lon="7.9479533"><ele>294.0</ele><time>2026-04-10T20:13:15.042Z</time></trkpt><trkpt lat="45.024775" lon="7.94788"><ele>294.0</ele><time>2026-04-10T20:13:17.045Z</time></trkpt><trkpt lat="45.02485" lon="7.94781"><ele>294.0</ele><time>2026-04-10T20:13:19.042Z</time></trkpt><trkpt lat="45.0249233" lon="7.947735"><ele>294.0</ele><time>2026-04-10T20:13:21.042Z</time></trkpt><trkpt lat="45.0249867" lon="7.9476583"><ele>294.0</ele><time>2026-04-10T20:13:23.041Z</time></trkpt><trkpt lat="45.0250567" lon="7.947575"><ele>294.0</ele><time>2026-04-10T20:13:25.042Z</time></trkpt><trkpt lat="45.0251333" lon="7.947485"><ele>294.0</ele><time>2026-04-10T20:13:27.041Z</time></trkpt><trkpt lat="45.0252" lon="7.9473983"><ele>294.0</ele><time>2026-04-10T20:13:29.042Z</time></trkpt><trkpt lat="45.0252667" lon="7.9473117"><ele>294.0</ele><time>2026-04-10T20:13:31.041Z</time></trkpt><trkpt lat="45.0253283" lon="7.9472283"><ele>294.0</ele><time>2026-04-10T20:13:33.042Z</time></trkpt><trkpt lat="45.0254067" lon="7.94715"><ele>294.0</ele><time>2026-04-10T20:13:35.041Z</time></trkpt><trkpt lat="45.0254783" lon="7.9470617"><ele>294.0</ele><time>2026-04-10T20:13:37.041Z</time></trkpt><trkpt lat="45.0255567" lon="7.94698"><ele>294.0</ele><time>2026-04-10T20:13:39.044Z</time></trkpt><trkpt lat="45.0256333" lon="7.94689"><ele>294.0</ele><time>2026-04-10T20:13:41.041Z</time></trkpt><trkpt lat="45.0257083" lon="7.9467967"><ele>294.0</ele><time>2026-04-10T20:13:43.04Z</time></trkpt><trkpt lat="45.0257867" lon="7.94671"><ele>293.4</ele><time>2026-04-10T20:13:45.042Z</time></trkpt><trkpt lat="45.0258667" lon="7.94662"><ele>292.79999999999995</ele><time>2026-04-10T20:13:47.041Z</time></trkpt><trkpt lat="45.02595" lon="7.94653"><ele>292.20000000000005</ele><time>2026-04-10T20:13:49.042Z</time></trkpt><trkpt lat="45.026035" lon="7.94643"><ele>291.6</ele><time>2026-04-10T20:13:51.042Z</time></trkpt><trkpt lat="45.02612" lon="7.9463383"><ele>291.0</ele><time>2026-04-10T20:13:53.042Z</time></trkpt><trkpt lat="45.0262067" lon="7.946245"><ele>291.0</ele><time>2026-04-10T20:13:55.042Z</time></trkpt><trkpt lat="45.0263" lon="7.9461483"><ele>291.0</ele><time>2026-04-10T20:13:57.041Z</time></trkpt><trkpt lat="45.0263883" lon="7.9460433"><ele>291.0</ele><time>2026-04-10T20:13:59.041Z</time></trkpt><trkpt lat="45.02648" lon="7.9459433"><ele>291.0</ele><time>2026-04-10T20:14:01.042Z</time></trkpt><trkpt lat="45.0265717" lon="7.9458467"><ele>290.5</ele><time>2026-04-10T20:14:03.042Z</time></trkpt><trkpt lat="45.026665" lon="7.945745"><ele>290.0</ele><time>2026-04-10T20:14:05.041Z</time></trkpt><trkpt lat="45.0267567" lon="7.9456433"><ele>289.5</ele><time>2026-04-10T20:14:07.043Z</time></trkpt><trkpt lat="45.0268417" lon="7.9455433"><ele>289.0</ele><time>2026-04-10T20:14:09.043Z</time></trkpt><trkpt lat="45.026935" lon="7.9454333"><ele>289.0</ele><time>2026-04-10T20:14:11.042Z</time></trkpt><trkpt lat="45.02702" lon="7.945325"><ele>289.0</ele><time>2026-04-10T20:14:13.041Z</time></trkpt><trkpt lat="45.0271133" lon="7.9452217"><ele>289.0</ele><time>2026-04-10T20:14:15.041Z</time></trkpt><trkpt lat="45.0271967" lon="7.94513"><ele>289.0</ele><time>2026-04-10T20:14:17.04Z</time></trkpt><trkpt lat="45.02728" lon="7.94504"><ele>289.0</ele><time>2026-04-10T20:14:19.042Z</time></trkpt><trkpt lat="45.0273667" lon="7.9449533"><ele>289.0</ele><time>2026-04-10T20:14:21.041Z</time></trkpt><trkpt lat="45.0274583" lon="7.9448533"><ele>289.0</ele><time>2026-04-10T20:14:23.04Z</time></trkpt><trkpt lat="45.0275483" lon="7.9447467"><ele>289.0</ele><time>2026-04-10T20:14:25.041Z</time></trkpt><trkpt lat="45.0276267" lon="7.94466"><ele>289.0</ele><time>2026-04-10T20:14:27.042Z</time></trkpt><trkpt lat="45.0277117" lon="7.9445767"><ele>289.0</ele><time>2026-04-10T20:14:29.041Z</time></trkpt><trkpt lat="45.0277967" lon="7.944485"><ele>289.2</ele><time>2026-04-10T20:14:31.042Z</time></trkpt><trkpt lat="45.02788" lon="7.9443867"><ele>289.4</ele><time>2026-04-10T20:14:33.041Z</time></trkpt><trkpt lat="45.027965" lon="7.944285"><ele>289.6</ele><time>2026-04-10T20:14:35.041Z</time></trkpt><trkpt lat="45.0280417" lon="7.9441983"><ele>289.8</ele><time>2026-04-10T20:14:37.041Z</time></trkpt><trkpt lat="45.0281017" lon="7.9441417"><ele>290.0</ele><time>2026-04-10T20:14:39.042Z</time></trkpt><trkpt lat="45.0279733" lon="7.9442067"><ele>290.0</ele><time>2026-04-10T20:14:46.04Z</time></trkpt><trkpt lat="45.0279067" lon="7.9442767"><ele>290.0</ele><time>2026-04-10T20:14:48.041Z</time></trkpt><trkpt lat="45.0278333" lon="7.9443567"><ele>290.0</ele><time>2026-04-10T20:14:50.04Z</time></trkpt><trkpt lat="45.0277617" lon="7.9444267"><ele>290.0</ele><time>2026-04-10T20:14:52.042Z</time></trkpt><trkpt lat="45.0276867" lon="7.9444967"><ele>290.0</ele><time>2026-04-10T20:14:54.041Z</time></trkpt><trkpt lat="45.0276283" lon="7.944565"><ele>290.0</ele><time>2026-04-10T20:14:56.041Z</time></trkpt><trkpt lat="45.0276483" lon="7.944655"><ele>290.0</ele><time>2026-04-10T20:14:58.04Z</time></trkpt><trkpt lat="45.027725" lon="7.9446667"><ele>290.0</ele><time>2026-04-10T20:15:00.04Z</time></trkpt><trkpt lat="45.0278083" lon="7.9446767"><ele>290.0</ele><time>2026-04-10T20:15:02.041Z</time></trkpt><trkpt lat="45.0278867" lon="7.9446867"><ele>290.0</ele><time>2026-04-10T20:15:04.041Z</time></trkpt><trkpt lat="45.02797" lon="7.94468"><ele>290.0</ele><time>2026-04-10T20:15:06.04Z</time></trkpt><trkpt lat="45.0280517" lon="7.94468"><ele>290.0</ele><time>2026-04-10T20:15:08.042Z</time></trkpt><trkpt lat="45.0281333" lon="7.944675"><ele>290.0</ele><time>2026-04-10T20:15:10.041Z</time></trkpt><trkpt lat="45.0282183" lon="7.9446683"><ele>290.0</ele><time>2026-04-10T20:15:12.041Z</time></trkpt><trkpt lat="45.0282883" lon="7.94466"><ele>290.0</ele><time>2026-04-10T20:15:14.041Z</time></trkpt><trkpt lat="45.0283583" lon="7.944655"><ele>290.0</ele><time>2026-04-10T20:15:16.04Z</time></trkpt><trkpt lat="45.028425" lon="7.94465"><ele>290.0</ele><time>2026-04-10T20:15:18.042Z</time></trkpt><trkpt lat="45.0285117" lon="7.944655"><ele>290.0</ele><time>2026-04-10T20:15:21.043Z</time></trkpt><trkpt lat="45.0286" lon="7.9446483"><ele>290.1666666666667</ele><time>2026-04-10T20:15:24.041Z</time></trkpt><trkpt lat="45.0286867" lon="7.944615"><ele>290.33333333333337</ele><time>2026-04-10T20:15:27.042Z</time></trkpt><trkpt lat="45.02875" lon="7.9445967"><ele>290.5</ele><time>2026-04-10T20:15:29.042Z</time></trkpt><trkpt lat="45.028835" lon="7.94458"><ele>290.6666666666667</ele><time>2026-04-10T20:15:32.041Z</time></trkpt><trkpt lat="45.0289" lon="7.9445733"><ele>290.8333333333333</ele><time>2026-04-10T20:15:34.041Z</time></trkpt><trkpt lat="45.0289933" lon="7.9445517"><ele>291.0</ele><time>2026-04-10T20:15:37.041Z</time></trkpt><trkpt lat="45.0290633" lon="7.94453"><ele>291.0</ele><time>2026-04-10T20:15:39.041Z</time></trkpt><trkpt lat="45.0291383" lon="7.9445117"><ele>291.0</ele><time>2026-04-10T20:15:41.041Z</time></trkpt><trkpt lat="45.0292067" lon="7.9445017"><ele>291.0</ele><time>2026-04-10T20:15:43.042Z</time></trkpt><trkpt lat="45.0292783" lon="7.9444933"><ele>291.0</ele><time>2026-04-10T20:15:45.042Z</time></trkpt><trkpt lat="45.0293517" lon="7.9444817"><ele>291.0</ele><time>2026-04-10T20:15:47.04Z</time></trkpt><trkpt lat="45.029425" lon="7.9444667"><ele>291.0</ele><time>2026-04-10T20:15:49.041Z</time></trkpt><trkpt lat="45.0295" lon="7.9444517"><ele>291.0</ele><time>2026-04-10T20:15:51.042Z</time></trkpt><trkpt lat="45.0295683" lon="7.944445"><ele>291.2857142857143</ele><time>2026-04-10T20:15:53.04Z</time></trkpt><trkpt lat="45.0296367" lon="7.9444467"><ele>291.57142857142856</ele><time>2026-04-10T20:15:55.04Z</time></trkpt><trkpt lat="45.02971" lon="7.94444"><ele>291.85714285714283</ele><time>2026-04-10T20:15:57.041Z</time></trkpt><trkpt lat="45.0297817" lon="7.94444"><ele>292.1428571428571</ele><time>2026-04-10T20:15:59.04Z</time></trkpt><trkpt lat="45.0298467" lon="7.9444383"><ele>292.42857142857144</ele><time>2026-04-10T20:16:01.041Z</time></trkpt><trkpt lat="45.0299183" lon="7.94444"><ele>292.71428571428567</ele><time>2026-04-10T20:16:03.043Z</time></trkpt><trkpt lat="45.02999" lon="7.9444433"><ele>293.0</ele><time>2026-04-10T20:16:05.042Z</time></trkpt><trkpt lat="45.030055" lon="7.9444533"><ele>294.1666666666667</ele><time>2026-04-10T20:16:07.043Z</time></trkpt><trkpt lat="45.0301483" lon="7.9444717"><ele>295.33333333333337</ele><time>2026-04-10T20:16:10.043Z</time></trkpt><trkpt lat="45.03024" lon="7.9445033"><ele>296.5</ele><time>2026-04-10T20:16:13.042Z</time></trkpt><trkpt lat="45.0303167" lon="7.944525"><ele>297.6666666666667</ele><time>2026-04-10T20:16:16.042Z</time></trkpt><trkpt lat="45.0303883" lon="7.9445283"><ele>298.8333333333333</ele><time>2026-04-10T20:16:19.043Z</time></trkpt><trkpt lat="45.030465" lon="7.9445583"><ele>300.0</ele><time>2026-04-10T20:16:22.042Z</time></trkpt><trkpt lat="45.0305533" lon="7.944565"><ele>300.0</ele><time>2026-04-10T20:16:25.042Z</time></trkpt><trkpt lat="45.0306333" lon="7.9445833"><ele>300.0</ele><time>2026-04-10T20:16:28.041Z</time></trkpt><trkpt lat="45.0307217" lon="7.9445933"><ele>300.0</ele><time>2026-04-10T20:16:31.043Z</time></trkpt><trkpt lat="45.030785" lon="7.9445967"><ele>300.0</ele><time>2026-04-10T20:16:33.042Z</time></trkpt><trkpt lat="45.03087" lon="7.944605"><ele>300.0</ele><time>2026-04-10T20:16:36.042Z</time></trkpt><trkpt lat="45.0309517" lon="7.9446183"><ele>300.0</ele><time>2026-04-10T20:16:39.042Z</time></trkpt><trkpt lat="45.0310167" lon="7.944635"><ele>301.0</ele><time>2026-04-10T20:16:42.042Z</time></trkpt><trkpt lat="45.0310917" lon="7.9446483"><ele>302.0</ele><time>2026-04-10T20:16:45.041Z</time></trkpt><trkpt lat="45.0311717" lon="7.9446767"><ele>303.0</ele><time>2026-04-10T20:16:49.04Z</time></trkpt><trkpt lat="45.031235" lon="7.9446883"><ele>304.0</ele><time>2026-04-10T20:16:52.04Z</time></trkpt><trkpt lat="45.0313133" lon="7.944705"><ele>305.0</ele><time>2026-04-10T20:16:56.042Z</time></trkpt><trkpt lat="45.0313933" lon="7.9447267"><ele>306.0</ele><time>2026-04-10T20:17:00.041Z</time></trkpt><trkpt lat="45.0314717" lon="7.94474"><ele>306.0</ele><time>2026-04-10T20:17:04.04Z</time></trkpt><trkpt lat="45.031545" lon="7.9447667"><ele>306.0</ele><time>2026-04-10T20:17:08.041Z</time></trkpt><trkpt lat="45.0316067" lon="7.944795"><ele>306.0</ele><time>2026-04-10T20:17:11.041Z</time></trkpt><trkpt lat="45.0316683" lon="7.9448183"><ele>306.0</ele><time>2026-04-10T20:17:14.041Z</time></trkpt><trkpt lat="45.0317333" lon="7.9448417"><ele>306.0</ele><time>2026-04-10T20:17:17.042Z</time></trkpt><trkpt lat="45.0317983" lon="7.9448683"><ele>306.0</ele><time>2026-04-10T20:17:19.041Z</time></trkpt><trkpt lat="45.0318883" lon="7.9449033"><ele>306.0</ele><time>2026-04-10T20:17:22.04Z</time></trkpt><trkpt lat="45.0319533" lon="7.9449233"><ele>306.6666666666667</ele><time>2026-04-10T20:17:24.041Z</time></trkpt><trkpt lat="45.03204" lon="7.9449467"><ele>307.3333333333333</ele><time>2026-04-10T20:17:27.041Z</time></trkpt><trkpt lat="45.032125" lon="7.9449633"><ele>308.0</ele><time>2026-04-10T20:17:30.041Z</time></trkpt><trkpt lat="45.0321883" lon="7.9449717"><ele>308.66666666666663</ele><time>2026-04-10T20:17:32.04Z</time></trkpt><trkpt lat="45.03226" lon="7.9449683"><ele>309.3333333333333</ele><time>2026-04-10T20:17:34.04Z</time></trkpt><trkpt lat="45.03233" lon="7.9449667"><ele>310.0</ele><time>2026-04-10T20:17:36.04Z</time></trkpt><trkpt lat="45.0324067" lon="7.9449783"><ele>310.0</ele><time>2026-04-10T20:17:38.041Z</time></trkpt><trkpt lat="45.032475" lon="7.9450017"><ele>310.0</ele><time>2026-04-10T20:17:40.04Z</time></trkpt><trkpt lat="45.03254" lon="7.9450183"><ele>310.0</ele><time>2026-04-10T20:17:42.041Z</time></trkpt><trkpt lat="45.0326083" lon="7.9450417"><ele>310.0</ele><time>2026-04-10T20:17:44.04Z</time></trkpt><trkpt lat="45.0326733" lon="7.945065"><ele>310.0</ele><time>2026-04-10T20:17:46.04Z</time></trkpt><trkpt lat="45.0327367" lon="7.94508"><ele>310.0</ele><time>2026-04-10T20:17:48.041Z</time></trkpt><trkpt lat="45.0328283" lon="7.9451067"><ele>310.0</ele><time>2026-04-10T20:17:51.041Z</time></trkpt><trkpt lat="45.0329083" lon="7.9451367"><ele>310.14285714285717</ele><time>2026-04-10T20:17:54.04Z</time></trkpt><trkpt lat="45.0329633" lon="7.9451817"><ele>310.2857142857143</ele><time>2026-04-10T20:17:56.041Z</time></trkpt><trkpt lat="45.0330183" lon="7.9452283"><ele>310.42857142857144</ele><time>2026-04-10T20:17:58.041Z</time></trkpt><trkpt lat="45.0330817" lon="7.9452917"><ele>310.57142857142856</ele><time>2026-04-10T20:18:00.042Z</time></trkpt><trkpt lat="45.0331567" lon="7.94535"><ele>310.7142857142857</ele><time>2026-04-10T20:18:02.041Z</time></trkpt><trkpt lat="45.0332233" lon="7.9454083"><ele>310.85714285714283</ele><time>2026-04-10T20:18:04.041Z</time></trkpt><trkpt lat="45.0332933" lon="7.9454583"><ele>311.0</ele><time>2026-04-10T20:18:06.041Z</time></trkpt><trkpt lat="45.033375" lon="7.9455067"><ele>311.0</ele><time>2026-04-10T20:18:08.042Z</time></trkpt><trkpt lat="45.0334483" lon="7.9455317"><ele>311.0</ele><time>2026-04-10T20:18:10.04Z</time></trkpt><trkpt lat="45.0335367" lon="7.9455367"><ele>311.0</ele><time>2026-04-10T20:18:12.041Z</time></trkpt><trkpt lat="45.03362" lon="7.9455283"><ele>311.0</ele><time>2026-04-10T20:18:14.041Z</time></trkpt><trkpt lat="45.0336983" lon="7.9455217"><ele>311.0</ele><time>2026-04-10T20:18:16.041Z</time></trkpt><trkpt lat="45.0337867" lon="7.9455067"><ele>311.0</ele><time>2026-04-10T20:18:18.041Z</time></trkpt><trkpt lat="45.033875" lon="7.945495"><ele>311.0</ele><time>2026-04-10T20:18:20.041Z</time></trkpt><trkpt lat="45.0339483" lon="7.9454867"><ele>311.0</ele><time>2026-04-10T20:18:22.041Z</time></trkpt><trkpt lat="45.0340167" lon="7.9454717"><ele>311.0</ele><time>2026-04-10T20:18:24.042Z</time></trkpt><trkpt lat="45.0340883" lon="7.9454567"><ele>311.0</ele><time>2026-04-10T20:18:26.041Z</time></trkpt><trkpt lat="45.0341633" lon="7.9454383"><ele>311.0</ele><time>2026-04-10T20:18:28.042Z</time></trkpt><trkpt lat="45.03424" lon="7.9454267"><ele>311.0</ele><time>2026-04-10T20:18:30.04Z</time></trkpt><trkpt lat="45.0343117" lon="7.945415"><ele>311.0</ele><time>2026-04-10T20:18:32.041Z</time></trkpt><trkpt lat="45.0343883" lon="7.9453967"><ele>310.4285714285714</ele><time>2026-04-10T20:18:34.04Z</time></trkpt><trkpt lat="45.034455" lon="7.94538"><ele>309.8571428571429</ele><time>2026-04-10T20:18:36.041Z</time></trkpt><trkpt lat="45.03452" lon="7.94537"><ele>309.2857142857143</ele><time>2026-04-10T20:18:38.04Z</time></trkpt><trkpt lat="45.034585" lon="7.94536"><ele>308.71428571428567</ele><time>2026-04-10T20:18:40.041Z</time></trkpt><trkpt lat="45.03465" lon="7.94535"><ele>308.1428571428571</ele><time>2026-04-10T20:18:42.042Z</time></trkpt><trkpt lat="45.03472" lon="7.94534"><ele>307.57142857142856</ele><time>2026-04-10T20:18:44.042Z</time></trkpt><trkpt lat="45.0347883" lon="7.9453367"><ele>307.0</ele><time>2026-04-10T20:18:46.04Z</time></trkpt><trkpt lat="45.0348683" lon="7.9453233"><ele>307.0</ele><time>2026-04-10T20:18:48.041Z</time></trkpt><trkpt lat="45.0349583" lon="7.9453067"><ele>307.0</ele><time>2026-04-10T20:18:50.041Z</time></trkpt><trkpt lat="45.0350617" lon="7.9452983"><ele>307.0</ele><time>2026-04-10T20:18:52.042Z</time></trkpt><trkpt lat="45.0351667" lon="7.9453033"><ele>307.0</ele><time>2026-04-10T20:18:54.04Z</time></trkpt><trkpt lat="45.0352767" lon="7.94535"><ele>307.0</ele><time>2026-04-10T20:18:56.04Z</time></trkpt><trkpt lat="45.0353817" lon="7.9454267"><ele>307.6</ele><time>2026-04-10T20:18:58.041Z</time></trkpt><trkpt lat="45.0354733" lon="7.94552"><ele>308.2</ele><time>2026-04-10T20:19:00.042Z</time></trkpt><trkpt lat="45.0355617" lon="7.94562"><ele>308.8</ele><time>2026-04-10T20:19:02.041Z</time></trkpt><trkpt lat="45.0356483" lon="7.9457183"><ele>309.4</ele><time>2026-04-10T20:19:04.04Z</time></trkpt><trkpt lat="45.03573" lon="7.94581"><ele>310.0</ele><time>2026-04-10T20:19:06.04Z</time></trkpt><trkpt lat="45.0357933" lon="7.9459033"><ele>309.8333333333333</ele><time>2026-04-10T20:19:08.042Z</time></trkpt><trkpt lat="45.035845" lon="7.9459817"><ele>309.66666666666663</ele><time>2026-04-10T20:19:10.046Z</time></trkpt><trkpt lat="45.0359017" lon="7.9460567"><ele>309.5</ele><time>2026-04-10T20:19:12.041Z</time></trkpt><trkpt lat="45.0359617" lon="7.94614"><ele>309.3333333333333</ele><time>2026-04-10T20:19:14.041Z</time></trkpt><trkpt lat="45.0360067" lon="7.9462333"><ele>309.1666666666667</ele><time>2026-04-10T20:19:16.041Z</time></trkpt><trkpt lat="45.0360717" lon="7.9463067"><ele>309.0</ele><time>2026-04-10T20:19:18.04Z</time></trkpt><trkpt lat="45.036135" lon="7.9463717"><ele>309.0</ele><time>2026-04-10T20:19:20.04Z</time></trkpt><trkpt lat="45.0361967" lon="7.946445"><ele>309.0</ele><time>2026-04-10T20:19:22.043Z</time></trkpt><trkpt lat="45.0362617" lon="7.94651"><ele>309.0</ele><time>2026-04-10T20:19:24.041Z</time></trkpt><trkpt lat="45.0363233" lon="7.9465717"><ele>309.0</ele><time>2026-04-10T20:19:26.041Z</time></trkpt><trkpt lat="45.0363817" lon="7.9466367"><ele>309.0</ele><time>2026-04-10T20:19:28.041Z</time></trkpt><trkpt lat="45.0364383" lon="7.9467033"><ele>309.0</ele><time>2026-04-10T20:19:30.042Z</time></trkpt><trkpt lat="45.036505" lon="7.946765"><ele>309.0</ele><time>2026-04-10T20:19:32.04Z</time></trkpt><trkpt lat="45.0365717" lon="7.9468033"><ele>309.0</ele><time>2026-04-10T20:19:34.04Z</time></trkpt><trkpt lat="45.0366483" lon="7.9468217"><ele>309.0</ele><time>2026-04-10T20:19:36.04Z</time></trkpt><trkpt lat="45.0367333" lon="7.9468367"><ele>309.0</ele><time>2026-04-10T20:19:38.04Z</time></trkpt><trkpt lat="45.0368117" lon="7.94684"><ele>309.0</ele><time>2026-04-10T20:19:40.04Z</time></trkpt><trkpt lat="45.0368867" lon="7.9468533"><ele>309.0</ele><time>2026-04-10T20:19:42.04Z</time></trkpt><trkpt lat="45.0369617" lon="7.94686"><ele>309.00000000000006</ele><time>2026-04-10T20:19:44.04Z</time></trkpt><trkpt lat="45.0370367" lon="7.9468583"><ele>309.0</ele><time>2026-04-10T20:19:46.04Z</time></trkpt><trkpt lat="45.0371133" lon="7.94686"><ele>309.0</ele><time>2026-04-10T20:19:48.042Z</time></trkpt><trkpt lat="45.0371867" lon="7.946865"><ele>309.0</ele><time>2026-04-10T20:19:50.041Z</time></trkpt><trkpt lat="45.0372583" lon="7.9468583"><ele>309.0</ele><time>2026-04-10T20:19:52.041Z</time></trkpt><trkpt lat="45.0373283" lon="7.9468417"><ele>309.00000000000006</ele><time>2026-04-10T20:19:54.041Z</time></trkpt><trkpt lat="45.037395" lon="7.9468233"><ele>309.0</ele><time>2026-04-10T20:19:56.041Z</time></trkpt><trkpt lat="45.03746" lon="7.9467917"><ele>309.1666666666667</ele><time>2026-04-10T20:19:58.04Z</time></trkpt><trkpt lat="45.0375267" lon="7.9467733"><ele>309.3333333333333</ele><time>2026-04-10T20:20:00.041Z</time></trkpt><trkpt lat="45.0375883" lon="7.9467467"><ele>309.5</ele><time>2026-04-10T20:20:02.04Z</time></trkpt><trkpt lat="45.037655" lon="7.9466933"><ele>309.66666666666663</ele><time>2026-04-10T20:20:05.04Z</time></trkpt><trkpt lat="45.0377217" lon="7.9466433"><ele>309.8333333333333</ele><time>2026-04-10T20:20:07.041Z</time></trkpt><trkpt lat="45.0377983" lon="7.9465333"><ele>310.0</ele><time>2026-04-10T20:20:11.04Z</time></trkpt><trkpt lat="45.03785" lon="7.9464233"><ele>311.3333333333333</ele><time>2026-04-10T20:20:14.041Z</time></trkpt><trkpt lat="45.03788" lon="7.9463033"><ele>312.66666666666663</ele><time>2026-04-10T20:20:17.039Z</time></trkpt><trkpt lat="45.0378883" lon="7.946185"><ele>314.0</ele><time>2026-04-10T20:20:20.04Z</time></trkpt><trkpt lat="45.037915" lon="7.9460733"><ele>315.3333333333333</ele><time>2026-04-10T20:20:23.041Z</time></trkpt><trkpt lat="45.0379617" lon="7.946"><ele>316.6666666666667</ele><time>2026-04-10T20:20:26.042Z</time></trkpt><trkpt lat="45.038" lon="7.94591"><ele>318.0</ele><time>2026-04-10T20:20:29.04Z</time></trkpt><trkpt lat="45.03802" lon="7.945815"><ele>318.6666666666667</ele><time>2026-04-10T20:20:33.042Z</time></trkpt><trkpt lat="45.038065" lon="7.9457383"><ele>319.3333333333333</ele><time>2026-04-10T20:20:36.04Z</time></trkpt><trkpt lat="45.0380833" lon="7.9456383"><ele>320.0</ele><time>2026-04-10T20:20:40.04Z</time></trkpt><trkpt lat="45.0381517" lon="7.9455583"><ele>320.66666666666663</ele><time>2026-04-10T20:20:44.04Z</time></trkpt><trkpt lat="45.0382233" lon="7.9454617"><ele>321.3333333333333</ele><time>2026-04-10T20:20:47.04Z</time></trkpt><trkpt lat="45.0382833" lon="7.94539"><ele>322.0</ele><time>2026-04-10T20:20:50.041Z</time></trkpt><trkpt lat="45.0383467" lon="7.9453267"><ele>323.16666666666663</ele><time>2026-04-10T20:20:53.041Z</time></trkpt><trkpt lat="45.03841" lon="7.9452817"><ele>324.3333333333333</ele><time>2026-04-10T20:20:55.04Z</time></trkpt><trkpt lat="45.03847" lon="7.9452317"><ele>325.5</ele><time>2026-04-10T20:20:57.041Z</time></trkpt><trkpt lat="45.0385633" lon="7.9452033"><ele>326.6666666666667</ele><time>2026-04-10T20:20:59.04Z</time></trkpt><trkpt lat="45.0386433" lon="7.945185"><ele>327.83333333333337</ele><time>2026-04-10T20:21:01.041Z</time></trkpt><trkpt lat="45.0387283" lon="7.9451683"><ele>329.0</ele><time>2026-04-10T20:21:03.04Z</time></trkpt><trkpt lat="45.038805" lon="7.9451867"><ele>329.0</ele><time>2026-04-10T20:21:05.04Z</time></trkpt><trkpt lat="45.0389" lon="7.94521"><ele>329.0</ele><time>2026-04-10T20:21:07.041Z</time></trkpt><trkpt lat="45.0389983" lon="7.94521"><ele>329.0</ele><time>2026-04-10T20:21:09.041Z</time></trkpt><trkpt lat="45.0390817" lon="7.945205"><ele>329.0</ele><time>2026-04-10T20:21:11.04Z</time></trkpt><trkpt lat="45.0391617" lon="7.9452383"><ele>329.0</ele><time>2026-04-10T20:21:14.135Z</time></trkpt><trkpt lat="45.0392383" lon="7.945165"><ele>327.6</ele><time>2026-04-10T20:21:17.04Z</time></trkpt><trkpt lat="45.0392533" lon="7.9450217"><ele>326.2</ele><time>2026-04-10T20:21:20.04Z</time></trkpt><trkpt lat="45.0392367" lon="7.9448933"><ele>324.8</ele><time>2026-04-10T20:21:22.04Z</time></trkpt><trkpt lat="45.0392333" lon="7.9447517"><ele>323.40000000000003</ele><time>2026-04-10T20:21:24.041Z</time></trkpt><trkpt lat="45.03925" lon="7.9445983"><ele>322.0</ele><time>2026-04-10T20:21:26.04Z</time></trkpt><trkpt lat="45.0392617" lon="7.9444633"><ele>322.0</ele><time>2026-04-10T20:21:28.041Z</time></trkpt><trkpt lat="45.0392683" lon="7.9443617"><ele>322.0</ele><time>2026-04-10T20:21:30.04Z</time></trkpt><trkpt lat="45.0392767" lon="7.944245"><ele>322.0</ele><time>2026-04-10T20:21:33.04Z</time></trkpt><trkpt lat="45.0393117" lon="7.9441667"><ele>322.0</ele><time>2026-04-10T20:21:41.04Z</time></trkpt><trkpt lat="45.0393817" lon="7.94421"><ele>322.0</ele><time>2026-04-10T20:21:44.041Z</time></trkpt><trkpt lat="45.0394517" lon="7.9442533"><ele>322.0</ele><time>2026-04-10T20:21:46.041Z</time></trkpt><trkpt lat="45.039535" lon="7.9443017"><ele>322.0</ele><time>2026-04-10T20:21:48.042Z</time></trkpt><trkpt lat="45.0396333" lon="7.9443667"><ele>322.0</ele><time>2026-04-10T20:21:50.042Z</time></trkpt><trkpt lat="45.0397317" lon="7.9444517"><ele>322.0</ele><time>2026-04-10T20:21:52.04Z</time></trkpt><trkpt lat="45.039795" lon="7.9445083"><ele>322.0</ele><time>2026-04-10T20:21:53.04Z</time></trkpt><trkpt lat="45.03985" lon="7.9445767"><ele>322.0</ele><time>2026-04-10T20:21:54.042Z</time></trkpt><trkpt lat="45.0398933" lon="7.944655"><ele>322.0</ele><time>2026-04-10T20:21:55.041Z</time></trkpt><trkpt lat="45.0399217" lon="7.944755"><ele>322.0</ele><time>2026-04-10T20:21:56.04Z</time></trkpt><trkpt lat="45.0399383" lon="7.944865"><ele>322.0</ele><time>2026-04-10T20:21:57.042Z</time></trkpt><trkpt lat="45.03994" lon="7.9449883"><ele>322.0</ele><time>2026-04-10T20:21:58.04Z</time></trkpt><trkpt lat="45.0399283" lon="7.9451217"><ele>322.0</ele><time>2026-04-10T20:21:59.04Z</time></trkpt><trkpt lat="45.0399233" lon="7.9452567"><ele>322.0</ele><time>2026-04-10T20:22:00.04Z</time></trkpt><trkpt lat="45.039915" lon="7.945395"><ele>322.40000000000003</ele><time>2026-04-10T20:22:01.04Z</time></trkpt><trkpt lat="45.0399183" lon="7.945535"><ele>322.8</ele><time>2026-04-10T20:22:02.04Z</time></trkpt><trkpt lat="45.0399283" lon="7.9456667"><ele>323.2</ele><time>2026-04-10T20:22:03.041Z</time></trkpt><trkpt lat="45.0399533" lon="7.9457933"><ele>323.6</ele><time>2026-04-10T20:22:04.041Z</time></trkpt><trkpt lat="45.03997" lon="7.945905"><ele>324.0</ele><time>2026-04-10T20:22:05.04Z</time></trkpt><trkpt lat="45.0399933" lon="7.94602"><ele>321.8333333333333</ele><time>2026-04-10T20:22:06.041Z</time></trkpt><trkpt lat="45.0400033" lon="7.9461317"><ele>319.6666666666667</ele><time>2026-04-10T20:22:07.04Z</time></trkpt><trkpt lat="45.03999" lon="7.9462333"><ele>317.5</ele><time>2026-04-10T20:22:08.04Z</time></trkpt><trkpt lat="45.03996" lon="7.946325"><ele>315.33333333333337</ele><time>2026-04-10T20:22:09.041Z</time></trkpt><trkpt lat="45.0399067" lon="7.9464033"><ele>313.1666666666667</ele><time>2026-04-10T20:22:10.04Z</time></trkpt><trkpt lat="45.0398417" lon="7.9464633"><ele>311.0</ele><time>2026-04-10T20:22:11.04Z</time></trkpt><trkpt lat="45.0397633" lon="7.9464867"><ele>311.0</ele><time>2026-04-10T20:22:12.04Z</time></trkpt><trkpt lat="45.039675" lon="7.9464917"><ele>311.0</ele><time>2026-04-10T20:22:13.041Z</time></trkpt><trkpt lat="45.0395767" lon="7.9465017"><ele>311.0</ele><time>2026-04-10T20:22:14.04Z</time></trkpt><trkpt lat="45.0394817" lon="7.9465383"><ele>311.0</ele><time>2026-04-10T20:22:15.041Z</time></trkpt><trkpt lat="45.0393933" lon="7.946605"><ele>311.0</ele><time>2026-04-10T20:22:16.04Z</time></trkpt><trkpt lat="45.0393367" lon="7.9467133"><ele>307.6</ele><time>2026-04-10T20:22:17.041Z</time></trkpt><trkpt lat="45.0393083" lon="7.9468333"><ele>304.20000000000005</ele><time>2026-04-10T20:22:18.04Z</time></trkpt><trkpt lat="45.0392833" lon="7.9469583"><ele>300.79999999999995</ele><time>2026-04-10T20:22:19.04Z</time></trkpt><trkpt lat="45.03926" lon="7.947085"><ele>297.4</ele><time>2026-04-10T20:22:20.041Z</time></trkpt><trkpt lat="45.0392467" lon="7.9472183"><ele>294.0</ele><time>2026-04-10T20:22:21.04Z</time></trkpt><trkpt lat="45.0392417" lon="7.9473583"><ele>294.0</ele><time>2026-04-10T20:22:22.04Z</time></trkpt><trkpt lat="45.0392417" lon="7.9474933"><ele>294.0</ele><time>2026-04-10T20:22:23.041Z</time></trkpt><trkpt lat="45.039235" lon="7.9476217"><ele>294.0</ele><time>2026-04-10T20:22:24.041Z</time></trkpt><trkpt lat="45.0392167" lon="7.947745"><ele>294.0</ele><time>2026-04-10T20:22:25.04Z</time></trkpt><trkpt lat="45.0391883" lon="7.9478583"><ele>294.0</ele><time>2026-04-10T20:22:26.041Z</time></trkpt><trkpt lat="45.0391483" lon="7.94797"><ele>294.0</ele><time>2026-04-10T20:22:27.041Z</time></trkpt><trkpt lat="45.0391167" lon="7.9480967"><ele>290.59999999999997</ele><time>2026-04-10T20:22:28.04Z</time></trkpt><trkpt lat="45.0391067" lon="7.9482317"><ele>287.2</ele><time>2026-04-10T20:22:29.04Z</time></trkpt><trkpt lat="45.0391133" lon="7.9483783"><ele>283.79999999999995</ele><time>2026-04-10T20:22:30.04Z</time></trkpt><trkpt lat="45.0391283" lon="7.94853"><ele>280.4</ele><time>2026-04-10T20:22:31.04Z</time></trkpt><trkpt lat="45.0391583" lon="7.9486883"><ele>277.0</ele><time>2026-04-10T20:22:32.041Z</time></trkpt><trkpt lat="45.0391867" lon="7.94885"><ele>275.0</ele><time>2026-04-10T20:22:33.043Z</time></trkpt><trkpt lat="45.0392133" lon="7.94901"><ele>273.0</ele><time>2026-04-10T20:22:34.042Z</time></trkpt><trkpt lat="45.0392317" lon="7.9491683"><ele>271.0</ele><time>2026-04-10T20:22:35.041Z</time></trkpt><trkpt lat="45.0392483" lon="7.9493283"><ele>269.0</ele><time>2026-04-10T20:22:36.041Z</time></trkpt><trkpt lat="45.03927" lon="7.949485"><ele>268.4</ele><time>2026-04-10T20:22:37.042Z</time></trkpt><trkpt lat="45.03929" lon="7.9496383"><ele>267.79999999999995</ele><time>2026-04-10T20:22:38.04Z</time></trkpt><trkpt lat="45.03931" lon="7.9497883"><ele>267.20000000000005</ele><time>2026-04-10T20:22:39.041Z</time></trkpt><trkpt lat="45.0393183" lon="7.9499333"><ele>266.6</ele><time>2026-04-10T20:22:40.041Z</time></trkpt><trkpt lat="45.0393117" lon="7.9500817"><ele>266.0</ele><time>2026-04-10T20:22:41.04Z</time></trkpt><trkpt lat="45.0392917" lon="7.950225"><ele>265.8</ele><time>2026-04-10T20:22:42.042Z</time></trkpt><trkpt lat="45.03926" lon="7.9503667"><ele>265.6</ele><time>2026-04-10T20:22:43.041Z</time></trkpt><trkpt lat="45.0392133" lon="7.9505083"><ele>265.4</ele><time>2026-04-10T20:22:44.041Z</time></trkpt><trkpt lat="45.0391633" lon="7.9506467"><ele>265.2</ele><time>2026-04-10T20:22:45.041Z</time></trkpt><trkpt lat="45.0391033" lon="7.9507833"><ele>265.0</ele><time>2026-04-10T20:22:46.04Z</time></trkpt><trkpt lat="45.0390417" lon="7.9509283"><ele>262.25</ele><time>2026-04-10T20:22:47.04Z</time></trkpt><trkpt lat="45.0389767" lon="7.9510733"><ele>259.5</ele><time>2026-04-10T20:22:48.042Z</time></trkpt><trkpt lat="45.0389133" lon="7.951215"><ele>256.75</ele><time>2026-04-10T20:22:49.041Z</time></trkpt><trkpt lat="45.03885" lon="7.9513633"><ele>254.0</ele><time>2026-04-10T20:22:50.041Z</time></trkpt><trkpt lat="45.03879" lon="7.9515117"><ele>254.0</ele><time>2026-04-10T20:22:51.041Z</time></trkpt><trkpt lat="45.038735" lon="7.9516633"><ele>254.0</ele><time>2026-04-10T20:22:52.041Z</time></trkpt><trkpt lat="45.0386817" lon="7.9518117"><ele>254.0</ele><time>2026-04-10T20:22:53.04Z</time></trkpt><trkpt lat="45.0386383" lon="7.9519583"><ele>254.0</ele><time>2026-04-10T20:22:54.04Z</time></trkpt><trkpt lat="45.0386083" lon="7.9521017"><ele>252.79999999999998</ele><time>2026-04-10T20:22:55.041Z</time></trkpt><trkpt lat="45.038585" lon="7.95225"><ele>251.59999999999997</ele><time>2026-04-10T20:22:56.041Z</time></trkpt><trkpt lat="45.03858" lon="7.9523933"><ele>250.4</ele><time>2026-04-10T20:22:57.04Z</time></trkpt><trkpt lat="45.038585" lon="7.9525383"><ele>249.2</ele><time>2026-04-10T20:22:58.041Z</time></trkpt><trkpt lat="45.0385967" lon="7.9526833"><ele>248.0</ele><time>2026-04-10T20:22:59.04Z</time></trkpt><trkpt lat="45.03862" lon="7.9528283"><ele>247.2</ele><time>2026-04-10T20:23:00.04Z</time></trkpt><trkpt lat="45.0386483" lon="7.952975"><ele>246.4</ele><time>2026-04-10T20:23:01.041Z</time></trkpt><trkpt lat="45.0386833" lon="7.9531183"><ele>245.59999999999997</ele><time>2026-04-10T20:23:02.041Z</time></trkpt><trkpt lat="45.0387183" lon="7.9532633"><ele>244.79999999999998</ele><time>2026-04-10T20:23:03.042Z</time></trkpt><trkpt lat="45.03875" lon="7.9534033"><ele>244.0</ele><time>2026-04-10T20:23:04.042Z</time></trkpt><trkpt lat="45.0387817" lon="7.9535383"><ele>243.79999999999998</ele><time>2026-04-10T20:23:05.041Z</time></trkpt><trkpt lat="45.0388133" lon="7.953675"><ele>243.59999999999997</ele><time>2026-04-10T20:23:06.041Z</time></trkpt><trkpt lat="45.0388433" lon="7.953805"><ele>243.4</ele><time>2026-04-10T20:23:07.041Z</time></trkpt><trkpt lat="45.038875" lon="7.9539333"><ele>243.2</ele><time>2026-04-10T20:23:08.04Z</time></trkpt><trkpt lat="45.0389067" lon="7.95405"><ele>243.0</ele><time>2026-04-10T20:23:09.043Z</time></trkpt><trkpt lat="45.0389367" lon="7.9541667"><ele>242.83333333333334</ele><time>2026-04-10T20:23:10.041Z</time></trkpt><trkpt lat="45.038965" lon="7.9542783"><ele>242.66666666666669</ele><time>2026-04-10T20:23:11.04Z</time></trkpt><trkpt lat="45.0389967" lon="7.9543817"><ele>242.5</ele><time>2026-04-10T20:23:12.041Z</time></trkpt><trkpt lat="45.039025" lon="7.9544733"><ele>242.33333333333334</ele><time>2026-04-10T20:23:13.04Z</time></trkpt><trkpt lat="45.0390483" lon="7.9545567"><ele>242.16666666666669</ele><time>2026-04-10T20:23:14.041Z</time></trkpt><trkpt lat="45.0390783" lon="7.9547067"><ele>242.0</ele><time>2026-04-10T20:23:16.04Z</time></trkpt><trkpt lat="45.0391083" lon="7.9548267"><ele>242.00000000000003</ele><time>2026-04-10T20:23:18.042Z</time></trkpt><trkpt lat="45.0391317" lon="7.95493"><ele>242.0</ele><time>2026-04-10T20:23:20.041Z</time></trkpt><trkpt lat="45.039165" lon="7.9550267"><ele>242.0</ele><time>2026-04-10T20:23:23.04Z</time></trkpt><trkpt lat="45.0391333" lon="7.9549017"><ele>242.0</ele><time>2026-04-10T20:23:28.04Z</time></trkpt><trkpt lat="45.0391" lon="7.9547883"><ele>242.00000000000003</ele><time>2026-04-10T20:23:30.041Z</time></trkpt><trkpt lat="45.0390667" lon="7.9546533"><ele>242.0</ele><time>2026-04-10T20:23:32.041Z</time></trkpt><trkpt lat="45.03903" lon="7.9545"><ele>242.00000000000003</ele><time>2026-04-10T20:23:34.04Z</time></trkpt><trkpt lat="45.03899" lon="7.9543617"><ele>242.0</ele><time>2026-04-10T20:23:36.04Z</time></trkpt><trkpt lat="45.03895" lon="7.9542867"><ele>242.0</ele><time>2026-04-10T20:23:38.041Z</time></trkpt><trkpt lat="45.0388783" lon="7.9543167"><ele>242.0</ele><time>2026-04-10T20:23:42.041Z</time></trkpt><trkpt lat="45.0388267" lon="7.9543717"><ele>242.00000000000003</ele><time>2026-04-10T20:23:44.04Z</time></trkpt><trkpt lat="45.038775" lon="7.9544533"><ele>242.0</ele><time>2026-04-10T20:23:46.04Z</time></trkpt><trkpt lat="45.0387133" lon="7.9545383"><ele>242.0</ele><time>2026-04-10T20:23:48.04Z</time></trkpt><trkpt lat="45.0386467" lon="7.95464"><ele>242.0</ele><time>2026-04-10T20:23:50.041Z</time></trkpt><trkpt lat="45.0385733" lon="7.9547433"><ele>242.0</ele><time>2026-04-10T20:23:52.041Z</time></trkpt><trkpt lat="45.0384933" lon="7.9548483"><ele>242.0</ele><time>2026-04-10T20:23:54.04Z</time></trkpt><trkpt lat="45.0384133" lon="7.95495"><ele>242.0</ele><time>2026-04-10T20:23:56.04Z</time></trkpt><trkpt lat="45.03834" lon="7.9550617"><ele>242.0</ele><time>2026-04-10T20:23:58.04Z</time></trkpt><trkpt lat="45.03827" lon="7.9551767"><ele>242.0</ele><time>2026-04-10T20:24:00.041Z</time></trkpt><trkpt lat="45.0381967" lon="7.9552767"><ele>242.0</ele><time>2026-04-10T20:24:02.041Z</time></trkpt><trkpt lat="45.0381183" lon="7.955385"><ele>242.0</ele><time>2026-04-10T20:24:04.04Z</time></trkpt><trkpt lat="45.0380533" lon="7.95549"><ele>242.0</ele><time>2026-04-10T20:24:06.04Z</time></trkpt><trkpt lat="45.038" lon="7.9556017"><ele>242.0</ele><time>2026-04-10T20:24:08.04Z</time></trkpt><trkpt lat="45.03795" lon="7.9557133"><ele>242.0</ele><time>2026-04-10T20:24:10.04Z</time></trkpt><trkpt lat="45.0378983" lon="7.9558333"><ele>242.0</ele><time>2026-04-10T20:24:12.041Z</time></trkpt><trkpt lat="45.0378533" lon="7.95595"><ele>242.0</ele><time>2026-04-10T20:24:14.04Z</time></trkpt><trkpt lat="45.0378217" lon="7.9560833"><ele>242.0</ele><time>2026-04-10T20:24:16.042Z</time></trkpt><trkpt lat="45.037785" lon="7.9562233"><ele>242.39999999999998</ele><time>2026-04-10T20:24:18.041Z</time></trkpt><trkpt lat="45.0377417" lon="7.95637"><ele>242.79999999999998</ele><time>2026-04-10T20:24:20.041Z</time></trkpt><trkpt lat="45.0376917" lon="7.956495"><ele>243.2</ele><time>2026-04-10T20:24:22.041Z</time></trkpt><trkpt lat="45.037615" lon="7.95659"><ele>243.6</ele><time>2026-04-10T20:24:24.041Z</time></trkpt><trkpt lat="45.0375383" lon="7.956675"><ele>244.0</ele><time>2026-04-10T20:24:26.04Z</time></trkpt><trkpt lat="45.0374583" lon="7.9567517"><ele>244.16666666666666</ele><time>2026-04-10T20:24:28.04Z</time></trkpt><trkpt lat="45.0373733" lon="7.95682"><ele>244.33333333333331</ele><time>2026-04-10T20:24:30.04Z</time></trkpt><trkpt lat="45.0373" lon="7.9568667"><ele>244.5</ele><time>2026-04-10T20:24:32.04Z</time></trkpt><trkpt lat="45.037235" lon="7.9569117"><ele>244.66666666666669</ele><time>2026-04-10T20:24:34.041Z</time></trkpt><trkpt lat="45.0371733" lon="7.956945"><ele>244.83333333333334</ele><time>2026-04-10T20:24:36.04Z</time></trkpt><trkpt lat="45.0371033" lon="7.9569883"><ele>245.0</ele><time>2026-04-10T20:24:39.041Z</time></trkpt><trkpt lat="45.0370317" lon="7.9570417"><ele>245.00000000000003</ele><time>2026-04-10T20:24:42.041Z</time></trkpt><trkpt lat="45.036975" lon="7.9570917"><ele>245.0</ele><time>2026-04-10T20:24:44.04Z</time></trkpt><trkpt lat="45.0369117" lon="7.9571433"><ele>245.0</ele><time>2026-04-10T20:24:46.042Z</time></trkpt><trkpt lat="45.03684" lon="7.9572017"><ele>245.0</ele><time>2026-04-10T20:24:48.042Z</time></trkpt><trkpt lat="45.0367633" lon="7.9572533"><ele>245.00000000000003</ele><time>2026-04-10T20:24:50.04Z</time></trkpt><trkpt lat="45.0366783" lon="7.9573067"><ele>245.0</ele><time>2026-04-10T20:24:52.041Z</time></trkpt><trkpt lat="45.0366017" lon="7.9573617"><ele>244.2</ele><time>2026-04-10T20:24:54.04Z</time></trkpt><trkpt lat="45.0365233" lon="7.9574183"><ele>243.4</ele><time>2026-04-10T20:24:56.04Z</time></trkpt><trkpt lat="45.0364433" lon="7.9574733"><ele>242.60000000000002</ele><time>2026-04-10T20:24:58.04Z</time></trkpt><trkpt lat="45.0363633" lon="7.9575283"><ele>241.8</ele><time>2026-04-10T20:25:00.04Z</time></trkpt><trkpt lat="45.036275" lon="7.9575783"><ele>241.0</ele><time>2026-04-10T20:25:02.041Z</time></trkpt><trkpt lat="45.0361917" lon="7.9576433"><ele>241.16666666666666</ele><time>2026-04-10T20:25:04.039Z</time></trkpt><trkpt lat="45.0361067" lon="7.9576967"><ele>241.33333333333331</ele><time>2026-04-10T20:25:06.04Z</time></trkpt><trkpt lat="45.036025" lon="7.9577517"><ele>241.5</ele><time>2026-04-10T20:25:08.04Z</time></trkpt><trkpt lat="45.0359517" lon="7.9578067"><ele>241.66666666666669</ele><time>2026-04-10T20:25:10.041Z</time></trkpt><trkpt lat="45.035875" lon="7.9578767"><ele>241.83333333333334</ele><time>2026-04-10T20:25:12.04Z</time></trkpt><trkpt lat="45.0358" lon="7.95795"><ele>242.0</ele><time>2026-04-10T20:25:14.041Z</time></trkpt><trkpt lat="45.03573" lon="7.9580167"><ele>242.0</ele><time>2026-04-10T20:25:16.04Z</time></trkpt><trkpt lat="45.0356467" lon="7.958075"><ele>242.0</ele><time>2026-04-10T20:25:18.04Z</time></trkpt><trkpt lat="45.0355517" lon="7.9581433"><ele>242.0</ele><time>2026-04-10T20:25:20.041Z</time></trkpt><trkpt lat="45.03546" lon="7.95822"><ele>242.0</ele><time>2026-04-10T20:25:22.041Z</time></trkpt><trkpt lat="45.035375" lon="7.958315"><ele>242.0</ele><time>2026-04-10T20:25:24.041Z</time></trkpt><trkpt lat="45.0353117" lon="7.9584233"><ele>241.83333333333334</ele><time>2026-04-10T20:25:26.041Z</time></trkpt><trkpt lat="45.0352633" lon="7.9585367"><ele>241.66666666666669</ele><time>2026-04-10T20:25:28.04Z</time></trkpt><trkpt lat="45.035215" lon="7.9586467"><ele>241.5</ele><time>2026-04-10T20:25:30.042Z</time></trkpt><trkpt lat="45.0351733" lon="7.9587467"><ele>241.33333333333331</ele><time>2026-04-10T20:25:32.042Z</time></trkpt><trkpt lat="45.035125" lon="7.9588383"><ele>241.16666666666666</ele><time>2026-04-10T20:25:34.041Z</time></trkpt><trkpt lat="45.03508" lon="7.9589433"><ele>241.0</ele><time>2026-04-10T20:25:36.042Z</time></trkpt><trkpt lat="45.035025" lon="7.95903"><ele>240.20000000000002</ele><time>2026-04-10T20:25:38.042Z</time></trkpt><trkpt lat="45.03496" lon="7.959135"><ele>239.40000000000003</ele><time>2026-04-10T20:25:41.043Z</time></trkpt><trkpt lat="45.0348967" lon="7.9592267"><ele>238.6</ele><time>2026-04-10T20:25:43.042Z</time></trkpt><trkpt lat="45.03484" lon="7.9593417"><ele>237.8</ele><time>2026-04-10T20:25:45.042Z</time></trkpt><trkpt lat="45.03479" lon="7.9594717"><ele>237.0</ele><time>2026-04-10T20:25:47.042Z</time></trkpt><trkpt lat="45.0347417" lon="7.959615"><ele>237.0</ele><time>2026-04-10T20:25:49.042Z</time></trkpt><trkpt lat="45.0346983" lon="7.9597517"><ele>237.0</ele><time>2026-04-10T20:25:51.041Z</time></trkpt><trkpt lat="45.0346783" lon="7.9599083"><ele>237.0</ele><time>2026-04-10T20:25:53.041Z</time></trkpt><trkpt lat="45.03466" lon="7.96004"><ele>237.0</ele><time>2026-04-10T20:25:55.043Z</time></trkpt><trkpt lat="45.0346517" lon="7.9601767"><ele>237.0</ele><time>2026-04-10T20:25:57.042Z</time></trkpt><trkpt lat="45.0346517" lon="7.9603033"><ele>236.83333333333334</ele><time>2026-04-10T20:25:59.042Z</time></trkpt><trkpt lat="45.0346517" lon="7.9604283"><ele>236.66666666666669</ele><time>2026-04-10T20:26:01.042Z</time></trkpt><trkpt lat="45.034655" lon="7.9605417"><ele>236.5</ele><time>2026-04-10T20:26:03.042Z</time></trkpt><trkpt lat="45.03467" lon="7.9606533"><ele>236.33333333333334</ele><time>2026-04-10T20:26:05.042Z</time></trkpt><trkpt lat="45.0346967" lon="7.9607567"><ele>236.16666666666669</ele><time>2026-04-10T20:26:07.041Z</time></trkpt><trkpt lat="45.034735" lon="7.960855"><ele>236.0</ele><time>2026-04-10T20:26:09.042Z</time></trkpt><trkpt lat="45.03478" lon="7.96095"><ele>235.83333333333334</ele><time>2026-04-10T20:26:11.041Z</time></trkpt><trkpt lat="45.034825" lon="7.961045"><ele>235.66666666666669</ele><time>2026-04-10T20:26:13.043Z</time></trkpt><trkpt lat="45.034865" lon="7.9611567"><ele>235.5</ele><time>2026-04-10T20:26:15.042Z</time></trkpt><trkpt lat="45.0349183" lon="7.96125"><ele>235.33333333333331</ele><time>2026-04-10T20:26:17.041Z</time></trkpt><trkpt lat="45.0349667" lon="7.961335"><ele>235.16666666666666</ele><time>2026-04-10T20:26:19.042Z</time></trkpt><trkpt lat="45.0350183" lon="7.9614233"><ele>235.0</ele><time>2026-04-10T20:26:21.042Z</time></trkpt><trkpt lat="45.03507" lon="7.96151"><ele>234.99999999999997</ele><time>2026-04-10T20:26:23.041Z</time></trkpt><trkpt lat="45.0351183" lon="7.9616"><ele>235.0</ele><time>2026-04-10T20:26:25.042Z</time></trkpt><trkpt lat="45.035165" lon="7.9616983"><ele>235.0</ele><time>2026-04-10T20:26:27.04Z</time></trkpt><trkpt lat="45.0352017" lon="7.9617833"><ele>235.0</ele><time>2026-04-10T20:26:29.04Z</time></trkpt><trkpt lat="45.0352483" lon="7.9618917"><ele>234.99999999999997</ele><time>2026-04-10T20:26:32.04Z</time></trkpt><trkpt lat="45.0353033" lon="7.9619933"><ele>235.0</ele><time>2026-04-10T20:26:34.04Z</time></trkpt><trkpt lat="45.0353633" lon="7.9621133"><ele>234.6</ele><time>2026-04-10T20:26:36.041Z</time></trkpt><trkpt lat="45.0354267" lon="7.9622383"><ele>234.2</ele><time>2026-04-10T20:26:38.04Z</time></trkpt><trkpt lat="45.0354917" lon="7.9623567"><ele>233.8</ele><time>2026-04-10T20:26:40.041Z</time></trkpt><trkpt lat="45.0355583" lon="7.9624567"><ele>233.4</ele><time>2026-04-10T20:26:42.04Z</time></trkpt><trkpt lat="45.0356317" lon="7.9625617"><ele>233.0</ele><time>2026-04-10T20:26:44.04Z</time></trkpt><trkpt lat="45.0357083" lon="7.96266"><ele>232.8</ele><time>2026-04-10T20:26:46.041Z</time></trkpt><trkpt lat="45.0357967" lon="7.96272"><ele>232.60000000000002</ele><time>2026-04-10T20:26:48.04Z</time></trkpt><trkpt lat="45.03589" lon="7.9627233"><ele>232.39999999999998</ele><time>2026-04-10T20:26:50.042Z</time></trkpt><trkpt lat="45.0359833" lon="7.9627183"><ele>232.2</ele><time>2026-04-10T20:26:52.039Z</time></trkpt><trkpt lat="45.0360783" lon="7.9627233"><ele>232.0</ele><time>2026-04-10T20:26:54.041Z</time></trkpt><trkpt lat="45.0361717" lon="7.962725"><ele>232.0</ele><time>2026-04-10T20:26:56.04Z</time></trkpt><trkpt lat="45.03627" lon="7.9627167"><ele>232.0</ele><time>2026-04-10T20:26:58.041Z</time></trkpt><trkpt lat="45.0363683" lon="7.9627183"><ele>232.0</ele><time>2026-04-10T20:27:00.041Z</time></trkpt><trkpt lat="45.0364667" lon="7.9627017"><ele>232.0</ele><time>2026-04-10T20:27:02.041Z</time></trkpt><trkpt lat="45.0365683" lon="7.9626717"><ele>232.0</ele><time>2026-04-10T20:27:04.041Z</time></trkpt><trkpt lat="45.03665" lon="7.9626467"><ele>231.8</ele><time>2026-04-10T20:27:06.043Z</time></trkpt><trkpt lat="45.036745" lon="7.9626167"><ele>231.6</ele><time>2026-04-10T20:27:08.04Z</time></trkpt><trkpt lat="45.03684" lon="7.9625717"><ele>231.40000000000003</ele><time>2026-04-10T20:27:10.04Z</time></trkpt><trkpt lat="45.0369333" lon="7.9625217"><ele>231.20000000000002</ele><time>2026-04-10T20:27:12.042Z</time></trkpt><trkpt lat="45.0370283" lon="7.96248"><ele>231.0</ele><time>2026-04-10T20:27:14.04Z</time></trkpt><trkpt lat="45.037115" lon="7.96243"><ele>232.20000000000002</ele><time>2026-04-10T20:27:16.042Z</time></trkpt><trkpt lat="45.0372133" lon="7.9623783"><ele>233.40000000000003</ele><time>2026-04-10T20:27:18.042Z</time></trkpt><trkpt lat="45.0373083" lon="7.9623233"><ele>234.6</ele><time>2026-04-10T20:27:20.042Z</time></trkpt><trkpt lat="45.0374067" lon="7.9622617"><ele>235.8</ele><time>2026-04-10T20:27:22.041Z</time></trkpt><trkpt lat="45.0375" lon="7.96219"><ele>237.0</ele><time>2026-04-10T20:27:24.041Z</time></trkpt><trkpt lat="45.03759" lon="7.9621167"><ele>237.0</ele><time>2026-04-10T20:27:26.041Z</time></trkpt><trkpt lat="45.037675" lon="7.962035"><ele>237.0</ele><time>2026-04-10T20:27:28.042Z</time></trkpt><trkpt lat="45.0377617" lon="7.9619567"><ele>237.0</ele><time>2026-04-10T20:27:30.041Z</time></trkpt><trkpt lat="45.03784" lon="7.9618767"><ele>237.0</ele><time>2026-04-10T20:27:32.041Z</time></trkpt><trkpt lat="45.0379217" lon="7.9617933"><ele>237.0</ele><time>2026-04-10T20:27:34.041Z</time></trkpt><trkpt lat="45.0380067" lon="7.961715"><ele>237.16666666666666</ele><time>2026-04-10T20:27:36.041Z</time></trkpt><trkpt lat="45.0380917" lon="7.96164"><ele>237.33333333333331</ele><time>2026-04-10T20:27:38.043Z</time></trkpt><trkpt lat="45.0381633" lon="7.96157"><ele>237.5</ele><time>2026-04-10T20:27:40.042Z</time></trkpt><trkpt lat="45.0382317" lon="7.961515"><ele>237.66666666666666</ele><time>2026-04-10T20:27:42.042Z</time></trkpt><trkpt lat="45.0383167" lon="7.96147"><ele>237.83333333333331</ele><time>2026-04-10T20:27:45.041Z</time></trkpt><trkpt lat="45.0383967" lon="7.9614383"><ele>238.0</ele><time>2026-04-10T20:27:48.041Z</time></trkpt><trkpt lat="45.0384817" lon="7.9614117"><ele>237.99999999999997</ele><time>2026-04-10T20:27:51.041Z</time></trkpt><trkpt lat="45.0385517" lon="7.9614167"><ele>238.0</ele><time>2026-04-10T20:27:54.041Z</time></trkpt><trkpt lat="45.0385967" lon="7.961515"><ele>238.0</ele><time>2026-04-10T20:27:57.042Z</time></trkpt><trkpt lat="45.038605" lon="7.9616183"><ele>238.0</ele><time>2026-04-10T20:27:59.041Z</time></trkpt><trkpt lat="45.0386083" lon="7.9617267"><ele>237.99999999999997</ele><time>2026-04-10T20:28:01.042Z</time></trkpt><trkpt lat="45.0386217" lon="7.9618417"><ele>238.0</ele><time>2026-04-10T20:28:03.041Z</time></trkpt><trkpt lat="45.03863" lon="7.9619717"><ele>237.8</ele><time>2026-04-10T20:28:05.041Z</time></trkpt><trkpt lat="45.038645" lon="7.9621083"><ele>237.60000000000002</ele><time>2026-04-10T20:28:07.042Z</time></trkpt><trkpt lat="45.0386567" lon="7.9622417"><ele>237.39999999999998</ele><time>2026-04-10T20:28:09.042Z</time></trkpt><trkpt lat="45.0386667" lon="7.96238"><ele>237.2</ele><time>2026-04-10T20:28:11.041Z</time></trkpt><trkpt lat="45.038675" lon="7.9625267"><ele>237.0</ele><time>2026-04-10T20:28:13.041Z</time></trkpt><trkpt lat="45.03868" lon="7.962665"><ele>236.8</ele><time>2026-04-10T20:28:15.041Z</time></trkpt><trkpt lat="45.0386867" lon="7.9628117"><ele>236.6</ele><time>2026-04-10T20:28:17.041Z</time></trkpt><trkpt lat="45.0387017" lon="7.9629567"><ele>236.40000000000003</ele><time>2026-04-10T20:28:19.041Z</time></trkpt><trkpt lat="45.038705" lon="7.9631117"><ele>236.20000000000002</ele><time>2026-04-10T20:28:21.041Z</time></trkpt><trkpt lat="45.0387083" lon="7.9632583"><ele>236.0</ele><time>2026-04-10T20:28:23.042Z</time></trkpt><trkpt lat="45.0387117" lon="7.9633917"><ele>235.8</ele><time>2026-04-10T20:28:25.043Z</time></trkpt><trkpt lat="45.03874" lon="7.9635367"><ele>235.60000000000002</ele><time>2026-04-10T20:28:27.041Z</time></trkpt><trkpt lat="45.03875" lon="7.963685"><ele>235.4</ele><time>2026-04-10T20:28:29.041Z</time></trkpt><trkpt lat="45.038765" lon="7.96383"><ele>235.2</ele><time>2026-04-10T20:28:31.041Z</time></trkpt><trkpt lat="45.0387967" lon="7.9639767"><ele>235.0</ele><time>2026-04-10T20:28:33.041Z</time></trkpt><trkpt lat="45.0388433" lon="7.9641117"><ele>235.2</ele><time>2026-04-10T20:28:35.042Z</time></trkpt><trkpt lat="45.0389067" lon="7.9642267"><ele>235.4</ele><time>2026-04-10T20:28:37.041Z</time></trkpt><trkpt lat="45.038975" lon="7.9643233"><ele>235.60000000000002</ele><time>2026-04-10T20:28:39.041Z</time></trkpt><trkpt lat="45.0390483" lon="7.9644033"><ele>235.8</ele><time>2026-04-10T20:28:41.041Z</time></trkpt><trkpt lat="45.03912" lon="7.96448"><ele>236.0</ele><time>2026-04-10T20:28:43.041Z</time></trkpt><trkpt lat="45.03919" lon="7.9645633"><ele>236.20000000000002</ele><time>2026-04-10T20:28:45.041Z</time></trkpt><trkpt lat="45.0392583" lon="7.9646483"><ele>236.40000000000003</ele><time>2026-04-10T20:28:47.042Z</time></trkpt><trkpt lat="45.0393283" lon="7.964735"><ele>236.6</ele><time>2026-04-10T20:28:49.041Z</time></trkpt><trkpt lat="45.0394017" lon="7.964815"><ele>236.8</ele><time>2026-04-10T20:28:51.041Z</time></trkpt><trkpt lat="45.0394767" lon="7.9648983"><ele>237.0</ele><time>2026-04-10T20:28:53.042Z</time></trkpt><trkpt lat="45.0395483" lon="7.964995"><ele>237.2</ele><time>2026-04-10T20:28:55.041Z</time></trkpt><trkpt lat="45.039625" lon="7.965085"><ele>237.39999999999998</ele><time>2026-04-10T20:28:57.042Z</time></trkpt><trkpt lat="45.0396917" lon="7.96519"><ele>237.60000000000002</ele><time>2026-04-10T20:28:59.041Z</time></trkpt><trkpt lat="45.0397533" lon="7.9652917"><ele>237.8</ele><time>2026-04-10T20:29:01.041Z</time></trkpt><trkpt lat="45.03982" lon="7.9653783"><ele>238.0</ele><time>2026-04-10T20:29:03.041Z</time></trkpt><trkpt lat="45.039885" lon="7.96545"><ele>237.99999999999997</ele><time>2026-04-10T20:29:05.041Z</time></trkpt><trkpt lat="45.0399417" lon="7.9655183"><ele>238.0</ele><time>2026-04-10T20:29:07.041Z</time></trkpt><trkpt lat="45.0399667" lon="7.9656183"><ele>238.0</ele><time>2026-04-10T20:29:09.042Z</time></trkpt><trkpt lat="45.0399833" lon="7.9657117"><ele>238.0</ele><time>2026-04-10T20:29:11.04Z</time></trkpt><trkpt lat="45.0399717" lon="7.965805"><ele>237.99999999999997</ele><time>2026-04-10T20:29:13.041Z</time></trkpt><trkpt lat="45.039935" lon="7.965905"><ele>238.0</ele><time>2026-04-10T20:29:15.041Z</time></trkpt><trkpt lat="45.039885" lon="7.966005"><ele>237.99999999999997</ele><time>2026-04-10T20:29:17.04Z</time></trkpt><trkpt lat="45.0398267" lon="7.9661"><ele>238.0</ele><time>2026-04-10T20:29:19.042Z</time></trkpt><trkpt lat="45.0397717" lon="7.9661933"><ele>238.0</ele><time>2026-04-10T20:29:21.041Z</time></trkpt><trkpt lat="45.0397183" lon="7.9662883"><ele>238.0</ele><time>2026-04-10T20:29:23.041Z</time></trkpt><trkpt lat="45.0396683" lon="7.9663767"><ele>237.99999999999997</ele><time>2026-04-10T20:29:25.041Z</time></trkpt><trkpt lat="45.0396167" lon="7.9664667"><ele>238.0</ele><time>2026-04-10T20:29:27.042Z</time></trkpt><trkpt lat="45.03957" lon="7.9665567"><ele>237.99999999999997</ele><time>2026-04-10T20:29:29.041Z</time></trkpt><trkpt lat="45.0395617" lon="7.9666567"><ele>238.0</ele><time>2026-04-10T20:29:31.041Z</time></trkpt><trkpt lat="45.039565" lon="7.9667833"><ele>238.0</ele><time>2026-04-10T20:29:33.041Z</time></trkpt><trkpt lat="45.0395817" lon="7.96691"><ele>238.0</ele><time>2026-04-10T20:29:35.04Z</time></trkpt><trkpt lat="45.0395867" lon="7.96702"><ele>237.99999999999997</ele><time>2026-04-10T20:29:37.041Z</time></trkpt><trkpt lat="45.03959" lon="7.9671283"><ele>238.0</ele><time>2026-04-10T20:29:39.041Z</time></trkpt><trkpt lat="45.0396017" lon="7.9672333"><ele>238.14285714285714</ele><time>2026-04-10T20:29:41.04Z</time></trkpt><trkpt lat="45.0396267" lon="7.9673267"><ele>238.28571428571428</ele><time>2026-04-10T20:29:43.041Z</time></trkpt><trkpt lat="45.0396483" lon="7.96742"><ele>238.42857142857144</ele><time>2026-04-10T20:29:45.041Z</time></trkpt><trkpt lat="45.0396767" lon="7.9675133"><ele>238.57142857142858</ele><time>2026-04-10T20:29:47.04Z</time></trkpt><trkpt lat="45.0396883" lon="7.9676067"><ele>238.71428571428572</ele><time>2026-04-10T20:29:49.041Z</time></trkpt><trkpt lat="45.039715" lon="7.96774"><ele>238.8571428571429</ele><time>2026-04-10T20:29:52.041Z</time></trkpt><trkpt lat="45.0397333" lon="7.967835"><ele>239.00000000000003</ele><time>2026-04-10T20:29:54.041Z</time></trkpt><trkpt lat="45.0397517" lon="7.9679283"><ele>239.33333333333334</ele><time>2026-04-10T20:29:56.041Z</time></trkpt><trkpt lat="45.0397767" lon="7.9680533"><ele>239.66666666666669</ele><time>2026-04-10T20:29:59.041Z</time></trkpt><trkpt lat="45.0397983" lon="7.96818"><ele>240.0</ele><time>2026-04-10T20:30:02.041Z</time></trkpt><trkpt lat="45.0398167" lon="7.9683083"><ele>240.33333333333331</ele><time>2026-04-10T20:30:05.041Z</time></trkpt><trkpt lat="45.0398267" lon="7.9683983"><ele>240.66666666666666</ele><time>2026-04-10T20:30:07.042Z</time></trkpt><trkpt lat="45.0398317" lon="7.9684883"><ele>241.0</ele><time>2026-04-10T20:30:09.041Z</time></trkpt><trkpt lat="45.0398583" lon="7.9686033"><ele>241.66666666666666</ele><time>2026-04-10T20:30:12.041Z</time></trkpt><trkpt lat="45.0398833" lon="7.9687183"><ele>242.33333333333331</ele><time>2026-04-10T20:30:15.043Z</time></trkpt><trkpt lat="45.039915" lon="7.9688367"><ele>243.0</ele><time>2026-04-10T20:30:18.041Z</time></trkpt><trkpt lat="45.03994" lon="7.96894"><ele>243.66666666666669</ele><time>2026-04-10T20:30:21.041Z</time></trkpt><trkpt lat="45.039955" lon="7.96905"><ele>244.33333333333334</ele><time>2026-04-10T20:30:24.042Z</time></trkpt><trkpt lat="45.0399867" lon="7.96916"><ele>245.0</ele><time>2026-04-10T20:30:27.041Z</time></trkpt><trkpt lat="45.04001" lon="7.9692683"><ele>245.50000000000003</ele><time>2026-04-10T20:30:30.04Z</time></trkpt><trkpt lat="45.0400233" lon="7.9693683"><ele>246.0</ele><time>2026-04-10T20:30:33.041Z</time></trkpt><trkpt lat="45.0400383" lon="7.9694717"><ele>246.5</ele><time>2026-04-10T20:30:36.043Z</time></trkpt><trkpt lat="45.0400667" lon="7.9695717"><ele>247.0</ele><time>2026-04-10T20:30:39.041Z</time></trkpt><trkpt lat="45.04008" lon="7.9696783"><ele>247.50000000000003</ele><time>2026-04-10T20:30:42.041Z</time></trkpt><trkpt lat="45.0400933" lon="7.9697883"><ele>248.0</ele><time>2026-04-10T20:30:45.041Z</time></trkpt><trkpt lat="45.04012" lon="7.96989"><ele>248.0</ele><time>2026-04-10T20:30:48.042Z</time></trkpt><trkpt lat="45.0401383" lon="7.9699767"><ele>248.00000000000003</ele><time>2026-04-10T20:30:51.041Z</time></trkpt><trkpt lat="45.0401517" lon="7.97007"><ele>248.0</ele><time>2026-04-10T20:30:54.041Z</time></trkpt><trkpt lat="45.0401733" lon="7.97017"><ele>248.0</ele><time>2026-04-10T20:30:57.041Z</time></trkpt><trkpt lat="45.0401833" lon="7.9702767"><ele>248.00000000000003</ele><time>2026-04-10T20:31:00.041Z</time></trkpt><trkpt lat="45.0401983" lon="7.9703917"><ele>248.0</ele><time>2026-04-10T20:31:04.041Z</time></trkpt><trkpt lat="45.0402067" lon="7.9704867"><ele>248.0</ele><time>2026-04-10T20:31:07.041Z</time></trkpt><trkpt lat="45.04022" lon="7.9705933"><ele>250.33333333333334</ele><time>2026-04-10T20:31:10.041Z</time></trkpt><trkpt lat="45.0402417" lon="7.9707083"><ele>252.66666666666669</ele><time>2026-04-10T20:31:13.042Z</time></trkpt><trkpt lat="45.04026" lon="7.9708167"><ele>255.0</ele><time>2026-04-10T20:31:16.04Z</time></trkpt><trkpt lat="45.040275" lon="7.9709283"><ele>257.3333333333333</ele><time>2026-04-10T20:31:19.041Z</time></trkpt><trkpt lat="45.04031" lon="7.971025"><ele>259.66666666666663</ele><time>2026-04-10T20:31:22.041Z</time></trkpt><trkpt lat="45.0403283" lon="7.971135"><ele>262.0</ele><time>2026-04-10T20:31:25.041Z</time></trkpt><trkpt lat="45.04034" lon="7.9712617"><ele>261.16666666666663</ele><time>2026-04-10T20:31:28.042Z</time></trkpt><trkpt lat="45.0403583" lon="7.9713783"><ele>260.3333333333333</ele><time>2026-04-10T20:31:31.042Z</time></trkpt><trkpt lat="45.0403717" lon="7.9715067"><ele>259.5</ele><time>2026-04-10T20:31:34.041Z</time></trkpt><trkpt lat="45.0403917" lon="7.971625"><ele>258.6666666666667</ele><time>2026-04-10T20:31:37.041Z</time></trkpt><trkpt lat="45.0404017" lon="7.97176"><ele>257.83333333333337</ele><time>2026-04-10T20:31:40.041Z</time></trkpt><trkpt lat="45.0404117" lon="7.9718867"><ele>257.0</ele><time>2026-04-10T20:31:43.043Z</time></trkpt><trkpt lat="45.04043" lon="7.97198"><ele>257.0</ele><time>2026-04-10T20:31:45.043Z</time></trkpt><trkpt lat="45.0404533" lon="7.9720683"><ele>257.0</ele><time>2026-04-10T20:31:47.043Z</time></trkpt><trkpt lat="45.0404683" lon="7.972175"><ele>257.0</ele><time>2026-04-10T20:31:49.042Z</time></trkpt><trkpt lat="45.0404833" lon="7.97228"><ele>257.0</ele><time>2026-04-10T20:31:51.044Z</time></trkpt><trkpt lat="45.0405083" lon="7.97238"><ele>257.0</ele><time>2026-04-10T20:31:53.042Z</time></trkpt><trkpt lat="45.04053" lon="7.9724833"><ele>257.0</ele><time>2026-04-10T20:31:55.043Z</time></trkpt><trkpt lat="45.0405417" lon="7.972585"><ele>257.0</ele><time>2026-04-10T20:31:57.044Z</time></trkpt><trkpt lat="45.0405517" lon="7.97269"><ele>256.1666666666667</ele><time>2026-04-10T20:31:59.042Z</time></trkpt><trkpt lat="45.0405683" lon="7.9727967"><ele>255.33333333333334</ele><time>2026-04-10T20:32:01.043Z</time></trkpt><trkpt lat="45.0405817" lon="7.9729017"><ele>254.5</ele><time>2026-04-10T20:32:03.045Z</time></trkpt><trkpt lat="45.0405983" lon="7.9729983"><ele>253.66666666666669</ele><time>2026-04-10T20:32:05.042Z</time></trkpt><trkpt lat="45.04061" lon="7.9730967"><ele>252.83333333333334</ele><time>2026-04-10T20:32:07.043Z</time></trkpt><trkpt lat="45.0406167" lon="7.9731917"><ele>252.0</ele><time>2026-04-10T20:32:09.043Z</time></trkpt><trkpt lat="45.040635" lon="7.9733267"><ele>254.0</ele><time>2026-04-10T20:32:12.043Z</time></trkpt><trkpt lat="45.0406433" lon="7.9734383"><ele>256.0</ele><time>2026-04-10T20:32:14.042Z</time></trkpt><trkpt lat="45.0406517" lon="7.9735383"><ele>258.0</ele><time>2026-04-10T20:32:16.043Z</time></trkpt><trkpt lat="45.0406567" lon="7.9736283"><ele>260.0</ele><time>2026-04-10T20:32:18.043Z</time></trkpt><trkpt lat="45.040665" lon="7.9737217"><ele>262.0</ele><time>2026-04-10T20:32:20.042Z</time></trkpt><trkpt lat="45.0406767" lon="7.9738233"><ele>264.0</ele><time>2026-04-10T20:32:22.043Z</time></trkpt><trkpt lat="45.0406917" lon="7.9739217"><ele>266.0</ele><time>2026-04-10T20:32:24.045Z</time></trkpt><trkpt lat="45.0407083" lon="7.9740167"><ele>266.0</ele><time>2026-04-10T20:32:26.044Z</time></trkpt><trkpt lat="45.0407383" lon="7.974135"><ele>266.0</ele><time>2026-04-10T20:32:29.042Z</time></trkpt><trkpt lat="45.0407483" lon="7.9742233"><ele>266.0</ele><time>2026-04-10T20:32:31.043Z</time></trkpt><trkpt lat="45.0407583" lon="7.974315"><ele>266.0</ele><time>2026-04-10T20:32:33.043Z</time></trkpt><trkpt lat="45.0407733" lon="7.9744067"><ele>266.0</ele><time>2026-04-10T20:32:35.043Z</time></trkpt><trkpt lat="45.040785" lon="7.9745017"><ele>266.0</ele><time>2026-04-10T20:32:37.044Z</time></trkpt><trkpt lat="45.0407917" lon="7.9746033"><ele>266.0</ele><time>2026-04-10T20:32:39.042Z</time></trkpt><trkpt lat="45.040805" lon="7.974705"><ele>268.0</ele><time>2026-04-10T20:32:41.042Z</time></trkpt><trkpt lat="45.0408217" lon="7.9748017"><ele>270.0</ele><time>2026-04-10T20:32:43.044Z</time></trkpt><trkpt lat="45.0408267" lon="7.9749133"><ele>272.0</ele><time>2026-04-10T20:32:45.044Z</time></trkpt><trkpt lat="45.0408317" lon="7.9750183"><ele>274.0</ele><time>2026-04-10T20:32:47.042Z</time></trkpt><trkpt lat="45.04084" lon="7.9751167"><ele>276.0</ele><time>2026-04-10T20:32:49.042Z</time></trkpt><trkpt lat="45.04085" lon="7.9752183"><ele>278.0</ele><time>2026-04-10T20:32:51.042Z</time></trkpt><trkpt lat="45.0409667" lon="7.97621"><ele>278.0</ele><time>2026-04-10T20:33:09.041Z</time></trkpt><trkpt lat="45.0409767" lon="7.9763167"><ele>278.0</ele><time>2026-04-10T20:33:12.04Z</time></trkpt><trkpt lat="45.0409867" lon="7.9764683"><ele>278.0</ele><time>2026-04-10T20:33:14.04Z</time></trkpt><trkpt lat="45.0410167" lon="7.9766167"><ele>278.0</ele><time>2026-04-10T20:33:16.042Z</time></trkpt><trkpt lat="45.0410417" lon="7.97678"><ele>278.0</ele><time>2026-04-10T20:33:18.041Z</time></trkpt><trkpt lat="45.0410517" lon="7.976875"><ele>274.83333333333337</ele><time>2026-04-10T20:33:19.041Z</time></trkpt><trkpt lat="45.04106" lon="7.9769717"><ele>271.6666666666667</ele><time>2026-04-10T20:33:20.04Z</time></trkpt><trkpt lat="45.04107" lon="7.9770683"><ele>268.5</ele><time>2026-04-10T20:33:21.041Z</time></trkpt><trkpt lat="45.04108" lon="7.9771717"><ele>265.3333333333333</ele><time>2026-04-10T20:33:22.041Z</time></trkpt><trkpt lat="45.04109" lon="7.9772817"><ele>262.16666666666663</ele><time>2026-04-10T20:33:23.04Z</time></trkpt><trkpt lat="45.0411067" lon="7.9773917"><ele>259.0</ele><time>2026-04-10T20:33:24.041Z</time></trkpt><trkpt lat="45.0411217" lon="7.9775033"><ele>258.0</ele><time>2026-04-10T20:33:25.04Z</time></trkpt><trkpt lat="45.041135" lon="7.9776133"><ele>257.0</ele><time>2026-04-10T20:33:26.04Z</time></trkpt><trkpt lat="45.0411483" lon="7.977725"><ele>256.0</ele><time>2026-04-10T20:33:27.041Z</time></trkpt><trkpt lat="45.0411617" lon="7.9778333"><ele>255.0</ele><time>2026-04-10T20:33:28.041Z</time></trkpt><trkpt lat="45.0411733" lon="7.9779367"><ele>254.0</ele><time>2026-04-10T20:33:29.041Z</time></trkpt><trkpt lat="45.04118" lon="7.97804"><ele>253.0</ele><time>2026-04-10T20:33:30.041Z</time></trkpt><trkpt lat="45.0411783" lon="7.9781317"><ele>252.0</ele><time>2026-04-10T20:33:31.04Z</time></trkpt><trkpt lat="45.041145" lon="7.9782733"><ele>253.8</ele><time>2026-04-10T20:33:33.042Z</time></trkpt><trkpt lat="45.0410883" lon="7.978385"><ele>255.6</ele><time>2026-04-10T20:33:35.041Z</time></trkpt><trkpt lat="45.04107" lon="7.9785083"><ele>257.40000000000003</ele><time>2026-04-10T20:33:37.042Z</time></trkpt><trkpt lat="45.0410833" lon="7.978635"><ele>259.2</ele><time>2026-04-10T20:33:39.042Z</time></trkpt><trkpt lat="45.0411183" lon="7.9787617"><ele>261.0</ele><time>2026-04-10T20:33:41.043Z</time></trkpt><trkpt lat="45.041175" lon="7.9788533"><ele>261.0</ele><time>2026-04-10T20:33:43.043Z</time></trkpt><trkpt lat="45.0412183" lon="7.9789467"><ele>261.0</ele><time>2026-04-10T20:33:45.042Z</time></trkpt><trkpt lat="45.0412517" lon="7.97904"><ele>261.0</ele><time>2026-04-10T20:33:47.042Z</time></trkpt><trkpt lat="45.0412767" lon="7.97914"><ele>261.0</ele><time>2026-04-10T20:33:49.043Z</time></trkpt><trkpt lat="45.041295" lon="7.9792767"><ele>261.0</ele><time>2026-04-10T20:33:52.042Z</time></trkpt><trkpt lat="45.041305" lon="7.979365"><ele>261.0</ele><time>2026-04-10T20:33:54.042Z</time></trkpt><trkpt lat="45.041315" lon="7.979465"><ele>262.8333333333333</ele><time>2026-04-10T20:33:56.042Z</time></trkpt><trkpt lat="45.0413317" lon="7.979555"><ele>264.6666666666667</ele><time>2026-04-10T20:33:58.041Z</time></trkpt><trkpt lat="45.0413433" lon="7.9796867"><ele>266.5</ele><time>2026-04-10T20:34:01.043Z</time></trkpt><trkpt lat="45.0413567" lon="7.9798167"><ele>268.33333333333337</ele><time>2026-04-10T20:34:04.042Z</time></trkpt><trkpt lat="45.0413683" lon="7.9799467"><ele>270.1666666666667</ele><time>2026-04-10T20:34:07.043Z</time></trkpt><trkpt lat="45.0413783" lon="7.9800517"><ele>272.0</ele><time>2026-04-10T20:34:09.042Z</time></trkpt><trkpt lat="45.0413933" lon="7.9801417"><ele>274.1666666666667</ele><time>2026-04-10T20:34:11.042Z</time></trkpt><trkpt lat="45.0414133" lon="7.9802667"><ele>276.33333333333337</ele><time>2026-04-10T20:34:14.043Z</time></trkpt><trkpt lat="45.0414283" lon="7.98039"><ele>278.5</ele><time>2026-04-10T20:34:17.042Z</time></trkpt><trkpt lat="45.041455" lon="7.9804917"><ele>280.6666666666667</ele><time>2026-04-10T20:34:20.042Z</time></trkpt><trkpt lat="45.041475" lon="7.980595"><ele>282.8333333333333</ele><time>2026-04-10T20:34:23.042Z</time></trkpt><trkpt lat="45.04149" lon="7.9806883"><ele>285.0</ele><time>2026-04-10T20:34:26.042Z</time></trkpt><trkpt lat="45.04152" lon="7.9808083"><ele>285.8</ele><time>2026-04-10T20:34:30.043Z</time></trkpt><trkpt lat="45.0415517" lon="7.9808983"><ele>286.6</ele><time>2026-04-10T20:34:33.042Z</time></trkpt><trkpt lat="45.0415683" lon="7.9810033"><ele>287.4</ele><time>2026-04-10T20:34:37.042Z</time></trkpt><trkpt lat="45.041585" lon="7.98113"><ele>288.2</ele><time>2026-04-10T20:34:40.042Z</time></trkpt><trkpt lat="45.0416" lon="7.98122"><ele>289.0</ele><time>2026-04-10T20:34:42.042Z</time></trkpt><trkpt lat="45.0417683" lon="7.9816767"><ele>288.2</ele><time>2026-04-10T20:34:57.043Z</time></trkpt><trkpt lat="45.041835" lon="7.98172"><ele>287.4</ele><time>2026-04-10T20:34:58.044Z</time></trkpt><trkpt lat="45.04186" lon="7.9819767"><ele>286.6</ele><time>2026-04-10T20:35:00.042Z</time></trkpt><trkpt lat="45.041895" lon="7.982065"><ele>285.8</ele><time>2026-04-10T20:35:02.042Z</time></trkpt><trkpt lat="45.041905" lon="7.98197"><ele>285.0</ele><time>2026-04-10T20:35:07.043Z</time></trkpt><trkpt lat="45.0418533" lon="7.981905"><ele>285.0</ele><time>2026-04-10T20:35:12.042Z</time></trkpt><trkpt lat="45.04159" lon="7.9806967"><ele>285.0</ele><time>2026-04-10T20:35:30.042Z</time></trkpt><trkpt lat="45.041545" lon="7.9806067"><ele>285.0</ele><time>2026-04-10T20:35:32.042Z</time></trkpt><trkpt lat="45.0415067" lon="7.9804533"><ele>285.0</ele><time>2026-04-10T20:35:34.043Z</time></trkpt><trkpt lat="45.0414883" lon="7.9803617"><ele>285.0</ele><time>2026-04-10T20:35:35.043Z</time></trkpt><trkpt lat="45.0414783" lon="7.9802683"><ele>285.0</ele><time>2026-04-10T20:35:36.042Z</time></trkpt><trkpt lat="45.04146" lon="7.9801767"><ele>285.0</ele><time>2026-04-10T20:35:37.042Z</time></trkpt><trkpt lat="45.041445" lon="7.9800767"><ele>282.8333333333333</ele><time>2026-04-10T20:35:38.042Z</time></trkpt><trkpt lat="45.041435" lon="7.9799767"><ele>280.6666666666667</ele><time>2026-04-10T20:35:39.042Z</time></trkpt><trkpt lat="45.0414183" lon="7.9798817"><ele>278.5</ele><time>2026-04-10T20:35:40.042Z</time></trkpt><trkpt lat="45.0414067" lon="7.9797933"><ele>276.33333333333337</ele><time>2026-04-10T20:35:41.042Z</time></trkpt><trkpt lat="45.0413733" lon="7.97966"><ele>274.1666666666667</ele><time>2026-04-10T20:35:43.044Z</time></trkpt><trkpt lat="45.0412867" lon="7.97961"><ele>272.0</ele><time>2026-04-10T20:35:45.043Z</time></trkpt><trkpt lat="45.041215" lon="7.9796383"><ele>271.99999999999994</ele><time>2026-04-10T20:35:47.042Z</time></trkpt><trkpt lat="45.04119" lon="7.9797367"><ele>272.0</ele><time>2026-04-10T20:35:49.043Z</time></trkpt><trkpt lat="45.0412067" lon="7.979845"><ele>272.0</ele><time>2026-04-10T20:35:52.042Z</time></trkpt><trkpt lat="45.0412083" lon="7.9799567"><ele>272.0</ele><time>2026-04-10T20:35:56.041Z</time></trkpt><trkpt lat="45.0412283" lon="7.9800667"><ele>272.0</ele><time>2026-04-10T20:36:00.043Z</time></trkpt><trkpt lat="45.04124" lon="7.980155"><ele>271.99999999999994</ele><time>2026-04-10T20:36:03.042Z</time></trkpt><trkpt lat="45.0412367" lon="7.98026"><ele>272.0</ele><time>2026-04-10T20:36:07.042Z</time></trkpt><trkpt lat="45.04125" lon="7.9803483"><ele>273.85714285714283</ele><time>2026-04-10T20:36:10.042Z</time></trkpt><trkpt lat="45.0412967" lon="7.980425"><ele>275.7142857142857</ele><time>2026-04-10T20:36:14.042Z</time></trkpt><trkpt lat="45.0413117" lon="7.9805317"><ele>277.57142857142856</ele><time>2026-04-10T20:36:20.043Z</time></trkpt><trkpt lat="45.041305" lon="7.9806283"><ele>279.42857142857144</ele><time>2026-04-10T20:36:25.042Z</time></trkpt><trkpt lat="45.041315" lon="7.9807183"><ele>281.2857142857143</ele><time>2026-04-10T20:36:30.042Z</time></trkpt><trkpt lat="45.0413283" lon="7.9808117"><ele>283.1428571428571</ele><time>2026-04-10T20:36:35.042Z</time></trkpt><trkpt lat="45.041375" lon="7.98089"><ele>285.0</ele><time>2026-04-10T20:36:40.042Z</time></trkpt><trkpt lat="45.0413767" lon="7.980985"><ele>286.42857142857144</ele><time>2026-04-10T20:36:46.042Z</time></trkpt><trkpt lat="45.0414033" lon="7.9810717"><ele>287.8571428571429</ele><time>2026-04-10T20:36:52.043Z</time></trkpt><trkpt lat="45.0414483" lon="7.9811417"><ele>289.28571428571433</ele><time>2026-04-10T20:36:58.042Z</time></trkpt><trkpt lat="45.04146" lon="7.981235"><ele>290.7142857142857</ele><time>2026-04-10T20:37:04.041Z</time></trkpt><trkpt lat="45.0415167" lon="7.9812983"><ele>292.14285714285717</ele><time>2026-04-10T20:37:10.042Z</time></trkpt><trkpt lat="45.0415533" lon="7.98138"><ele>293.5714285714286</ele><time>2026-04-10T20:37:16.041Z</time></trkpt><trkpt lat="45.0415717" lon="7.98147"><ele>295.0</ele><time>2026-04-10T20:37:22.042Z</time></trkpt><trkpt lat="45.041575" lon="7.9815667"><ele>295.00000000000006</ele><time>2026-04-10T20:37:27.043Z</time></trkpt><trkpt lat="45.041605" lon="7.98166"><ele>295.0</ele><time>2026-04-10T20:37:33.044Z</time></trkpt><trkpt lat="45.0415883" lon="7.9817533"><ele>295.0</ele><time>2026-04-10T20:37:39.041Z</time></trkpt><trkpt lat="45.0416" lon="7.9818433"><ele>295.0</ele><time>2026-04-10T20:37:44.041Z</time></trkpt><trkpt lat="45.0415967" lon="7.9819433"><ele>295.0</ele><time>2026-04-10T20:37:50.042Z</time></trkpt><trkpt lat="45.04156" lon="7.9820583"><ele>295.00000000000006</ele><time>2026-04-10T20:37:59.042Z</time></trkpt><trkpt lat="45.04151" lon="7.9821283"><ele>295.0</ele><time>2026-04-10T20:38:05.043Z</time></trkpt><trkpt lat="45.0414817" lon="7.98222"><ele>295.16666666666663</ele><time>2026-04-10T20:38:11.042Z</time></trkpt><trkpt lat="45.0414633" lon="7.982315"><ele>295.3333333333333</ele><time>2026-04-10T20:38:17.043Z</time></trkpt><trkpt lat="45.0414017" lon="7.9824183"><ele>295.5</ele><time>2026-04-10T20:38:25.042Z</time></trkpt><trkpt lat="45.0413483" lon="7.9824817"><ele>295.6666666666667</ele><time>2026-04-10T20:38:30.041Z</time></trkpt><trkpt lat="45.0413217" lon="7.98258"><ele>295.83333333333337</ele><time>2026-04-10T20:38:35.041Z</time></trkpt><trkpt lat="45.0412783" lon="7.9826617"><ele>296.0</ele><time>2026-04-10T20:38:40.042Z</time></trkpt><trkpt lat="45.04123" lon="7.98274"><ele>295.57142857142856</ele><time>2026-04-10T20:38:45.041Z</time></trkpt><trkpt lat="45.0411733" lon="7.982805"><ele>295.1428571428571</ele><time>2026-04-10T20:38:51.041Z</time></trkpt><trkpt lat="45.0411133" lon="7.9828617"><ele>294.71428571428567</ele><time>2026-04-10T20:38:56.042Z</time></trkpt><trkpt lat="45.0410483" lon="7.982915"><ele>294.2857142857143</ele><time>2026-04-10T20:39:01.041Z</time></trkpt><trkpt lat="45.0410017" lon="7.982975"><ele>293.85714285714283</ele><time>2026-04-10T20:39:06.041Z</time></trkpt><trkpt lat="45.0409417" lon="7.9830283"><ele>293.4285714285714</ele><time>2026-04-10T20:39:10.041Z</time></trkpt><trkpt lat="45.040875" lon="7.9830617"><ele>293.0</ele><time>2026-04-10T20:39:15.041Z</time></trkpt><trkpt lat="45.0408133" lon="7.9831017"><ele>292.33333333333337</ele><time>2026-04-10T20:39:20.041Z</time></trkpt><trkpt lat="45.0407417" lon="7.9831233"><ele>291.6666666666667</ele><time>2026-04-10T20:39:25.041Z</time></trkpt><trkpt lat="45.040675" lon="7.98313"><ele>291.0</ele><time>2026-04-10T20:39:29.041Z</time></trkpt><trkpt lat="45.0406117" lon="7.9831533"><ele>290.3333333333333</ele><time>2026-04-10T20:39:33.041Z</time></trkpt><trkpt lat="45.0405333" lon="7.9831883"><ele>289.66666666666663</ele><time>2026-04-10T20:39:37.041Z</time></trkpt><trkpt lat="45.0404517" lon="7.98323"><ele>289.0</ele><time>2026-04-10T20:39:40.04Z</time></trkpt><trkpt lat="45.0403717" lon="7.9832867"><ele>289.0</ele><time>2026-04-10T20:39:43.042Z</time></trkpt><trkpt lat="45.0402983" lon="7.9833383"><ele>289.0</ele><time>2026-04-10T20:39:46.041Z</time></trkpt><trkpt lat="45.0402183" lon="7.9834067"><ele>289.0</ele><time>2026-04-10T20:39:49.041Z</time></trkpt><trkpt lat="45.0401417" lon="7.9834817"><ele>289.0</ele><time>2026-04-10T20:39:52.04Z</time></trkpt><trkpt lat="45.0400833" lon="7.9835383"><ele>289.0</ele><time>2026-04-10T20:39:54.04Z</time></trkpt><trkpt lat="45.0400267" lon="7.9835933"><ele>289.0</ele><time>2026-04-10T20:39:56.041Z</time></trkpt><trkpt lat="45.039965" lon="7.9836333"><ele>289.8571428571429</ele><time>2026-04-10T20:39:58.04Z</time></trkpt><trkpt lat="45.039905" lon="7.98369"><ele>290.7142857142857</ele><time>2026-04-10T20:40:00.04Z</time></trkpt><trkpt lat="45.0398383" lon="7.983745"><ele>291.57142857142856</ele><time>2026-04-10T20:40:02.04Z</time></trkpt><trkpt lat="45.0397767" lon="7.9838033"><ele>292.42857142857144</ele><time>2026-04-10T20:40:04.042Z</time></trkpt><trkpt lat="45.03972" lon="7.98386"><ele>293.2857142857143</ele><time>2026-04-10T20:40:06.04Z</time></trkpt><trkpt lat="45.0396533" lon="7.98391"><ele>294.14285714285717</ele><time>2026-04-10T20:40:08.041Z</time></trkpt><trkpt lat="45.039585" lon="7.9839583"><ele>295.0</ele><time>2026-04-10T20:40:10.043Z</time></trkpt><trkpt lat="45.0395183" lon="7.9840033"><ele>295.0</ele><time>2026-04-10T20:40:12.043Z</time></trkpt><trkpt lat="45.0394583" lon="7.9840633"><ele>295.0</ele><time>2026-04-10T20:40:14.042Z</time></trkpt><trkpt lat="45.0394" lon="7.9841167"><ele>295.0</ele><time>2026-04-10T20:40:16.042Z</time></trkpt><trkpt lat="45.0393433" lon="7.9841683"><ele>295.0</ele><time>2026-04-10T20:40:18.042Z</time></trkpt><trkpt lat="45.0392683" lon="7.9842367"><ele>295.0</ele><time>2026-04-10T20:40:21.043Z</time></trkpt><trkpt lat="45.0391833" lon="7.9842917"><ele>295.0</ele><time>2026-04-10T20:40:24.044Z</time></trkpt><trkpt lat="45.0391017" lon="7.98435"><ele>294.0</ele><time>2026-04-10T20:40:27.043Z</time></trkpt><trkpt lat="45.03902" lon="7.9844133"><ele>293.0</ele><time>2026-04-10T20:40:30.041Z</time></trkpt><trkpt lat="45.038965" lon="7.98446"><ele>292.0</ele><time>2026-04-10T20:40:32.04Z</time></trkpt><trkpt lat="45.0389033" lon="7.984505"><ele>291.0</ele><time>2026-04-10T20:40:34.041Z</time></trkpt><trkpt lat="45.0388267" lon="7.9845483"><ele>290.0</ele><time>2026-04-10T20:40:36.041Z</time></trkpt><trkpt lat="45.0387483" lon="7.9846017"><ele>289.0</ele><time>2026-04-10T20:40:38.04Z</time></trkpt><trkpt lat="45.038665" lon="7.9846667"><ele>289.0</ele><time>2026-04-10T20:40:40.04Z</time></trkpt><trkpt lat="45.03857" lon="7.9847583"><ele>289.0</ele><time>2026-04-10T20:40:42.043Z</time></trkpt><trkpt lat="45.0384717" lon="7.9848483"><ele>289.0</ele><time>2026-04-10T20:40:44.042Z</time></trkpt><trkpt lat="45.0383667" lon="7.9849483"><ele>289.0</ele><time>2026-04-10T20:40:46.042Z</time></trkpt><trkpt lat="45.0383033" lon="7.9849967"><ele>289.0</ele><time>2026-04-10T20:40:47.042Z</time></trkpt><trkpt lat="45.0382317" lon="7.985035"><ele>290.3333333333333</ele><time>2026-04-10T20:40:48.044Z</time></trkpt><trkpt lat="45.0381567" lon="7.985065"><ele>291.66666666666663</ele><time>2026-04-10T20:40:49.043Z</time></trkpt><trkpt lat="45.0380817" lon="7.985085"><ele>293.0</ele><time>2026-04-10T20:40:50.042Z</time></trkpt><trkpt lat="45.03801" lon="7.9850883"><ele>294.3333333333333</ele><time>2026-04-10T20:40:51.042Z</time></trkpt><trkpt lat="45.037945" lon="7.9850883"><ele>295.6666666666667</ele><time>2026-04-10T20:40:52.043Z</time></trkpt><trkpt lat="45.0378217" lon="7.9850867"><ele>297.0</ele><time>2026-04-10T20:40:54.042Z</time></trkpt><trkpt lat="45.0377567" lon="7.9850917"><ele>297.0</ele><time>2026-04-10T20:40:55.042Z</time></trkpt><trkpt lat="45.0376933" lon="7.9851067"><ele>297.0</ele><time>2026-04-10T20:40:56.042Z</time></trkpt><trkpt lat="45.03763" lon="7.98513"><ele>297.0</ele><time>2026-04-10T20:40:57.044Z</time></trkpt><trkpt lat="45.0375167" lon="7.9851883"><ele>297.0</ele><time>2026-04-10T20:40:59.043Z</time></trkpt><trkpt lat="45.03741" lon="7.9852583"><ele>297.0</ele><time>2026-04-10T20:41:01.042Z</time></trkpt><trkpt lat="45.0373233" lon="7.98535"><ele>295.75</ele><time>2026-04-10T20:41:03.043Z</time></trkpt><trkpt lat="45.0372367" lon="7.98545"><ele>294.5</ele><time>2026-04-10T20:41:05.042Z</time></trkpt><trkpt lat="45.0371467" lon="7.9855517"><ele>293.25</ele><time>2026-04-10T20:41:07.042Z</time></trkpt><trkpt lat="45.037045" lon="7.985645"><ele>292.0</ele><time>2026-04-10T20:41:09.041Z</time></trkpt><trkpt lat="45.0369267" lon="7.9856817"><ele>292.0</ele><time>2026-04-10T20:41:11.041Z</time></trkpt><trkpt lat="45.0368067" lon="7.9856967"><ele>292.0</ele><time>2026-04-10T20:41:13.041Z</time></trkpt><trkpt lat="45.0366833" lon="7.9857033"><ele>292.0</ele><time>2026-04-10T20:41:15.044Z</time></trkpt><trkpt lat="45.03662" lon="7.9857017"><ele>292.0</ele><time>2026-04-10T20:41:16.041Z</time></trkpt><trkpt lat="45.0364983" lon="7.98571"><ele>292.0</ele><time>2026-04-10T20:41:18.041Z</time></trkpt><trkpt lat="45.03638" lon="7.9857167"><ele>290.8</ele><time>2026-04-10T20:41:20.041Z</time></trkpt><trkpt lat="45.03626" lon="7.9857183"><ele>289.6</ele><time>2026-04-10T20:41:22.042Z</time></trkpt><trkpt lat="45.0361467" lon="7.985715"><ele>288.40000000000003</ele><time>2026-04-10T20:41:24.041Z</time></trkpt><trkpt lat="45.0360417" lon="7.9856883"><ele>287.2</ele><time>2026-04-10T20:41:26.041Z</time></trkpt><trkpt lat="45.0359483" lon="7.985645"><ele>286.0</ele><time>2026-04-10T20:41:28.04Z</time></trkpt><trkpt lat="45.03586" lon="7.9855883"><ele>284.40000000000003</ele><time>2026-04-10T20:41:30.04Z</time></trkpt><trkpt lat="45.03577" lon="7.9855017"><ele>282.8</ele><time>2026-04-10T20:41:32.041Z</time></trkpt><trkpt lat="45.0356883" lon="7.9853867"><ele>281.20000000000005</ele><time>2026-04-10T20:41:34.042Z</time></trkpt><trkpt lat="45.0356233" lon="7.985255"><ele>279.6</ele><time>2026-04-10T20:41:36.042Z</time></trkpt><trkpt lat="45.035555" lon="7.9851417"><ele>278.0</ele><time>2026-04-10T20:41:38.04Z</time></trkpt><trkpt lat="45.0354633" lon="7.985065"><ele>278.6</ele><time>2026-04-10T20:41:40.041Z</time></trkpt><trkpt lat="45.0353633" lon="7.98501"><ele>279.20000000000005</ele><time>2026-04-10T20:41:42.041Z</time></trkpt><trkpt lat="45.0352567" lon="7.984965"><ele>279.8</ele><time>2026-04-10T20:41:44.041Z</time></trkpt><trkpt lat="45.0351467" lon="7.9849217"><ele>280.40000000000003</ele><time>2026-04-10T20:41:46.041Z</time></trkpt><trkpt lat="45.0350367" lon="7.9848817"><ele>281.0</ele><time>2026-04-10T20:41:48.042Z</time></trkpt><trkpt lat="45.034925" lon="7.9848467"><ele>281.6</ele><time>2026-04-10T20:41:50.041Z</time></trkpt><trkpt lat="45.0348167" lon="7.984835"><ele>282.20000000000005</ele><time>2026-04-10T20:41:52.041Z</time></trkpt><trkpt lat="45.0347033" lon="7.9848483"><ele>282.79999999999995</ele><time>2026-04-10T20:41:54.043Z</time></trkpt><trkpt lat="45.0346067" lon="7.9848817"><ele>283.4</ele><time>2026-04-10T20:41:56.043Z</time></trkpt><trkpt lat="45.0345217" lon="7.9849217"><ele>284.0</ele><time>2026-04-10T20:41:58.043Z</time></trkpt><trkpt lat="45.0344467" lon="7.98498"><ele>283.6666666666667</ele><time>2026-04-10T20:42:00.042Z</time></trkpt><trkpt lat="45.0343833" lon="7.9850283"><ele>283.33333333333337</ele><time>2026-04-10T20:42:02.042Z</time></trkpt><trkpt lat="45.0343067" lon="7.9850717"><ele>283.0</ele><time>2026-04-10T20:42:05.042Z</time></trkpt><trkpt lat="45.0342317" lon="7.98511"><ele>282.6666666666667</ele><time>2026-04-10T20:42:08.042Z</time></trkpt><trkpt lat="45.03415" lon="7.9851333"><ele>282.3333333333333</ele><time>2026-04-10T20:42:11.04Z</time></trkpt><trkpt lat="45.0340817" lon="7.9851467"><ele>282.0</ele><time>2026-04-10T20:42:13.043Z</time></trkpt><trkpt lat="45.033995" lon="7.9851467"><ele>281.8333333333333</ele><time>2026-04-10T20:42:15.044Z</time></trkpt><trkpt lat="45.0338917" lon="7.98514"><ele>281.6666666666667</ele><time>2026-04-10T20:42:17.042Z</time></trkpt><trkpt lat="45.0337767" lon="7.9851317"><ele>281.5</ele><time>2026-04-10T20:42:19.042Z</time></trkpt><trkpt lat="45.0337133" lon="7.9851117"><ele>281.33333333333337</ele><time>2026-04-10T20:42:20.042Z</time></trkpt><trkpt lat="45.0336483" lon="7.985085"><ele>281.1666666666667</ele><time>2026-04-10T20:42:21.043Z</time></trkpt><trkpt lat="45.0335867" lon="7.9850517"><ele>281.0</ele><time>2026-04-10T20:42:22.042Z</time></trkpt><trkpt lat="45.033525" lon="7.9850117"><ele>281.00000000000006</ele><time>2026-04-10T20:42:23.041Z</time></trkpt><trkpt lat="45.03346" lon="7.9849667"><ele>281.0</ele><time>2026-04-10T20:42:24.043Z</time></trkpt><trkpt lat="45.0333967" lon="7.98492"><ele>281.0</ele><time>2026-04-10T20:42:25.042Z</time></trkpt><trkpt lat="45.033335" lon="7.98487"><ele>281.0</ele><time>2026-04-10T20:42:26.043Z</time></trkpt><trkpt lat="45.0332717" lon="7.984815"><ele>281.0</ele><time>2026-04-10T20:42:27.042Z</time></trkpt><trkpt lat="45.03321" lon="7.9847633"><ele>281.00000000000006</ele><time>2026-04-10T20:42:28.042Z</time></trkpt><trkpt lat="45.033155" lon="7.9847167"><ele>281.0</ele><time>2026-04-10T20:42:29.04Z</time></trkpt><trkpt lat="45.0330917" lon="7.9846617"><ele>279.5</ele><time>2026-04-10T20:42:30.041Z</time></trkpt><trkpt lat="45.0330267" lon="7.984605"><ele>278.0</ele><time>2026-04-10T20:42:31.042Z</time></trkpt><trkpt lat="45.0329633" lon="7.9845533"><ele>276.5</ele><time>2026-04-10T20:42:32.044Z</time></trkpt><trkpt lat="45.0328917" lon="7.9845133"><ele>275.0</ele><time>2026-04-10T20:42:33.042Z</time></trkpt><trkpt lat="45.0328083" lon="7.98449"><ele>273.5</ele><time>2026-04-10T20:42:34.041Z</time></trkpt><trkpt lat="45.0327283" lon="7.9844817"><ele>272.0</ele><time>2026-04-10T20:42:35.04Z</time></trkpt><trkpt lat="45.03265" lon="7.9844867"><ele>272.0</ele><time>2026-04-10T20:42:36.041Z</time></trkpt><trkpt lat="45.03257" lon="7.984495"><ele>272.0</ele><time>2026-04-10T20:42:37.041Z</time></trkpt><trkpt lat="45.03249" lon="7.984505"><ele>272.0</ele><time>2026-04-10T20:42:38.041Z</time></trkpt><trkpt lat="45.03241" lon="7.984515"><ele>272.0</ele><time>2026-04-10T20:42:39.041Z</time></trkpt><trkpt lat="45.0323317" lon="7.9845283"><ele>272.0</ele><time>2026-04-10T20:42:40.042Z</time></trkpt><trkpt lat="45.0322567" lon="7.9845483"><ele>272.0</ele><time>2026-04-10T20:42:41.04Z</time></trkpt><trkpt lat="45.03218" lon="7.9845733"><ele>271.99999999999994</ele><time>2026-04-10T20:42:42.04Z</time></trkpt><trkpt lat="45.03211" lon="7.98461"><ele>272.0</ele><time>2026-04-10T20:42:43.04Z</time></trkpt><trkpt lat="45.0320433" lon="7.98465"><ele>272.0</ele><time>2026-04-10T20:42:44.041Z</time></trkpt><trkpt lat="45.0319817" lon="7.984695"><ele>272.0</ele><time>2026-04-10T20:42:45.041Z</time></trkpt><trkpt lat="45.03192" lon="7.9847433"><ele>272.0</ele><time>2026-04-10T20:42:46.041Z</time></trkpt><trkpt lat="45.0318617" lon="7.9848"><ele>271.99999999999994</ele><time>2026-04-10T20:42:47.04Z</time></trkpt><trkpt lat="45.031805" lon="7.984865"><ele>272.0</ele><time>2026-04-10T20:42:48.042Z</time></trkpt><trkpt lat="45.0317467" lon="7.9849317"><ele>272.0</ele><time>2026-04-10T20:42:49.041Z</time></trkpt><trkpt lat="45.03168" lon="7.9849967"><ele>272.0</ele><time>2026-04-10T20:42:50.042Z</time></trkpt><trkpt lat="45.0316117" lon="7.9850567"><ele>272.0</ele><time>2026-04-10T20:42:51.041Z</time></trkpt><trkpt lat="45.03154" lon="7.98512"><ele>272.0</ele><time>2026-04-10T20:42:52.04Z</time></trkpt><trkpt lat="45.0314667" lon="7.9851867"><ele>272.0</ele><time>2026-04-10T20:42:53.041Z</time></trkpt><trkpt lat="45.0313883" lon="7.985255"><ele>272.0</ele><time>2026-04-10T20:42:54.043Z</time></trkpt><trkpt lat="45.03131" lon="7.9853283"><ele>271.83333333333337</ele><time>2026-04-10T20:42:55.042Z</time></trkpt><trkpt lat="45.0312317" lon="7.9853967"><ele>271.6666666666667</ele><time>2026-04-10T20:42:56.041Z</time></trkpt><trkpt lat="45.0311583" lon="7.98547"><ele>271.5</ele><time>2026-04-10T20:42:57.041Z</time></trkpt><trkpt lat="45.0310867" lon="7.9855367"><ele>271.3333333333333</ele><time>2026-04-10T20:42:58.043Z</time></trkpt><trkpt lat="45.0310183" lon="7.9856033"><ele>271.16666666666663</ele><time>2026-04-10T20:42:59.041Z</time></trkpt><trkpt lat="45.0309583" lon="7.9856717"><ele>271.0</ele><time>2026-04-10T20:43:00.041Z</time></trkpt><trkpt lat="45.0309017" lon="7.9857383"><ele>271.0</ele><time>2026-04-10T20:43:01.043Z</time></trkpt><trkpt lat="45.03085" lon="7.9857967"><ele>271.0</ele><time>2026-04-10T20:43:02.041Z</time></trkpt><trkpt lat="45.03077" lon="7.9859"><ele>271.0</ele><time>2026-04-10T20:43:04.042Z</time></trkpt><trkpt lat="45.0307183" lon="7.985975"><ele>271.0</ele><time>2026-04-10T20:43:06.042Z</time></trkpt><trkpt lat="45.030665" lon="7.9860433"><ele>271.0</ele><time>2026-04-10T20:43:09.043Z</time></trkpt><trkpt lat="45.0306283" lon="7.98613"><ele>271.0</ele><time>2026-04-10T20:43:12.042Z</time></trkpt><trkpt lat="45.03059" lon="7.9862017"><ele>271.42857142857144</ele><time>2026-04-10T20:43:15.042Z</time></trkpt><trkpt lat="45.0305417" lon="7.98626"><ele>271.8571428571429</ele><time>2026-04-10T20:43:18.042Z</time></trkpt><trkpt lat="45.0304783" lon="7.98634"><ele>272.28571428571433</ele><time>2026-04-10T20:43:21.043Z</time></trkpt><trkpt lat="45.030435" lon="7.986405"><ele>272.7142857142857</ele><time>2026-04-10T20:43:24.042Z</time></trkpt><trkpt lat="45.0303833" lon="7.9864667"><ele>273.14285714285717</ele><time>2026-04-10T20:43:27.043Z</time></trkpt><trkpt lat="45.0303183" lon="7.9865133"><ele>273.5714285714286</ele><time>2026-04-10T20:43:30.043Z</time></trkpt><trkpt lat="45.0302483" lon="7.98655"><ele>274.0</ele><time>2026-04-10T20:43:33.042Z</time></trkpt><trkpt lat="45.030195" lon="7.9866067"><ele>274.0</ele><time>2026-04-10T20:44:08.044Z</time></trkpt><trkpt lat="45.0301283" lon="7.9866333"><ele>274.0</ele><time>2026-04-10T20:44:11.042Z</time></trkpt><trkpt lat="45.030065" lon="7.9866583"><ele>274.0</ele><time>2026-04-10T20:44:13.041Z</time></trkpt><trkpt lat="45.0300017" lon="7.9867"><ele>274.0</ele><time>2026-04-10T20:44:15.041Z</time></trkpt><trkpt lat="45.0299317" lon="7.98674"><ele>274.0</ele><time>2026-04-10T20:44:17.041Z</time></trkpt><trkpt lat="45.029855" lon="7.9868033"><ele>274.0</ele><time>2026-04-10T20:44:19.042Z</time></trkpt><trkpt lat="45.029775" lon="7.9868617"><ele>273.2</ele><time>2026-04-10T20:44:21.041Z</time></trkpt><trkpt lat="45.0296817" lon="7.9869383"><ele>272.4</ele><time>2026-04-10T20:44:23.04Z</time></trkpt><trkpt lat="45.0295967" lon="7.9869967"><ele>271.6</ele><time>2026-04-10T20:44:25.041Z</time></trkpt><trkpt lat="45.0294967" lon="7.9870467"><ele>270.8</ele><time>2026-04-10T20:44:27.041Z</time></trkpt><trkpt lat="45.02939" lon="7.987085"><ele>270.0</ele><time>2026-04-10T20:44:29.041Z</time></trkpt><trkpt lat="45.0292783" lon="7.9871233"><ele>270.0</ele><time>2026-04-10T20:44:31.042Z</time></trkpt><trkpt lat="45.0291733" lon="7.987165"><ele>270.0</ele><time>2026-04-10T20:44:33.042Z</time></trkpt><trkpt lat="45.0290667" lon="7.9871933"><ele>270.0</ele><time>2026-04-10T20:44:35.04Z</time></trkpt><trkpt lat="45.0289567" lon="7.9872167"><ele>270.0</ele><time>2026-04-10T20:44:37.042Z</time></trkpt><trkpt lat="45.0288533" lon="7.987235"><ele>270.0</ele><time>2026-04-10T20:44:39.042Z</time></trkpt><trkpt lat="45.02875" lon="7.9872717"><ele>270.2</ele><time>2026-04-10T20:44:41.041Z</time></trkpt><trkpt lat="45.0286433" lon="7.9872917"><ele>270.4</ele><time>2026-04-10T20:44:43.042Z</time></trkpt><trkpt lat="45.0285383" lon="7.987285"><ele>270.6</ele><time>2026-04-10T20:44:45.041Z</time></trkpt><trkpt lat="45.0284383" lon="7.987285"><ele>270.8</ele><time>2026-04-10T20:44:47.041Z</time></trkpt><trkpt lat="45.0283267" lon="7.98728"><ele>271.0</ele><time>2026-04-10T20:44:49.041Z</time></trkpt><trkpt lat="45.0282067" lon="7.9872517"><ele>270.0</ele><time>2026-04-10T20:44:51.041Z</time></trkpt><trkpt lat="45.028085" lon="7.9872083"><ele>269.0</ele><time>2026-04-10T20:44:53.041Z</time></trkpt><trkpt lat="45.02802" lon="7.9871767"><ele>268.0</ele><time>2026-04-10T20:44:54.041Z</time></trkpt><trkpt lat="45.0279567" lon="7.9871467"><ele>267.0</ele><time>2026-04-10T20:44:55.04Z</time></trkpt><trkpt lat="45.0278917" lon="7.9871217"><ele>266.0</ele><time>2026-04-10T20:44:56.042Z</time></trkpt><trkpt lat="45.0278267" lon="7.9870967"><ele>265.0</ele><time>2026-04-10T20:44:57.044Z</time></trkpt><trkpt lat="45.0277617" lon="7.98707"><ele>264.99999999999994</ele><time>2026-04-10T20:44:58.041Z</time></trkpt><trkpt lat="45.0276983" lon="7.987045"><ele>265.0</ele><time>2026-04-10T20:44:59.041Z</time></trkpt><trkpt lat="45.027635" lon="7.9870217"><ele>265.0</ele><time>2026-04-10T20:45:00.042Z</time></trkpt><trkpt lat="45.02757" lon="7.986995"><ele>265.0</ele><time>2026-04-10T20:45:01.041Z</time></trkpt><trkpt lat="45.0275033" lon="7.9869683"><ele>265.0</ele><time>2026-04-10T20:45:02.041Z</time></trkpt><trkpt lat="45.0274367" lon="7.9869417"><ele>264.99999999999994</ele><time>2026-04-10T20:45:03.041Z</time></trkpt><trkpt lat="45.0273717" lon="7.9869133"><ele>265.0</ele><time>2026-04-10T20:45:04.041Z</time></trkpt><trkpt lat="45.0273067" lon="7.9868933"><ele>265.0</ele><time>2026-04-10T20:45:05.04Z</time></trkpt><trkpt lat="45.02724" lon="7.9868767"><ele>265.0</ele><time>2026-04-10T20:45:06.042Z</time></trkpt><trkpt lat="45.0271133" lon="7.9868767"><ele>265.0</ele><time>2026-04-10T20:45:08.042Z</time></trkpt><trkpt lat="45.0269917" lon="7.9869167"><ele>265.0</ele><time>2026-04-10T20:45:10.041Z</time></trkpt><trkpt lat="45.0268733" lon="7.9869617"><ele>265.0</ele><time>2026-04-10T20:45:12.041Z</time></trkpt><trkpt lat="45.02676" lon="7.9870133"><ele>265.0</ele><time>2026-04-10T20:45:14.04Z</time></trkpt><trkpt lat="45.0266517" lon="7.987065"><ele>265.0</ele><time>2026-04-10T20:45:16.042Z</time></trkpt><trkpt lat="45.02655" lon="7.9871083"><ele>265.0</ele><time>2026-04-10T20:45:18.041Z</time></trkpt><trkpt lat="45.026445" lon="7.9871667"><ele>265.0</ele><time>2026-04-10T20:45:20.041Z</time></trkpt><trkpt lat="45.026345" lon="7.9872283"><ele>265.0</ele><time>2026-04-10T20:45:22.041Z</time></trkpt><trkpt lat="45.0262483" lon="7.98729"><ele>265.0</ele><time>2026-04-10T20:45:24.041Z</time></trkpt><trkpt lat="45.0261483" lon="7.9873633"><ele>265.0</ele><time>2026-04-10T20:45:26.042Z</time></trkpt><trkpt lat="45.0260567" lon="7.987425"><ele>265.0</ele><time>2026-04-10T20:45:28.04Z</time></trkpt><trkpt lat="45.0259733" lon="7.9875"><ele>265.0</ele><time>2026-04-10T20:45:30.041Z</time></trkpt><trkpt lat="45.0258983" lon="7.98757"><ele>265.0</ele><time>2026-04-10T20:45:32.041Z</time></trkpt><trkpt lat="45.0258317" lon="7.98765"><ele>267.3333333333333</ele><time>2026-04-10T20:45:34.04Z</time></trkpt><trkpt lat="45.0257733" lon="7.9877333"><ele>269.66666666666663</ele><time>2026-04-10T20:45:36.041Z</time></trkpt><trkpt lat="45.0257183" lon="7.9878333"><ele>272.0</ele><time>2026-04-10T20:45:38.041Z</time></trkpt><trkpt lat="45.0256583" lon="7.9879217"><ele>274.3333333333333</ele><time>2026-04-10T20:45:40.041Z</time></trkpt><trkpt lat="45.0255983" lon="7.9880117"><ele>276.6666666666667</ele><time>2026-04-10T20:45:42.04Z</time></trkpt><trkpt lat="45.0255617" lon="7.9881133"><ele>279.0</ele><time>2026-04-10T20:45:44.041Z</time></trkpt><trkpt lat="45.0255233" lon="7.9882183"><ele>279.0</ele><time>2026-04-10T20:45:46.042Z</time></trkpt><trkpt lat="45.0254767" lon="7.9883133"><ele>279.0</ele><time>2026-04-10T20:45:48.041Z</time></trkpt><trkpt lat="45.02543" lon="7.9883917"><ele>279.0</ele><time>2026-04-10T20:45:50.042Z</time></trkpt><trkpt lat="45.0253817" lon="7.9884683"><ele>279.0</ele><time>2026-04-10T20:45:52.041Z</time></trkpt><trkpt lat="45.02532" lon="7.98855"><ele>279.0</ele><time>2026-04-10T20:45:55.041Z</time></trkpt><trkpt lat="45.02527" lon="7.9886117"><ele>279.0</ele><time>2026-04-10T20:45:57.041Z</time></trkpt><trkpt lat="45.025185" lon="7.988695"><ele>276.75</ele><time>2026-04-10T20:45:59.041Z</time></trkpt><trkpt lat="45.0250983" lon="7.9887683"><ele>274.5</ele><time>2026-04-10T20:46:01.041Z</time></trkpt><trkpt lat="45.0250033" lon="7.9888567"><ele>272.25</ele><time>2026-04-10T20:46:03.042Z</time></trkpt><trkpt lat="45.0248967" lon="7.9889433"><ele>270.0</ele><time>2026-04-10T20:46:05.04Z</time></trkpt><trkpt lat="45.0247883" lon="7.9890283"><ele>269.42857142857144</ele><time>2026-04-10T20:46:07.041Z</time></trkpt><trkpt lat="45.0247267" lon="7.98907"><ele>268.85714285714283</ele><time>2026-04-10T20:46:08.041Z</time></trkpt><trkpt lat="45.0246667" lon="7.9891083"><ele>268.2857142857143</ele><time>2026-04-10T20:46:09.042Z</time></trkpt><trkpt lat="45.0246017" lon="7.989135"><ele>267.7142857142857</ele><time>2026-04-10T20:46:10.041Z</time></trkpt><trkpt lat="45.024535" lon="7.9891533"><ele>267.1428571428571</ele><time>2026-04-10T20:46:11.04Z</time></trkpt><trkpt lat="45.0244667" lon="7.9891617"><ele>266.57142857142856</ele><time>2026-04-10T20:46:12.04Z</time></trkpt><trkpt lat="45.0243933" lon="7.989155"><ele>266.0</ele><time>2026-04-10T20:46:13.041Z</time></trkpt><trkpt lat="45.024315" lon="7.9891217"><ele>266.0</ele><time>2026-04-10T20:46:14.042Z</time></trkpt><trkpt lat="45.0242367" lon="7.98907"><ele>266.0</ele><time>2026-04-10T20:46:15.042Z</time></trkpt><trkpt lat="45.024165" lon="7.9890083"><ele>266.0</ele><time>2026-04-10T20:46:16.04Z</time></trkpt><trkpt lat="45.024095" lon="7.9889433"><ele>266.0</ele><time>2026-04-10T20:46:17.041Z</time></trkpt><trkpt lat="45.0240217" lon="7.9888717"><ele>266.0</ele><time>2026-04-10T20:46:18.04Z</time></trkpt><trkpt lat="45.023945" lon="7.9888017"><ele>266.0</ele><time>2026-04-10T20:46:19.04Z</time></trkpt><trkpt lat="45.023865" lon="7.9887367"><ele>262.8</ele><time>2026-04-10T20:46:20.04Z</time></trkpt><trkpt lat="45.0237833" lon="7.9886783"><ele>259.6</ele><time>2026-04-10T20:46:21.041Z</time></trkpt><trkpt lat="45.0237" lon="7.9886283"><ele>256.4</ele><time>2026-04-10T20:46:22.042Z</time></trkpt><trkpt lat="45.023615" lon="7.9885833"><ele>253.2</ele><time>2026-04-10T20:46:23.04Z</time></trkpt><trkpt lat="45.02353" lon="7.98854"><ele>250.0</ele><time>2026-04-10T20:46:24.04Z</time></trkpt><trkpt lat="45.023445" lon="7.988495"><ele>249.99999999999997</ele><time>2026-04-10T20:46:25.04Z</time></trkpt><trkpt lat="45.0233617" lon="7.98845"><ele>250.0</ele><time>2026-04-10T20:46:26.04Z</time></trkpt><trkpt lat="45.0232767" lon="7.988405"><ele>250.0</ele><time>2026-04-10T20:46:27.04Z</time></trkpt><trkpt lat="45.023195" lon="7.9883583"><ele>250.0</ele><time>2026-04-10T20:46:28.04Z</time></trkpt><trkpt lat="45.023115" lon="7.9883083"><ele>249.99999999999997</ele><time>2026-04-10T20:46:29.04Z</time></trkpt><trkpt lat="45.0230367" lon="7.9882583"><ele>250.0</ele><time>2026-04-10T20:46:30.04Z</time></trkpt><trkpt lat="45.0229583" lon="7.98821"><ele>251.49999999999997</ele><time>2026-04-10T20:46:31.041Z</time></trkpt><trkpt lat="45.0228833" lon="7.9881633"><ele>253.0</ele><time>2026-04-10T20:46:32.041Z</time></trkpt><trkpt lat="45.0228117" lon="7.9881133"><ele>254.5</ele><time>2026-04-10T20:46:33.043Z</time></trkpt><trkpt lat="45.022745" lon="7.988065"><ele>256.0</ele><time>2026-04-10T20:46:34.042Z</time></trkpt><trkpt lat="45.0226817" lon="7.98802"><ele>257.5</ele><time>2026-04-10T20:46:35.044Z</time></trkpt><trkpt lat="45.022575" lon="7.9879567"><ele>259.0</ele><time>2026-04-10T20:46:37.042Z</time></trkpt><trkpt lat="45.0224883" lon="7.987915"><ele>260.16666666666663</ele><time>2026-04-10T20:46:39.043Z</time></trkpt><trkpt lat="45.022415" lon="7.9878867"><ele>261.3333333333333</ele><time>2026-04-10T20:46:41.042Z</time></trkpt><trkpt lat="45.02235" lon="7.98785"><ele>262.5</ele><time>2026-04-10T20:46:43.042Z</time></trkpt><trkpt lat="45.0222867" lon="7.9878117"><ele>263.6666666666667</ele><time>2026-04-10T20:46:45.043Z</time></trkpt><trkpt lat="45.0222117" lon="7.9877967"><ele>264.83333333333337</ele><time>2026-04-10T20:46:48.041Z</time></trkpt><trkpt lat="45.022125" lon="7.98781"><ele>266.0</ele><time>2026-04-10T20:46:51.042Z</time></trkpt><trkpt lat="45.0220367" lon="7.9878083"><ele>266.0</ele><time>2026-04-10T20:46:54.043Z</time></trkpt><trkpt lat="45.02197" lon="7.9878067"><ele>266.0</ele><time>2026-04-10T20:46:56.042Z</time></trkpt><trkpt lat="45.021885" lon="7.9878283"><ele>266.0</ele><time>2026-04-10T20:46:59.041Z</time></trkpt><trkpt lat="45.0218167" lon="7.9878367"><ele>266.0</ele><time>2026-04-10T20:47:01.042Z</time></trkpt><trkpt lat="45.021755" lon="7.9878683"><ele>266.0</ele><time>2026-04-10T20:47:03.044Z</time></trkpt><trkpt lat="45.0216867" lon="7.9878917"><ele>266.0</ele><time>2026-04-10T20:47:05.042Z</time></trkpt><trkpt lat="45.021625" lon="7.98792"><ele>266.0</ele><time>2026-04-10T20:47:07.043Z</time></trkpt><trkpt lat="45.021565" lon="7.987955"><ele>267.33333333333337</ele><time>2026-04-10T20:47:09.042Z</time></trkpt><trkpt lat="45.0214983" lon="7.98796"><ele>268.6666666666667</ele><time>2026-04-10T20:47:11.042Z</time></trkpt><trkpt lat="45.02142" lon="7.987985"><ele>270.0</ele><time>2026-04-10T20:47:14.042Z</time></trkpt><trkpt lat="45.0213367" lon="7.9880083"><ele>271.3333333333333</ele><time>2026-04-10T20:47:17.042Z</time></trkpt><trkpt lat="45.0212517" lon="7.9880283"><ele>272.66666666666663</ele><time>2026-04-10T20:47:20.041Z</time></trkpt><trkpt lat="45.02118" lon="7.9880683"><ele>274.0</ele><time>2026-04-10T20:47:23.042Z</time></trkpt><trkpt lat="45.021105" lon="7.9880917"><ele>274.00000000000006</ele><time>2026-04-10T20:47:26.042Z</time></trkpt><trkpt lat="45.0210317" lon="7.9881067"><ele>274.0</ele><time>2026-04-10T20:47:29.043Z</time></trkpt><trkpt lat="45.0209583" lon="7.9881083"><ele>274.0</ele><time>2026-04-10T20:47:32.042Z</time></trkpt><trkpt lat="45.020875" lon="7.9880833"><ele>274.0</ele><time>2026-04-10T20:47:36.042Z</time></trkpt><trkpt lat="45.0208083" lon="7.9880583"><ele>274.0</ele><time>2026-04-10T20:47:39.044Z</time></trkpt><trkpt lat="45.0207467" lon="7.98803"><ele>274.00000000000006</ele><time>2026-04-10T20:47:42.042Z</time></trkpt><trkpt lat="45.0206833" lon="7.988015"><ele>274.0</ele><time>2026-04-10T20:47:45.043Z</time></trkpt><trkpt lat="45.0206" lon="7.9879917"><ele>274.16666666666663</ele><time>2026-04-10T20:47:48.041Z</time></trkpt><trkpt lat="45.0205167" lon="7.98796"><ele>274.3333333333333</ele><time>2026-04-10T20:47:51.041Z</time></trkpt><trkpt lat="45.020445" lon="7.98792"><ele>274.5</ele><time>2026-04-10T20:47:54.041Z</time></trkpt><trkpt lat="45.0203717" lon="7.9878983"><ele>274.6666666666667</ele><time>2026-04-10T20:47:57.041Z</time></trkpt><trkpt lat="45.0203033" lon="7.9878883"><ele>274.83333333333337</ele><time>2026-04-10T20:48:00.041Z</time></trkpt><trkpt lat="45.0202233" lon="7.9878717"><ele>275.0</ele><time>2026-04-10T20:48:03.042Z</time></trkpt><trkpt lat="45.0201333" lon="7.9878333"><ele>275.0</ele><time>2026-04-10T20:48:06.043Z</time></trkpt><trkpt lat="45.0200433" lon="7.987775"><ele>275.0</ele><time>2026-04-10T20:48:09.042Z</time></trkpt><trkpt lat="45.01998" lon="7.98776"><ele>275.0</ele><time>2026-04-10T20:48:11.04Z</time></trkpt><trkpt lat="45.01991" lon="7.9877317"><ele>275.0</ele><time>2026-04-10T20:48:13.042Z</time></trkpt><trkpt lat="45.019835" lon="7.9877117"><ele>275.0</ele><time>2026-04-10T20:48:15.043Z</time></trkpt><trkpt lat="45.0197517" lon="7.9876983"><ele>275.0</ele><time>2026-04-10T20:48:17.042Z</time></trkpt><trkpt lat="45.01966" lon="7.9877"><ele>274.8</ele><time>2026-04-10T20:48:19.042Z</time></trkpt><trkpt lat="45.0195633" lon="7.9877183"><ele>274.6</ele><time>2026-04-10T20:48:21.042Z</time></trkpt><trkpt lat="45.0194617" lon="7.987755"><ele>274.4</ele><time>2026-04-10T20:48:23.041Z</time></trkpt><trkpt lat="45.0193583" lon="7.9878133"><ele>274.2</ele><time>2026-04-10T20:48:25.04Z</time></trkpt><trkpt lat="45.0192567" lon="7.9878867"><ele>274.0</ele><time>2026-04-10T20:48:27.04Z</time></trkpt><trkpt lat="45.0191667" lon="7.9879733"><ele>274.2</ele><time>2026-04-10T20:48:29.04Z</time></trkpt><trkpt lat="45.019085" lon="7.9880817"><ele>274.4</ele><time>2026-04-10T20:48:31.042Z</time></trkpt><trkpt lat="45.0190083" lon="7.98819"><ele>274.6</ele><time>2026-04-10T20:48:33.043Z</time></trkpt><trkpt lat="45.0189383" lon="7.9882933"><ele>274.8</ele><time>2026-04-10T20:48:35.041Z</time></trkpt><trkpt lat="45.0188817" lon="7.988395"><ele>275.0</ele><time>2026-04-10T20:48:37.04Z</time></trkpt><trkpt lat="45.018835" lon="7.9885017"><ele>275.0</ele><time>2026-04-10T20:48:39.043Z</time></trkpt><trkpt lat="45.018785" lon="7.988605"><ele>275.0</ele><time>2026-04-10T20:48:41.041Z</time></trkpt><trkpt lat="45.0187367" lon="7.988715"><ele>275.0</ele><time>2026-04-10T20:48:43.04Z</time></trkpt><trkpt lat="45.018695" lon="7.9888367"><ele>275.0</ele><time>2026-04-10T20:48:45.042Z</time></trkpt><trkpt lat="45.0186467" lon="7.9889667"><ele>275.0</ele><time>2026-04-10T20:48:47.043Z</time></trkpt><trkpt lat="45.0186033" lon="7.9890983"><ele>274.0</ele><time>2026-04-10T20:48:49.041Z</time></trkpt><trkpt lat="45.01856" lon="7.9892283"><ele>273.0</ele><time>2026-04-10T20:48:51.041Z</time></trkpt><trkpt lat="45.01851" lon="7.9893567"><ele>272.0</ele><time>2026-04-10T20:48:53.043Z</time></trkpt><trkpt lat="45.0184683" lon="7.9894833"><ele>271.0</ele><time>2026-04-10T20:48:55.041Z</time></trkpt><trkpt lat="45.0184233" lon="7.9896117"><ele>270.0</ele><time>2026-04-10T20:48:57.043Z</time></trkpt><trkpt lat="45.0183717" lon="7.9897483"><ele>270.0</ele><time>2026-04-10T20:48:59.04Z</time></trkpt><trkpt lat="45.0183183" lon="7.989895"><ele>270.0</ele><time>2026-04-10T20:49:01.041Z</time></trkpt><trkpt lat="45.0182683" lon="7.9900517"><ele>270.0</ele><time>2026-04-10T20:49:03.04Z</time></trkpt><trkpt lat="45.0182183" lon="7.9902067"><ele>270.0</ele><time>2026-04-10T20:49:05.041Z</time></trkpt><trkpt lat="45.0181917" lon="7.99029"><ele>270.0</ele><time>2026-04-10T20:49:06.04Z</time></trkpt><trkpt lat="45.0181633" lon="7.9903717"><ele>269.3333333333333</ele><time>2026-04-10T20:49:07.04Z</time></trkpt><trkpt lat="45.0181333" lon="7.9904517"><ele>268.6666666666667</ele><time>2026-04-10T20:49:08.041Z</time></trkpt><trkpt lat="45.018105" lon="7.9905317"><ele>268.0</ele><time>2026-04-10T20:49:09.042Z</time></trkpt><trkpt lat="45.0180733" lon="7.99061"><ele>267.33333333333337</ele><time>2026-04-10T20:49:10.041Z</time></trkpt><trkpt lat="45.0180383" lon="7.9906867"><ele>266.6666666666667</ele><time>2026-04-10T20:49:11.041Z</time></trkpt><trkpt lat="45.01797" lon="7.99083"><ele>266.0</ele><time>2026-04-10T20:49:13.04Z</time></trkpt><trkpt lat="45.0179033" lon="7.9909683"><ele>266.0</ele><time>2026-04-10T20:49:15.042Z</time></trkpt><trkpt lat="45.0178433" lon="7.9911067"><ele>266.0</ele><time>2026-04-10T20:49:17.042Z</time></trkpt><trkpt lat="45.01778" lon="7.9912317"><ele>266.0</ele><time>2026-04-10T20:49:19.04Z</time></trkpt><trkpt lat="45.017715" lon="7.99134"><ele>266.0</ele><time>2026-04-10T20:49:21.041Z</time></trkpt><trkpt lat="45.01765" lon="7.9914367"><ele>266.0</ele><time>2026-04-10T20:49:23.041Z</time></trkpt><trkpt lat="45.017575" lon="7.9915367"><ele>266.0</ele><time>2026-04-10T20:49:25.041Z</time></trkpt><trkpt lat="45.017495" lon="7.9916217"><ele>266.0</ele><time>2026-04-10T20:49:27.041Z</time></trkpt><trkpt lat="45.01742" lon="7.991705"><ele>266.0</ele><time>2026-04-10T20:49:29.041Z</time></trkpt><trkpt lat="45.0173433" lon="7.99179"><ele>266.0</ele><time>2026-04-10T20:49:31.041Z</time></trkpt><trkpt lat="45.01727" lon="7.9918783"><ele>266.0</ele><time>2026-04-10T20:49:33.042Z</time></trkpt><trkpt lat="45.017185" lon="7.9919533"><ele>266.8</ele><time>2026-04-10T20:49:35.041Z</time></trkpt><trkpt lat="45.017105" lon="7.9920133"><ele>267.6</ele><time>2026-04-10T20:49:37.041Z</time></trkpt><trkpt lat="45.017025" lon="7.992085"><ele>268.4</ele><time>2026-04-10T20:49:39.042Z</time></trkpt><trkpt lat="45.016945" lon="7.99215"><ele>269.2</ele><time>2026-04-10T20:49:41.041Z</time></trkpt><trkpt lat="45.01687" lon="7.992215"><ele>270.0</ele><time>2026-04-10T20:49:43.041Z</time></trkpt><trkpt lat="45.0167867" lon="7.9922667"><ele>270.0</ele><time>2026-04-10T20:49:45.042Z</time></trkpt><trkpt lat="45.0167167" lon="7.992325"><ele>270.0</ele><time>2026-04-10T20:49:47.04Z</time></trkpt><trkpt lat="45.016645" lon="7.9923733"><ele>270.0</ele><time>2026-04-10T20:49:49.04Z</time></trkpt><trkpt lat="45.016575" lon="7.9924217"><ele>270.0</ele><time>2026-04-10T20:49:51.042Z</time></trkpt><trkpt lat="45.0165067" lon="7.9924783"><ele>270.0</ele><time>2026-04-10T20:49:53.041Z</time></trkpt><trkpt lat="45.01644" lon="7.9925317"><ele>270.0</ele><time>2026-04-10T20:49:55.04Z</time></trkpt><trkpt lat="45.016365" lon="7.992575"><ele>270.0</ele><time>2026-04-10T20:49:57.041Z</time></trkpt><trkpt lat="45.0162883" lon="7.9926083"><ele>270.0</ele><time>2026-04-10T20:49:59.042Z</time></trkpt><trkpt lat="45.0162183" lon="7.992625"><ele>270.0</ele><time>2026-04-10T20:50:01.04Z</time></trkpt><trkpt lat="45.01615" lon="7.9926517"><ele>270.0</ele><time>2026-04-10T20:50:03.041Z</time></trkpt><trkpt lat="45.016085" lon="7.9926633"><ele>270.0</ele><time>2026-04-10T20:50:05.04Z</time></trkpt><trkpt lat="45.0160167" lon="7.99267"><ele>270.0</ele><time>2026-04-10T20:50:07.042Z</time></trkpt><trkpt lat="45.0159467" lon="7.99269"><ele>270.0</ele><time>2026-04-10T20:50:09.041Z</time></trkpt><trkpt lat="45.01587" lon="7.9926983"><ele>269.3333333333333</ele><time>2026-04-10T20:50:11.041Z</time></trkpt><trkpt lat="45.0157883" lon="7.992705"><ele>268.6666666666667</ele><time>2026-04-10T20:50:13.04Z</time></trkpt><trkpt lat="45.0157083" lon="7.9927067"><ele>268.0</ele><time>2026-04-10T20:50:15.04Z</time></trkpt><trkpt lat="45.0156317" lon="7.9927183"><ele>267.33333333333337</ele><time>2026-04-10T20:50:17.04Z</time></trkpt><trkpt lat="45.0155483" lon="7.9927267"><ele>266.6666666666667</ele><time>2026-04-10T20:50:19.04Z</time></trkpt><trkpt lat="45.0154567" lon="7.9927217"><ele>266.0</ele><time>2026-04-10T20:50:21.041Z</time></trkpt><trkpt lat="45.0153633" lon="7.99272"><ele>266.0</ele><time>2026-04-10T20:50:23.041Z</time></trkpt><trkpt lat="45.0152717" lon="7.9927117"><ele>266.0</ele><time>2026-04-10T20:50:25.041Z</time></trkpt><trkpt lat="45.015175" lon="7.9926867"><ele>266.0</ele><time>2026-04-10T20:50:27.042Z</time></trkpt><trkpt lat="45.0150667" lon="7.992655"><ele>266.0</ele><time>2026-04-10T20:50:29.041Z</time></trkpt><trkpt lat="45.0149533" lon="7.9926217"><ele>266.0</ele><time>2026-04-10T20:50:31.041Z</time></trkpt><trkpt lat="45.0148383" lon="7.992595"><ele>266.1666666666667</ele><time>2026-04-10T20:50:33.042Z</time></trkpt><trkpt lat="45.01472" lon="7.99256"><ele>266.33333333333337</ele><time>2026-04-10T20:50:35.042Z</time></trkpt><trkpt lat="45.0145983" lon="7.9925217"><ele>266.5</ele><time>2026-04-10T20:50:37.042Z</time></trkpt><trkpt lat="45.014535" lon="7.992495"><ele>266.6666666666667</ele><time>2026-04-10T20:50:38.042Z</time></trkpt><trkpt lat="45.01447" lon="7.9924667"><ele>266.8333333333333</ele><time>2026-04-10T20:50:39.042Z</time></trkpt><trkpt lat="45.0144067" lon="7.9924433"><ele>267.0</ele><time>2026-04-10T20:50:40.041Z</time></trkpt><trkpt lat="45.0143417" lon="7.9924217"><ele>267.00000000000006</ele><time>2026-04-10T20:50:41.04Z</time></trkpt><trkpt lat="45.0142783" lon="7.992405"><ele>267.0</ele><time>2026-04-10T20:50:42.04Z</time></trkpt><trkpt lat="45.0142133" lon="7.992385"><ele>267.0</ele><time>2026-04-10T20:50:43.041Z</time></trkpt><trkpt lat="45.0141433" lon="7.99236"><ele>267.0</ele><time>2026-04-10T20:50:44.04Z</time></trkpt><trkpt lat="45.0140767" lon="7.9923317"><ele>267.0</ele><time>2026-04-10T20:50:45.04Z</time></trkpt><trkpt lat="45.0140083" lon="7.9923083"><ele>267.00000000000006</ele><time>2026-04-10T20:50:46.04Z</time></trkpt><trkpt lat="45.01394" lon="7.9922817"><ele>267.0</ele><time>2026-04-10T20:50:47.041Z</time></trkpt><trkpt lat="45.0138733" lon="7.99226"><ele>266.28571428571433</ele><time>2026-04-10T20:50:48.04Z</time></trkpt><trkpt lat="45.013805" lon="7.99224"><ele>265.57142857142856</ele><time>2026-04-10T20:50:49.041Z</time></trkpt><trkpt lat="45.013735" lon="7.9922183"><ele>264.8571428571429</ele><time>2026-04-10T20:50:50.041Z</time></trkpt><trkpt lat="45.013665" lon="7.99219"><ele>264.14285714285717</ele><time>2026-04-10T20:50:51.042Z</time></trkpt><trkpt lat="45.0135967" lon="7.9921617"><ele>263.42857142857144</ele><time>2026-04-10T20:50:52.042Z</time></trkpt><trkpt lat="45.0135283" lon="7.9921217"><ele>262.7142857142857</ele><time>2026-04-10T20:50:53.042Z</time></trkpt><trkpt lat="45.0134617" lon="7.992075"><ele>262.0</ele><time>2026-04-10T20:50:54.041Z</time></trkpt><trkpt lat="45.0133967" lon="7.9920217"><ele>262.0</ele><time>2026-04-10T20:50:55.04Z</time></trkpt><trkpt lat="45.0133333" lon="7.9919583"><ele>262.0</ele><time>2026-04-10T20:50:56.041Z</time></trkpt><trkpt lat="45.0132683" lon="7.99189"><ele>262.0</ele><time>2026-04-10T20:50:57.041Z</time></trkpt><trkpt lat="45.0132083" lon="7.9918117"><ele>262.0</ele><time>2026-04-10T20:50:58.041Z</time></trkpt><trkpt lat="45.0131483" lon="7.9917267"><ele>262.0</ele><time>2026-04-10T20:50:59.04Z</time></trkpt><trkpt lat="45.0130917" lon="7.9916317"><ele>262.0</ele><time>2026-04-10T20:51:00.04Z</time></trkpt><trkpt lat="45.0130367" lon="7.9915333"><ele>262.4</ele><time>2026-04-10T20:51:01.04Z</time></trkpt><trkpt lat="45.0129817" lon="7.99143"><ele>262.79999999999995</ele><time>2026-04-10T20:51:02.04Z</time></trkpt><trkpt lat="45.0129333" lon="7.991325"><ele>263.2</ele><time>2026-04-10T20:51:03.041Z</time></trkpt><trkpt lat="45.0128817" lon="7.9912167"><ele>263.59999999999997</ele><time>2026-04-10T20:51:04.04Z</time></trkpt><trkpt lat="45.0128317" lon="7.9911083"><ele>264.0</ele><time>2026-04-10T20:51:05.04Z</time></trkpt><trkpt lat="45.01278" lon="7.9910033"><ele>264.0</ele><time>2026-04-10T20:51:06.042Z</time></trkpt><trkpt lat="45.0127317" lon="7.9909017"><ele>264.0</ele><time>2026-04-10T20:51:07.041Z</time></trkpt><trkpt lat="45.0126817" lon="7.9908067"><ele>264.0</ele><time>2026-04-10T20:51:08.042Z</time></trkpt><trkpt lat="45.0126267" lon="7.990715"><ele>264.0</ele><time>2026-04-10T20:51:09.042Z</time></trkpt><trkpt lat="45.01257" lon="7.99063"><ele>264.0</ele><time>2026-04-10T20:51:10.04Z</time></trkpt><trkpt lat="45.0125117" lon="7.99056"><ele>264.0</ele><time>2026-04-10T20:51:11.04Z</time></trkpt><trkpt lat="45.0124467" lon="7.990495"><ele>262.6666666666667</ele><time>2026-04-10T20:51:12.04Z</time></trkpt><trkpt lat="45.0123833" lon="7.990435"><ele>261.3333333333333</ele><time>2026-04-10T20:51:13.041Z</time></trkpt><trkpt lat="45.01232" lon="7.99038"><ele>260.0</ele><time>2026-04-10T20:51:14.04Z</time></trkpt><trkpt lat="45.0122517" lon="7.990335"><ele>258.66666666666663</ele><time>2026-04-10T20:51:15.042Z</time></trkpt><trkpt lat="45.01218" lon="7.9903067"><ele>257.3333333333333</ele><time>2026-04-10T20:51:16.041Z</time></trkpt><trkpt lat="45.0121067" lon="7.9902717"><ele>256.0</ele><time>2026-04-10T20:51:17.042Z</time></trkpt><trkpt lat="45.012035" lon="7.990245"><ele>255.99999999999997</ele><time>2026-04-10T20:51:18.041Z</time></trkpt><trkpt lat="45.0119633" lon="7.9902183"><ele>256.0</ele><time>2026-04-10T20:51:19.041Z</time></trkpt><trkpt lat="45.0118917" lon="7.990185"><ele>256.0</ele><time>2026-04-10T20:51:20.042Z</time></trkpt><trkpt lat="45.0118217" lon="7.99016"><ele>256.0</ele><time>2026-04-10T20:51:21.041Z</time></trkpt><trkpt lat="45.0117533" lon="7.990135"><ele>255.99999999999997</ele><time>2026-04-10T20:51:22.041Z</time></trkpt><trkpt lat="45.01169" lon="7.99011"><ele>256.0</ele><time>2026-04-10T20:51:23.042Z</time></trkpt><trkpt lat="45.0115967" lon="7.9900883"><ele>255.33333333333331</ele><time>2026-04-10T20:51:25.041Z</time></trkpt><trkpt lat="45.0115267" lon="7.9900633"><ele>254.66666666666666</ele><time>2026-04-10T20:51:29.043Z</time></trkpt><trkpt lat="45.011475" lon="7.9901267"><ele>254.0</ele><time>2026-04-10T20:51:33.041Z</time></trkpt><trkpt lat="45.0114017" lon="7.9900567"><ele>253.33333333333331</ele><time>2026-04-10T20:51:44.042Z</time></trkpt><trkpt lat="45.0113217" lon="7.990045"><ele>252.66666666666666</ele><time>2026-04-10T20:51:46.04Z</time></trkpt><trkpt lat="45.0112283" lon="7.990035"><ele>252.0</ele><time>2026-04-10T20:51:48.039Z</time></trkpt><trkpt lat="45.011115" lon="7.9900333"><ele>252.0</ele><time>2026-04-10T20:51:50.04Z</time></trkpt><trkpt lat="45.0110517" lon="7.9900283"><ele>252.0</ele><time>2026-04-10T20:51:51.041Z</time></trkpt><trkpt lat="45.0109883" lon="7.99002"><ele>252.0</ele><time>2026-04-10T20:51:52.042Z</time></trkpt><trkpt lat="45.0109217" lon="7.9900117"><ele>252.0</ele><time>2026-04-10T20:51:53.042Z</time></trkpt><trkpt lat="45.0108583" lon="7.9900067"><ele>252.0</ele><time>2026-04-10T20:51:54.042Z</time></trkpt><trkpt lat="45.010745" lon="7.9899933"><ele>252.0</ele><time>2026-04-10T20:51:56.041Z</time></trkpt><trkpt lat="45.0106383" lon="7.989975"><ele>250.83333333333334</ele><time>2026-04-10T20:51:58.041Z</time></trkpt><trkpt lat="45.0105383" lon="7.9899533"><ele>249.66666666666669</ele><time>2026-04-10T20:52:00.041Z</time></trkpt><trkpt lat="45.01043" lon="7.989935"><ele>248.5</ele><time>2026-04-10T20:52:02.042Z</time></trkpt><trkpt lat="45.0103633" lon="7.9899183"><ele>247.33333333333334</ele><time>2026-04-10T20:52:03.042Z</time></trkpt><trkpt lat="45.01029" lon="7.9899017"><ele>246.16666666666669</ele><time>2026-04-10T20:52:04.041Z</time></trkpt><trkpt lat="45.0102167" lon="7.9898817"><ele>245.0</ele><time>2026-04-10T20:52:05.041Z</time></trkpt><trkpt lat="45.0101433" lon="7.9898633"><ele>245.0</ele><time>2026-04-10T20:52:06.041Z</time></trkpt><trkpt lat="45.01007" lon="7.9898433"><ele>245.0</ele><time>2026-04-10T20:52:07.042Z</time></trkpt><trkpt lat="45.0099983" lon="7.989825"><ele>245.0</ele><time>2026-04-10T20:52:08.042Z</time></trkpt><trkpt lat="45.009935" lon="7.9898083"><ele>245.0</ele><time>2026-04-10T20:52:09.042Z</time></trkpt><trkpt lat="45.0098533" lon="7.9897717"><ele>245.0</ele><time>2026-04-10T20:52:11.04Z</time></trkpt><trkpt lat="45.00981" lon="7.989705"><ele>245.0</ele><time>2026-04-10T20:52:15.04Z</time></trkpt><trkpt lat="45.00986" lon="7.9897617"><ele>245.0</ele><time>2026-04-10T20:52:23.041Z</time></trkpt><trkpt lat="45.0099217" lon="7.9897833"><ele>245.0</ele><time>2026-04-10T20:52:26.041Z</time></trkpt><trkpt lat="45.0099883" lon="7.98983"><ele>245.0</ele><time>2026-04-10T20:52:30.043Z</time></trkpt><trkpt lat="45.0100567" lon="7.9898517"><ele>245.0</ele><time>2026-04-10T20:52:33.041Z</time></trkpt><trkpt lat="45.01013" lon="7.9898783"><ele>245.0</ele><time>2026-04-10T20:52:37.04Z</time></trkpt><trkpt lat="45.0102017" lon="7.9898967"><ele>245.0</ele><time>2026-04-10T20:52:41.04Z</time></trkpt><trkpt lat="45.01027" lon="7.9899183"><ele>245.0</ele><time>2026-04-10T20:52:45.04Z</time></trkpt><trkpt lat="45.010333" lon="7.9899064"><ele>245.0</ele><time>2026-04-10T20:52:50.051Z</time></trkpt><trkpt lat="45.0103966" lon="7.9899656"><ele>245.0</ele><time>2026-04-10T20:52:55.147Z</time></trkpt><trkpt lat="45.010465" lon="7.99"><ele>245.0</ele><time>2026-04-10T20:53:00.041Z</time></trkpt><trkpt lat="45.0105267" lon="7.989975"><ele>245.0</ele><time>2026-04-10T20:53:05.041Z</time></trkpt><trkpt lat="45.01059" lon="7.9899967"><ele>245.0</ele><time>2026-04-10T20:53:11.041Z</time></trkpt><trkpt lat="45.0106583" lon="7.9899883"><ele>245.0</ele><time>2026-04-10T20:53:16.043Z</time></trkpt><trkpt lat="45.0107217" lon="7.9899933"><ele>245.0</ele><time>2026-04-10T20:53:20.041Z</time></trkpt><trkpt lat="45.0107917" lon="7.9899767"><ele>245.0</ele><time>2026-04-10T20:53:26.047Z</time></trkpt><trkpt lat="45.0109117" lon="7.9900067"><ele>245.42857142857144</ele><time>2026-04-10T20:53:36.04Z</time></trkpt><trkpt lat="45.0109867" lon="7.9900033"><ele>245.85714285714286</ele><time>2026-04-10T20:53:42.041Z</time></trkpt><trkpt lat="45.0110467" lon="7.9900717"><ele>246.28571428571428</ele><time>2026-04-10T20:53:48.04Z</time></trkpt><trkpt lat="45.01111" lon="7.990065"><ele>246.71428571428572</ele><time>2026-04-10T20:53:53.04Z</time></trkpt><trkpt lat="45.011185" lon="7.9900583"><ele>247.14285714285717</ele><time>2026-04-10T20:53:58.041Z</time></trkpt><trkpt lat="45.0112567" lon="7.9900567"><ele>247.57142857142858</ele><time>2026-04-10T20:54:03.042Z</time></trkpt><trkpt lat="45.01132" lon="7.9900517"><ele>248.0</ele><time>2026-04-10T20:54:07.041Z</time></trkpt><trkpt lat="45.0113867" lon="7.99008"><ele>248.66666666666669</ele><time>2026-04-10T20:54:12.041Z</time></trkpt><trkpt lat="45.01142" lon="7.99016"><ele>249.33333333333334</ele><time>2026-04-10T20:54:17.041Z</time></trkpt><trkpt lat="45.011365" lon="7.9902467"><ele>250.0</ele><time>2026-04-10T20:54:22.041Z</time></trkpt><trkpt lat="45.01129" lon="7.9902983"><ele>250.66666666666669</ele><time>2026-04-10T20:54:25.042Z</time></trkpt><trkpt lat="45.01122" lon="7.99035"><ele>251.33333333333334</ele><time>2026-04-10T20:54:28.042Z</time></trkpt><trkpt lat="45.011155" lon="7.9904067"><ele>252.0</ele><time>2026-04-10T20:54:31.042Z</time></trkpt><trkpt lat="45.011095" lon="7.9904517"><ele>252.0</ele><time>2026-04-10T20:54:34.04Z</time></trkpt><trkpt lat="45.0110283" lon="7.99048"><ele>252.0</ele><time>2026-04-10T20:54:37.041Z</time></trkpt><trkpt lat="45.0109583" lon="7.990505"><ele>252.0</ele><time>2026-04-10T20:54:40.044Z</time></trkpt><trkpt lat="45.0108717" lon="7.990545"><ele>252.0</ele><time>2026-04-10T20:54:43.041Z</time></trkpt><trkpt lat="45.010795" lon="7.9905967"><ele>252.0</ele><time>2026-04-10T20:54:46.042Z</time></trkpt><trkpt lat="45.0107083" lon="7.990605"><ele>252.0</ele><time>2026-04-10T20:54:49.041Z</time></trkpt><trkpt lat="45.010635" lon="7.9906167"><ele>252.0</ele><time>2026-04-10T20:54:52.043Z</time></trkpt><trkpt lat="45.0105583" lon="7.990645"><ele>252.0</ele><time>2026-04-10T20:54:55.041Z</time></trkpt><trkpt lat="45.0104783" lon="7.9906667"><ele>252.0</ele><time>2026-04-10T20:54:58.041Z</time></trkpt><trkpt lat="45.0103983" lon="7.9906983"><ele>252.0</ele><time>2026-04-10T20:55:01.044Z</time></trkpt><trkpt lat="45.0103267" lon="7.9907233"><ele>252.0</ele><time>2026-04-10T20:55:04.041Z</time></trkpt><trkpt lat="45.01027" lon="7.9907783"><ele>252.0</ele><time>2026-04-10T20:55:08.04Z</time></trkpt><trkpt lat="45.0101933" lon="7.99079"><ele>252.0</ele><time>2026-04-10T20:55:11.041Z</time></trkpt><trkpt lat="45.01013" lon="7.9907767"><ele>252.0</ele><time>2026-04-10T20:55:14.04Z</time></trkpt><trkpt lat="45.0100867" lon="7.9906917"><ele>252.0</ele><time>2026-04-10T20:55:22.042Z</time></trkpt><trkpt lat="45.0100617" lon="7.99059"><ele>252.0</ele><time>2026-04-10T20:55:27.041Z</time></trkpt><trkpt lat="45.0100217" lon="7.9906617"><ele>252.0</ele><time>2026-04-10T20:55:35.041Z</time></trkpt><trkpt lat="45.0100067" lon="7.990775"><ele>252.0</ele><time>2026-04-10T20:55:39.041Z</time></trkpt><trkpt lat="45.0099583" lon="7.9908417"><ele>252.0</ele><time>2026-04-10T20:55:44.04Z</time></trkpt><trkpt lat="45.0098583" lon="7.9908367"><ele>252.0</ele><time>2026-04-10T20:56:50.042Z</time></trkpt><trkpt lat="45.0098017" lon="7.99092"><ele>252.0</ele><time>2026-04-10T21:06:40.04Z</time></trkpt><trkpt lat="45.00987" lon="7.9909867"><ele>252.0</ele><time>2026-04-10T21:07:21.042Z</time></trkpt><trkpt lat="45.009885" lon="7.9908983"><ele>252.0</ele><time>2026-04-10T21:07:38.04Z</time></trkpt><trkpt lat="45.009955" lon="7.9908267"><ele>252.0</ele><time>2026-04-10T21:08:33.042Z</time></trkpt><trkpt lat="45.0100183" lon="7.99084"><ele>252.0</ele><time>2026-04-10T21:08:36.042Z</time></trkpt><trkpt lat="45.0100833" lon="7.99082"><ele>252.0</ele><time>2026-04-10T21:08:40.04Z</time></trkpt><trkpt lat="45.0101483" lon="7.9907917"><ele>252.0</ele><time>2026-04-10T21:08:44.04Z</time></trkpt><trkpt lat="45.01023" lon="7.990755"><ele>252.0</ele><time>2026-04-10T21:08:48.04Z</time></trkpt><trkpt lat="45.0103033" lon="7.9907133"><ele>252.0</ele><time>2026-04-10T21:08:50.04Z</time></trkpt><trkpt lat="45.0103733" lon="7.99068"><ele>252.0</ele><time>2026-04-10T21:08:54.041Z</time></trkpt><trkpt lat="45.01045" lon="7.9906483"><ele>252.0</ele><time>2026-04-10T21:08:58.041Z</time></trkpt><trkpt lat="45.0105267" lon="7.9906583"><ele>252.0</ele><time>2026-04-10T21:09:02.042Z</time></trkpt><trkpt lat="45.01059" lon="7.9906683"><ele>252.0</ele><time>2026-04-10T21:09:05.042Z</time></trkpt><trkpt lat="45.0106583" lon="7.9906283"><ele>252.0</ele><time>2026-04-10T21:09:09.042Z</time></trkpt><trkpt lat="45.010725" lon="7.9906083"><ele>252.0</ele><time>2026-04-10T21:09:13.041Z</time></trkpt><trkpt lat="45.0106583" lon="7.9905633"><ele>252.0</ele><time>2026-04-10T21:09:18.042Z</time></trkpt></trkseg><trkseg><trkpt lat="45.0007078" lon="7.9836737"><ele>240.0</ele><time>2026-04-11T05:38:38.666Z</time></trkpt><trkpt lat="45.0038491" lon="7.9995545"><ele>193.0</ele><time>2026-04-11T05:44:08.179Z</time></trkpt><trkpt lat="45.0033102" lon="8.0066175"><ele>241.0</ele><time>2026-04-11T05:45:03.595Z</time></trkpt><trkpt lat="44.9959671" lon="8.0334643"><ele>249.0</ele><time>2026-04-11T05:59:25.418Z</time></trkpt><trkpt lat="44.9952629" lon="8.0354059"><ele>254.0</ele><time>2026-04-11T05:59:31.754Z</time></trkpt><trkpt lat="44.9927067" lon="8.0393683"><ele>254.0</ele><time>2026-04-11T06:05:05.273Z</time></trkpt></trkseg><trkseg><trkpt lat="44.9935571" lon="8.0445418"><ele>240.0</ele><time>2026-04-11T06:18:55.241Z</time></trkpt><trkpt lat="44.9888311" lon="8.0472077"><ele>237.0</ele><time>2026-04-11T06:20:04.852Z</time></trkpt><trkpt lat="44.9870518" lon="8.0484333"><ele>237.0</ele><time>2026-04-11T06:20:29.768Z</time></trkpt><trkpt lat="44.9869438" lon="8.0487483"><ele>237.0</ele><time>2026-04-11T06:20:36.72Z</time></trkpt><trkpt lat="44.9890722" lon="8.0591084"><ele>185.0</ele><time>2026-04-11T06:26:25.903Z</time></trkpt><trkpt lat="44.9892933" lon="8.0643849"><ele>197.0</ele><time>2026-04-11T06:27:29.065Z</time></trkpt><trkpt lat="45.015416" lon="8.0670442"><ele>208.0</ele><time>2026-04-11T06:37:57.888Z</time></trkpt><trkpt lat="45.0238687" lon="8.0645162"><ele>207.5</ele><time>2026-04-11T06:39:53.869Z</time></trkpt><trkpt lat="45.0241664" lon="8.0642782"><ele>207.0</ele><time>2026-04-11T06:41:01.004Z</time></trkpt><trkpt lat="45.027555" lon="8.0673001"><ele>230.0</ele><time>2026-04-11T06:42:20.931Z</time></trkpt><trkpt lat="45.0411474" lon="8.0937759"><ele>230.0</ele><time>2026-04-11T06:54:11.384Z</time></trkpt><trkpt lat="45.0412931" lon="8.0934413"><ele>230.0</ele><time>2026-04-11T06:54:18.74Z</time></trkpt><trkpt lat="45.0351458" lon="8.1193988"><ele>174.0</ele><time>2026-04-11T06:58:55.618Z</time></trkpt><trkpt lat="45.0339402" lon="8.1116137"><ele>175.0</ele><time>2026-04-11T06:59:08.535Z</time></trkpt><trkpt lat="45.0341004" lon="8.1189173"><ele>203.0</ele><time>2026-04-11T07:04:32.269Z</time></trkpt><trkpt lat="45.035115" lon="8.1193725"><ele>196.0</ele><time>2026-04-11T07:05:18.842Z</time></trkpt><trkpt lat="45.0343185" lon="8.11945"><ele>182.0</ele><time>2026-04-11T07:05:31.463Z</time></trkpt><trkpt lat="45.03364" lon="8.1194584"><ele>172.0</ele><time>2026-04-11T07:05:45.741Z</time></trkpt><trkpt lat="45.0285562" lon="8.1261258"><ele>172.0</ele><time>2026-04-11T07:06:46.6Z</time></trkpt><trkpt lat="45.0284678" lon="8.1263592"><ele>172.0</ele><time>2026-04-11T07:07:05.098Z</time></trkpt><trkpt lat="45.0442005" lon="8.1361041"><ele>224.0</ele><time>2026-04-11T07:15:14.737Z</time></trkpt><trkpt lat="45.0430209" lon="8.1372093"><ele>237.0</ele><time>2026-04-11T07:19:30.035Z</time></trkpt><trkpt lat="45.0396884" lon="8.1390401"><ele>270.0</ele><time>2026-04-11T07:22:17.099Z</time></trkpt><trkpt lat="45.0339738" lon="8.1417147"><ele>265.0</ele><time>2026-04-11T07:26:50.915Z</time></trkpt><trkpt lat="45.0328434" lon="8.1418147"><ele>164.0</ele><time>2026-04-11T07:27:06.49Z</time></trkpt><trkpt lat="45.026534" lon="8.1361383"><ele>245.0</ele><time>2026-04-11T07:28:00.149Z</time></trkpt><trkpt lat="45.031033" lon="8.1447661"><ele>160.0</ele><time>2026-04-11T07:28:18.387Z</time></trkpt><trkpt lat="45.0274712" lon="8.1585171"><ele>276.0</ele><time>2026-04-11T07:30:03.495Z</time></trkpt><trkpt lat="45.052376" lon="8.1912249"><ele>278.5</ele><time>2026-04-11T08:00:26.758Z</time></trkpt><trkpt lat="45.0525127" lon="8.1912485"><ele>281.0</ele><time>2026-04-11T08:11:49.956Z</time></trkpt><trkpt lat="45.0524917" lon="8.1918817"><ele>281.0</ele><time>2026-04-11T08:11:50.96Z</time></trkpt><trkpt lat="45.0524983" lon="8.191775"><ele>281.0</ele><time>2026-04-11T08:11:54.04Z</time></trkpt><trkpt lat="45.0525267" lon="8.1916517"><ele>281.0</ele><time>2026-04-11T08:11:57.042Z</time></trkpt><trkpt lat="45.05248" lon="8.1917283"><ele>281.0</ele><time>2026-04-11T08:12:06.044Z</time></trkpt><trkpt lat="45.0524867" lon="8.1916067"><ele>281.0</ele><time>2026-04-11T08:12:09.041Z</time></trkpt><trkpt lat="45.0524669" lon="8.1912796"><ele>279.0</ele><time>2026-04-11T08:13:37.888Z</time></trkpt><trkpt lat="45.0523902" lon="8.1912633"><ele>277.0</ele><time>2026-04-11T08:13:45.466Z</time></trkpt><trkpt lat="45.0523753" lon="8.1922303"><ele>254.0</ele><time>2026-04-11T08:14:11.487Z</time></trkpt><trkpt lat="45.0518643" lon="8.1951219"><ele>259.0</ele><time>2026-04-11T08:14:24.417Z</time></trkpt><trkpt lat="45.0502268" lon="8.1989588"><ele>269.0</ele><time>2026-04-11T08:14:43.654Z</time></trkpt><trkpt lat="45.0512471" lon="8.1991211"><ele>260.0</ele><time>2026-04-11T08:15:36.335Z</time></trkpt><trkpt lat="45.0496967" lon="8.2039167"><ele>267.0</ele><time>2026-04-11T08:17:10.602Z</time></trkpt><trkpt lat="45.0496661" lon="8.2053654"><ele>272.0</ele><time>2026-04-11T08:17:47.845Z</time></trkpt><trkpt lat="45.0495809" lon="8.20621"><ele>272.0</ele><time>2026-04-11T08:18:25.823Z</time></trkpt><trkpt lat="45.0497015" lon="8.2063135"><ele>272.0</ele><time>2026-04-11T08:18:33.853Z</time></trkpt><trkpt lat="45.0499017" lon="8.2062467"><ele>272.0</ele><time>2026-04-11T08:22:07.585Z</time></trkpt><trkpt lat="45.049955" lon="8.20613"><ele>272.0</ele><time>2026-04-11T08:22:09.585Z</time></trkpt><trkpt lat="45.0499517" lon="8.2062417"><ele>272.0</ele><time>2026-04-11T08:22:37.042Z</time></trkpt><trkpt lat="45.04988" lon="8.206215"><ele>272.0</ele><time>2026-04-11T08:22:38.043Z</time></trkpt><trkpt lat="45.0498267" lon="8.206145"><ele>272.0</ele><time>2026-04-11T08:23:12.042Z</time></trkpt><trkpt lat="45.0497783" lon="8.2060767"><ele>272.0</ele><time>2026-04-11T08:23:20.042Z</time></trkpt><trkpt lat="45.0498433" lon="8.2060567"><ele>272.0</ele><time>2026-04-11T08:23:45.042Z</time></trkpt><trkpt lat="45.0499017" lon="8.206105"><ele>272.0</ele><time>2026-04-11T08:23:48.041Z</time></trkpt><trkpt lat="45.0499783" lon="8.2062133"><ele>285.0</ele><time>2026-04-11T08:23:51.04Z</time></trkpt><trkpt lat="45.0499183" lon="8.20617"><ele>272.0</ele><time>2026-04-11T08:24:07.041Z</time></trkpt><trkpt lat="45.049925" lon="8.2063483"><ele>272.0</ele><time>2026-04-11T08:24:33.041Z</time></trkpt><trkpt lat="45.0498633" lon="8.20631"><ele>272.0</ele><time>2026-04-11T08:24:48.042Z</time></trkpt><trkpt lat="45.0499883" lon="8.2062233"><ele>285.0</ele><time>2026-04-11T08:26:41.044Z</time></trkpt></trkseg><trkseg><trkpt lat="44.9831652" lon="8.3264539"><ele>225.0</ele><time>2026-04-11T10:34:45.632Z</time></trkpt><trkpt lat="44.9828471" lon="8.3288893"><ele>224.0</ele><time>2026-04-11T10:35:06.829Z</time></trkpt><trkpt lat="44.9846688" lon="8.3299923"><ele>225.0</ele><time>2026-04-11T10:35:25.574Z</time></trkpt><trkpt lat="44.9832457" lon="8.3284939"><ele>260.0</ele><time>2026-04-11T10:35:32.186Z</time></trkpt><trkpt lat="44.98341" lon="8.3262783"><ele>260.0</ele><time>2026-04-11T10:35:36.971Z</time></trkpt><trkpt lat="44.9834583" lon="8.32619"><ele>260.0</ele><time>2026-04-11T10:35:37.973Z</time></trkpt><trkpt lat="44.9831679" lon="8.3264409"><ele>260.0</ele><time>2026-04-11T10:36:45.198Z</time></trkpt><trkpt lat="44.9825137" lon="8.3286635"><ele>242.5</ele><time>2026-04-11T10:36:51.762Z</time></trkpt><trkpt lat="44.9826552" lon="8.3287981"><ele>225.0</ele><time>2026-04-11T10:37:05.952Z</time></trkpt><trkpt lat="44.9829358" lon="8.3288366"><ele>226.0</ele><time>2026-04-11T10:37:12.342Z</time></trkpt><trkpt lat="44.9849125" lon="8.3295559"><ele>222.5</ele><time>2026-04-11T10:37:18.829Z</time></trkpt><trkpt lat="44.9852673" lon="8.3297181"><ele>219.0</ele><time>2026-04-11T10:37:31.692Z</time></trkpt><trkpt lat="44.9851153" lon="8.3298521"><ele>226.0</ele><time>2026-04-11T10:37:46.536Z</time></trkpt><trkpt lat="44.9842044" lon="8.3307936"><ele>225.0</ele><time>2026-04-11T10:37:54.704Z</time></trkpt><trkpt lat="44.9841592" lon="8.3308591"><ele>224.0</ele><time>2026-04-11T10:38:07.514Z</time></trkpt><trkpt lat="44.9811466" lon="8.3537444"><ele>205.0</ele><time>2026-04-11T10:43:57.182Z</time></trkpt><trkpt lat="44.9832995" lon="8.3550539"><ele>196.0</ele><time>2026-04-11T10:45:32.953Z</time></trkpt><trkpt lat="44.9837241" lon="8.3547718"><ele>207.0</ele><time>2026-04-11T10:46:24.589Z</time></trkpt><trkpt lat="44.9821137" lon="8.3568282"><ele>209.0</ele><time>2026-04-11T10:46:34.401Z</time></trkpt><trkpt lat="44.9819533" lon="8.3576199"><ele>214.5</ele><time>2026-04-11T10:46:46.952Z</time></trkpt><trkpt lat="44.9816635" lon="8.3574438"><ele>220.0</ele><time>2026-04-11T10:47:12.662Z</time></trkpt><trkpt lat="44.9814516" lon="8.3578942"><ele>231.0</ele><time>2026-04-11T10:47:36.981Z</time></trkpt><trkpt lat="44.9808037" lon="8.3589064"><ele>231.0</ele><time>2026-04-11T10:48:20.356Z</time></trkpt><trkpt lat="44.9804723" lon="8.3594595"><ele>238.0</ele><time>2026-04-11T10:48:46.14Z</time></trkpt><trkpt lat="44.980125" lon="8.3600142"><ele>237.0</ele><time>2026-04-11T10:49:29.762Z</time></trkpt><trkpt lat="44.9797781" lon="8.3608822"><ele>237.0</ele><time>2026-04-11T10:50:02.389Z</time></trkpt><trkpt lat="44.9795767" lon="8.3610171"><ele>237.0</ele><time>2026-04-11T10:50:08.124Z</time></trkpt><trkpt lat="44.9637691" lon="8.3814577"><ele>147.0</ele><time>2026-04-11T10:51:46.259Z</time></trkpt><trkpt lat="44.9525433" lon="8.3703514"><ele>149.0</ele><time>2026-04-11T11:04:05.039Z</time></trkpt><trkpt lat="44.9521083" lon="8.3710012"><ele>191.0</ele><time>2026-04-11T11:04:14.135Z</time></trkpt><trkpt lat="44.9542986" lon="8.3744793"><ele>210.0</ele><time>2026-04-11T11:05:49.215Z</time></trkpt><trkpt lat="44.9635067" lon="8.3814662"><ele>219.0</ele><time>2026-04-11T11:13:34.476Z</time></trkpt><trkpt lat="44.9686504" lon="8.4035998"><ele>156.0</ele><time>2026-04-11T11:24:28.668Z</time></trkpt><trkpt lat="44.9431091" lon="8.4133269"><ele>158.0</ele><time>2026-04-11T11:35:48.059Z</time></trkpt><trkpt lat="44.9421997" lon="8.4114713"><ele>155.0</ele><time>2026-04-11T11:36:28.088Z</time></trkpt><trkpt lat="44.9415846" lon="8.4108464"><ele>155.0</ele><time>2026-04-11T11:36:42.586Z</time></trkpt><trkpt lat="44.9409959" lon="8.4107104"><ele>155.0</ele><time>2026-04-11T11:36:51.665Z</time></trkpt><trkpt lat="44.9409274" lon="8.4106238"><ele>155.0</ele><time>2026-04-11T11:36:59.341Z</time></trkpt><trkpt lat="44.9401731" lon="8.4104194"><ele>129.0</ele><time>2026-04-11T11:37:08.252Z</time></trkpt><trkpt lat="44.9248883" lon="8.38273"><ele>129.0</ele><time>2026-04-11T11:54:22.559Z</time></trkpt><trkpt lat="44.9249218" lon="8.383546"><ele>129.0</ele><time>2026-04-11T11:54:36.405Z</time></trkpt><trkpt lat="44.9238269" lon="8.3843943"><ele>134.0</ele><time>2026-04-11T11:55:10.416Z</time></trkpt><trkpt lat="44.9233973" lon="8.3855662"><ele>129.0</ele><time>2026-04-11T11:55:30.95Z</time></trkpt><trkpt lat="44.9237743" lon="8.3843819"><ele>134.0</ele><time>2026-04-11T11:55:57.72Z</time></trkpt><trkpt lat="44.9254833" lon="8.3843434"><ele>129.0</ele><time>2026-04-11T11:56:17.773Z</time></trkpt><trkpt lat="44.9249182" lon="8.3827292"><ele>210.0</ele><time>2026-04-11T11:56:40.094Z</time></trkpt><trkpt lat="44.9637691" lon="8.3814577"><ele>151.0</ele><time>2026-04-11T12:01:41.003Z</time></trkpt><trkpt lat="44.9206179" lon="8.3728873"><ele>155.0</ele><time>2026-04-11T12:01:56.868Z</time></trkpt><trkpt lat="44.9212961" lon="8.3729495"><ele>145.0</ele><time>2026-04-11T12:03:37.333Z</time></trkpt><trkpt lat="44.9137625" lon="8.3643941"><ele>124.0</ele><time>2026-04-11T12:10:27.148Z</time></trkpt><trkpt lat="44.9040952" lon="8.3644972"><ele>126.0</ele><time>2026-04-11T12:15:30.804Z</time></trkpt><trkpt lat="44.9034203" lon="8.3610837"><ele>131.0</ele><time>2026-04-11T12:16:32.413Z</time></trkpt><trkpt lat="44.9027593" lon="8.3571621"><ele>132.0</ele><time>2026-04-11T12:17:46.05Z</time></trkpt><trkpt lat="44.9019466" lon="8.3569177"><ele>132.0</ele><time>2026-04-11T12:18:53.49Z</time></trkpt><trkpt lat="44.9017765" lon="8.3568215"><ele>132.0</ele><time>2026-04-11T12:19:00.964Z</time></trkpt><trkpt lat="44.8975749" lon="8.3555555"><ele>167.0</ele><time>2026-04-11T12:23:15.359Z</time></trkpt><trkpt lat="44.8973069" lon="8.3548091"><ele>170.0</ele><time>2026-04-11T12:23:59.249Z</time></trkpt><trkpt lat="44.8936526" lon="8.3476363"><ele>174.0</ele><time>2026-04-11T12:25:44.526Z</time></trkpt><trkpt lat="44.8931188" lon="8.3468581"><ele>176.0</ele><time>2026-04-11T12:26:28.161Z</time></trkpt><trkpt lat="44.8932482" lon="8.3454058"><ele>175.0</ele><time>2026-04-11T12:27:01.812Z</time></trkpt><trkpt lat="44.89266" lon="8.3440774"><ele>129.0</ele><time>2026-04-11T12:27:44.655Z</time></trkpt><trkpt lat="44.8799402" lon="8.3230666"><ele>129.5</ele><time>2026-04-11T12:33:37.666Z</time></trkpt><trkpt lat="44.8798799" lon="8.322912"><ele>130.0</ele><time>2026-04-11T12:33:45.474Z</time></trkpt><trkpt lat="44.8775637" lon="8.3202117"><ele>113.0</ele><time>2026-04-11T12:34:37.544Z</time></trkpt><trkpt lat="44.8774923" lon="8.3181901"><ele>117.0</ele><time>2026-04-11T12:35:42.181Z</time></trkpt><trkpt lat="44.8779769" lon="8.3173103"><ele>109.0</ele><time>2026-04-11T12:35:58.057Z</time></trkpt><trkpt lat="44.8793115" lon="8.3139631"><ele>109.0</ele><time>2026-04-11T12:36:49.205Z</time></trkpt><trkpt lat="44.8792281" lon="8.3135403"><ele>109.0</ele><time>2026-04-11T12:37:00.181Z</time></trkpt><trkpt lat="44.8789067" lon="8.3141417"><ele>109.0</ele><time>2026-04-11T12:43:35.627Z</time></trkpt><trkpt lat="44.8789933" lon="8.3138933"><ele>110.0</ele><time>2026-04-11T12:43:36.628Z</time></trkpt><trkpt lat="44.8790683" lon="8.3137433"><ele>110.0</ele><time>2026-04-11T12:43:39.626Z</time></trkpt></trkseg><trkseg><trkpt lat="44.8791639" lon="8.3135736"><ele>110.0</ele><time>2026-04-11T13:17:07.402Z</time></trkpt><trkpt lat="44.8791043" lon="8.3137458"><ele>110.0</ele><time>2026-04-11T13:17:13.077Z</time></trkpt><trkpt lat="44.8793877" lon="8.3140082"><ele>111.0</ele><time>2026-04-11T13:17:19.001Z</time></trkpt><trkpt lat="44.8793139" lon="8.313606"><ele>112.0</ele><time>2026-04-11T13:17:39.394Z</time></trkpt><trkpt lat="44.8793871" lon="8.3132694"><ele>112.0</ele><time>2026-04-11T13:17:45.847Z</time></trkpt><trkpt lat="44.879451" lon="8.313063"><ele>112.0</ele><time>2026-04-11T13:17:52.082Z</time></trkpt><trkpt lat="44.879637" lon="8.3129201"><ele>112.0</ele><time>2026-04-11T13:17:58.921Z</time></trkpt><trkpt lat="44.8795253" lon="8.312388"><ele>112.33333333333334</ele><time>2026-04-11T13:18:05.803Z</time></trkpt><trkpt lat="44.8795363" lon="8.3122383"><ele>112.66666666666666</ele><time>2026-04-11T13:18:12.182Z</time></trkpt><trkpt lat="44.8796612" lon="8.3117902"><ele>113.0</ele><time>2026-04-11T13:18:18.531Z</time></trkpt><trkpt lat="44.8796886" lon="8.311299"><ele>110.0</ele><time>2026-04-11T13:18:30.445Z</time></trkpt><trkpt lat="44.8806249" lon="8.3101077"><ele>110.0</ele><time>2026-04-11T13:19:21.16Z</time></trkpt><trkpt lat="44.8806395" lon="8.3102806"><ele>110.0</ele><time>2026-04-11T13:19:41.177Z</time></trkpt><trkpt lat="44.8733487" lon="8.2968504"><ele>108.5</ele><time>2026-04-11T13:23:15.714Z</time></trkpt><trkpt lat="44.8734937" lon="8.2967073"><ele>107.0</ele><time>2026-04-11T13:23:53.278Z</time></trkpt><trkpt lat="44.8763408" lon="8.2957572"><ele>119.0</ele><time>2026-04-11T13:25:21.384Z</time></trkpt><trkpt lat="44.9084161" lon="8.2509194"><ele>119.0</ele><time>2026-04-11T13:27:42.225Z</time></trkpt></trkseg><trkseg><trkpt lat="44.8286744" lon="8.1776411"><ele>140.5</ele><time>2026-04-11T14:26:37.415Z</time></trkpt><trkpt lat="44.8284687" lon="8.1772631"><ele>139.0</ele><time>2026-04-11T14:26:55.799Z</time></trkpt><trkpt lat="44.8282292" lon="8.1762085"><ele>137.33333333333334</ele><time>2026-04-11T14:27:02.997Z</time></trkpt><trkpt lat="44.8281895" lon="8.1761322"><ele>135.66666666666666</ele><time>2026-04-11T14:27:09.134Z</time></trkpt><trkpt lat="44.8280262" lon="8.176067"><ele>134.0</ele><time>2026-04-11T14:27:15.686Z</time></trkpt><trkpt lat="44.8274575" lon="8.1747251"><ele>128.0</ele><time>2026-04-11T14:27:24.083Z</time></trkpt><trkpt lat="44.8310498" lon="8.1729597"><ele>128.0</ele><time>2026-04-11T14:28:06.871Z</time></trkpt><trkpt lat="44.8274432" lon="8.174683"><ele>126.0</ele><time>2026-04-11T14:28:27.76Z</time></trkpt><trkpt lat="44.8314432" lon="8.1721258"><ele>129.0</ele><time>2026-04-11T14:28:42.216Z</time></trkpt><trkpt lat="44.8293658" lon="8.1656135"><ele>125.0</ele><time>2026-04-11T14:29:19.138Z</time></trkpt><trkpt lat="44.8288072" lon="8.1647026"><ele>147.0</ele><time>2026-04-11T14:29:32.041Z</time></trkpt><trkpt lat="44.8280857" lon="8.1779684"><ele>128.0</ele><time>2026-04-11T14:31:38.022Z</time></trkpt><trkpt lat="44.8225968" lon="8.1512778"><ele>124.0</ele><time>2026-04-11T14:36:22.266Z</time></trkpt><trkpt lat="44.8196251" lon="8.1451379"><ele>130.0</ele><time>2026-04-11T14:36:54.301Z</time></trkpt><trkpt lat="44.8141211" lon="8.1433808"><ele>129.0</ele><time>2026-04-11T14:37:06.836Z</time></trkpt><trkpt lat="44.8154066" lon="8.1406733"><ele>130.0</ele><time>2026-04-11T14:37:13.184Z</time></trkpt><trkpt lat="44.8158558" lon="8.139353"><ele>132.0</ele><time>2026-04-11T14:39:31.406Z</time></trkpt><trkpt lat="44.7991329" lon="8.1286204"><ele>132.0</ele><time>2026-04-11T14:46:28.179Z</time></trkpt><trkpt lat="44.7988068" lon="8.1282205"><ele>132.0</ele><time>2026-04-11T14:47:28.413Z</time></trkpt><trkpt lat="44.7992326" lon="8.1288368"><ele>132.0</ele><time>2026-04-11T14:48:18.795Z</time></trkpt><trkpt lat="44.7988713" lon="8.1282393"><ele>141.0</ele><time>2026-04-11T14:48:31.389Z</time></trkpt><trkpt lat="44.7840036" lon="8.141263"><ele>137.0</ele><time>2026-04-11T14:50:43.443Z</time></trkpt><trkpt lat="44.7894699" lon="8.1386185"><ele>141.0</ele><time>2026-04-11T14:51:34.916Z</time></trkpt><trkpt lat="44.7840105" lon="8.1412761"><ele>142.0</ele><time>2026-04-11T14:54:31.002Z</time></trkpt><trkpt lat="44.7821722" lon="8.1401531"><ele>142.0</ele><time>2026-04-11T14:56:50.98Z</time></trkpt><trkpt lat="44.7840005" lon="8.1422271"><ele>141.0</ele><time>2026-04-11T14:59:02.531Z</time></trkpt><trkpt lat="44.7835001" lon="8.1405416"><ele>139.0</ele><time>2026-04-11T14:59:15.209Z</time></trkpt><trkpt lat="44.7782128" lon="8.1277152"><ele>149.0</ele><time>2026-04-11T14:59:55.905Z</time></trkpt><trkpt lat="44.7461579" lon="8.0962492"><ele>149.0</ele><time>2026-04-11T15:14:06.504Z</time></trkpt><trkpt lat="44.745615" lon="8.0958755"><ele>151.0</ele><time>2026-04-11T15:14:17.563Z</time></trkpt><trkpt lat="44.7454398" lon="8.0956716"><ele>153.0</ele><time>2026-04-11T15:14:26.005Z</time></trkpt><trkpt lat="44.7413038" lon="8.0920309"><ele>154.0</ele><time>2026-04-11T15:15:47.993Z</time></trkpt><trkpt lat="44.7406572" lon="8.0918468"><ele>169.0</ele><time>2026-04-11T15:18:25.066Z</time></trkpt><trkpt lat="44.7348459" lon="8.0949239"><ele>200.0</ele><time>2026-04-11T15:20:50.948Z</time></trkpt><trkpt lat="44.73406" lon="8.0915468"><ele>166.0</ele><time>2026-04-11T15:22:02.308Z</time></trkpt><trkpt lat="44.7321856" lon="8.094404"><ele>183.0</ele><time>2026-04-11T15:24:06.057Z</time></trkpt><trkpt lat="44.7321281" lon="8.0959289"><ele>211.0</ele><time>2026-04-11T15:24:24.787Z</time></trkpt><trkpt lat="44.7416065" lon="8.1011036"><ele>164.0</ele><time>2026-04-11T15:25:56.252Z</time></trkpt><trkpt lat="44.7330906" lon="8.0944761"><ele>200.0</ele><time>2026-04-11T15:26:21.75Z</time></trkpt><trkpt lat="44.7340655" lon="8.0915473"><ele>200.0</ele><time>2026-04-11T15:26:50.058Z</time></trkpt><trkpt lat="44.7341342" lon="8.0914288"><ele>200.0</ele><time>2026-04-11T15:27:07.114Z</time></trkpt><trkpt lat="44.746159" lon="8.0962459"><ele>231.0</ele><time>2026-04-11T15:27:53.75Z</time></trkpt><trkpt lat="44.735225" lon="8.0883091"><ele>149.0</ele><time>2026-04-11T15:29:05.841Z</time></trkpt><trkpt lat="44.7461572" lon="8.0962415"><ele>245.0</ele><time>2026-04-11T15:29:31.133Z</time></trkpt><trkpt lat="44.7348058" lon="8.0876078"><ele>160.0</ele><time>2026-04-11T15:30:57.7Z</time></trkpt><trkpt lat="44.7473324" lon="8.0560266"><ele>267.0</ele><time>2026-04-11T15:33:35.361Z</time></trkpt><trkpt lat="44.730922" lon="8.0863526"><ele>267.0</ele><time>2026-04-11T15:35:52.49Z</time></trkpt><trkpt lat="44.7306601" lon="8.0865719"><ele>267.0</ele><time>2026-04-11T15:36:10.594Z</time></trkpt><trkpt lat="44.7297787" lon="8.0864438"><ele>248.0</ele><time>2026-04-11T15:36:26.866Z</time></trkpt><trkpt lat="44.7279081" lon="8.0857015"><ele>262.0</ele><time>2026-04-11T15:36:52.595Z</time></trkpt><trkpt lat="44.7263571" lon="8.0850343"><ele>262.0</ele><time>2026-04-11T15:37:23.902Z</time></trkpt><trkpt lat="44.7260787" lon="8.0809968"><ele>244.0</ele><time>2026-04-11T15:37:31.815Z</time></trkpt><trkpt lat="44.7265275" lon="8.0819432"><ele>249.0</ele><time>2026-04-11T15:38:20.379Z</time></trkpt><trkpt lat="44.7248413" lon="8.0804719"><ele>249.0</ele><time>2026-04-11T15:39:03.133Z</time></trkpt><trkpt lat="44.7246759" lon="8.0801684"><ele>249.0</ele><time>2026-04-11T15:39:13.998Z</time></trkpt><trkpt lat="44.7242095" lon="8.0798974"><ele>251.0</ele><time>2026-04-11T15:40:42.851Z</time></trkpt><trkpt lat="44.7236447" lon="8.0807107"><ele>250.0</ele><time>2026-04-11T15:40:54.636Z</time></trkpt><trkpt lat="44.7232242" lon="8.0817233"><ele>238.0</ele><time>2026-04-11T15:41:05.841Z</time></trkpt><trkpt lat="44.7215481" lon="8.0829241"><ele>216.0</ele><time>2026-04-11T15:41:16.494Z</time></trkpt><trkpt lat="44.721096" lon="8.0814145"><ele>224.5</ele><time>2026-04-11T15:41:53.374Z</time></trkpt><trkpt lat="44.7209184" lon="8.0813207"><ele>233.0</ele><time>2026-04-11T15:42:00.795Z</time></trkpt><trkpt lat="44.7222748" lon="8.0835152"><ele>260.0</ele><time>2026-04-11T15:42:34.947Z</time></trkpt><trkpt lat="44.7217231" lon="8.0839665"><ele>260.0</ele><time>2026-04-11T15:42:52.847Z</time></trkpt><trkpt lat="44.721492" lon="8.0838182"><ele>260.0</ele><time>2026-04-11T15:43:05.863Z</time></trkpt><trkpt lat="44.7214174" lon="8.083752"><ele>260.0</ele><time>2026-04-11T15:43:12.892Z</time></trkpt><trkpt lat="44.72134" lon="8.083657"><ele>260.0</ele><time>2026-04-11T15:43:24.582Z</time></trkpt><trkpt lat="44.7210755" lon="8.0831576"><ele>248.0</ele><time>2026-04-11T15:43:33.431Z</time></trkpt><trkpt lat="44.7206002" lon="8.0825686"><ele>272.0</ele><time>2026-04-11T15:44:07.905Z</time></trkpt><trkpt lat="44.7187721" lon="8.0845777"><ele>279.0</ele><time>2026-04-11T15:45:11.261Z</time></trkpt><trkpt lat="44.7181506" lon="8.0843167"><ele>300.0</ele><time>2026-04-11T15:45:22.565Z</time></trkpt><trkpt lat="44.7132483" lon="8.0926732"><ele>281.0</ele><time>2026-04-11T15:47:09.662Z</time></trkpt><trkpt lat="44.7132073" lon="8.0870482"><ele>302.0</ele><time>2026-04-11T15:48:07.147Z</time></trkpt><trkpt lat="44.7077773" lon="8.0867605"><ele>302.0</ele><time>2026-04-11T15:48:16.946Z</time></trkpt><trkpt lat="44.7063079" lon="8.0848995"><ele>290.0</ele><time>2026-04-11T15:49:42.222Z</time></trkpt><trkpt lat="44.7097233" lon="8.0882462"><ele>317.0</ele><time>2026-04-11T15:50:44.807Z</time></trkpt><trkpt lat="44.7072876" lon="8.0866657"><ele>317.5</ele><time>2026-04-11T15:52:30.734Z</time></trkpt><trkpt lat="44.7071046" lon="8.0864606"><ele>318.0</ele><time>2026-04-11T15:52:43.836Z</time></trkpt><trkpt lat="44.7068809" lon="8.0861034"><ele>309.0</ele><time>2026-04-11T15:52:56.566Z</time></trkpt><trkpt lat="44.7064113" lon="8.0849908"><ele>317.0</ele><time>2026-04-11T15:53:14.748Z</time></trkpt><trkpt lat="44.7058812" lon="8.0840037"><ele>309.0</ele><time>2026-04-11T15:53:28.94Z</time></trkpt><trkpt lat="44.7059858" lon="8.0831741"><ele>308.0</ele><time>2026-04-11T15:53:38.026Z</time></trkpt><trkpt lat="44.7049111" lon="8.0822215"><ele>305.0</ele><time>2026-04-11T15:53:52.774Z</time></trkpt><trkpt lat="44.704453" lon="8.0786485"><ele>286.0</ele><time>2026-04-11T15:54:08.217Z</time></trkpt><trkpt lat="44.7055286" lon="8.0759769"><ele>285.0</ele><time>2026-04-11T15:55:01.923Z</time></trkpt><trkpt lat="44.7055838" lon="8.0749025"><ele>281.0</ele><time>2026-04-11T15:55:11.507Z</time></trkpt><trkpt lat="44.7057908" lon="8.0728351"><ele>278.0</ele><time>2026-04-11T15:55:25.852Z</time></trkpt><trkpt lat="44.7059935" lon="8.0720604"><ele>272.0</ele><time>2026-04-11T15:55:32.691Z</time></trkpt><trkpt lat="44.70722" lon="8.0696445"><ele>220.0</ele><time>2026-04-11T15:55:45.142Z</time></trkpt><trkpt lat="44.6960085" lon="8.0645177"><ele>253.0</ele><time>2026-04-11T15:57:07.891Z</time></trkpt><trkpt lat="44.7001121" lon="8.0550834"><ele>180.0</ele><time>2026-04-11T15:57:23.561Z</time></trkpt><trkpt lat="44.7007686" lon="8.0612082"><ele>160.0</ele><time>2026-04-11T15:57:36.442Z</time></trkpt><trkpt lat="44.7177091" lon="8.0399261"><ele>189.0</ele><time>2026-04-11T15:57:55.223Z</time></trkpt><trkpt lat="44.7054216" lon="8.0654207"><ele>204.0</ele><time>2026-04-11T15:58:09.778Z</time></trkpt><trkpt lat="44.7008857" lon="8.0658597"><ele>169.0</ele><time>2026-04-11T15:58:22.313Z</time></trkpt><trkpt lat="44.7009418" lon="8.0629501"><ele>180.0</ele><time>2026-04-11T15:59:01.991Z</time></trkpt><trkpt lat="44.700915" lon="8.0613423"><ele>214.0</ele><time>2026-04-11T15:59:15.663Z</time></trkpt><trkpt lat="44.6971607" lon="8.0533427"><ele>266.0</ele><time>2026-04-11T16:02:40.83Z</time></trkpt><trkpt lat="44.6987739" lon="8.052129"><ele>234.0</ele><time>2026-04-11T16:04:09.895Z</time></trkpt><trkpt lat="44.6921305" lon="8.0523897"><ele>230.0</ele><time>2026-04-11T16:05:26.781Z</time></trkpt><trkpt lat="44.6921607" lon="8.0526502"><ele>226.0</ele><time>2026-04-11T16:05:39.847Z</time></trkpt><trkpt lat="44.6923896" lon="8.0529341"><ele>197.0</ele><time>2026-04-11T16:05:49.941Z</time></trkpt><trkpt lat="44.6998411" lon="8.046012"><ele>184.0</ele><time>2026-04-11T16:08:56.717Z</time></trkpt><trkpt lat="44.6986223" lon="8.0453107"><ele>179.0</ele><time>2026-04-11T16:09:12.243Z</time></trkpt><trkpt lat="44.6979005" lon="8.0444822"><ele>174.0</ele><time>2026-04-11T16:09:22.79Z</time></trkpt><trkpt lat="44.6982708" lon="8.0439679"><ele>171.0</ele><time>2026-04-11T16:09:56.068Z</time></trkpt><trkpt lat="44.699849" lon="8.0433946"><ele>164.0</ele><time>2026-04-11T16:10:16.638Z</time></trkpt><trkpt lat="44.7000832" lon="8.0420598"><ele>174.0</ele><time>2026-04-11T16:10:27.837Z</time></trkpt><trkpt lat="44.7009767" lon="8.0390667"><ele>177.0</ele><time>2026-04-11T16:11:15.602Z</time></trkpt><trkpt lat="44.700377" lon="8.0374"><ele>178.0</ele><time>2026-04-11T16:12:18.251Z</time></trkpt><trkpt lat="44.699596" lon="8.0374248"><ele>180.0</ele><time>2026-04-11T16:12:38.564Z</time></trkpt><trkpt lat="44.6997142" lon="8.036539"><ele>173.0</ele><time>2026-04-11T16:13:01.157Z</time></trkpt><trkpt lat="44.6983105" lon="8.0363137"><ele>173.0</ele><time>2026-04-11T16:14:48.228Z</time></trkpt><trkpt lat="44.6980187" lon="8.0363844"><ele>173.0</ele><time>2026-04-11T16:14:59.153Z</time></trkpt><trkpt lat="44.6974051" lon="8.0343674"><ele>174.5</ele><time>2026-04-11T16:16:05.962Z</time></trkpt><trkpt lat="44.6971947" lon="8.0340322"><ele>176.0</ele><time>2026-04-11T16:16:39.274Z</time></trkpt><trkpt lat="44.6966298" lon="8.0337839"><ele>176.0</ele><time>2026-04-11T16:17:21.478Z</time></trkpt><trkpt lat="44.69673" lon="8.03374"><ele>176.0</ele><time>2026-04-11T16:17:25.647Z</time></trkpt><trkpt lat="44.6967017" lon="8.033825"><ele>176.0</ele><time>2026-04-11T16:17:37.04Z</time></trkpt><trkpt lat="44.696645" lon="8.033865"><ele>176.0</ele><time>2026-04-11T16:17:55.043Z</time></trkpt><trkpt lat="44.696545" lon="8.0338833"><ele>176.0</ele><time>2026-04-11T16:18:18.042Z</time></trkpt><trkpt lat="44.6966283" lon="8.0338783"><ele>176.0</ele><time>2026-04-11T16:22:54.041Z</time></trkpt><trkpt lat="44.696605" lon="8.0337817"><ele>176.0</ele><time>2026-04-11T16:22:55.041Z</time></trkpt><trkpt lat="44.69657" lon="8.033705"><ele>176.0</ele><time>2026-04-11T16:22:59.042Z</time></trkpt><trkpt lat="44.69654" lon="8.0335917"><ele>176.0</ele><time>2026-04-11T16:23:02.043Z</time></trkpt><trkpt lat="44.696535" lon="8.0334733"><ele>176.0</ele><time>2026-04-11T16:23:05.041Z</time></trkpt><trkpt lat="44.6965083" lon="8.0333483"><ele>176.0</ele><time>2026-04-11T16:23:08.042Z</time></trkpt><trkpt lat="44.69648" lon="8.0332617"><ele>176.0</ele><time>2026-04-11T16:23:10.042Z</time></trkpt><trkpt lat="44.69643" lon="8.033175"><ele>175.16666666666666</ele><time>2026-04-11T16:23:13.043Z</time></trkpt><trkpt lat="44.6964" lon="8.0330633"><ele>174.33333333333331</ele><time>2026-04-11T16:23:16.044Z</time></trkpt><trkpt lat="44.696365" lon="8.032975"><ele>173.5</ele><time>2026-04-11T16:23:18.041Z</time></trkpt><trkpt lat="44.6963133" lon="8.032875"><ele>172.66666666666666</ele><time>2026-04-11T16:23:20.042Z</time></trkpt><trkpt lat="44.6962617" lon="8.032785"><ele>171.83333333333334</ele><time>2026-04-11T16:23:22.041Z</time></trkpt><trkpt lat="44.6962367" lon="8.0326783"><ele>171.0</ele><time>2026-04-11T16:23:24.042Z</time></trkpt><trkpt lat="44.696205" lon="8.0325833"><ele>171.0</ele><time>2026-04-11T16:23:26.042Z</time></trkpt><trkpt lat="44.69616" lon="8.0324867"><ele>171.0</ele><time>2026-04-11T16:23:28.042Z</time></trkpt><trkpt lat="44.696125" lon="8.0323917"><ele>171.0</ele><time>2026-04-11T16:23:30.042Z</time></trkpt><trkpt lat="44.6960883" lon="8.0323133"><ele>171.0</ele><time>2026-04-11T16:23:32.043Z</time></trkpt><trkpt lat="44.6960433" lon="8.0322367"><ele>171.0</ele><time>2026-04-11T16:23:34.042Z</time></trkpt><trkpt lat="44.6959883" lon="8.032165"><ele>171.0</ele><time>2026-04-11T16:23:36.042Z</time></trkpt><trkpt lat="44.695925" lon="8.032085"><ele>170.99999999999997</ele><time>2026-04-11T16:23:38.042Z</time></trkpt><trkpt lat="44.6958617" lon="8.0320317"><ele>171.0</ele><time>2026-04-11T16:23:40.041Z</time></trkpt><trkpt lat="44.695795" lon="8.03197"><ele>171.0</ele><time>2026-04-11T16:23:42.043Z</time></trkpt><trkpt lat="44.6957383" lon="8.031925"><ele>171.0</ele><time>2026-04-11T16:23:46.042Z</time></trkpt><trkpt lat="44.6957183" lon="8.0318217"><ele>171.0</ele><time>2026-04-11T16:23:51.042Z</time></trkpt><trkpt lat="44.6957133" lon="8.03171"><ele>170.99999999999997</ele><time>2026-04-11T16:23:53.042Z</time></trkpt><trkpt lat="44.6956617" lon="8.0316333"><ele>171.0</ele><time>2026-04-11T16:23:55.041Z</time></trkpt><trkpt lat="44.6956083" lon="8.03156"><ele>171.0</ele><time>2026-04-11T16:23:57.042Z</time></trkpt><trkpt lat="44.695555" lon="8.031465"><ele>171.0</ele><time>2026-04-11T16:23:59.042Z</time></trkpt><trkpt lat="44.6955017" lon="8.0313583"><ele>171.0</ele><time>2026-04-11T16:24:01.042Z</time></trkpt><trkpt lat="44.6954383" lon="8.0312567"><ele>171.0</ele><time>2026-04-11T16:24:03.042Z</time></trkpt><trkpt lat="44.6953783" lon="8.0311683"><ele>171.0</ele><time>2026-04-11T16:24:05.041Z</time></trkpt><trkpt lat="44.69532" lon="8.031085"><ele>171.0</ele><time>2026-04-11T16:24:07.043Z</time></trkpt><trkpt lat="44.69529" lon="8.0309817"><ele>171.20000000000002</ele><time>2026-04-11T16:24:09.042Z</time></trkpt><trkpt lat="44.6952383" lon="8.0308683"><ele>171.4</ele><time>2026-04-11T16:24:11.044Z</time></trkpt><trkpt lat="44.69518" lon="8.0307433"><ele>171.6</ele><time>2026-04-11T16:24:13.044Z</time></trkpt><trkpt lat="44.6951217" lon="8.0306083"><ele>171.8</ele><time>2026-04-11T16:24:15.043Z</time></trkpt><trkpt lat="44.6950683" lon="8.0304483"><ele>172.0</ele><time>2026-04-11T16:24:17.042Z</time></trkpt><trkpt lat="44.6950133" lon="8.0303633"><ele>172.16666666666669</ele><time>2026-04-11T16:24:19.041Z</time></trkpt><trkpt lat="44.6949583" lon="8.0302783"><ele>172.33333333333334</ele><time>2026-04-11T16:24:21.043Z</time></trkpt><trkpt lat="44.694915" lon="8.0301733"><ele>172.5</ele><time>2026-04-11T16:24:23.041Z</time></trkpt><trkpt lat="44.6948867" lon="8.0300717"><ele>172.66666666666666</ele><time>2026-04-11T16:24:25.042Z</time></trkpt><trkpt lat="44.69484" lon="8.0299633"><ele>172.83333333333331</ele><time>2026-04-11T16:24:27.043Z</time></trkpt><trkpt lat="44.69481" lon="8.0298683"><ele>173.0</ele><time>2026-04-11T16:24:29.043Z</time></trkpt><trkpt lat="44.69477" lon="8.0297867"><ele>173.33333333333331</ele><time>2026-04-11T16:24:31.044Z</time></trkpt><trkpt lat="44.694715" lon="8.0296767"><ele>173.66666666666666</ele><time>2026-04-11T16:24:34.042Z</time></trkpt><trkpt lat="44.6946667" lon="8.02958"><ele>174.0</ele><time>2026-04-11T16:24:36.042Z</time></trkpt><trkpt lat="44.6942402" lon="8.0287523"><ele>174.0</ele><time>2026-04-11T16:24:46.805Z</time></trkpt><trkpt lat="44.6940855" lon="8.0285707"><ele>174.0</ele><time>2026-04-11T16:24:53.665Z</time></trkpt><trkpt lat="44.693986" lon="8.0281883"><ele>174.0</ele><time>2026-04-11T16:25:01.867Z</time></trkpt><trkpt lat="44.6939572" lon="8.028064"><ele>174.0</ele><time>2026-04-11T16:25:08.642Z</time></trkpt><trkpt lat="44.6937022" lon="8.0276421"><ele>174.0</ele><time>2026-04-11T16:25:16.843Z</time></trkpt><trkpt lat="44.6936628" lon="8.0272177"><ele>174.0</ele><time>2026-04-11T16:25:24.679Z</time></trkpt><trkpt lat="44.6934363" lon="8.0269406"><ele>174.5</ele><time>2026-04-11T16:25:32.665Z</time></trkpt><trkpt lat="44.6932768" lon="8.0267321"><ele>175.0</ele><time>2026-04-11T16:25:39.188Z</time></trkpt><trkpt lat="44.6932099" lon="8.0262989"><ele>172.0</ele><time>2026-04-11T16:25:46.247Z</time></trkpt><trkpt lat="44.6928036" lon="8.0257355"><ele>173.0</ele><time>2026-04-11T16:26:06.228Z</time></trkpt><trkpt lat="44.6926853" lon="8.0252086"><ele>174.0</ele><time>2026-04-11T16:26:24.77Z</time></trkpt><trkpt lat="44.6925342" lon="8.0247679"><ele>174.0</ele><time>2026-04-11T16:27:24.723Z</time></trkpt><trkpt lat="44.6923041" lon="8.0247683"><ele>174.0</ele><time>2026-04-11T16:27:39.858Z</time></trkpt><trkpt lat="44.6924916" lon="8.024718"><ele>174.0</ele><time>2026-04-11T16:29:48.999Z</time></trkpt><trkpt lat="44.6925294" lon="8.0245795"><ele>174.0</ele><time>2026-04-11T16:30:22.454Z</time></trkpt><trkpt lat="44.6923987" lon="8.024464"><ele>174.0</ele><time>2026-04-11T16:34:45.846Z</time></trkpt><trkpt lat="44.6926335" lon="8.025591"><ele>174.0</ele><time>2026-04-11T16:36:22.862Z</time></trkpt><trkpt lat="44.6925206" lon="8.0252549"><ele>174.0</ele><time>2026-04-11T16:36:24.864Z</time></trkpt><trkpt lat="44.692478" lon="8.0251408"><ele>174.0</ele><time>2026-04-11T16:36:26.865Z</time></trkpt><trkpt lat="44.692426" lon="8.0249637"><ele>174.0</ele><time>2026-04-11T16:36:28.865Z</time></trkpt><trkpt lat="44.6923744" lon="8.0248146"><ele>174.0</ele><time>2026-04-11T16:36:30.865Z</time></trkpt><trkpt lat="44.692353" lon="8.0247073"><ele>174.0</ele><time>2026-04-11T16:36:32.865Z</time></trkpt><trkpt lat="44.6923849" lon="8.0246149"><ele>174.0</ele><time>2026-04-11T16:36:38.081Z</time></trkpt><trkpt lat="44.6924234" lon="8.0245422"><ele>174.0</ele><time>2026-04-11T16:36:41.097Z</time></trkpt><trkpt lat="44.6923808" lon="8.0246103"><ele>174.0</ele><time>2026-04-11T16:39:22.765Z</time></trkpt><trkpt lat="44.6922428" lon="8.0246164"><ele>174.0</ele><time>2026-04-11T16:39:49.25Z</time></trkpt><trkpt lat="44.6921536" lon="8.0246811"><ele>174.0</ele><time>2026-04-11T16:39:55.909Z</time></trkpt><trkpt lat="44.6922978" lon="8.024699"><ele>174.0</ele><time>2026-04-11T16:40:09.635Z</time></trkpt><trkpt lat="44.6921165" lon="8.0247278"><ele>174.0</ele><time>2026-04-11T16:40:30.166Z</time></trkpt><trkpt lat="44.6923289" lon="8.0246509"><ele>174.0</ele><time>2026-04-11T16:40:49.611Z</time></trkpt><trkpt lat="44.6924062" lon="8.0246133"><ele>174.0</ele><time>2026-04-11T16:40:51.674Z</time></trkpt><trkpt lat="44.6924565" lon="8.024756"><ele>174.0</ele><time>2026-04-11T16:40:58.394Z</time></trkpt><trkpt lat="44.692131" lon="8.024847"><ele>174.0</ele><time>2026-04-11T16:41:17.83Z</time></trkpt><trkpt lat="44.6923191" lon="8.0247167"><ele>174.0</ele><time>2026-04-11T16:42:02.332Z</time></trkpt><trkpt lat="44.6923591" lon="8.0244035"><ele>174.0</ele><time>2026-04-11T16:42:54.698Z</time></trkpt><trkpt lat="44.6923298" lon="8.0247281"><ele>174.0</ele><time>2026-04-11T16:43:59.42Z</time></trkpt><trkpt lat="44.6920997" lon="8.0245586"><ele>174.0</ele><time>2026-04-11T16:45:17.95Z</time></trkpt><trkpt lat="44.6919807" lon="8.0248823"><ele>174.0</ele><time>2026-04-11T16:45:39.682Z</time></trkpt><trkpt lat="44.6926781" lon="8.025298"><ele>174.0</ele><time>2026-04-11T16:46:10.468Z</time></trkpt><trkpt lat="44.6925529" lon="8.0251925"><ele>174.0</ele><time>2026-04-11T16:51:24.849Z</time></trkpt><trkpt lat="44.6927004" lon="8.0252523"><ele>174.0</ele><time>2026-04-11T16:57:19.247Z</time></trkpt><trkpt lat="44.6926362" lon="8.0254472"><ele>174.0</ele><time>2026-04-11T17:02:08.867Z</time></trkpt><trkpt lat="44.692489" lon="8.0254598"><ele>174.0</ele><time>2026-04-11T17:02:11.786Z</time></trkpt><trkpt lat="44.692542" lon="8.0253885"><ele>174.0</ele><time>2026-04-11T17:02:17.118Z</time></trkpt><trkpt lat="44.6926224" lon="8.0253878"><ele>174.0</ele><time>2026-04-11T17:02:32.114Z</time></trkpt><trkpt lat="44.6925534" lon="8.0253662"><ele>174.0</ele><time>2026-04-11T17:03:33.142Z</time></trkpt><trkpt lat="44.6924857" lon="8.0253331"><ele>174.0</ele><time>2026-04-11T17:03:44.114Z</time></trkpt><trkpt lat="44.6926359" lon="8.0253122"><ele>174.0</ele><time>2026-04-11T17:06:52.488Z</time></trkpt><trkpt lat="44.692382" lon="8.0256195"><ele>174.0</ele><time>2026-04-11T17:08:55.449Z</time></trkpt><trkpt lat="44.6926132" lon="8.025161"><ele>174.0</ele><time>2026-04-11T17:09:24.39Z</time></trkpt><trkpt lat="44.6925656" lon="8.0250676"><ele>174.0</ele><time>2026-04-11T17:09:46.405Z</time></trkpt><trkpt lat="44.6929683" lon="8.0216645"><ele>174.0</ele><time>2026-04-11T17:13:24.058Z</time></trkpt><trkpt lat="44.6922642" lon="8.0199902"><ele>172.0</ele><time>2026-04-11T17:13:59.549Z</time></trkpt><trkpt lat="44.6905913" lon="8.016218"><ele>173.0</ele><time>2026-04-11T17:15:02.447Z</time></trkpt><trkpt lat="44.6903596" lon="8.0157851"><ele>174.0</ele><time>2026-04-11T17:15:12.622Z</time></trkpt><trkpt lat="44.6904071" lon="8.0154935"><ele>174.0</ele><time>2026-04-11T17:15:23.294Z</time></trkpt><trkpt lat="44.6893153" lon="8.0131749"><ele>176.0</ele><time>2026-04-11T17:15:57.886Z</time></trkpt><trkpt lat="44.6878064" lon="8.0095205"><ele>176.0</ele><time>2026-04-11T17:16:49.42Z</time></trkpt><trkpt lat="44.6870573" lon="8.00861"><ele>173.0</ele><time>2026-04-11T17:17:55.594Z</time></trkpt><trkpt lat="44.6850964" lon="8.0007304"><ele>177.0</ele><time>2026-04-11T17:18:37.293Z</time></trkpt><trkpt lat="44.6816096" lon="8.0001588"><ele>172.0</ele><time>2026-04-11T17:19:48.27Z</time></trkpt><trkpt lat="44.6837026" lon="7.9997053"><ele>179.0</ele><time>2026-04-11T17:20:00.957Z</time></trkpt><trkpt lat="44.6805771" lon="7.9995214"><ele>181.0</ele><time>2026-04-11T17:20:12.789Z</time></trkpt><trkpt lat="44.6794687" lon="7.9996466"><ele>180.0</ele><time>2026-04-11T17:20:19.873Z</time></trkpt><trkpt lat="44.678273" lon="7.993771"><ele>176.0</ele><time>2026-04-11T17:21:23.615Z</time></trkpt><trkpt lat="44.6779842" lon="7.9922535"><ele>189.0</ele><time>2026-04-11T17:22:01.903Z</time></trkpt><trkpt lat="44.6679616" lon="7.9868252"><ele>189.0</ele><time>2026-04-11T17:25:14.293Z</time></trkpt><trkpt lat="44.6684632" lon="7.9868435"><ele>189.0</ele><time>2026-04-11T17:25:20.694Z</time></trkpt><trkpt lat="44.6665399" lon="7.9889875"><ele>255.0</ele><time>2026-04-11T17:26:32.213Z</time></trkpt><trkpt lat="44.6540567" lon="7.9962907"><ele>252.0</ele><time>2026-04-11T17:36:01.031Z</time></trkpt><trkpt lat="44.6538709" lon="7.9956999"><ele>242.0</ele><time>2026-04-11T17:36:41.387Z</time></trkpt><trkpt lat="44.6536246" lon="7.9936537"><ele>247.0</ele><time>2026-04-11T17:37:08.25Z</time></trkpt><trkpt lat="44.6536467" lon="7.994625"><ele>264.0</ele><time>2026-04-11T17:37:26.908Z</time></trkpt><trkpt lat="44.6534296" lon="7.9937747"><ele>259.0</ele><time>2026-04-11T17:40:05.736Z</time></trkpt><trkpt lat="44.6532834" lon="7.9930283"><ele>261.0</ele><time>2026-04-11T17:40:11.991Z</time></trkpt><trkpt lat="44.6535623" lon="7.9951085"><ele>261.0</ele><time>2026-04-11T17:40:18.279Z</time></trkpt><trkpt lat="44.6534425" lon="7.9952917"><ele>261.0</ele><time>2026-04-11T17:40:37.331Z</time></trkpt><trkpt lat="44.6534896" lon="7.9953891"><ele>261.0</ele><time>2026-04-11T17:40:49.513Z</time></trkpt><trkpt lat="44.6534637" lon="7.9956146"><ele>261.0</ele><time>2026-04-11T17:40:56.529Z</time></trkpt><trkpt lat="44.653209" lon="7.9950353"><ele>261.0</ele><time>2026-04-11T17:41:15.52Z</time></trkpt><trkpt lat="44.6530972" lon="7.994851"><ele>261.0</ele><time>2026-04-11T17:41:21.549Z</time></trkpt><trkpt lat="44.6533863" lon="7.9950534"><ele>260.0</ele><time>2026-04-11T17:41:29.293Z</time></trkpt><trkpt lat="44.653135" lon="7.994732"><ele>259.0</ele><time>2026-04-11T17:41:39.369Z</time></trkpt><trkpt lat="44.6533105" lon="7.9930782"><ele>264.0</ele><time>2026-04-11T17:42:10.92Z</time></trkpt><trkpt lat="44.6534738" lon="7.9937822"><ele>264.0</ele><time>2026-04-11T17:42:55.794Z</time></trkpt><trkpt lat="44.6531483" lon="7.993885"><ele>264.0</ele><time>2026-04-11T17:42:56.938Z</time></trkpt><trkpt lat="44.6530267" lon="7.9938833"><ele>264.0</ele><time>2026-04-11T17:43:05.04Z</time></trkpt><trkpt lat="44.653105" lon="7.99387"><ele>264.0</ele><time>2026-04-11T17:44:42.042Z</time></trkpt><trkpt lat="44.653105" lon="7.9939617"><ele>264.0</ele><time>2026-04-11T17:44:46.042Z</time></trkpt><trkpt lat="44.6530867" lon="7.99406"><ele>264.0</ele><time>2026-04-11T17:44:50.043Z</time></trkpt><trkpt lat="44.65307" lon="7.9941633"><ele>264.0</ele><time>2026-04-11T17:44:54.042Z</time></trkpt><trkpt lat="44.6530467" lon="7.9942533"><ele>264.0</ele><time>2026-04-11T17:44:58.042Z</time></trkpt><trkpt lat="44.6530217" lon="7.994355"><ele>264.0</ele><time>2026-04-11T17:45:03.042Z</time></trkpt><trkpt lat="44.6529867" lon="7.9944417"><ele>263.57142857142856</ele><time>2026-04-11T17:45:07.042Z</time></trkpt><trkpt lat="44.6529583" lon="7.9945317"><ele>263.14285714285717</ele><time>2026-04-11T17:45:11.043Z</time></trkpt><trkpt lat="44.65294" lon="7.99463"><ele>262.7142857142857</ele><time>2026-04-11T17:45:15.042Z</time></trkpt><trkpt lat="44.6529383" lon="7.9947217"><ele>262.2857142857143</ele><time>2026-04-11T17:45:19.042Z</time></trkpt><trkpt lat="44.6529333" lon="7.9948217"><ele>261.85714285714283</ele><time>2026-04-11T17:45:23.042Z</time></trkpt><trkpt lat="44.6529317" lon="7.99492"><ele>261.42857142857144</ele><time>2026-04-11T17:45:27.043Z</time></trkpt><trkpt lat="44.6529567" lon="7.9950317"><ele>261.0</ele><time>2026-04-11T17:45:31.042Z</time></trkpt><trkpt lat="44.653015" lon="7.995075"><ele>261.0</ele><time>2026-04-11T17:45:34.041Z</time></trkpt><trkpt lat="44.6530767" lon="7.99511"><ele>261.0</ele><time>2026-04-11T17:45:37.042Z</time></trkpt><trkpt lat="44.6531367" lon="7.99515"><ele>261.0</ele><time>2026-04-11T17:45:40.042Z</time></trkpt><trkpt lat="44.65313" lon="7.9952467"><ele>261.0</ele><time>2026-04-11T17:45:45.043Z</time></trkpt><trkpt lat="44.6530883" lon="7.9953167"><ele>261.0</ele><time>2026-04-11T17:45:48.043Z</time></trkpt><trkpt lat="44.6531433" lon="7.9954067"><ele>261.0</ele><time>2026-04-11T17:45:51.042Z</time></trkpt><trkpt lat="44.6532167" lon="7.9954367"><ele>261.0</ele><time>2026-04-11T17:45:53.041Z</time></trkpt><trkpt lat="44.653295" lon="7.9954433"><ele>261.0</ele><time>2026-04-11T17:45:56.041Z</time></trkpt><trkpt lat="44.6533583" lon="7.995445"><ele>261.0</ele><time>2026-04-11T17:46:00.042Z</time></trkpt><trkpt lat="44.6533517" lon="7.9955467"><ele>261.0</ele><time>2026-04-11T17:46:07.043Z</time></trkpt><trkpt lat="44.6532733" lon="7.995635"><ele>261.0</ele><time>2026-04-11T17:46:38.043Z</time></trkpt><trkpt lat="44.6531983" lon="7.995665"><ele>261.0</ele><time>2026-04-11T17:46:40.042Z</time></trkpt><trkpt lat="44.6531167" lon="7.9956833"><ele>261.0</ele><time>2026-04-11T17:46:42.042Z</time></trkpt><trkpt lat="44.6530333" lon="7.9956867"><ele>261.0</ele><time>2026-04-11T17:46:44.042Z</time></trkpt><trkpt lat="44.6529583" lon="7.99566"><ele>261.0</ele><time>2026-04-11T17:46:46.042Z</time></trkpt><trkpt lat="44.6528867" lon="7.9956333"><ele>261.0</ele><time>2026-04-11T17:46:48.041Z</time></trkpt><trkpt lat="44.65282" lon="7.995615"><ele>261.0</ele><time>2026-04-11T17:46:50.041Z</time></trkpt><trkpt lat="44.6527433" lon="7.995605"><ele>261.0</ele><time>2026-04-11T17:46:52.042Z</time></trkpt><trkpt lat="44.65265" lon="7.9956083"><ele>261.0</ele><time>2026-04-11T17:46:54.042Z</time></trkpt><trkpt lat="44.6525617" lon="7.9955883"><ele>259.3333333333333</ele><time>2026-04-11T17:46:56.041Z</time></trkpt><trkpt lat="44.6524833" lon="7.9955783"><ele>257.6666666666667</ele><time>2026-04-11T17:46:58.041Z</time></trkpt><trkpt lat="44.6524017" lon="7.99555"><ele>256.0</ele><time>2026-04-11T17:47:01.043Z</time></trkpt><trkpt lat="44.6523517" lon="7.9954417"><ele>254.33333333333334</ele><time>2026-04-11T17:47:04.041Z</time></trkpt><trkpt lat="44.652335" lon="7.9953217"><ele>252.66666666666669</ele><time>2026-04-11T17:47:07.042Z</time></trkpt><trkpt lat="44.6523133" lon="7.9952267"><ele>251.0</ele><time>2026-04-11T17:47:09.042Z</time></trkpt><trkpt lat="44.652295" lon="7.995125"><ele>250.99999999999997</ele><time>2026-04-11T17:47:11.041Z</time></trkpt><trkpt lat="44.6522883" lon="7.9950217"><ele>251.0</ele><time>2026-04-11T17:47:13.041Z</time></trkpt><trkpt lat="44.652285" lon="7.9949233"><ele>250.99999999999997</ele><time>2026-04-11T17:47:15.042Z</time></trkpt><trkpt lat="44.6522967" lon="7.99481"><ele>250.99999999999997</ele><time>2026-04-11T17:47:17.045Z</time></trkpt><trkpt lat="44.6523167" lon="7.9947017"><ele>251.0</ele><time>2026-04-11T17:47:19.042Z</time></trkpt><trkpt lat="44.6523383" lon="7.9946067"><ele>250.99999999999997</ele><time>2026-04-11T17:47:21.043Z</time></trkpt><trkpt lat="44.6523533" lon="7.99451"><ele>250.99999999999997</ele><time>2026-04-11T17:47:23.041Z</time></trkpt><trkpt lat="44.65237" lon="7.9944083"><ele>251.66666666666669</ele><time>2026-04-11T17:47:25.042Z</time></trkpt><trkpt lat="44.6523967" lon="7.9943067"><ele>252.33333333333334</ele><time>2026-04-11T17:47:27.042Z</time></trkpt><trkpt lat="44.6524367" lon="7.9942067"><ele>253.0</ele><time>2026-04-11T17:47:29.041Z</time></trkpt><trkpt lat="44.6524767" lon="7.994115"><ele>253.66666666666669</ele><time>2026-04-11T17:47:31.043Z</time></trkpt><trkpt lat="44.6525117" lon="7.99403"><ele>254.33333333333334</ele><time>2026-04-11T17:47:33.042Z</time></trkpt><trkpt lat="44.6525633" lon="7.9939133"><ele>255.0</ele><time>2026-04-11T17:47:36.041Z</time></trkpt><trkpt lat="44.6526083" lon="7.9938233"><ele>255.0</ele><time>2026-04-11T17:47:38.043Z</time></trkpt><trkpt lat="44.652655" lon="7.9937283"><ele>255.0</ele><time>2026-04-11T17:47:40.042Z</time></trkpt><trkpt lat="44.6526967" lon="7.9936283"><ele>255.0</ele><time>2026-04-11T17:47:42.042Z</time></trkpt><trkpt lat="44.652735" lon="7.99353"><ele>255.0</ele><time>2026-04-11T17:47:44.042Z</time></trkpt><trkpt lat="44.65277" lon="7.9934383"><ele>255.0</ele><time>2026-04-11T17:47:46.042Z</time></trkpt><trkpt lat="44.6528183" lon="7.9933367"><ele>255.0</ele><time>2026-04-11T17:47:49.042Z</time></trkpt><trkpt lat="44.652755" lon="7.99325"><ele>253.5</ele><time>2026-04-11T17:47:53.041Z</time></trkpt><trkpt lat="44.6526667" lon="7.99321"><ele>252.0</ele><time>2026-04-11T17:47:56.042Z</time></trkpt><trkpt lat="44.652605" lon="7.9931833"><ele>250.5</ele><time>2026-04-11T17:47:58.042Z</time></trkpt><trkpt lat="44.6525333" lon="7.9930967"><ele>249.0</ele><time>2026-04-11T17:48:01.043Z</time></trkpt><trkpt lat="44.6525033" lon="7.993005"><ele>247.5</ele><time>2026-04-11T17:48:03.043Z</time></trkpt><trkpt lat="44.652465" lon="7.9928967"><ele>246.0</ele><time>2026-04-11T17:48:05.041Z</time></trkpt><trkpt lat="44.652405" lon="7.992795"><ele>246.0</ele><time>2026-04-11T17:48:07.041Z</time></trkpt><trkpt lat="44.6523283" lon="7.9927267"><ele>246.00000000000003</ele><time>2026-04-11T17:48:09.042Z</time></trkpt><trkpt lat="44.6522367" lon="7.992665"><ele>246.00000000000003</ele><time>2026-04-11T17:48:11.041Z</time></trkpt><trkpt lat="44.6521217" lon="7.9925933"><ele>246.0</ele><time>2026-04-11T17:48:13.044Z</time></trkpt><trkpt lat="44.6520083" lon="7.99253"><ele>246.0</ele><time>2026-04-11T17:48:15.043Z</time></trkpt><trkpt lat="44.6519017" lon="7.9924617"><ele>241.16666666666666</ele><time>2026-04-11T17:48:17.041Z</time></trkpt><trkpt lat="44.6518" lon="7.9924083"><ele>236.33333333333331</ele><time>2026-04-11T17:48:19.042Z</time></trkpt><trkpt lat="44.651695" lon="7.99235"><ele>231.5</ele><time>2026-04-11T17:48:21.042Z</time></trkpt><trkpt lat="44.6516367" lon="7.992315"><ele>226.66666666666666</ele><time>2026-04-11T17:48:22.041Z</time></trkpt><trkpt lat="44.6515717" lon="7.99228"><ele>221.83333333333331</ele><time>2026-04-11T17:48:23.041Z</time></trkpt><trkpt lat="44.6514917" lon="7.99223"><ele>217.0</ele><time>2026-04-11T17:48:24.041Z</time></trkpt><trkpt lat="44.65143" lon="7.99219"><ele>216.99999999999997</ele><time>2026-04-11T17:48:25.042Z</time></trkpt><trkpt lat="44.6513683" lon="7.9921517"><ele>217.0</ele><time>2026-04-11T17:48:26.041Z</time></trkpt><trkpt lat="44.6512767" lon="7.9920833"><ele>217.0</ele><time>2026-04-11T17:48:28.04Z</time></trkpt><trkpt lat="44.6512" lon="7.9920367"><ele>217.0</ele><time>2026-04-11T17:48:32.04Z</time></trkpt><trkpt lat="44.6511183" lon="7.99197"><ele>216.99999999999997</ele><time>2026-04-11T17:48:35.039Z</time></trkpt><trkpt lat="44.6510517" lon="7.9918983"><ele>217.0</ele><time>2026-04-11T17:48:37.04Z</time></trkpt><trkpt lat="44.6509917" lon="7.9918133"><ele>214.99999999999997</ele><time>2026-04-11T17:48:39.04Z</time></trkpt><trkpt lat="44.6509333" lon="7.991725"><ele>213.0</ele><time>2026-04-11T17:48:41.04Z</time></trkpt><trkpt lat="44.65088" lon="7.9916667"><ele>211.0</ele><time>2026-04-11T17:48:43.042Z</time></trkpt><trkpt lat="44.65083" lon="7.991555"><ele>209.0</ele><time>2026-04-11T17:48:51.042Z</time></trkpt><trkpt lat="44.650755" lon="7.9916267"><ele>206.99999999999997</ele><time>2026-04-11T17:48:55.041Z</time></trkpt><trkpt lat="44.6507117" lon="7.991705"><ele>205.0</ele><time>2026-04-11T17:48:57.041Z</time></trkpt><trkpt lat="44.6506567" lon="7.9917883"><ele>204.99999999999997</ele><time>2026-04-11T17:48:59.041Z</time></trkpt><trkpt lat="44.6505983" lon="7.9918783"><ele>205.0</ele><time>2026-04-11T17:49:01.04Z</time></trkpt><trkpt lat="44.6505383" lon="7.99198"><ele>205.0</ele><time>2026-04-11T17:49:03.041Z</time></trkpt><trkpt lat="44.65048" lon="7.9920833"><ele>205.0</ele><time>2026-04-11T17:49:05.04Z</time></trkpt><trkpt lat="44.6504233" lon="7.9921783"><ele>204.99999999999997</ele><time>2026-04-11T17:49:07.04Z</time></trkpt><trkpt lat="44.6503667" lon="7.99227"><ele>205.0</ele><time>2026-04-11T17:49:09.042Z</time></trkpt><trkpt lat="44.6503167" lon="7.9923583"><ele>204.8</ele><time>2026-04-11T17:49:11.041Z</time></trkpt><trkpt lat="44.6502667" lon="7.9924467"><ele>204.6</ele><time>2026-04-11T17:49:13.04Z</time></trkpt><trkpt lat="44.6502067" lon="7.992535"><ele>204.39999999999998</ele><time>2026-04-11T17:49:15.04Z</time></trkpt><trkpt lat="44.6501483" lon="7.99264"><ele>204.2</ele><time>2026-04-11T17:49:17.04Z</time></trkpt><trkpt lat="44.6500917" lon="7.9927483"><ele>204.0</ele><time>2026-04-11T17:49:19.041Z</time></trkpt><trkpt lat="44.6500333" lon="7.992855"><ele>204.0</ele><time>2026-04-11T17:49:21.042Z</time></trkpt><trkpt lat="44.6499667" lon="7.99296"><ele>204.0</ele><time>2026-04-11T17:49:23.042Z</time></trkpt><trkpt lat="44.6499" lon="7.99307"><ele>204.0</ele><time>2026-04-11T17:49:25.04Z</time></trkpt><trkpt lat="44.6498433" lon="7.9931783"><ele>204.0</ele><time>2026-04-11T17:49:27.04Z</time></trkpt><trkpt lat="44.6497867" lon="7.9932817"><ele>204.0</ele><time>2026-04-11T17:49:29.04Z</time></trkpt><trkpt lat="44.649725" lon="7.9933783"><ele>204.2</ele><time>2026-04-11T17:49:31.04Z</time></trkpt><trkpt lat="44.64967" lon="7.9934817"><ele>204.39999999999998</ele><time>2026-04-11T17:49:33.041Z</time></trkpt><trkpt lat="44.6496117" lon="7.9935867"><ele>204.6</ele><time>2026-04-11T17:49:35.04Z</time></trkpt><trkpt lat="44.649555" lon="7.9936867"><ele>204.8</ele><time>2026-04-11T17:49:37.041Z</time></trkpt><trkpt lat="44.6495033" lon="7.9937883"><ele>205.0</ele><time>2026-04-11T17:49:39.041Z</time></trkpt><trkpt lat="44.6494467" lon="7.993895"><ele>205.0</ele><time>2026-04-11T17:49:41.04Z</time></trkpt><trkpt lat="44.6493867" lon="7.9939983"><ele>205.0</ele><time>2026-04-11T17:49:43.04Z</time></trkpt><trkpt lat="44.6493283" lon="7.9941067"><ele>205.0</ele><time>2026-04-11T17:49:45.04Z</time></trkpt><trkpt lat="44.64927" lon="7.9942133"><ele>205.0</ele><time>2026-04-11T17:49:47.04Z</time></trkpt><trkpt lat="44.6492083" lon="7.9943183"><ele>205.0</ele><time>2026-04-11T17:49:49.04Z</time></trkpt><trkpt lat="44.6491517" lon="7.9944233"><ele>207.4</ele><time>2026-04-11T17:49:51.04Z</time></trkpt><trkpt lat="44.64908" lon="7.9945217"><ele>209.8</ele><time>2026-04-11T17:49:53.04Z</time></trkpt><trkpt lat="44.648995" lon="7.9946017"><ele>212.2</ele><time>2026-04-11T17:49:55.04Z</time></trkpt><trkpt lat="44.6489083" lon="7.9946767"><ele>214.6</ele><time>2026-04-11T17:49:57.041Z</time></trkpt><trkpt lat="44.64882" lon="7.994735"><ele>217.0</ele><time>2026-04-11T17:49:59.04Z</time></trkpt><trkpt lat="44.6487233" lon="7.99478"><ele>217.0</ele><time>2026-04-11T17:50:01.04Z</time></trkpt><trkpt lat="44.6486317" lon="7.9948083"><ele>217.0</ele><time>2026-04-11T17:50:03.04Z</time></trkpt><trkpt lat="44.6485383" lon="7.9948333"><ele>217.0</ele><time>2026-04-11T17:50:05.041Z</time></trkpt><trkpt lat="44.64844" lon="7.994855"><ele>217.0</ele><time>2026-04-11T17:50:07.04Z</time></trkpt><trkpt lat="44.6483467" lon="7.994875"><ele>217.0</ele><time>2026-04-11T17:50:09.041Z</time></trkpt><trkpt lat="44.64826" lon="7.9949033"><ele>216.6</ele><time>2026-04-11T17:50:11.041Z</time></trkpt><trkpt lat="44.6481733" lon="7.994935"><ele>216.2</ele><time>2026-04-11T17:50:13.04Z</time></trkpt><trkpt lat="44.6480833" lon="7.9949733"><ele>215.8</ele><time>2026-04-11T17:50:15.041Z</time></trkpt><trkpt lat="44.648" lon="7.9950233"><ele>215.4</ele><time>2026-04-11T17:50:17.039Z</time></trkpt><trkpt lat="44.6479217" lon="7.9950833"><ele>215.0</ele><time>2026-04-11T17:50:19.04Z</time></trkpt><trkpt lat="44.6478483" lon="7.9951533"><ele>213.83333333333334</ele><time>2026-04-11T17:50:21.044Z</time></trkpt><trkpt lat="44.6477833" lon="7.995235"><ele>212.66666666666669</ele><time>2026-04-11T17:50:23.041Z</time></trkpt><trkpt lat="44.64772" lon="7.9953017"><ele>211.5</ele><time>2026-04-11T17:50:25.042Z</time></trkpt><trkpt lat="44.647655" lon="7.995365"><ele>210.33333333333331</ele><time>2026-04-11T17:50:27.04Z</time></trkpt><trkpt lat="44.6475933" lon="7.99543"><ele>209.16666666666666</ele><time>2026-04-11T17:50:29.04Z</time></trkpt><trkpt lat="44.6475283" lon="7.9954983"><ele>208.0</ele><time>2026-04-11T17:50:31.041Z</time></trkpt><trkpt lat="44.6474667" lon="7.9955733"><ele>207.99999999999997</ele><time>2026-04-11T17:50:33.041Z</time></trkpt><trkpt lat="44.6474067" lon="7.9956467"><ele>208.0</ele><time>2026-04-11T17:50:35.04Z</time></trkpt><trkpt lat="44.6473483" lon="7.995715"><ele>208.0</ele><time>2026-04-11T17:50:37.04Z</time></trkpt><trkpt lat="44.647285" lon="7.9957817"><ele>208.0</ele><time>2026-04-11T17:50:39.04Z</time></trkpt><trkpt lat="44.6472233" lon="7.9958483"><ele>207.99999999999997</ele><time>2026-04-11T17:50:41.039Z</time></trkpt><trkpt lat="44.64717" lon="7.9959083"><ele>208.0</ele><time>2026-04-11T17:50:43.04Z</time></trkpt><trkpt lat="44.6470983" lon="7.995975"><ele>208.14285714285714</ele><time>2026-04-11T17:50:46.045Z</time></trkpt><trkpt lat="44.6470317" lon="7.9959533"><ele>208.2857142857143</ele><time>2026-04-11T17:50:49.04Z</time></trkpt><trkpt lat="44.6469767" lon="7.99589"><ele>208.42857142857144</ele><time>2026-04-11T17:50:51.041Z</time></trkpt><trkpt lat="44.6469067" lon="7.99577"><ele>208.57142857142856</ele><time>2026-04-11T17:50:53.042Z</time></trkpt><trkpt lat="44.64687" lon="7.9956967"><ele>208.71428571428572</ele><time>2026-04-11T17:50:54.041Z</time></trkpt><trkpt lat="44.6468267" lon="7.9956267"><ele>208.85714285714286</ele><time>2026-04-11T17:50:55.04Z</time></trkpt><trkpt lat="44.6467867" lon="7.9955517"><ele>209.0</ele><time>2026-04-11T17:50:56.04Z</time></trkpt><trkpt lat="44.646745" lon="7.9954833"><ele>209.0</ele><time>2026-04-11T17:50:57.04Z</time></trkpt><trkpt lat="44.646705" lon="7.99541"><ele>209.0</ele><time>2026-04-11T17:50:58.042Z</time></trkpt><trkpt lat="44.6466617" lon="7.99533"><ele>209.0</ele><time>2026-04-11T17:50:59.041Z</time></trkpt><trkpt lat="44.6466167" lon="7.9952517"><ele>209.0</ele><time>2026-04-11T17:51:00.041Z</time></trkpt><trkpt lat="44.6465767" lon="7.99518"><ele>209.0</ele><time>2026-04-11T17:51:01.041Z</time></trkpt><trkpt lat="44.6465367" lon="7.995105"><ele>209.0</ele><time>2026-04-11T17:51:02.041Z</time></trkpt><trkpt lat="44.6464967" lon="7.9950283"><ele>209.0</ele><time>2026-04-11T17:51:03.041Z</time></trkpt><trkpt lat="44.64642" lon="7.99489"><ele>208.0</ele><time>2026-04-11T17:51:05.04Z</time></trkpt><trkpt lat="44.6463567" lon="7.9947717"><ele>207.0</ele><time>2026-04-11T17:51:07.041Z</time></trkpt><trkpt lat="44.646285" lon="7.9946583"><ele>206.0</ele><time>2026-04-11T17:51:09.04Z</time></trkpt><trkpt lat="44.646205" lon="7.9945233"><ele>205.0</ele><time>2026-04-11T17:51:11.04Z</time></trkpt><trkpt lat="44.6461283" lon="7.994375"><ele>204.8</ele><time>2026-04-11T17:51:13.041Z</time></trkpt><trkpt lat="44.646085" lon="7.994295"><ele>204.6</ele><time>2026-04-11T17:51:14.04Z</time></trkpt><trkpt lat="44.646045" lon="7.9942233"><ele>204.39999999999998</ele><time>2026-04-11T17:51:15.041Z</time></trkpt><trkpt lat="44.645965" lon="7.994085"><ele>204.2</ele><time>2026-04-11T17:51:17.04Z</time></trkpt><trkpt lat="44.6458833" lon="7.993945"><ele>204.0</ele><time>2026-04-11T17:51:19.041Z</time></trkpt><trkpt lat="44.64582" lon="7.99381"><ele>204.0</ele><time>2026-04-11T17:51:21.041Z</time></trkpt><trkpt lat="44.6457783" lon="7.993725"><ele>204.0</ele><time>2026-04-11T17:51:22.041Z</time></trkpt><trkpt lat="44.64574" lon="7.9936433"><ele>204.0</ele><time>2026-04-11T17:51:23.04Z</time></trkpt><trkpt lat="44.6456983" lon="7.9935667"><ele>204.0</ele><time>2026-04-11T17:51:24.041Z</time></trkpt><trkpt lat="44.6456533" lon="7.9934683"><ele>204.0</ele><time>2026-04-11T17:51:25.041Z</time></trkpt><trkpt lat="44.64561" lon="7.9933717"><ele>204.0</ele><time>2026-04-11T17:51:26.041Z</time></trkpt><trkpt lat="44.6455383" lon="7.9932417"><ele>203.79999999999998</ele><time>2026-04-11T17:51:28.04Z</time></trkpt><trkpt lat="44.6454667" lon="7.99309"><ele>203.6</ele><time>2026-04-11T17:51:30.041Z</time></trkpt><trkpt lat="44.645435" lon="7.9930117"><ele>203.4</ele><time>2026-04-11T17:51:31.041Z</time></trkpt><trkpt lat="44.6454017" lon="7.9929283"><ele>203.2</ele><time>2026-04-11T17:51:32.041Z</time></trkpt><trkpt lat="44.6453433" lon="7.9928033"><ele>203.0</ele><time>2026-04-11T17:51:34.042Z</time></trkpt><trkpt lat="44.6452967" lon="7.9927"><ele>203.0</ele><time>2026-04-11T17:51:36.042Z</time></trkpt><trkpt lat="44.645245" lon="7.9925983"><ele>203.0</ele><time>2026-04-11T17:51:38.04Z</time></trkpt><trkpt lat="44.6451883" lon="7.9924983"><ele>203.0</ele><time>2026-04-11T17:51:40.04Z</time></trkpt><trkpt lat="44.645125" lon="7.9923867"><ele>203.0</ele><time>2026-04-11T17:51:42.04Z</time></trkpt><trkpt lat="44.64506" lon="7.9922783"><ele>203.0</ele><time>2026-04-11T17:51:44.04Z</time></trkpt><trkpt lat="44.6449933" lon="7.9921767"><ele>203.00000000000003</ele><time>2026-04-11T17:51:46.04Z</time></trkpt><trkpt lat="44.6449283" lon="7.992075"><ele>203.0</ele><time>2026-04-11T17:51:48.039Z</time></trkpt><trkpt lat="44.6448683" lon="7.9919783"><ele>203.0</ele><time>2026-04-11T17:51:50.041Z</time></trkpt><trkpt lat="44.644815" lon="7.99189"><ele>203.0</ele><time>2026-04-11T17:51:52.041Z</time></trkpt><trkpt lat="44.6448067" lon="7.9917733"><ele>203.00000000000003</ele><time>2026-04-11T17:51:55.042Z</time></trkpt><trkpt lat="44.6448467" lon="7.9916767"><ele>203.0</ele><time>2026-04-11T17:51:58.042Z</time></trkpt><trkpt lat="44.6449117" lon="7.9915817"><ele>203.16666666666669</ele><time>2026-04-11T17:52:01.041Z</time></trkpt><trkpt lat="44.6449667" lon="7.9915167"><ele>203.33333333333334</ele><time>2026-04-11T17:52:03.042Z</time></trkpt><trkpt lat="44.6450283" lon="7.99144"><ele>203.5</ele><time>2026-04-11T17:52:05.041Z</time></trkpt><trkpt lat="44.6450783" lon="7.991355"><ele>203.66666666666669</ele><time>2026-04-11T17:52:07.041Z</time></trkpt><trkpt lat="44.6451267" lon="7.9912667"><ele>203.83333333333334</ele><time>2026-04-11T17:52:09.042Z</time></trkpt><trkpt lat="44.645175" lon="7.9911833"><ele>204.0</ele><time>2026-04-11T17:52:11.041Z</time></trkpt><trkpt lat="44.6452133" lon="7.9910983"><ele>204.0</ele><time>2026-04-11T17:52:13.041Z</time></trkpt><trkpt lat="44.64525" lon="7.991015"><ele>204.0</ele><time>2026-04-11T17:52:15.042Z</time></trkpt><trkpt lat="44.6452783" lon="7.990915"><ele>204.0</ele><time>2026-04-11T17:52:17.041Z</time></trkpt><trkpt lat="44.6453117" lon="7.9908167"><ele>204.0</ele><time>2026-04-11T17:52:19.041Z</time></trkpt><trkpt lat="44.64535" lon="7.99071"><ele>204.0</ele><time>2026-04-11T17:52:21.041Z</time></trkpt><trkpt lat="44.6453867" lon="7.990605"><ele>204.0</ele><time>2026-04-11T17:52:23.041Z</time></trkpt><trkpt lat="44.6454183" lon="7.99049"><ele>203.79999999999998</ele><time>2026-04-11T17:52:25.041Z</time></trkpt><trkpt lat="44.6454583" lon="7.9903683"><ele>203.6</ele><time>2026-04-11T17:52:27.043Z</time></trkpt><trkpt lat="44.6455" lon="7.9902467"><ele>203.4</ele><time>2026-04-11T17:52:29.041Z</time></trkpt><trkpt lat="44.6455433" lon="7.9901333"><ele>203.2</ele><time>2026-04-11T17:52:31.041Z</time></trkpt><trkpt lat="44.6455867" lon="7.9900233"><ele>203.0</ele><time>2026-04-11T17:52:33.042Z</time></trkpt><trkpt lat="44.645625" lon="7.9899067"><ele>203.0</ele><time>2026-04-11T17:52:35.04Z</time></trkpt><trkpt lat="44.6456667" lon="7.989785"><ele>203.0</ele><time>2026-04-11T17:52:37.042Z</time></trkpt><trkpt lat="44.6457083" lon="7.9896583"><ele>203.0</ele><time>2026-04-11T17:52:39.041Z</time></trkpt><trkpt lat="44.645755" lon="7.98953"><ele>203.0</ele><time>2026-04-11T17:52:41.042Z</time></trkpt><trkpt lat="44.6457917" lon="7.989405"><ele>203.0</ele><time>2026-04-11T17:52:43.04Z</time></trkpt><trkpt lat="44.6458233" lon="7.9892767"><ele>202.60000000000002</ele><time>2026-04-11T17:52:45.041Z</time></trkpt><trkpt lat="44.6458617" lon="7.9891517"><ele>202.20000000000002</ele><time>2026-04-11T17:52:47.041Z</time></trkpt><trkpt lat="44.6458917" lon="7.9890167"><ele>201.8</ele><time>2026-04-11T17:52:49.042Z</time></trkpt><trkpt lat="44.64592" lon="7.9888733"><ele>201.4</ele><time>2026-04-11T17:52:51.043Z</time></trkpt><trkpt lat="44.6459483" lon="7.988725"><ele>201.0</ele><time>2026-04-11T17:52:53.041Z</time></trkpt><trkpt lat="44.6459733" lon="7.98858"><ele>201.0</ele><time>2026-04-11T17:52:55.041Z</time></trkpt><trkpt lat="44.645995" lon="7.988435"><ele>201.0</ele><time>2026-04-11T17:52:57.042Z</time></trkpt><trkpt lat="44.646025" lon="7.988285"><ele>201.0</ele><time>2026-04-11T17:52:59.042Z</time></trkpt><trkpt lat="44.6460583" lon="7.9881317"><ele>201.0</ele><time>2026-04-11T17:53:01.04Z</time></trkpt><trkpt lat="44.6460933" lon="7.987975"><ele>201.0</ele><time>2026-04-11T17:53:03.041Z</time></trkpt><trkpt lat="44.6461267" lon="7.9878167"><ele>200.75</ele><time>2026-04-11T17:53:05.041Z</time></trkpt><trkpt lat="44.6461633" lon="7.9876533"><ele>200.5</ele><time>2026-04-11T17:53:07.041Z</time></trkpt><trkpt lat="44.6462067" lon="7.9874933"><ele>200.25</ele><time>2026-04-11T17:53:09.041Z</time></trkpt><trkpt lat="44.6462583" lon="7.987335"><ele>200.0</ele><time>2026-04-11T17:53:11.04Z</time></trkpt><trkpt lat="44.6463033" lon="7.9871767"><ele>200.0</ele><time>2026-04-11T17:53:13.041Z</time></trkpt><trkpt lat="44.646345" lon="7.9870183"><ele>200.0</ele><time>2026-04-11T17:53:15.042Z</time></trkpt><trkpt lat="44.6463867" lon="7.98686"><ele>200.0</ele><time>2026-04-11T17:53:17.04Z</time></trkpt><trkpt lat="44.64643" lon="7.9866983"><ele>200.0</ele><time>2026-04-11T17:53:19.042Z</time></trkpt><trkpt lat="44.6464667" lon="7.98654"><ele>200.25</ele><time>2026-04-11T17:53:21.042Z</time></trkpt><trkpt lat="44.6465067" lon="7.9863817"><ele>200.5</ele><time>2026-04-11T17:53:23.041Z</time></trkpt><trkpt lat="44.6465467" lon="7.9862217"><ele>200.75</ele><time>2026-04-11T17:53:25.041Z</time></trkpt><trkpt lat="44.64659" lon="7.9860617"><ele>201.0</ele><time>2026-04-11T17:53:27.041Z</time></trkpt><trkpt lat="44.6466333" lon="7.9859017"><ele>200.75</ele><time>2026-04-11T17:53:29.041Z</time></trkpt><trkpt lat="44.64668" lon="7.9857467"><ele>200.5</ele><time>2026-04-11T17:53:31.041Z</time></trkpt><trkpt lat="44.6467133" lon="7.985595"><ele>200.25</ele><time>2026-04-11T17:53:33.043Z</time></trkpt><trkpt lat="44.6467533" lon="7.9854417"><ele>200.0</ele><time>2026-04-11T17:53:35.041Z</time></trkpt><trkpt lat="44.6467933" lon="7.9852917"><ele>200.0</ele><time>2026-04-11T17:53:37.042Z</time></trkpt><trkpt lat="44.6468333" lon="7.985145"><ele>200.0</ele><time>2026-04-11T17:53:39.043Z</time></trkpt><trkpt lat="44.6468717" lon="7.985"><ele>200.0</ele><time>2026-04-11T17:53:41.041Z</time></trkpt><trkpt lat="44.64691" lon="7.9848533"><ele>200.0</ele><time>2026-04-11T17:53:43.041Z</time></trkpt><trkpt lat="44.6469467" lon="7.9847117"><ele>200.0</ele><time>2026-04-11T17:53:45.041Z</time></trkpt><trkpt lat="44.6469833" lon="7.984575"><ele>199.6</ele><time>2026-04-11T17:53:47.04Z</time></trkpt><trkpt lat="44.6470183" lon="7.984435"><ele>199.2</ele><time>2026-04-11T17:53:49.041Z</time></trkpt><trkpt lat="44.6470567" lon="7.9842967"><ele>198.8</ele><time>2026-04-11T17:53:51.042Z</time></trkpt><trkpt lat="44.6470933" lon="7.9841567"><ele>198.4</ele><time>2026-04-11T17:53:53.041Z</time></trkpt><trkpt lat="44.6471267" lon="7.9840117"><ele>198.0</ele><time>2026-04-11T17:53:55.041Z</time></trkpt><trkpt lat="44.6471667" lon="7.9838617"><ele>198.0</ele><time>2026-04-11T17:53:57.042Z</time></trkpt><trkpt lat="44.6472017" lon="7.9837083"><ele>198.0</ele><time>2026-04-11T17:53:59.04Z</time></trkpt><trkpt lat="44.6472417" lon="7.9835483"><ele>198.0</ele><time>2026-04-11T17:54:01.041Z</time></trkpt><trkpt lat="44.64728" lon="7.9833883"><ele>198.0</ele><time>2026-04-11T17:54:03.041Z</time></trkpt><trkpt lat="44.64733" lon="7.983235"><ele>198.25</ele><time>2026-04-11T17:54:05.045Z</time></trkpt><trkpt lat="44.6473767" lon="7.9830817"><ele>198.5</ele><time>2026-04-11T17:54:07.041Z</time></trkpt><trkpt lat="44.64743" lon="7.9829267"><ele>198.75</ele><time>2026-04-11T17:54:09.042Z</time></trkpt><trkpt lat="44.6474817" lon="7.98277"><ele>199.0</ele><time>2026-04-11T17:54:11.04Z</time></trkpt><trkpt lat="44.64753" lon="7.9826117"><ele>199.39999999999998</ele><time>2026-04-11T17:54:13.041Z</time></trkpt><trkpt lat="44.6475733" lon="7.9824533"><ele>199.8</ele><time>2026-04-11T17:54:15.041Z</time></trkpt><trkpt lat="44.64762" lon="7.982295"><ele>200.2</ele><time>2026-04-11T17:54:17.041Z</time></trkpt><trkpt lat="44.647645" lon="7.9822133"><ele>200.60000000000002</ele><time>2026-04-11T17:54:18.04Z</time></trkpt><trkpt lat="44.6476983" lon="7.9820567"><ele>201.0</ele><time>2026-04-11T17:54:20.042Z</time></trkpt><trkpt lat="44.6477533" lon="7.9819083"><ele>200.60000000000002</ele><time>2026-04-11T17:54:22.041Z</time></trkpt><trkpt lat="44.6478" lon="7.9817633"><ele>200.2</ele><time>2026-04-11T17:54:24.041Z</time></trkpt><trkpt lat="44.6478483" lon="7.981625"><ele>199.8</ele><time>2026-04-11T17:54:26.04Z</time></trkpt><trkpt lat="44.6478933" lon="7.98149"><ele>199.39999999999998</ele><time>2026-04-11T17:54:28.041Z</time></trkpt><trkpt lat="44.6479317" lon="7.981345"><ele>199.0</ele><time>2026-04-11T17:54:30.041Z</time></trkpt><trkpt lat="44.6479667" lon="7.9811917"><ele>199.0</ele><time>2026-04-11T17:54:32.042Z</time></trkpt><trkpt lat="44.6479883" lon="7.98103"><ele>199.0</ele><time>2026-04-11T17:54:34.041Z</time></trkpt><trkpt lat="44.6479983" lon="7.9808667"><ele>199.0</ele><time>2026-04-11T17:54:36.043Z</time></trkpt><trkpt lat="44.648005" lon="7.98071"><ele>199.0</ele><time>2026-04-11T17:54:38.041Z</time></trkpt><trkpt lat="44.6479933" lon="7.9805617"><ele>199.2</ele><time>2026-04-11T17:54:40.041Z</time></trkpt><trkpt lat="44.6479767" lon="7.9804017"><ele>199.39999999999998</ele><time>2026-04-11T17:54:42.041Z</time></trkpt><trkpt lat="44.6479667" lon="7.9802333"><ele>199.6</ele><time>2026-04-11T17:54:44.041Z</time></trkpt><trkpt lat="44.6479583" lon="7.980075"><ele>199.8</ele><time>2026-04-11T17:54:46.041Z</time></trkpt><trkpt lat="44.647955" lon="7.97994"><ele>200.0</ele><time>2026-04-11T17:54:48.042Z</time></trkpt><trkpt lat="44.647955" lon="7.9797933"><ele>199.6</ele><time>2026-04-11T17:54:50.042Z</time></trkpt><trkpt lat="44.6479533" lon="7.9796167"><ele>199.2</ele><time>2026-04-11T17:54:52.041Z</time></trkpt><trkpt lat="44.6479567" lon="7.9795283"><ele>198.8</ele><time>2026-04-11T17:54:53.041Z</time></trkpt><trkpt lat="44.6479717" lon="7.9793533"><ele>198.4</ele><time>2026-04-11T17:54:55.041Z</time></trkpt><trkpt lat="44.6479983" lon="7.9791867"><ele>198.0</ele><time>2026-04-11T17:54:57.042Z</time></trkpt><trkpt lat="44.6480317" lon="7.979065"><ele>198.0</ele><time>2026-04-11T17:54:59.042Z</time></trkpt><trkpt lat="44.6480383" lon="7.9789467"><ele>198.0</ele><time>2026-04-11T17:55:02.046Z</time></trkpt><trkpt lat="44.6479617" lon="7.9788717"><ele>198.0</ele><time>2026-04-11T17:55:05.042Z</time></trkpt><trkpt lat="44.64789" lon="7.9788317"><ele>198.0</ele><time>2026-04-11T17:55:07.041Z</time></trkpt><trkpt lat="44.6478217" lon="7.978785"><ele>198.0</ele><time>2026-04-11T17:55:09.041Z</time></trkpt><trkpt lat="44.64774" lon="7.978745"><ele>198.0</ele><time>2026-04-11T17:55:11.041Z</time></trkpt><trkpt lat="44.64765" lon="7.978705"><ele>199.0</ele><time>2026-04-11T17:55:13.041Z</time></trkpt><trkpt lat="44.6475617" lon="7.9786633"><ele>200.0</ele><time>2026-04-11T17:55:15.043Z</time></trkpt><trkpt lat="44.6474733" lon="7.97862"><ele>201.0</ele><time>2026-04-11T17:55:17.041Z</time></trkpt><trkpt lat="44.6473917" lon="7.97859"><ele>202.0</ele><time>2026-04-11T17:55:19.042Z</time></trkpt><trkpt lat="44.6473017" lon="7.978545"><ele>203.0</ele><time>2026-04-11T17:55:21.041Z</time></trkpt><trkpt lat="44.6472117" lon="7.9785"><ele>203.0</ele><time>2026-04-11T17:55:23.041Z</time></trkpt><trkpt lat="44.6471233" lon="7.97845"><ele>203.0</ele><time>2026-04-11T17:55:25.04Z</time></trkpt><trkpt lat="44.6470333" lon="7.9783833"><ele>203.0</ele><time>2026-04-11T17:55:27.041Z</time></trkpt><trkpt lat="44.6469633" lon="7.978275"><ele>203.0</ele><time>2026-04-11T17:55:29.04Z</time></trkpt><trkpt lat="44.64691" lon="7.9781417"><ele>203.0</ele><time>2026-04-11T17:55:31.04Z</time></trkpt><trkpt lat="44.64686" lon="7.97801"><ele>202.4</ele><time>2026-04-11T17:55:33.041Z</time></trkpt><trkpt lat="44.64678" lon="7.97791"><ele>201.8</ele><time>2026-04-11T17:55:35.04Z</time></trkpt><trkpt lat="44.6466817" lon="7.9778667"><ele>201.2</ele><time>2026-04-11T17:55:37.041Z</time></trkpt><trkpt lat="44.6465817" lon="7.9778433"><ele>200.6</ele><time>2026-04-11T17:55:39.042Z</time></trkpt><trkpt lat="44.6464817" lon="7.9778117"><ele>200.0</ele><time>2026-04-11T17:55:41.04Z</time></trkpt><trkpt lat="44.64639" lon="7.9777583"><ele>200.00000000000003</ele><time>2026-04-11T17:55:43.042Z</time></trkpt><trkpt lat="44.6463033" lon="7.9776767"><ele>200.0</ele><time>2026-04-11T17:55:45.041Z</time></trkpt><trkpt lat="44.6462417" lon="7.9776183"><ele>200.0</ele><time>2026-04-11T17:55:47.04Z</time></trkpt><trkpt lat="44.6462633" lon="7.9777267"><ele>200.0</ele><time>2026-04-11T17:55:50.041Z</time></trkpt><trkpt lat="44.6463233" lon="7.9778117"><ele>200.00000000000003</ele><time>2026-04-11T17:55:53.04Z</time></trkpt><trkpt lat="44.64638" lon="7.9778667"><ele>200.0</ele><time>2026-04-11T17:55:55.04Z</time></trkpt><trkpt lat="44.6464433" lon="7.9779167"><ele>200.00000000000003</ele><time>2026-04-11T17:55:57.041Z</time></trkpt><trkpt lat="44.6464933" lon="7.9779833"><ele>200.0</ele><time>2026-04-11T17:55:59.04Z</time></trkpt><trkpt lat="44.6465067" lon="7.9780783"><ele>200.0</ele><time>2026-04-11T17:56:01.04Z</time></trkpt><trkpt lat="44.6464717" lon="7.978165"><ele>200.0</ele><time>2026-04-11T17:56:03.041Z</time></trkpt><trkpt lat="44.6464067" lon="7.97821"><ele>200.0</ele><time>2026-04-11T17:56:05.041Z</time></trkpt><trkpt lat="44.6463417" lon="7.978245"><ele>200.00000000000003</ele><time>2026-04-11T17:56:07.041Z</time></trkpt><trkpt lat="44.646265" lon="7.9782833"><ele>200.0</ele><time>2026-04-11T17:56:09.041Z</time></trkpt><trkpt lat="44.646185" lon="7.9783217"><ele>201.50000000000003</ele><time>2026-04-11T17:56:11.041Z</time></trkpt><trkpt lat="44.64611" lon="7.9783633"><ele>203.0</ele><time>2026-04-11T17:56:13.042Z</time></trkpt><trkpt lat="44.6460367" lon="7.978405"><ele>204.5</ele><time>2026-04-11T17:56:15.041Z</time></trkpt><trkpt lat="44.645965" lon="7.9784433"><ele>206.0</ele><time>2026-04-11T17:56:17.04Z</time></trkpt><trkpt lat="44.6458917" lon="7.9784867"><ele>207.50000000000003</ele><time>2026-04-11T17:56:19.041Z</time></trkpt><trkpt lat="44.64582" lon="7.978525"><ele>209.0</ele><time>2026-04-11T17:56:21.042Z</time></trkpt><trkpt lat="44.6457533" lon="7.9785583"><ele>209.00000000000003</ele><time>2026-04-11T17:56:23.041Z</time></trkpt><trkpt lat="44.64568" lon="7.9785967"><ele>209.0</ele><time>2026-04-11T17:56:25.04Z</time></trkpt><trkpt lat="44.6456033" lon="7.978635"><ele>209.0</ele><time>2026-04-11T17:56:27.043Z</time></trkpt><trkpt lat="44.6455267" lon="7.9786783"><ele>209.0</ele><time>2026-04-11T17:56:29.041Z</time></trkpt><trkpt lat="44.6454567" lon="7.9787183"><ele>209.00000000000003</ele><time>2026-04-11T17:56:31.041Z</time></trkpt><trkpt lat="44.6453833" lon="7.9787567"><ele>209.0</ele><time>2026-04-11T17:56:33.045Z</time></trkpt><trkpt lat="44.6453083" lon="7.978795"><ele>208.33333333333334</ele><time>2026-04-11T17:56:35.043Z</time></trkpt><trkpt lat="44.6452367" lon="7.978825"><ele>207.66666666666669</ele><time>2026-04-11T17:56:37.04Z</time></trkpt><trkpt lat="44.6451617" lon="7.9788617"><ele>207.0</ele><time>2026-04-11T17:56:39.041Z</time></trkpt><trkpt lat="44.6450883" lon="7.9789017"><ele>206.33333333333331</ele><time>2026-04-11T17:56:41.043Z</time></trkpt><trkpt lat="44.6450133" lon="7.9789417"><ele>205.66666666666666</ele><time>2026-04-11T17:56:43.04Z</time></trkpt><trkpt lat="44.644935" lon="7.97898"><ele>205.0</ele><time>2026-04-11T17:56:45.041Z</time></trkpt><trkpt lat="44.64486" lon="7.9790283"><ele>205.0</ele><time>2026-04-11T17:56:47.041Z</time></trkpt><trkpt lat="44.644785" lon="7.97908"><ele>205.0</ele><time>2026-04-11T17:56:49.041Z</time></trkpt><trkpt lat="44.644705" lon="7.9791283"><ele>205.0</ele><time>2026-04-11T17:56:51.041Z</time></trkpt><trkpt lat="44.6446183" lon="7.9791717"><ele>205.0</ele><time>2026-04-11T17:56:53.04Z</time></trkpt><trkpt lat="44.64453" lon="7.9792183"><ele>205.0</ele><time>2026-04-11T17:56:55.041Z</time></trkpt><trkpt lat="44.6444433" lon="7.9792667"><ele>206.4</ele><time>2026-04-11T17:56:57.041Z</time></trkpt><trkpt lat="44.6443567" lon="7.9793167"><ele>207.8</ele><time>2026-04-11T17:56:59.04Z</time></trkpt><trkpt lat="44.644275" lon="7.97937"><ele>209.2</ele><time>2026-04-11T17:57:01.041Z</time></trkpt><trkpt lat="44.6441967" lon="7.9794283"><ele>210.6</ele><time>2026-04-11T17:57:03.041Z</time></trkpt><trkpt lat="44.6441183" lon="7.9795"><ele>212.0</ele><time>2026-04-11T17:57:05.041Z</time></trkpt><trkpt lat="44.644035" lon="7.9795767"><ele>212.0</ele><time>2026-04-11T17:57:07.04Z</time></trkpt><trkpt lat="44.643955" lon="7.9796667"><ele>212.0</ele><time>2026-04-11T17:57:09.041Z</time></trkpt><trkpt lat="44.6438767" lon="7.9797617"><ele>212.0</ele><time>2026-04-11T17:57:11.04Z</time></trkpt><trkpt lat="44.6437983" lon="7.9798567"><ele>212.0</ele><time>2026-04-11T17:57:13.04Z</time></trkpt><trkpt lat="44.64372" lon="7.9799483"><ele>212.0</ele><time>2026-04-11T17:57:15.041Z</time></trkpt><trkpt lat="44.64365" lon="7.98003"><ele>211.39999999999998</ele><time>2026-04-11T17:57:17.042Z</time></trkpt><trkpt lat="44.643575" lon="7.98011"><ele>210.79999999999998</ele><time>2026-04-11T17:57:19.041Z</time></trkpt><trkpt lat="44.6435033" lon="7.9802"><ele>210.2</ele><time>2026-04-11T17:57:21.041Z</time></trkpt><trkpt lat="44.643425" lon="7.9802883"><ele>209.6</ele><time>2026-04-11T17:57:23.041Z</time></trkpt><trkpt lat="44.6433483" lon="7.9803717"><ele>209.0</ele><time>2026-04-11T17:57:25.041Z</time></trkpt><trkpt lat="44.6432767" lon="7.9804617"><ele>209.0</ele><time>2026-04-11T17:57:27.041Z</time></trkpt><trkpt lat="44.6432033" lon="7.9805517"><ele>209.0</ele><time>2026-04-11T17:57:29.041Z</time></trkpt><trkpt lat="44.6431233" lon="7.9806433"><ele>209.0</ele><time>2026-04-11T17:57:31.04Z</time></trkpt><trkpt lat="44.64304" lon="7.9807317"><ele>209.0</ele><time>2026-04-11T17:57:33.041Z</time></trkpt><trkpt lat="44.6429533" lon="7.9808067"><ele>209.0</ele><time>2026-04-11T17:57:35.041Z</time></trkpt><trkpt lat="44.6428717" lon="7.98087"><ele>209.0</ele><time>2026-04-11T17:57:37.041Z</time></trkpt><trkpt lat="44.6427867" lon="7.9809267"><ele>209.0</ele><time>2026-04-11T17:57:39.041Z</time></trkpt><trkpt lat="44.6427017" lon="7.980985"><ele>209.0</ele><time>2026-04-11T17:57:41.041Z</time></trkpt><trkpt lat="44.6426133" lon="7.9810483"><ele>209.0</ele><time>2026-04-11T17:57:43.041Z</time></trkpt><trkpt lat="44.6425233" lon="7.9811133"><ele>209.0</ele><time>2026-04-11T17:57:45.042Z</time></trkpt><trkpt lat="44.64244" lon="7.9811883"><ele>209.0</ele><time>2026-04-11T17:57:47.041Z</time></trkpt><trkpt lat="44.6423583" lon="7.9812717"><ele>209.0</ele><time>2026-04-11T17:57:49.041Z</time></trkpt><trkpt lat="44.64228" lon="7.981365"><ele>209.0</ele><time>2026-04-11T17:57:51.042Z</time></trkpt><trkpt lat="44.6421983" lon="7.981465"><ele>209.0</ele><time>2026-04-11T17:57:53.041Z</time></trkpt><trkpt lat="44.64212" lon="7.9815683"><ele>209.0</ele><time>2026-04-11T17:57:55.041Z</time></trkpt><trkpt lat="44.64203" lon="7.981665"><ele>209.0</ele><time>2026-04-11T17:57:57.042Z</time></trkpt><trkpt lat="44.64194" lon="7.9817533"><ele>209.0</ele><time>2026-04-11T17:57:59.042Z</time></trkpt><trkpt lat="44.6418467" lon="7.981835"><ele>209.0</ele><time>2026-04-11T17:58:01.041Z</time></trkpt><trkpt lat="44.64175" lon="7.981905"><ele>209.0</ele><time>2026-04-11T17:58:03.041Z</time></trkpt><trkpt lat="44.6416517" lon="7.9819567"><ele>209.0</ele><time>2026-04-11T17:58:05.041Z</time></trkpt><trkpt lat="44.6415617" lon="7.9820083"><ele>209.0</ele><time>2026-04-11T17:58:07.041Z</time></trkpt><trkpt lat="44.6414717" lon="7.9820517"><ele>209.0</ele><time>2026-04-11T17:58:09.041Z</time></trkpt><trkpt lat="44.641375" lon="7.9820933"><ele>209.0</ele><time>2026-04-11T17:58:11.04Z</time></trkpt><trkpt lat="44.6412767" lon="7.982135"><ele>209.0</ele><time>2026-04-11T17:58:13.042Z</time></trkpt><trkpt lat="44.6411783" lon="7.98217"><ele>209.0</ele><time>2026-04-11T17:58:15.041Z</time></trkpt><trkpt lat="44.6410767" lon="7.9822067"><ele>208.79999999999998</ele><time>2026-04-11T17:58:17.04Z</time></trkpt><trkpt lat="44.64098" lon="7.982235"><ele>208.6</ele><time>2026-04-11T17:58:19.04Z</time></trkpt><trkpt lat="44.640885" lon="7.9822667"><ele>208.4</ele><time>2026-04-11T17:58:21.041Z</time></trkpt><trkpt lat="44.640795" lon="7.9823017"><ele>208.2</ele><time>2026-04-11T17:58:23.04Z</time></trkpt><trkpt lat="44.6407033" lon="7.98233"><ele>208.0</ele><time>2026-04-11T17:58:25.041Z</time></trkpt><trkpt lat="44.640615" lon="7.982365"><ele>207.99999999999997</ele><time>2026-04-11T17:58:27.041Z</time></trkpt><trkpt lat="44.64053" lon="7.982395"><ele>208.0</ele><time>2026-04-11T17:58:29.042Z</time></trkpt><trkpt lat="44.640445" lon="7.9824233"><ele>208.0</ele><time>2026-04-11T17:58:31.04Z</time></trkpt><trkpt lat="44.6403583" lon="7.9824617"><ele>208.0</ele><time>2026-04-11T17:58:33.042Z</time></trkpt><trkpt lat="44.6402733" lon="7.98249"><ele>207.99999999999997</ele><time>2026-04-11T17:58:35.041Z</time></trkpt><trkpt lat="44.6401867" lon="7.982515"><ele>208.0</ele><time>2026-04-11T17:58:37.041Z</time></trkpt><trkpt lat="44.6400967" lon="7.982545"><ele>210.0</ele><time>2026-04-11T17:58:39.041Z</time></trkpt><trkpt lat="44.6400117" lon="7.982575"><ele>212.0</ele><time>2026-04-11T17:58:41.04Z</time></trkpt><trkpt lat="44.63992" lon="7.9826017"><ele>214.0</ele><time>2026-04-11T17:58:43.04Z</time></trkpt><trkpt lat="44.6398283" lon="7.982625"><ele>216.0</ele><time>2026-04-11T17:58:45.041Z</time></trkpt><trkpt lat="44.63974" lon="7.9826467"><ele>218.0</ele><time>2026-04-11T17:58:47.041Z</time></trkpt><trkpt lat="44.639655" lon="7.9826617"><ele>218.00000000000003</ele><time>2026-04-11T17:58:49.042Z</time></trkpt><trkpt lat="44.6395633" lon="7.9826733"><ele>218.0</ele><time>2026-04-11T17:58:51.043Z</time></trkpt><trkpt lat="44.6394733" lon="7.9826833"><ele>218.0</ele><time>2026-04-11T17:58:53.042Z</time></trkpt><trkpt lat="44.6393883" lon="7.9826933"><ele>218.0</ele><time>2026-04-11T17:58:55.041Z</time></trkpt><trkpt lat="44.6393033" lon="7.982705"><ele>218.00000000000003</ele><time>2026-04-11T17:58:57.041Z</time></trkpt><trkpt lat="44.6392217" lon="7.9827133"><ele>218.0</ele><time>2026-04-11T17:58:59.04Z</time></trkpt><trkpt lat="44.6391417" lon="7.98272"><ele>217.66666666666669</ele><time>2026-04-11T17:59:01.041Z</time></trkpt><trkpt lat="44.63906" lon="7.9827283"><ele>217.33333333333334</ele><time>2026-04-11T17:59:03.041Z</time></trkpt><trkpt lat="44.63898" lon="7.9827367"><ele>217.0</ele><time>2026-04-11T17:59:05.041Z</time></trkpt><trkpt lat="44.6389033" lon="7.98275"><ele>216.66666666666669</ele><time>2026-04-11T17:59:07.041Z</time></trkpt><trkpt lat="44.6388267" lon="7.982765"><ele>216.33333333333334</ele><time>2026-04-11T17:59:09.042Z</time></trkpt><trkpt lat="44.6387467" lon="7.982775"><ele>216.0</ele><time>2026-04-11T17:59:11.041Z</time></trkpt><trkpt lat="44.638665" lon="7.9828"><ele>216.0</ele><time>2026-04-11T17:59:13.041Z</time></trkpt><trkpt lat="44.6385817" lon="7.9828283"><ele>216.0</ele><time>2026-04-11T17:59:15.041Z</time></trkpt><trkpt lat="44.638535" lon="7.9828917"><ele>216.0</ele><time>2026-04-11T17:59:18.041Z</time></trkpt><trkpt lat="44.6386117" lon="7.9829"><ele>216.0</ele><time>2026-04-11T17:59:21.044Z</time></trkpt><trkpt lat="44.6386983" lon="7.9828567"><ele>216.0</ele><time>2026-04-11T17:59:24.042Z</time></trkpt><trkpt lat="44.638785" lon="7.9828417"><ele>216.0</ele><time>2026-04-11T17:59:27.041Z</time></trkpt><trkpt lat="44.6388633" lon="7.982835"><ele>216.0</ele><time>2026-04-11T17:59:30.04Z</time></trkpt><trkpt lat="44.6388267" lon="7.9829183"><ele>216.0</ele><time>2026-04-11T17:59:38.04Z</time></trkpt><trkpt lat="44.63876" lon="7.9829283"><ele>216.0</ele><time>2026-04-11T17:59:41.041Z</time></trkpt><trkpt lat="44.6386767" lon="7.98295"><ele>216.0</ele><time>2026-04-11T17:59:44.04Z</time></trkpt><trkpt lat="44.6385917" lon="7.98301"><ele>216.0</ele><time>2026-04-11T17:59:47.041Z</time></trkpt><trkpt lat="44.6385217" lon="7.9830817"><ele>216.0</ele><time>2026-04-11T17:59:50.042Z</time></trkpt><trkpt lat="44.6384733" lon="7.983175"><ele>215.5</ele><time>2026-04-11T17:59:53.041Z</time></trkpt><trkpt lat="44.638415" lon="7.9832617"><ele>215.0</ele><time>2026-04-11T17:59:56.042Z</time></trkpt><trkpt lat="44.63836" lon="7.983355"><ele>214.5</ele><time>2026-04-11T17:59:59.04Z</time></trkpt><trkpt lat="44.6383033" lon="7.9834583"><ele>214.0</ele><time>2026-04-11T18:00:02.041Z</time></trkpt><trkpt lat="44.638265" lon="7.9835733"><ele>213.5</ele><time>2026-04-11T18:00:05.04Z</time></trkpt><trkpt lat="44.6382267" lon="7.983695"><ele>213.0</ele><time>2026-04-11T18:00:08.042Z</time></trkpt><trkpt lat="44.6382017" lon="7.9838083"><ele>214.16666666666666</ele><time>2026-04-11T18:00:11.04Z</time></trkpt><trkpt lat="44.6381917" lon="7.9839333"><ele>215.33333333333331</ele><time>2026-04-11T18:00:14.04Z</time></trkpt><trkpt lat="44.6381883" lon="7.9840217"><ele>216.5</ele><time>2026-04-11T18:00:16.041Z</time></trkpt><trkpt lat="44.63818" lon="7.9841117"><ele>217.66666666666666</ele><time>2026-04-11T18:00:18.041Z</time></trkpt><trkpt lat="44.6381683" lon="7.9842417"><ele>218.83333333333331</ele><time>2026-04-11T18:00:21.043Z</time></trkpt><trkpt lat="44.6381633" lon="7.98433"><ele>220.0</ele><time>2026-04-11T18:00:23.04Z</time></trkpt><trkpt lat="44.6381733" lon="7.98446"><ele>220.49999999999997</ele><time>2026-04-11T18:00:26.042Z</time></trkpt><trkpt lat="44.6381767" lon="7.98459"><ele>221.0</ele><time>2026-04-11T18:00:29.042Z</time></trkpt><trkpt lat="44.638195" lon="7.9847133"><ele>221.5</ele><time>2026-04-11T18:00:32.041Z</time></trkpt><trkpt lat="44.63822" lon="7.9848267"><ele>222.0</ele><time>2026-04-11T18:00:35.042Z</time></trkpt><trkpt lat="44.6382483" lon="7.9849367"><ele>222.49999999999997</ele><time>2026-04-11T18:00:38.041Z</time></trkpt><trkpt lat="44.638285" lon="7.9850483"><ele>223.0</ele><time>2026-04-11T18:00:41.041Z</time></trkpt><trkpt lat="44.6383133" lon="7.98517"><ele>223.42857142857142</ele><time>2026-04-11T18:00:44.041Z</time></trkpt><trkpt lat="44.6383383" lon="7.9852767"><ele>223.85714285714283</ele><time>2026-04-11T18:00:47.042Z</time></trkpt><trkpt lat="44.6383717" lon="7.9853617"><ele>224.28571428571428</ele><time>2026-04-11T18:00:50.042Z</time></trkpt><trkpt lat="44.6384017" lon="7.9854533"><ele>224.71428571428572</ele><time>2026-04-11T18:00:53.04Z</time></trkpt><trkpt lat="44.6384267" lon="7.9855367"><ele>225.14285714285714</ele><time>2026-04-11T18:00:56.042Z</time></trkpt><trkpt lat="44.6384483" lon="7.9856333"><ele>225.57142857142858</ele><time>2026-04-11T18:00:59.04Z</time></trkpt><trkpt lat="44.6384667" lon="7.985735"><ele>226.0</ele><time>2026-04-11T18:01:02.041Z</time></trkpt><trkpt lat="44.638485" lon="7.98583"><ele>226.57142857142858</ele><time>2026-04-11T18:01:05.041Z</time></trkpt><trkpt lat="44.6384933" lon="7.9859333"><ele>227.1428571428571</ele><time>2026-04-11T18:01:08.042Z</time></trkpt><trkpt lat="44.6385133" lon="7.986025"><ele>227.7142857142857</ele><time>2026-04-11T18:01:11.04Z</time></trkpt><trkpt lat="44.6385217" lon="7.98612"><ele>228.28571428571428</ele><time>2026-04-11T18:01:14.041Z</time></trkpt><trkpt lat="44.638525" lon="7.9862383"><ele>228.85714285714283</ele><time>2026-04-11T18:01:17.04Z</time></trkpt><trkpt lat="44.638535" lon="7.98634"><ele>229.4285714285714</ele><time>2026-04-11T18:01:20.042Z</time></trkpt><trkpt lat="44.6385433" lon="7.98645"><ele>229.99999999999997</ele><time>2026-04-11T18:01:24.041Z</time></trkpt><trkpt lat="44.638555" lon="7.986545"><ele>229.99999999999997</ele><time>2026-04-11T18:01:28.04Z</time></trkpt><trkpt lat="44.6385617" lon="7.9866583"><ele>230.0</ele><time>2026-04-11T18:01:32.04Z</time></trkpt><trkpt lat="44.6385417" lon="7.9867517"><ele>229.99999999999997</ele><time>2026-04-11T18:01:35.04Z</time></trkpt><trkpt lat="44.638545" lon="7.9868433"><ele>229.99999999999997</ele><time>2026-04-11T18:01:39.041Z</time></trkpt><trkpt lat="44.6385267" lon="7.9869433"><ele>230.0</ele><time>2026-04-11T18:01:43.042Z</time></trkpt><trkpt lat="44.6385283" lon="7.987035"><ele>229.99999999999997</ele><time>2026-04-11T18:01:46.04Z</time></trkpt><trkpt lat="44.6385333" lon="7.9871233"><ele>229.99999999999997</ele><time>2026-04-11T18:01:49.041Z</time></trkpt><trkpt lat="44.6385383" lon="7.98724"><ele>230.1428571428571</ele><time>2026-04-11T18:01:53.041Z</time></trkpt><trkpt lat="44.6385217" lon="7.9873283"><ele>230.28571428571428</ele><time>2026-04-11T18:01:56.041Z</time></trkpt><trkpt lat="44.6385183" lon="7.9874217"><ele>230.42857142857142</ele><time>2026-04-11T18:01:59.04Z</time></trkpt><trkpt lat="44.638525" lon="7.9875133"><ele>230.57142857142856</ele><time>2026-04-11T18:02:02.041Z</time></trkpt><trkpt lat="44.6385367" lon="7.9876183"><ele>230.71428571428572</ele><time>2026-04-11T18:02:06.042Z</time></trkpt><trkpt lat="44.6385383" lon="7.9877267"><ele>230.85714285714286</ele><time>2026-04-11T18:02:10.042Z</time></trkpt><trkpt lat="44.6385583" lon="7.987825"><ele>231.0</ele><time>2026-04-11T18:02:14.041Z</time></trkpt><trkpt lat="44.6385517" lon="7.9879333"><ele>231.71428571428572</ele><time>2026-04-11T18:02:18.042Z</time></trkpt><trkpt lat="44.638545" lon="7.9880367"><ele>232.42857142857144</ele><time>2026-04-11T18:02:22.04Z</time></trkpt><trkpt lat="44.6385767" lon="7.9881183"><ele>233.14285714285714</ele><time>2026-04-11T18:02:25.041Z</time></trkpt><trkpt lat="44.6386467" lon="7.988105"><ele>233.85714285714286</ele><time>2026-04-11T18:02:30.042Z</time></trkpt><trkpt lat="44.6386733" lon="7.988005"><ele>234.57142857142858</ele><time>2026-04-11T18:02:35.042Z</time></trkpt><trkpt lat="44.6387033" lon="7.98791"><ele>235.28571428571428</ele><time>2026-04-11T18:02:39.042Z</time></trkpt><trkpt lat="44.6387283" lon="7.987825"><ele>236.0</ele><time>2026-04-11T18:02:42.04Z</time></trkpt><trkpt lat="44.6387717" lon="7.9877183"><ele>238.00000000000003</ele><time>2026-04-11T18:02:45.041Z</time></trkpt><trkpt lat="44.6387883" lon="7.987605"><ele>240.0</ele><time>2026-04-11T18:02:48.042Z</time></trkpt><trkpt lat="44.63879" lon="7.9874883"><ele>242.0</ele><time>2026-04-11T18:02:51.042Z</time></trkpt><trkpt lat="44.6388217" lon="7.9873733"><ele>244.0</ele><time>2026-04-11T18:02:54.04Z</time></trkpt><trkpt lat="44.6388483" lon="7.98726"><ele>246.00000000000003</ele><time>2026-04-11T18:02:57.041Z</time></trkpt><trkpt lat="44.63887" lon="7.9871433"><ele>248.0</ele><time>2026-04-11T18:03:00.04Z</time></trkpt><trkpt lat="44.6388983" lon="7.987025"><ele>248.00000000000003</ele><time>2026-04-11T18:03:03.041Z</time></trkpt><trkpt lat="44.638905" lon="7.9869317"><ele>248.0</ele><time>2026-04-11T18:03:06.04Z</time></trkpt><trkpt lat="44.6389017" lon="7.9868133"><ele>248.0</ele><time>2026-04-11T18:03:09.041Z</time></trkpt><trkpt lat="44.6389033" lon="7.9867"><ele>248.0</ele><time>2026-04-11T18:03:11.04Z</time></trkpt><trkpt lat="44.6389083" lon="7.9866"><ele>248.00000000000003</ele><time>2026-04-11T18:03:13.041Z</time></trkpt><trkpt lat="44.63892" lon="7.9864867"><ele>248.0</ele><time>2026-04-11T18:03:15.04Z</time></trkpt><trkpt lat="44.63893" lon="7.9863817"><ele>247.33333333333334</ele><time>2026-04-11T18:03:17.042Z</time></trkpt><trkpt lat="44.6389333" lon="7.9862817"><ele>246.66666666666669</ele><time>2026-04-11T18:03:19.042Z</time></trkpt><trkpt lat="44.6389333" lon="7.9861817"><ele>246.0</ele><time>2026-04-11T18:03:21.043Z</time></trkpt><trkpt lat="44.63896" lon="7.9860617"><ele>245.33333333333331</ele><time>2026-04-11T18:03:24.04Z</time></trkpt><trkpt lat="44.638975" lon="7.9859617"><ele>244.66666666666666</ele><time>2026-04-11T18:03:26.041Z</time></trkpt><trkpt lat="44.6389783" lon="7.985845"><ele>244.0</ele><time>2026-04-11T18:03:28.04Z</time></trkpt><trkpt lat="44.6389917" lon="7.9857183"><ele>243.16666666666666</ele><time>2026-04-11T18:03:30.042Z</time></trkpt><trkpt lat="44.639" lon="7.9856117"><ele>242.33333333333331</ele><time>2026-04-11T18:03:32.042Z</time></trkpt><trkpt lat="44.639" lon="7.9855133"><ele>241.5</ele><time>2026-04-11T18:03:34.042Z</time></trkpt><trkpt lat="44.638975" lon="7.9853933"><ele>240.66666666666669</ele><time>2026-04-11T18:03:37.041Z</time></trkpt><trkpt lat="44.6389683" lon="7.985305"><ele>239.83333333333334</ele><time>2026-04-11T18:03:40.041Z</time></trkpt><trkpt lat="44.638945" lon="7.9851967"><ele>239.0</ele><time>2026-04-11T18:03:44.041Z</time></trkpt><trkpt lat="44.6389183" lon="7.9850967"><ele>239.28571428571433</ele><time>2026-04-11T18:03:48.042Z</time></trkpt><trkpt lat="44.6388967" lon="7.9850083"><ele>239.57142857142858</ele><time>2026-04-11T18:03:51.042Z</time></trkpt><trkpt lat="44.638875" lon="7.9849233"><ele>239.8571428571429</ele><time>2026-04-11T18:03:54.041Z</time></trkpt><trkpt lat="44.638855" lon="7.9848167"><ele>240.14285714285717</ele><time>2026-04-11T18:03:58.041Z</time></trkpt><trkpt lat="44.6388483" lon="7.9847133"><ele>240.42857142857144</ele><time>2026-04-11T18:04:02.04Z</time></trkpt><trkpt lat="44.6388717" lon="7.9846283"><ele>240.71428571428572</ele><time>2026-04-11T18:04:06.04Z</time></trkpt><trkpt lat="44.6389183" lon="7.9845467"><ele>241.0</ele><time>2026-04-11T18:04:11.042Z</time></trkpt><trkpt lat="44.6389833" lon="7.9845033"><ele>241.0</ele><time>2026-04-11T18:04:16.04Z</time></trkpt><trkpt lat="44.63906" lon="7.9844983"><ele>241.00000000000003</ele><time>2026-04-11T18:04:21.041Z</time></trkpt><trkpt lat="44.6391217" lon="7.98452"><ele>241.0</ele><time>2026-04-11T18:04:26.041Z</time></trkpt><trkpt lat="44.6392017" lon="7.9845667"><ele>241.0</ele><time>2026-04-11T18:04:34.04Z</time></trkpt><trkpt lat="44.63927" lon="7.98461"><ele>241.00000000000003</ele><time>2026-04-11T18:04:40.041Z</time></trkpt><trkpt lat="44.6393333" lon="7.9846567"><ele>241.0</ele><time>2026-04-11T18:04:46.041Z</time></trkpt><trkpt lat="44.6393933" lon="7.9846967"><ele>241.0</ele><time>2026-04-11T18:04:52.042Z</time></trkpt><trkpt lat="44.6394583" lon="7.984745"><ele>243.0</ele><time>2026-04-11T18:04:58.041Z</time></trkpt><trkpt lat="44.6395233" lon="7.9847617"><ele>245.00000000000003</ele><time>2026-04-11T18:05:04.041Z</time></trkpt><trkpt lat="44.639595" lon="7.984765"><ele>247.0</ele><time>2026-04-11T18:05:10.04Z</time></trkpt><trkpt lat="44.639665" lon="7.9847517"><ele>249.0</ele><time>2026-04-11T18:05:16.04Z</time></trkpt><trkpt lat="44.639735" lon="7.9847617"><ele>251.00000000000003</ele><time>2026-04-11T18:05:21.042Z</time></trkpt><trkpt lat="44.6398033" lon="7.9847667"><ele>253.0</ele><time>2026-04-11T18:05:26.041Z</time></trkpt><trkpt lat="44.6398717" lon="7.9847367"><ele>255.0</ele><time>2026-04-11T18:05:30.04Z</time></trkpt><trkpt lat="44.6399467" lon="7.9847067"><ele>255.0</ele><time>2026-04-11T18:05:34.042Z</time></trkpt><trkpt lat="44.64002" lon="7.984685"><ele>255.0</ele><time>2026-04-11T18:05:37.043Z</time></trkpt><trkpt lat="44.64011" lon="7.984675"><ele>255.0</ele><time>2026-04-11T18:05:40.04Z</time></trkpt><trkpt lat="44.640205" lon="7.9846517"><ele>255.0</ele><time>2026-04-11T18:05:43.042Z</time></trkpt><trkpt lat="44.6402817" lon="7.9846383"><ele>255.0</ele><time>2026-04-11T18:05:45.041Z</time></trkpt><trkpt lat="44.6403517" lon="7.9846267"><ele>255.0</ele><time>2026-04-11T18:05:47.04Z</time></trkpt><trkpt lat="44.6404217" lon="7.9846183"><ele>253.66666666666666</ele><time>2026-04-11T18:05:49.043Z</time></trkpt><trkpt lat="44.6404967" lon="7.9846133"><ele>252.33333333333331</ele><time>2026-04-11T18:05:51.042Z</time></trkpt><trkpt lat="44.6405733" lon="7.9846217"><ele>251.0</ele><time>2026-04-11T18:05:53.042Z</time></trkpt><trkpt lat="44.640645" lon="7.98464"><ele>249.66666666666666</ele><time>2026-04-11T18:05:55.041Z</time></trkpt><trkpt lat="44.6407117" lon="7.9846733"><ele>248.33333333333331</ele><time>2026-04-11T18:05:57.044Z</time></trkpt><trkpt lat="44.6407717" lon="7.984765"><ele>247.0</ele><time>2026-04-11T18:06:00.041Z</time></trkpt><trkpt lat="44.6407983" lon="7.984875"><ele>247.0</ele><time>2026-04-11T18:06:03.041Z</time></trkpt><trkpt lat="44.6408033" lon="7.98498"><ele>247.0</ele><time>2026-04-11T18:06:06.041Z</time></trkpt><trkpt lat="44.6408033" lon="7.9850817"><ele>247.0</ele><time>2026-04-11T18:06:09.042Z</time></trkpt><trkpt lat="44.6407933" lon="7.9851883"><ele>247.0</ele><time>2026-04-11T18:06:13.041Z</time></trkpt><trkpt lat="44.6407683" lon="7.98527"><ele>247.0</ele><time>2026-04-11T18:06:16.041Z</time></trkpt><trkpt lat="44.64075" lon="7.9853617"><ele>247.0</ele><time>2026-04-11T18:06:20.042Z</time></trkpt><trkpt lat="44.6407717" lon="7.98527"><ele>247.0</ele><time>2026-04-11T18:06:26.04Z</time></trkpt><trkpt lat="44.64078" lon="7.9851817"><ele>246.99999999999997</ele><time>2026-04-11T18:06:28.041Z</time></trkpt><trkpt lat="44.6407933" lon="7.98507"><ele>247.0</ele><time>2026-04-11T18:06:30.041Z</time></trkpt><trkpt lat="44.6407917" lon="7.9849417"><ele>247.0</ele><time>2026-04-11T18:06:32.041Z</time></trkpt><trkpt lat="44.6407867" lon="7.9848367"><ele>247.0</ele><time>2026-04-11T18:06:34.041Z</time></trkpt><trkpt lat="44.6408333" lon="7.98475"><ele>246.99999999999997</ele><time>2026-04-11T18:06:37.041Z</time></trkpt><trkpt lat="44.6409083" lon="7.98477"><ele>247.0</ele><time>2026-04-11T18:06:39.042Z</time></trkpt><trkpt lat="44.64098" lon="7.984855"><ele>247.0</ele><time>2026-04-11T18:06:41.04Z</time></trkpt><trkpt lat="44.64105" lon="7.984985"><ele>247.0</ele><time>2026-04-11T18:06:43.04Z</time></trkpt><trkpt lat="44.6411083" lon="7.9851317"><ele>247.0</ele><time>2026-04-11T18:06:45.041Z</time></trkpt><trkpt lat="44.6411683" lon="7.98528"><ele>247.0</ele><time>2026-04-11T18:06:47.041Z</time></trkpt><trkpt lat="44.6412233" lon="7.98542"><ele>246.16666666666666</ele><time>2026-04-11T18:06:49.04Z</time></trkpt><trkpt lat="44.6412767" lon="7.9855367"><ele>245.33333333333331</ele><time>2026-04-11T18:06:51.041Z</time></trkpt><trkpt lat="44.6413317" lon="7.9855967"><ele>244.5</ele><time>2026-04-11T18:06:53.04Z</time></trkpt><trkpt lat="44.6414117" lon="7.9856183"><ele>243.66666666666669</ele><time>2026-04-11T18:06:56.044Z</time></trkpt><trkpt lat="44.6415017" lon="7.985605"><ele>242.83333333333334</ele><time>2026-04-11T18:06:59.041Z</time></trkpt><trkpt lat="44.641575" lon="7.9855867"><ele>242.0</ele><time>2026-04-11T18:07:01.041Z</time></trkpt><trkpt lat="44.641645" lon="7.9855667"><ele>242.0</ele><time>2026-04-11T18:07:03.041Z</time></trkpt><trkpt lat="44.64171" lon="7.9855517"><ele>241.99999999999997</ele><time>2026-04-11T18:07:05.04Z</time></trkpt><trkpt lat="44.6417733" lon="7.98555"><ele>242.0</ele><time>2026-04-11T18:07:09.041Z</time></trkpt><trkpt lat="44.641695" lon="7.985545"><ele>242.0</ele><time>2026-04-11T18:07:23.041Z</time></trkpt><trkpt lat="44.64162" lon="7.9855583"><ele>241.99999999999997</ele><time>2026-04-11T18:07:27.041Z</time></trkpt><trkpt lat="44.6415533" lon="7.98558"><ele>242.0</ele><time>2026-04-11T18:07:30.042Z</time></trkpt><trkpt lat="44.6414883" lon="7.985605"><ele>242.0</ele><time>2026-04-11T18:07:33.041Z</time></trkpt><trkpt lat="44.641425" lon="7.98561"><ele>242.00000000000003</ele><time>2026-04-11T18:07:36.04Z</time></trkpt><trkpt lat="44.6413517" lon="7.9855867"><ele>242.0</ele><time>2026-04-11T18:07:40.041Z</time></trkpt><trkpt lat="44.641375" lon="7.9854833"><ele>242.0</ele><time>2026-04-11T18:07:45.04Z</time></trkpt><trkpt lat="44.64145" lon="7.9853967"><ele>242.0</ele><time>2026-04-11T18:07:47.04Z</time></trkpt><trkpt lat="44.6415233" lon="7.9853017"><ele>242.00000000000003</ele><time>2026-04-11T18:07:49.041Z</time></trkpt><trkpt lat="44.6415717" lon="7.985245"><ele>242.0</ele><time>2026-04-11T18:07:51.041Z</time></trkpt><trkpt lat="44.6432239" lon="7.9856256"><ele>204.0</ele><time>2026-04-11T18:11:21.489Z</time></trkpt><trkpt lat="44.6413123" lon="7.9774501"><ele>248.0</ele><time>2026-04-11T18:12:00.626Z</time></trkpt><trkpt lat="44.6388044" lon="7.9868325"><ele>246.0</ele><time>2026-04-11T18:21:06.466Z</time></trkpt><trkpt lat="44.6387999" lon="7.9863466"><ele>244.0</ele><time>2026-04-11T18:21:12.201Z</time></trkpt><trkpt lat="44.6333127" lon="7.9929617"><ele>308.0</ele><time>2026-04-11T18:22:52.46Z</time></trkpt><trkpt lat="44.6329161" lon="7.9933249"><ele>308.0</ele><time>2026-04-11T18:22:58.79Z</time></trkpt><trkpt lat="44.6330073" lon="7.993004"><ele>308.0</ele><time>2026-04-11T18:23:18.506Z</time></trkpt><trkpt lat="44.6325309" lon="7.9927878"><ele>307.0</ele><time>2026-04-11T18:23:28.674Z</time></trkpt><trkpt lat="44.6305795" lon="7.9916114"><ele>313.0</ele><time>2026-04-11T18:23:56.281Z</time></trkpt><trkpt lat="44.6299549" lon="7.9915682"><ele>315.0</ele><time>2026-04-11T18:24:25.158Z</time></trkpt><trkpt lat="44.6294681" lon="7.9915562"><ele>313.0</ele><time>2026-04-11T18:24:57.25Z</time></trkpt><trkpt lat="44.6290915" lon="7.9918816"><ele>311.0</ele><time>2026-04-11T18:25:12.638Z</time></trkpt><trkpt lat="44.6277581" lon="7.9932857"><ele>317.6666666666667</ele><time>2026-04-11T18:25:46.912Z</time></trkpt><trkpt lat="44.6276174" lon="7.9932016"><ele>324.3333333333333</ele><time>2026-04-11T18:25:58.98Z</time></trkpt><trkpt lat="44.6275483" lon="7.9931752"><ele>331.0</ele><time>2026-04-11T18:26:27.95Z</time></trkpt><trkpt lat="44.6264801" lon="7.9946072"><ele>341.0</ele><time>2026-04-11T18:27:38.279Z</time></trkpt><trkpt lat="44.6186738" lon="7.9936875"><ele>340.5</ele><time>2026-04-11T18:30:28.577Z</time></trkpt><trkpt lat="44.6185282" lon="7.9935687"><ele>340.0</ele><time>2026-04-11T18:31:27.199Z</time></trkpt><trkpt lat="44.6133964" lon="8.0010553"><ele>390.0</ele><time>2026-04-11T18:31:45.402Z</time></trkpt><trkpt lat="44.6109127" lon="7.9986628"><ele>380.0</ele><time>2026-04-11T18:32:02.631Z</time></trkpt><trkpt lat="44.6166664" lon="7.9996809"><ele>371.0</ele><time>2026-04-11T18:33:06.803Z</time></trkpt><trkpt lat="44.6130889" lon="8.0013828"><ele>380.0</ele><time>2026-04-11T18:34:18.572Z</time></trkpt><trkpt lat="44.6116386" lon="8.0004935"><ele>380.0</ele><time>2026-04-11T18:36:13.859Z</time></trkpt><trkpt lat="44.6112089" lon="8.0004542"><ele>380.0</ele><time>2026-04-11T18:37:10.5Z</time></trkpt><trkpt lat="44.6108784" lon="7.9997913"><ele>388.5</ele><time>2026-04-11T18:37:16.799Z</time></trkpt><trkpt lat="44.6108021" lon="7.9994678"><ele>397.0</ele><time>2026-04-11T18:37:23.097Z</time></trkpt><trkpt lat="44.610945" lon="8.0004133"><ele>397.00000000000006</ele><time>2026-04-11T18:37:26.989Z</time></trkpt><trkpt lat="44.6108733" lon="8.000395"><ele>397.0</ele><time>2026-04-11T18:37:28.993Z</time></trkpt><trkpt lat="44.6109933" lon="8.0002767"><ele>397.0</ele><time>2026-04-11T18:38:21.04Z</time></trkpt><trkpt lat="44.6109733" lon="8.0003667"><ele>397.0</ele><time>2026-04-11T18:39:40.041Z</time></trkpt><trkpt lat="44.6109983" lon="8.0004533"><ele>397.00000000000006</ele><time>2026-04-11T18:39:44.041Z</time></trkpt><trkpt lat="44.61099" lon="8.0005517"><ele>397.0</ele><time>2026-04-11T18:39:49.043Z</time></trkpt><trkpt lat="44.6109367" lon="8.0004983"><ele>397.0</ele><time>2026-04-11T18:40:06.041Z</time></trkpt><trkpt lat="44.610955" lon="8.0004083"><ele>397.0</ele><time>2026-04-11T18:40:11.041Z</time></trkpt><trkpt lat="44.6109183" lon="8.000325"><ele>397.0</ele><time>2026-04-11T18:40:18.041Z</time></trkpt><trkpt lat="44.6108917" lon="8.0002283"><ele>397.0</ele><time>2026-04-11T18:40:25.043Z</time></trkpt><trkpt lat="44.6108467" lon="8.0001633"><ele>397.0</ele><time>2026-04-11T18:40:32.041Z</time></trkpt><trkpt lat="44.6107817" lon="8.0001417"><ele>397.0</ele><time>2026-04-11T18:40:41.041Z</time></trkpt><trkpt lat="44.610725" lon="8.000095"><ele>397.0</ele><time>2026-04-11T18:40:48.041Z</time></trkpt><trkpt lat="44.61066" lon="8.0000633"><ele>397.0</ele><time>2026-04-11T18:40:54.041Z</time></trkpt><trkpt lat="44.6106017" lon="8.00011"><ele>397.0</ele><time>2026-04-11T18:41:00.043Z</time></trkpt><trkpt lat="44.610555" lon="8.00017"><ele>397.0</ele><time>2026-04-11T18:41:07.041Z</time></trkpt><trkpt lat="44.6106183" lon="8.00014"><ele>397.0</ele><time>2026-04-11T18:41:14.041Z</time></trkpt><trkpt lat="44.610575" lon="8.0000733"><ele>397.0</ele><time>2026-04-11T18:41:28.042Z</time></trkpt><trkpt lat="44.6104917" lon="8.000105"><ele>397.0</ele><time>2026-04-11T18:42:25.041Z</time></trkpt><trkpt lat="44.61041" lon="8.0001367"><ele>397.0</ele><time>2026-04-11T18:42:38.04Z</time></trkpt><trkpt lat="44.6103683" lon="8.00021"><ele>397.0</ele><time>2026-04-11T18:42:42.04Z</time></trkpt><trkpt lat="44.6103517" lon="8.0002983"><ele>397.0</ele><time>2026-04-11T18:42:46.041Z</time></trkpt><trkpt lat="44.6103717" lon="8.000385"><ele>397.0</ele><time>2026-04-11T18:42:50.041Z</time></trkpt><trkpt lat="44.6104267" lon="8.000445"><ele>397.0</ele><time>2026-04-11T18:42:55.041Z</time></trkpt><trkpt lat="44.6103567" lon="8.0005267"><ele>397.0</ele><time>2026-04-11T18:44:17.041Z</time></trkpt><trkpt lat="44.6102883" lon="8.0005117"><ele>397.0</ele><time>2026-04-11T18:45:18.041Z</time></trkpt><trkpt lat="44.6102433" lon="8.0004233"><ele>397.0</ele><time>2026-04-11T18:45:21.042Z</time></trkpt><trkpt lat="44.6101483" lon="8.00038"><ele>396.33333333333337</ele><time>2026-04-11T18:45:26.04Z</time></trkpt><trkpt lat="44.6100533" lon="8.0004117"><ele>395.6666666666667</ele><time>2026-04-11T18:45:29.041Z</time></trkpt><trkpt lat="44.6099733" lon="8.0003933"><ele>395.0</ele><time>2026-04-11T18:45:31.041Z</time></trkpt><trkpt lat="44.6098967" lon="8.000375"><ele>394.33333333333337</ele><time>2026-04-11T18:45:33.042Z</time></trkpt><trkpt lat="44.60982" lon="8.0003517"><ele>393.6666666666667</ele><time>2026-04-11T18:45:35.04Z</time></trkpt><trkpt lat="44.609755" lon="8.0003517"><ele>393.0</ele><time>2026-04-11T18:45:37.042Z</time></trkpt><trkpt lat="44.6096567" lon="8.0003433"><ele>393.0</ele><time>2026-04-11T18:45:40.041Z</time></trkpt><trkpt lat="44.6095733" lon="8.0003033"><ele>393.0</ele><time>2026-04-11T18:45:43.042Z</time></trkpt><trkpt lat="44.6094917" lon="8.000345"><ele>393.0</ele><time>2026-04-11T18:45:46.041Z</time></trkpt><trkpt lat="44.6094317" lon="8.0003867"><ele>393.0</ele><time>2026-04-11T18:45:48.041Z</time></trkpt><trkpt lat="44.6093583" lon="8.0004167"><ele>393.0</ele><time>2026-04-11T18:45:50.04Z</time></trkpt><trkpt lat="44.6092933" lon="8.0004483"><ele>393.0</ele><time>2026-04-11T18:45:52.041Z</time></trkpt><trkpt lat="44.6092367" lon="8.0004967"><ele>391.3333333333333</ele><time>2026-04-11T18:45:54.041Z</time></trkpt><trkpt lat="44.6091767" lon="8.0005283"><ele>389.6666666666667</ele><time>2026-04-11T18:45:56.041Z</time></trkpt><trkpt lat="44.6090833" lon="8.0005617"><ele>388.0</ele><time>2026-04-11T18:45:59.041Z</time></trkpt><trkpt lat="44.609005" lon="8.0005783"><ele>386.33333333333337</ele><time>2026-04-11T18:46:01.042Z</time></trkpt><trkpt lat="44.608935" lon="8.0005967"><ele>384.6666666666667</ele><time>2026-04-11T18:46:03.041Z</time></trkpt><trkpt lat="44.608855" lon="8.0005933"><ele>383.0</ele><time>2026-04-11T18:46:05.041Z</time></trkpt><trkpt lat="44.6087717" lon="8.0006083"><ele>383.0</ele><time>2026-04-11T18:46:07.042Z</time></trkpt><trkpt lat="44.6086867" lon="8.0006183"><ele>383.0</ele><time>2026-04-11T18:46:09.042Z</time></trkpt><trkpt lat="44.60861" lon="8.0006133"><ele>383.0</ele><time>2026-04-11T18:46:11.041Z</time></trkpt><trkpt lat="44.6085333" lon="8.0006"><ele>383.0</ele><time>2026-04-11T18:46:13.041Z</time></trkpt><trkpt lat="44.6084517" lon="8.000575"><ele>383.0</ele><time>2026-04-11T18:46:15.041Z</time></trkpt><trkpt lat="44.6083733" lon="8.000555"><ele>383.0</ele><time>2026-04-11T18:46:17.042Z</time></trkpt><trkpt lat="44.6083017" lon="8.000535"><ele>383.33333333333337</ele><time>2026-04-11T18:46:19.041Z</time></trkpt><trkpt lat="44.608205" lon="8.0004933"><ele>383.6666666666667</ele><time>2026-04-11T18:46:22.041Z</time></trkpt><trkpt lat="44.6081333" lon="8.0005"><ele>384.0</ele><time>2026-04-11T18:46:24.041Z</time></trkpt><trkpt lat="44.6080383" lon="8.000455"><ele>384.33333333333337</ele><time>2026-04-11T18:46:26.041Z</time></trkpt><trkpt lat="44.607965" lon="8.0004183"><ele>384.6666666666667</ele><time>2026-04-11T18:46:28.041Z</time></trkpt><trkpt lat="44.6078833" lon="8.0003867"><ele>385.0</ele><time>2026-04-11T18:46:30.04Z</time></trkpt><trkpt lat="44.6078033" lon="8.0003583"><ele>385.0</ele><time>2026-04-11T18:46:32.041Z</time></trkpt><trkpt lat="44.6077283" lon="8.0003283"><ele>385.0</ele><time>2026-04-11T18:46:34.04Z</time></trkpt><trkpt lat="44.6076567" lon="8.0002917"><ele>385.0</ele><time>2026-04-11T18:46:36.041Z</time></trkpt><trkpt lat="44.6075933" lon="8.0002733"><ele>385.0</ele><time>2026-04-11T18:46:38.04Z</time></trkpt><trkpt lat="44.6075267" lon="8.0002517"><ele>385.0</ele><time>2026-04-11T18:46:40.042Z</time></trkpt><trkpt lat="44.6074483" lon="8.0002117"><ele>385.0</ele><time>2026-04-11T18:46:43.042Z</time></trkpt><trkpt lat="44.6073833" lon="8.000185"><ele>385.0</ele><time>2026-04-11T18:46:45.041Z</time></trkpt><trkpt lat="44.6073033" lon="8.0001367"><ele>385.00000000000006</ele><time>2026-04-11T18:46:48.041Z</time></trkpt><trkpt lat="44.6072433" lon="8.0000867"><ele>385.0</ele><time>2026-04-11T18:46:50.041Z</time></trkpt><trkpt lat="44.60716" lon="8.0000083"><ele>385.0</ele><time>2026-04-11T18:46:53.041Z</time></trkpt><trkpt lat="44.6070867" lon="7.9999417"><ele>385.0</ele><time>2026-04-11T18:46:55.041Z</time></trkpt><trkpt lat="44.60703" lon="7.999885"><ele>385.00000000000006</ele><time>2026-04-11T18:46:57.041Z</time></trkpt><trkpt lat="44.606965" lon="7.9998317"><ele>385.0</ele><time>2026-04-11T18:46:59.043Z</time></trkpt><trkpt lat="44.6068967" lon="7.99977"><ele>386.2</ele><time>2026-04-11T18:47:01.041Z</time></trkpt><trkpt lat="44.606815" lon="7.9997"><ele>387.4</ele><time>2026-04-11T18:47:03.041Z</time></trkpt><trkpt lat="44.6067367" lon="7.99964"><ele>388.6</ele><time>2026-04-11T18:47:05.04Z</time></trkpt><trkpt lat="44.6066467" lon="7.9996"><ele>389.8</ele><time>2026-04-11T18:47:07.041Z</time></trkpt><trkpt lat="44.6065467" lon="7.9995867"><ele>391.0</ele><time>2026-04-11T18:47:09.042Z</time></trkpt><trkpt lat="44.60643" lon="7.99959"><ele>391.00000000000006</ele><time>2026-04-11T18:47:11.042Z</time></trkpt><trkpt lat="44.606305" lon="7.9996033"><ele>391.0</ele><time>2026-04-11T18:47:13.041Z</time></trkpt><trkpt lat="44.60623" lon="7.9995967"><ele>391.0</ele><time>2026-04-11T18:47:14.041Z</time></trkpt><trkpt lat="44.6061583" lon="7.9996017"><ele>391.0</ele><time>2026-04-11T18:47:15.041Z</time></trkpt><trkpt lat="44.6060867" lon="7.9995983"><ele>391.00000000000006</ele><time>2026-04-11T18:47:16.041Z</time></trkpt><trkpt lat="44.606005" lon="7.999585"><ele>391.0</ele><time>2026-04-11T18:47:17.043Z</time></trkpt><trkpt lat="44.6059267" lon="7.9995683"><ele>389.99999999999994</ele><time>2026-04-11T18:47:18.041Z</time></trkpt><trkpt lat="44.60585" lon="7.9995517"><ele>389.0</ele><time>2026-04-11T18:47:19.042Z</time></trkpt><trkpt lat="44.6057783" lon="7.99953"><ele>388.0</ele><time>2026-04-11T18:47:20.041Z</time></trkpt><trkpt lat="44.6057083" lon="7.9995067"><ele>387.0</ele><time>2026-04-11T18:47:21.043Z</time></trkpt><trkpt lat="44.6056383" lon="7.9994867"><ele>386.0</ele><time>2026-04-11T18:47:22.041Z</time></trkpt><trkpt lat="44.60557" lon="7.9994633"><ele>384.99999999999994</ele><time>2026-04-11T18:47:23.041Z</time></trkpt><trkpt lat="44.6055033" lon="7.9994367"><ele>384.0</ele><time>2026-04-11T18:47:24.041Z</time></trkpt><trkpt lat="44.6054383" lon="7.9994133"><ele>384.0</ele><time>2026-04-11T18:47:25.041Z</time></trkpt><trkpt lat="44.6053717" lon="7.9993883"><ele>384.0</ele><time>2026-04-11T18:47:26.041Z</time></trkpt><trkpt lat="44.60531" lon="7.9993667"><ele>384.0</ele><time>2026-04-11T18:47:27.041Z</time></trkpt><trkpt lat="44.605245" lon="7.999345"><ele>384.0</ele><time>2026-04-11T18:47:28.041Z</time></trkpt><trkpt lat="44.6051833" lon="7.9993183"><ele>384.0</ele><time>2026-04-11T18:47:29.041Z</time></trkpt><trkpt lat="44.60507" lon="7.9992867"><ele>384.0</ele><time>2026-04-11T18:47:31.042Z</time></trkpt><trkpt lat="44.6049667" lon="7.9992467"><ele>383.3333333333333</ele><time>2026-04-11T18:47:33.042Z</time></trkpt><trkpt lat="44.6048733" lon="7.9992183"><ele>382.6666666666667</ele><time>2026-04-11T18:47:35.041Z</time></trkpt><trkpt lat="44.6047917" lon="7.999195"><ele>382.0</ele><time>2026-04-11T18:47:37.041Z</time></trkpt><trkpt lat="44.6047167" lon="7.9991567"><ele>381.33333333333337</ele><time>2026-04-11T18:47:39.041Z</time></trkpt><trkpt lat="44.6046417" lon="7.9991283"><ele>380.6666666666667</ele><time>2026-04-11T18:47:41.041Z</time></trkpt><trkpt lat="44.60457" lon="7.9991033"><ele>380.0</ele><time>2026-04-11T18:47:43.041Z</time></trkpt><trkpt lat="44.6045017" lon="7.99908"><ele>380.42857142857144</ele><time>2026-04-11T18:47:45.043Z</time></trkpt><trkpt lat="44.604435" lon="7.9990733"><ele>380.8571428571429</ele><time>2026-04-11T18:47:47.041Z</time></trkpt><trkpt lat="44.60437" lon="7.999055"><ele>381.2857142857143</ele><time>2026-04-11T18:47:49.044Z</time></trkpt><trkpt lat="44.6042967" lon="7.9990333"><ele>381.7142857142857</ele><time>2026-04-11T18:47:51.042Z</time></trkpt><trkpt lat="44.604225" lon="7.9990167"><ele>382.1428571428571</ele><time>2026-04-11T18:47:53.041Z</time></trkpt><trkpt lat="44.6041517" lon="7.9990183"><ele>382.57142857142856</ele><time>2026-04-11T18:47:55.042Z</time></trkpt><trkpt lat="44.604065" lon="7.9990017"><ele>383.0</ele><time>2026-04-11T18:47:57.042Z</time></trkpt><trkpt lat="44.6039733" lon="7.9989883"><ele>383.0</ele><time>2026-04-11T18:47:59.041Z</time></trkpt><trkpt lat="44.6038783" lon="7.9989833"><ele>383.0</ele><time>2026-04-11T18:48:01.041Z</time></trkpt><trkpt lat="44.6037833" lon="7.9989833"><ele>383.0</ele><time>2026-04-11T18:48:03.042Z</time></trkpt><trkpt lat="44.6036867" lon="7.998985"><ele>383.0</ele><time>2026-04-11T18:48:05.043Z</time></trkpt><trkpt lat="44.6035867" lon="7.9989983"><ele>383.0</ele><time>2026-04-11T18:48:07.043Z</time></trkpt><trkpt lat="44.6034883" lon="7.999015"><ele>382.0</ele><time>2026-04-11T18:48:09.043Z</time></trkpt><trkpt lat="44.6033933" lon="7.9990233"><ele>381.0</ele><time>2026-04-11T18:48:11.04Z</time></trkpt><trkpt lat="44.6033033" lon="7.9990433"><ele>380.0</ele><time>2026-04-11T18:48:13.041Z</time></trkpt><trkpt lat="44.60321" lon="7.9990533"><ele>379.0</ele><time>2026-04-11T18:48:15.041Z</time></trkpt><trkpt lat="44.60311" lon="7.9990767"><ele>378.0</ele><time>2026-04-11T18:48:17.041Z</time></trkpt><trkpt lat="44.6030117" lon="7.999105"><ele>378.0</ele><time>2026-04-11T18:48:19.042Z</time></trkpt><trkpt lat="44.602915" lon="7.999135"><ele>378.0</ele><time>2026-04-11T18:48:21.042Z</time></trkpt><trkpt lat="44.602815" lon="7.9991633"><ele>378.0</ele><time>2026-04-11T18:48:23.042Z</time></trkpt><trkpt lat="44.6027183" lon="7.9991917"><ele>378.0</ele><time>2026-04-11T18:48:25.041Z</time></trkpt><trkpt lat="44.6026267" lon="7.9992167"><ele>378.0</ele><time>2026-04-11T18:48:27.041Z</time></trkpt><trkpt lat="44.60254" lon="7.9992317"><ele>377.8333333333333</ele><time>2026-04-11T18:48:29.041Z</time></trkpt><trkpt lat="44.602455" lon="7.9992517"><ele>377.6666666666667</ele><time>2026-04-11T18:48:31.041Z</time></trkpt><trkpt lat="44.60238" lon="7.9992783"><ele>377.5</ele><time>2026-04-11T18:48:33.043Z</time></trkpt><trkpt lat="44.6023067" lon="7.9993017"><ele>377.33333333333337</ele><time>2026-04-11T18:48:35.041Z</time></trkpt><trkpt lat="44.6022317" lon="7.9993217"><ele>377.1666666666667</ele><time>2026-04-11T18:48:37.043Z</time></trkpt><trkpt lat="44.6021633" lon="7.9993417"><ele>377.0</ele><time>2026-04-11T18:48:39.042Z</time></trkpt><trkpt lat="44.6020967" lon="7.999365"><ele>377.0</ele><time>2026-04-11T18:48:41.042Z</time></trkpt><trkpt lat="44.6020267" lon="7.9993767"><ele>377.0</ele><time>2026-04-11T18:48:43.04Z</time></trkpt><trkpt lat="44.6019517" lon="7.9993917"><ele>377.0</ele><time>2026-04-11T18:48:45.041Z</time></trkpt><trkpt lat="44.601875" lon="7.9994133"><ele>377.0</ele><time>2026-04-11T18:48:47.041Z</time></trkpt><trkpt lat="44.6018" lon="7.9994367"><ele>377.0</ele><time>2026-04-11T18:48:49.041Z</time></trkpt><trkpt lat="44.6017233" lon="7.9994567"><ele>377.0</ele><time>2026-04-11T18:48:51.041Z</time></trkpt><trkpt lat="44.601645" lon="7.9994733"><ele>377.20000000000005</ele><time>2026-04-11T18:48:53.041Z</time></trkpt><trkpt lat="44.6015633" lon="7.9994933"><ele>377.4</ele><time>2026-04-11T18:48:55.04Z</time></trkpt><trkpt lat="44.601475" lon="7.9995167"><ele>377.6</ele><time>2026-04-11T18:48:57.043Z</time></trkpt><trkpt lat="44.6013767" lon="7.999545"><ele>377.79999999999995</ele><time>2026-04-11T18:48:59.042Z</time></trkpt><trkpt lat="44.601265" lon="7.9995617"><ele>378.0</ele><time>2026-04-11T18:49:01.04Z</time></trkpt><trkpt lat="44.6011433" lon="7.9995933"><ele>378.0</ele><time>2026-04-11T18:49:03.041Z</time></trkpt><trkpt lat="44.6010783" lon="7.99961"><ele>378.0</ele><time>2026-04-11T18:49:04.04Z</time></trkpt><trkpt lat="44.6010117" lon="7.9996283"><ele>378.0</ele><time>2026-04-11T18:49:05.041Z</time></trkpt><trkpt lat="44.6009417" lon="7.9996483"><ele>378.0</ele><time>2026-04-11T18:49:06.04Z</time></trkpt><trkpt lat="44.6008683" lon="7.99967"><ele>378.0</ele><time>2026-04-11T18:49:07.041Z</time></trkpt><trkpt lat="44.6007933" lon="7.99969"><ele>378.0</ele><time>2026-04-11T18:49:08.041Z</time></trkpt><trkpt lat="44.6007183" lon="7.9997133"><ele>378.0</ele><time>2026-04-11T18:49:09.041Z</time></trkpt><trkpt lat="44.600645" lon="7.99974"><ele>378.0</ele><time>2026-04-11T18:49:10.041Z</time></trkpt><trkpt lat="44.60057" lon="7.9997633"><ele>378.0</ele><time>2026-04-11T18:49:11.04Z</time></trkpt><trkpt lat="44.6004983" lon="7.9997917"><ele>378.0</ele><time>2026-04-11T18:49:12.04Z</time></trkpt><trkpt lat="44.6004233" lon="7.999835"><ele>378.0</ele><time>2026-04-11T18:49:13.043Z</time></trkpt><trkpt lat="44.6003483" lon="7.9998883"><ele>378.0</ele><time>2026-04-11T18:49:14.04Z</time></trkpt><trkpt lat="44.600275" lon="7.9999483"><ele>378.0</ele><time>2026-04-11T18:49:15.041Z</time></trkpt><trkpt lat="44.600205" lon="8.0000217"><ele>378.0</ele><time>2026-04-11T18:49:16.04Z</time></trkpt><trkpt lat="44.6001433" lon="8.0000967"><ele>378.0</ele><time>2026-04-11T18:49:17.04Z</time></trkpt><trkpt lat="44.6000883" lon="8.00018"><ele>378.0</ele><time>2026-04-11T18:49:18.04Z</time></trkpt><trkpt lat="44.6000383" lon="8.0002617"><ele>378.0</ele><time>2026-04-11T18:49:19.044Z</time></trkpt><trkpt lat="44.5999933" lon="8.0003467"><ele>378.0</ele><time>2026-04-11T18:49:20.041Z</time></trkpt><trkpt lat="44.599955" lon="8.00043"><ele>378.0</ele><time>2026-04-11T18:49:21.043Z</time></trkpt><trkpt lat="44.5999167" lon="8.0005133"><ele>378.0</ele><time>2026-04-11T18:49:22.041Z</time></trkpt><trkpt lat="44.59988" lon="8.0005967"><ele>378.0</ele><time>2026-04-11T18:49:23.041Z</time></trkpt><trkpt lat="44.5998483" lon="8.0006783"><ele>378.0</ele><time>2026-04-11T18:49:24.042Z</time></trkpt><trkpt lat="44.599815" lon="8.0007567"><ele>378.0</ele><time>2026-04-11T18:49:25.041Z</time></trkpt><trkpt lat="44.5997683" lon="8.00091"><ele>378.0</ele><time>2026-04-11T18:49:27.041Z</time></trkpt><trkpt lat="44.5997467" lon="8.0010717"><ele>378.0</ele><time>2026-04-11T18:49:29.04Z</time></trkpt><trkpt lat="44.5997517" lon="8.00123"><ele>378.1666666666667</ele><time>2026-04-11T18:49:31.04Z</time></trkpt><trkpt lat="44.5997733" lon="8.0013783"><ele>378.3333333333333</ele><time>2026-04-11T18:49:33.041Z</time></trkpt><trkpt lat="44.5997967" lon="8.0015133"><ele>378.5</ele><time>2026-04-11T18:49:35.042Z</time></trkpt><trkpt lat="44.5998133" lon="8.0016367"><ele>378.66666666666663</ele><time>2026-04-11T18:49:37.042Z</time></trkpt><trkpt lat="44.5998267" lon="8.0017433"><ele>378.8333333333333</ele><time>2026-04-11T18:49:39.042Z</time></trkpt><trkpt lat="44.5998467" lon="8.0018367"><ele>379.0</ele><time>2026-04-11T18:49:41.04Z</time></trkpt><trkpt lat="44.5998683" lon="8.0019233"><ele>379.3333333333333</ele><time>2026-04-11T18:49:43.041Z</time></trkpt><trkpt lat="44.5998917" lon="8.00204"><ele>379.66666666666663</ele><time>2026-04-11T18:49:46.041Z</time></trkpt><trkpt lat="44.5999083" lon="8.0021533"><ele>380.0</ele><time>2026-04-11T18:49:49.041Z</time></trkpt><trkpt lat="44.5999217" lon="8.0022617"><ele>380.3333333333333</ele><time>2026-04-11T18:49:52.042Z</time></trkpt><trkpt lat="44.5999217" lon="8.0023717"><ele>380.6666666666667</ele><time>2026-04-11T18:49:55.041Z</time></trkpt><trkpt lat="44.5999267" lon="8.0024733"><ele>381.0</ele><time>2026-04-11T18:49:58.041Z</time></trkpt><trkpt lat="44.5999283" lon="8.002575"><ele>381.57142857142856</ele><time>2026-04-11T18:50:01.044Z</time></trkpt><trkpt lat="44.5999333" lon="8.0026783"><ele>382.14285714285717</ele><time>2026-04-11T18:50:04.042Z</time></trkpt><trkpt lat="44.5999417" lon="8.002775"><ele>382.7142857142857</ele><time>2026-04-11T18:50:07.042Z</time></trkpt><trkpt lat="44.5999483" lon="8.0028717"><ele>383.2857142857143</ele><time>2026-04-11T18:50:10.044Z</time></trkpt><trkpt lat="44.599975" lon="8.002965"><ele>383.8571428571429</ele><time>2026-04-11T18:50:13.042Z</time></trkpt><trkpt lat="44.600005" lon="8.0030583"><ele>384.42857142857144</ele><time>2026-04-11T18:50:16.042Z</time></trkpt><trkpt lat="44.600045" lon="8.0031467"><ele>385.0</ele><time>2026-04-11T18:50:19.043Z</time></trkpt><trkpt lat="44.6000817" lon="8.0032417"><ele>385.00000000000006</ele><time>2026-04-11T18:50:22.043Z</time></trkpt><trkpt lat="44.60013" lon="8.0033283"><ele>385.0</ele><time>2026-04-11T18:50:25.043Z</time></trkpt><trkpt lat="44.60018" lon="8.00341"><ele>385.0</ele><time>2026-04-11T18:50:28.042Z</time></trkpt><trkpt lat="44.6002283" lon="8.003505"><ele>385.0</ele><time>2026-04-11T18:50:31.045Z</time></trkpt><trkpt lat="44.6002783" lon="8.0035967"><ele>385.00000000000006</ele><time>2026-04-11T18:50:34.043Z</time></trkpt><trkpt lat="44.600325" lon="8.0036683"><ele>385.0</ele><time>2026-04-11T18:50:37.042Z</time></trkpt><trkpt lat="44.6003683" lon="8.003745"><ele>384.42857142857144</ele><time>2026-04-11T18:50:40.043Z</time></trkpt><trkpt lat="44.6004117" lon="8.0038267"><ele>383.8571428571429</ele><time>2026-04-11T18:50:43.043Z</time></trkpt><trkpt lat="44.60045" lon="8.0039117"><ele>383.2857142857143</ele><time>2026-04-11T18:50:46.043Z</time></trkpt><trkpt lat="44.6004967" lon="8.0039933"><ele>382.7142857142857</ele><time>2026-04-11T18:50:49.043Z</time></trkpt><trkpt lat="44.600535" lon="8.0040733"><ele>382.14285714285717</ele><time>2026-04-11T18:50:52.042Z</time></trkpt><trkpt lat="44.6005817" lon="8.0041517"><ele>381.57142857142856</ele><time>2026-04-11T18:50:55.044Z</time></trkpt><trkpt lat="44.6006233" lon="8.00423"><ele>381.0</ele><time>2026-04-11T18:50:58.042Z</time></trkpt><trkpt lat="44.6006667" lon="8.0043217"><ele>382.5</ele><time>2026-04-11T18:51:02.042Z</time></trkpt><trkpt lat="44.6007217" lon="8.0044083"><ele>384.0</ele><time>2026-04-11T18:51:06.042Z</time></trkpt><trkpt lat="44.6007617" lon="8.0044983"><ele>385.5</ele><time>2026-04-11T18:51:10.043Z</time></trkpt><trkpt lat="44.6007983" lon="8.004585"><ele>387.0</ele><time>2026-04-11T18:51:13.042Z</time></trkpt><trkpt lat="44.60084" lon="8.0046617"><ele>388.5</ele><time>2026-04-11T18:51:16.043Z</time></trkpt><trkpt lat="44.600895" lon="8.0047467"><ele>390.0</ele><time>2026-04-11T18:51:20.047Z</time></trkpt><trkpt lat="44.6009217" lon="8.0048467"><ele>390.0</ele><time>2026-04-11T18:51:24.043Z</time></trkpt><trkpt lat="44.6008883" lon="8.004945"><ele>390.0</ele><time>2026-04-11T18:51:28.042Z</time></trkpt><trkpt lat="44.6008183" lon="8.0049933"><ele>390.0</ele><time>2026-04-11T18:51:32.041Z</time></trkpt><trkpt lat="44.6007533" lon="8.004965"><ele>390.0</ele><time>2026-04-11T18:51:36.041Z</time></trkpt><trkpt lat="44.60071" lon="8.004895"><ele>390.0</ele><time>2026-04-11T18:51:40.04Z</time></trkpt><trkpt lat="44.6006667" lon="8.0048017"><ele>390.0</ele><time>2026-04-11T18:51:44.04Z</time></trkpt><trkpt lat="44.60062" lon="8.004725"><ele>390.0</ele><time>2026-04-11T18:51:47.04Z</time></trkpt><trkpt lat="44.6005833" lon="8.0046517"><ele>390.0</ele><time>2026-04-11T18:51:50.042Z</time></trkpt><trkpt lat="44.600555" lon="8.0045717"><ele>390.0</ele><time>2026-04-11T18:51:53.042Z</time></trkpt><trkpt lat="44.6005233" lon="8.004495"><ele>390.0</ele><time>2026-04-11T18:51:56.041Z</time></trkpt><trkpt lat="44.6004783" lon="8.0044167"><ele>390.0</ele><time>2026-04-11T18:52:00.04Z</time></trkpt><trkpt lat="44.600425" lon="8.00435"><ele>390.0</ele><time>2026-04-11T18:52:04.041Z</time></trkpt><trkpt lat="44.6003783" lon="8.0042667"><ele>390.0</ele><time>2026-04-11T18:52:08.041Z</time></trkpt><trkpt lat="44.6003317" lon="8.0042067"><ele>390.0</ele><time>2026-04-11T18:52:11.041Z</time></trkpt><trkpt lat="44.6002717" lon="8.0041633"><ele>390.57142857142856</ele><time>2026-04-11T18:52:14.04Z</time></trkpt><trkpt lat="44.60021" lon="8.0041133"><ele>391.1428571428571</ele><time>2026-04-11T18:52:18.042Z</time></trkpt><trkpt lat="44.6001533" lon="8.0040717"><ele>391.7142857142857</ele><time>2026-04-11T18:52:21.042Z</time></trkpt><trkpt lat="44.6000833" lon="8.0040733"><ele>392.2857142857143</ele><time>2026-04-11T18:52:24.04Z</time></trkpt><trkpt lat="44.6000183" lon="8.0040517"><ele>392.8571428571429</ele><time>2026-04-11T18:52:27.045Z</time></trkpt><trkpt lat="44.599945" lon="8.0040633"><ele>393.42857142857144</ele><time>2026-04-11T18:52:31.04Z</time></trkpt><trkpt lat="44.5998817" lon="8.00413"><ele>394.0</ele><time>2026-04-11T18:52:35.04Z</time></trkpt><trkpt lat="44.59985" lon="8.0042283"><ele>395.7142857142857</ele><time>2026-04-11T18:52:39.041Z</time></trkpt><trkpt lat="44.59982" lon="8.0043117"><ele>397.42857142857144</ele><time>2026-04-11T18:52:43.041Z</time></trkpt><trkpt lat="44.5998117" lon="8.0044017"><ele>399.1428571428571</ele><time>2026-04-11T18:52:47.04Z</time></trkpt><trkpt lat="44.5998" lon="8.0045033"><ele>400.8571428571429</ele><time>2026-04-11T18:52:51.044Z</time></trkpt><trkpt lat="44.5998017" lon="8.00461"><ele>402.57142857142856</ele><time>2026-04-11T18:52:55.041Z</time></trkpt><trkpt lat="44.59979" lon="8.00473"><ele>404.2857142857143</ele><time>2026-04-11T18:52:59.041Z</time></trkpt><trkpt lat="44.599775" lon="8.0048383"><ele>406.0</ele><time>2026-04-11T18:53:03.042Z</time></trkpt><trkpt lat="44.5997617" lon="8.00493"><ele>405.57142857142856</ele><time>2026-04-11T18:53:07.042Z</time></trkpt><trkpt lat="44.59973" lon="8.005025"><ele>405.1428571428571</ele><time>2026-04-11T18:53:11.04Z</time></trkpt><trkpt lat="44.5997067" lon="8.0051217"><ele>404.7142857142857</ele><time>2026-04-11T18:53:15.041Z</time></trkpt><trkpt lat="44.5996733" lon="8.0052133"><ele>404.2857142857143</ele><time>2026-04-11T18:53:19.044Z</time></trkpt><trkpt lat="44.59964" lon="8.005295"><ele>403.85714285714283</ele><time>2026-04-11T18:53:23.04Z</time></trkpt><trkpt lat="44.5995817" lon="8.00536"><ele>403.42857142857144</ele><time>2026-04-11T18:53:27.041Z</time></trkpt><trkpt lat="44.599525" lon="8.0054117"><ele>403.0</ele><time>2026-04-11T18:53:31.04Z</time></trkpt><trkpt lat="44.59947" lon="8.0054667"><ele>403.0</ele><time>2026-04-11T18:53:35.04Z</time></trkpt><trkpt lat="44.5994067" lon="8.0055383"><ele>403.0</ele><time>2026-04-11T18:53:39.041Z</time></trkpt><trkpt lat="44.599345" lon="8.0055917"><ele>403.0</ele><time>2026-04-11T18:53:43.041Z</time></trkpt><trkpt lat="44.5992783" lon="8.0056483"><ele>403.0</ele><time>2026-04-11T18:53:47.041Z</time></trkpt><trkpt lat="44.5992167" lon="8.0057067"><ele>403.0</ele><time>2026-04-11T18:53:51.041Z</time></trkpt><trkpt lat="44.599155" lon="8.0057567"><ele>403.0</ele><time>2026-04-11T18:53:55.041Z</time></trkpt><trkpt lat="44.5991033" lon="8.0058117"><ele>403.0</ele><time>2026-04-11T18:53:59.042Z</time></trkpt><trkpt lat="44.5990567" lon="8.0058733"><ele>404.0</ele><time>2026-04-11T18:54:03.041Z</time></trkpt><trkpt lat="44.5990017" lon="8.0059367"><ele>405.0</ele><time>2026-04-11T18:54:07.041Z</time></trkpt><trkpt lat="44.5989317" lon="8.0059883"><ele>406.0</ele><time>2026-04-11T18:54:11.04Z</time></trkpt><trkpt lat="44.59887" lon="8.0060517"><ele>407.0</ele><time>2026-04-11T18:54:15.041Z</time></trkpt><trkpt lat="44.5988083" lon="8.0061083"><ele>408.0</ele><time>2026-04-11T18:54:19.04Z</time></trkpt><trkpt lat="44.5987517" lon="8.006155"><ele>409.0</ele><time>2026-04-11T18:54:22.04Z</time></trkpt><trkpt lat="44.5986933" lon="8.0061933"><ele>410.0</ele><time>2026-04-11T18:54:25.04Z</time></trkpt><trkpt lat="44.598635" lon="8.0062367"><ele>410.0</ele><time>2026-04-11T18:54:28.04Z</time></trkpt><trkpt lat="44.59857" lon="8.00628"><ele>410.0</ele><time>2026-04-11T18:54:31.041Z</time></trkpt><trkpt lat="44.59851" lon="8.0063267"><ele>410.0</ele><time>2026-04-11T18:54:34.041Z</time></trkpt><trkpt lat="44.5984467" lon="8.00637"><ele>410.0</ele><time>2026-04-11T18:54:37.041Z</time></trkpt><trkpt lat="44.5983817" lon="8.0064033"><ele>410.0</ele><time>2026-04-11T18:54:40.041Z</time></trkpt><trkpt lat="44.5983183" lon="8.0064383"><ele>410.0</ele><time>2026-04-11T18:54:43.041Z</time></trkpt><trkpt lat="44.5982517" lon="8.0064617"><ele>410.0</ele><time>2026-04-11T18:54:46.04Z</time></trkpt><trkpt lat="44.5981817" lon="8.006505"><ele>409.99999999999994</ele><time>2026-04-11T18:54:49.04Z</time></trkpt><trkpt lat="44.59811" lon="8.0065467"><ele>410.0</ele><time>2026-04-11T18:54:52.04Z</time></trkpt><trkpt lat="44.5980333" lon="8.0065767"><ele>410.0</ele><time>2026-04-11T18:54:55.042Z</time></trkpt><trkpt lat="44.5979517" lon="8.0066083"><ele>410.0</ele><time>2026-04-11T18:54:58.042Z</time></trkpt><trkpt lat="44.597875" lon="8.0066267"><ele>409.99999999999994</ele><time>2026-04-11T18:55:01.041Z</time></trkpt><trkpt lat="44.59779" lon="8.0066517"><ele>410.0</ele><time>2026-04-11T18:55:04.042Z</time></trkpt><trkpt lat="44.5977017" lon="8.0066667"><ele>412.0</ele><time>2026-04-11T18:55:07.042Z</time></trkpt><trkpt lat="44.597635" lon="8.0066867"><ele>414.0</ele><time>2026-04-11T18:55:09.041Z</time></trkpt><trkpt lat="44.5975617" lon="8.0066967"><ele>416.0</ele><time>2026-04-11T18:55:11.041Z</time></trkpt><trkpt lat="44.5974917" lon="8.0067083"><ele>418.0</ele><time>2026-04-11T18:55:13.042Z</time></trkpt><trkpt lat="44.59742" lon="8.0067183"><ele>420.0</ele><time>2026-04-11T18:55:15.044Z</time></trkpt><trkpt lat="44.597345" lon="8.00673"><ele>422.0</ele><time>2026-04-11T18:55:17.04Z</time></trkpt><trkpt lat="44.5972683" lon="8.00674"><ele>424.0</ele><time>2026-04-11T18:55:19.043Z</time></trkpt><trkpt lat="44.5971933" lon="8.00675"><ele>424.00000000000006</ele><time>2026-04-11T18:55:21.042Z</time></trkpt><trkpt lat="44.597115" lon="8.00676"><ele>424.0</ele><time>2026-04-11T18:55:23.04Z</time></trkpt><trkpt lat="44.5970317" lon="8.006755"><ele>424.0</ele><time>2026-04-11T18:55:25.041Z</time></trkpt><trkpt lat="44.5969517" lon="8.0067367"><ele>424.0</ele><time>2026-04-11T18:55:27.044Z</time></trkpt><trkpt lat="44.596865" lon="8.0067133"><ele>424.00000000000006</ele><time>2026-04-11T18:55:29.041Z</time></trkpt><trkpt lat="44.5967883" lon="8.00667"><ele>424.0</ele><time>2026-04-11T18:55:31.04Z</time></trkpt><trkpt lat="44.5967183" lon="8.0066117"><ele>422.50000000000006</ele><time>2026-04-11T18:55:33.041Z</time></trkpt><trkpt lat="44.5966533" lon="8.006545"><ele>421.0</ele><time>2026-04-11T18:55:35.04Z</time></trkpt><trkpt lat="44.5965883" lon="8.006465"><ele>419.5</ele><time>2026-04-11T18:55:37.042Z</time></trkpt><trkpt lat="44.5965267" lon="8.0063817"><ele>418.0</ele><time>2026-04-11T18:55:39.042Z</time></trkpt><trkpt lat="44.596475" lon="8.0062933"><ele>416.50000000000006</ele><time>2026-04-11T18:55:41.042Z</time></trkpt><trkpt lat="44.5964167" lon="8.006205"><ele>415.0</ele><time>2026-04-11T18:55:43.042Z</time></trkpt><trkpt lat="44.5963567" lon="8.0061267"><ele>415.00000000000006</ele><time>2026-04-11T18:55:45.042Z</time></trkpt><trkpt lat="44.5962983" lon="8.00605"><ele>415.0</ele><time>2026-04-11T18:55:47.041Z</time></trkpt><trkpt lat="44.596245" lon="8.0059617"><ele>415.0</ele><time>2026-04-11T18:55:49.042Z</time></trkpt><trkpt lat="44.59619" lon="8.0058783"><ele>415.0</ele><time>2026-04-11T18:55:51.041Z</time></trkpt><trkpt lat="44.5961433" lon="8.0057883"><ele>415.00000000000006</ele><time>2026-04-11T18:55:53.04Z</time></trkpt><trkpt lat="44.5960983" lon="8.0057017"><ele>415.0</ele><time>2026-04-11T18:55:55.041Z</time></trkpt><trkpt lat="44.5960617" lon="8.0056033"><ele>414.6666666666667</ele><time>2026-04-11T18:55:57.041Z</time></trkpt><trkpt lat="44.5960417" lon="8.0054867"><ele>414.33333333333337</ele><time>2026-04-11T18:55:59.04Z</time></trkpt><trkpt lat="44.59602" lon="8.0053733"><ele>414.0</ele><time>2026-04-11T18:56:01.042Z</time></trkpt><trkpt lat="44.5959983" lon="8.0052667"><ele>413.66666666666663</ele><time>2026-04-11T18:56:03.041Z</time></trkpt><trkpt lat="44.5959783" lon="8.0051633"><ele>413.3333333333333</ele><time>2026-04-11T18:56:05.043Z</time></trkpt><trkpt lat="44.5959483" lon="8.0050833"><ele>413.0</ele><time>2026-04-11T18:56:07.041Z</time></trkpt><trkpt lat="44.5959233" lon="8.0049817"><ele>413.0</ele><time>2026-04-11T18:56:10.04Z</time></trkpt><trkpt lat="44.59591" lon="8.0048917"><ele>413.0</ele><time>2026-04-11T18:56:13.041Z</time></trkpt><trkpt lat="44.595835" lon="8.0048883"><ele>413.0</ele><time>2026-04-11T18:57:20.041Z</time></trkpt><trkpt lat="44.595765" lon="8.004875"><ele>413.0</ele><time>2026-04-11T18:57:23.043Z</time></trkpt><trkpt lat="44.5956917" lon="8.00486"><ele>413.0</ele><time>2026-04-11T18:57:25.041Z</time></trkpt><trkpt lat="44.5956217" lon="8.0048317"><ele>413.0</ele><time>2026-04-11T18:57:27.043Z</time></trkpt><trkpt lat="44.5955333" lon="8.00483"><ele>413.0</ele><time>2026-04-11T18:57:30.041Z</time></trkpt><trkpt lat="44.5954667" lon="8.0048233"><ele>412.99999999999994</ele><time>2026-04-11T18:57:33.042Z</time></trkpt><trkpt lat="44.5953817" lon="8.004785"><ele>413.0</ele><time>2026-04-11T18:57:36.042Z</time></trkpt><trkpt lat="44.5953233" lon="8.0047367"><ele>413.0</ele><time>2026-04-11T18:57:38.04Z</time></trkpt><trkpt lat="44.5952667" lon="8.00469"><ele>413.0</ele><time>2026-04-11T18:57:40.041Z</time></trkpt><trkpt lat="44.59519" lon="8.0046217"><ele>412.99999999999994</ele><time>2026-04-11T18:57:43.04Z</time></trkpt><trkpt lat="44.5951183" lon="8.00456"><ele>413.0</ele><time>2026-04-11T18:57:46.04Z</time></trkpt><trkpt lat="44.5950617" lon="8.0045067"><ele>412.42857142857144</ele><time>2026-04-11T18:57:48.041Z</time></trkpt><trkpt lat="44.5949983" lon="8.0044483"><ele>411.8571428571429</ele><time>2026-04-11T18:57:50.041Z</time></trkpt><trkpt lat="44.594945" lon="8.0043917"><ele>411.2857142857143</ele><time>2026-04-11T18:57:52.041Z</time></trkpt><trkpt lat="44.5948867" lon="8.0043417"><ele>410.7142857142857</ele><time>2026-04-11T18:57:54.041Z</time></trkpt><trkpt lat="44.5948333" lon="8.0042883"><ele>410.14285714285717</ele><time>2026-04-11T18:57:56.041Z</time></trkpt><trkpt lat="44.5947817" lon="8.00423"><ele>409.57142857142856</ele><time>2026-04-11T18:57:58.042Z</time></trkpt><trkpt lat="44.5947133" lon="8.0041483"><ele>409.0</ele><time>2026-04-11T18:58:01.044Z</time></trkpt><trkpt lat="44.5946683" lon="8.0040733"><ele>409.0</ele><time>2026-04-11T18:58:03.042Z</time></trkpt><trkpt lat="44.5946117" lon="8.003975"><ele>409.0</ele><time>2026-04-11T18:58:05.04Z</time></trkpt><trkpt lat="44.594555" lon="8.0038817"><ele>409.0</ele><time>2026-04-11T18:58:07.04Z</time></trkpt><trkpt lat="44.5945" lon="8.0037833"><ele>409.0</ele><time>2026-04-11T18:58:09.042Z</time></trkpt><trkpt lat="44.5944433" lon="8.0036817"><ele>409.0</ele><time>2026-04-11T18:58:11.041Z</time></trkpt><trkpt lat="44.5943817" lon="8.0035817"><ele>411.1666666666667</ele><time>2026-04-11T18:58:13.04Z</time></trkpt><trkpt lat="44.5943183" lon="8.0034833"><ele>413.33333333333337</ele><time>2026-04-11T18:58:15.041Z</time></trkpt><trkpt lat="44.5942583" lon="8.00339"><ele>415.5</ele><time>2026-04-11T18:58:17.041Z</time></trkpt><trkpt lat="44.5941933" lon="8.0033083"><ele>417.66666666666663</ele><time>2026-04-11T18:58:19.04Z</time></trkpt><trkpt lat="44.5941217" lon="8.0032367"><ele>419.8333333333333</ele><time>2026-04-11T18:58:21.042Z</time></trkpt><trkpt lat="44.594045" lon="8.00317"><ele>422.0</ele><time>2026-04-11T18:58:23.04Z</time></trkpt><trkpt lat="44.5939683" lon="8.0031067"><ele>421.99999999999994</ele><time>2026-04-11T18:58:25.041Z</time></trkpt><trkpt lat="44.59389" lon="8.0030567"><ele>422.0</ele><time>2026-04-11T18:58:27.041Z</time></trkpt><trkpt lat="44.593815" lon="8.003"><ele>422.0</ele><time>2026-04-11T18:58:29.041Z</time></trkpt><trkpt lat="44.5937383" lon="8.0029417"><ele>422.0</ele><time>2026-04-11T18:58:31.04Z</time></trkpt><trkpt lat="44.593665" lon="8.0028867"><ele>421.99999999999994</ele><time>2026-04-11T18:58:33.041Z</time></trkpt><trkpt lat="44.5935967" lon="8.00283"><ele>422.0</ele><time>2026-04-11T18:58:35.04Z</time></trkpt><trkpt lat="44.5935283" lon="8.00278"><ele>423.49999999999994</ele><time>2026-04-11T18:58:37.041Z</time></trkpt><trkpt lat="44.5934533" lon="8.0027317"><ele>425.0</ele><time>2026-04-11T18:58:39.041Z</time></trkpt><trkpt lat="44.5933783" lon="8.00271"><ele>426.5</ele><time>2026-04-11T18:58:41.04Z</time></trkpt><trkpt lat="44.5933017" lon="8.0026867"><ele>428.0</ele><time>2026-04-11T18:58:43.041Z</time></trkpt><trkpt lat="44.5932183" lon="8.0026767"><ele>429.49999999999994</ele><time>2026-04-11T18:58:45.041Z</time></trkpt><trkpt lat="44.59314" lon="8.002685"><ele>431.0</ele><time>2026-04-11T18:58:47.041Z</time></trkpt><trkpt lat="44.5930617" lon="8.002695"><ele>430.99999999999994</ele><time>2026-04-11T18:58:49.042Z</time></trkpt><trkpt lat="44.5929833" lon="8.002715"><ele>431.0</ele><time>2026-04-11T18:58:51.041Z</time></trkpt><trkpt lat="44.5929067" lon="8.00275"><ele>431.0</ele><time>2026-04-11T18:58:53.041Z</time></trkpt><trkpt lat="44.59283" lon="8.00278"><ele>431.0</ele><time>2026-04-11T18:58:55.043Z</time></trkpt><trkpt lat="44.5927583" lon="8.002815"><ele>430.99999999999994</ele><time>2026-04-11T18:58:57.041Z</time></trkpt><trkpt lat="44.5926817" lon="8.0028467"><ele>431.0</ele><time>2026-04-11T18:58:59.041Z</time></trkpt><trkpt lat="44.5926033" lon="8.0028767"><ele>430.7142857142857</ele><time>2026-04-11T18:59:01.041Z</time></trkpt><trkpt lat="44.5925267" lon="8.0029117"><ele>430.4285714285714</ele><time>2026-04-11T18:59:03.041Z</time></trkpt><trkpt lat="44.5924533" lon="8.002945"><ele>430.1428571428571</ele><time>2026-04-11T18:59:05.04Z</time></trkpt><trkpt lat="44.592385" lon="8.0029717"><ele>429.8571428571429</ele><time>2026-04-11T18:59:07.041Z</time></trkpt><trkpt lat="44.5923133" lon="8.0029967"><ele>429.57142857142856</ele><time>2026-04-11T18:59:09.042Z</time></trkpt><trkpt lat="44.5922467" lon="8.00302"><ele>429.2857142857143</ele><time>2026-04-11T18:59:11.042Z</time></trkpt><trkpt lat="44.592185" lon="8.00304"><ele>429.0</ele><time>2026-04-11T18:59:13.04Z</time></trkpt><trkpt lat="44.5921167" lon="8.003045"><ele>429.0</ele><time>2026-04-11T18:59:15.042Z</time></trkpt><trkpt lat="44.5920467" lon="8.0030517"><ele>429.0</ele><time>2026-04-11T18:59:17.041Z</time></trkpt><trkpt lat="44.59197" lon="8.0030567"><ele>429.0</ele><time>2026-04-11T18:59:19.043Z</time></trkpt><trkpt lat="44.5918983" lon="8.0030567"><ele>429.0</ele><time>2026-04-11T18:59:21.041Z</time></trkpt><trkpt lat="44.5918283" lon="8.0030483"><ele>429.0</ele><time>2026-04-11T18:59:23.043Z</time></trkpt><trkpt lat="44.5917583" lon="8.0030433"><ele>429.0</ele><time>2026-04-11T18:59:25.041Z</time></trkpt><trkpt lat="44.5916867" lon="8.0030433"><ele>429.0</ele><time>2026-04-11T18:59:27.041Z</time></trkpt><trkpt lat="44.5916167" lon="8.0030317"><ele>429.3333333333333</ele><time>2026-04-11T18:59:29.04Z</time></trkpt><trkpt lat="44.5915433" lon="8.0030217"><ele>429.66666666666663</ele><time>2026-04-11T18:59:31.04Z</time></trkpt><trkpt lat="44.5914733" lon="8.003015"><ele>430.0</ele><time>2026-04-11T18:59:33.041Z</time></trkpt><trkpt lat="44.5914017" lon="8.0030067"><ele>430.3333333333333</ele><time>2026-04-11T18:59:35.041Z</time></trkpt><trkpt lat="44.5913233" lon="8.003005"><ele>430.66666666666663</ele><time>2026-04-11T18:59:37.041Z</time></trkpt><trkpt lat="44.5912433" lon="8.003"><ele>431.0</ele><time>2026-04-11T18:59:39.041Z</time></trkpt><trkpt lat="44.591165" lon="8.0029967"><ele>431.6</ele><time>2026-04-11T18:59:41.041Z</time></trkpt><trkpt lat="44.5910767" lon="8.0029883"><ele>432.20000000000005</ele><time>2026-04-11T18:59:43.041Z</time></trkpt><trkpt lat="44.5909833" lon="8.002975"><ele>432.79999999999995</ele><time>2026-04-11T18:59:45.042Z</time></trkpt><trkpt lat="44.5908833" lon="8.0029667"><ele>433.4</ele><time>2026-04-11T18:59:47.041Z</time></trkpt><trkpt lat="44.590775" lon="8.0029567"><ele>434.0</ele><time>2026-04-11T18:59:49.041Z</time></trkpt><trkpt lat="44.5906583" lon="8.0029517"><ele>433.99999999999994</ele><time>2026-04-11T18:59:51.042Z</time></trkpt><trkpt lat="44.5905317" lon="8.0029433"><ele>434.0</ele><time>2026-04-11T18:59:53.04Z</time></trkpt><trkpt lat="44.590465" lon="8.0029417"><ele>434.0</ele><time>2026-04-11T18:59:54.041Z</time></trkpt><trkpt lat="44.5903967" lon="8.0029367"><ele>434.0</ele><time>2026-04-11T18:59:55.041Z</time></trkpt><trkpt lat="44.5903283" lon="8.00293"><ele>433.99999999999994</ele><time>2026-04-11T18:59:56.041Z</time></trkpt><trkpt lat="44.5902583" lon="8.002925"><ele>434.0</ele><time>2026-04-11T18:59:57.041Z</time></trkpt><trkpt lat="44.5901883" lon="8.0029183"><ele>432.99999999999994</ele><time>2026-04-11T18:59:58.041Z</time></trkpt><trkpt lat="44.590115" lon="8.00291"><ele>432.0</ele><time>2026-04-11T18:59:59.041Z</time></trkpt><trkpt lat="44.5900417" lon="8.0029083"><ele>431.0</ele><time>2026-04-11T19:00:00.042Z</time></trkpt><trkpt lat="44.5899667" lon="8.0029133"><ele>430.0</ele><time>2026-04-11T19:00:01.042Z</time></trkpt><trkpt lat="44.58989" lon="8.0029283"><ele>428.99999999999994</ele><time>2026-04-11T19:00:02.041Z</time></trkpt><trkpt lat="44.5898133" lon="8.002955"><ele>428.0</ele><time>2026-04-11T19:00:03.041Z</time></trkpt><trkpt lat="44.58974" lon="8.002995"><ele>427.99999999999994</ele><time>2026-04-11T19:00:04.041Z</time></trkpt><trkpt lat="44.5896667" lon="8.0030467"><ele>428.0</ele><time>2026-04-11T19:00:05.04Z</time></trkpt><trkpt lat="44.589595" lon="8.00311"><ele>428.0</ele><time>2026-04-11T19:00:06.041Z</time></trkpt><trkpt lat="44.58953" lon="8.00319"><ele>428.0</ele><time>2026-04-11T19:00:07.041Z</time></trkpt><trkpt lat="44.5894667" lon="8.0032767"><ele>427.99999999999994</ele><time>2026-04-11T19:00:08.041Z</time></trkpt><trkpt lat="44.5894067" lon="8.0033683"><ele>428.0</ele><time>2026-04-11T19:00:09.041Z</time></trkpt><trkpt lat="44.5893483" lon="8.003465"><ele>428.4</ele><time>2026-04-11T19:00:10.042Z</time></trkpt><trkpt lat="44.5892867" lon="8.0035633"><ele>428.79999999999995</ele><time>2026-04-11T19:00:11.041Z</time></trkpt><trkpt lat="44.589225" lon="8.0036633"><ele>429.2</ele><time>2026-04-11T19:00:12.041Z</time></trkpt><trkpt lat="44.5891583" lon="8.0037633"><ele>429.6</ele><time>2026-04-11T19:00:13.041Z</time></trkpt><trkpt lat="44.5890933" lon="8.0038633"><ele>430.0</ele><time>2026-04-11T19:00:14.041Z</time></trkpt><trkpt lat="44.589025" lon="8.0039667"><ele>430.0</ele><time>2026-04-11T19:00:15.043Z</time></trkpt><trkpt lat="44.5889633" lon="8.00407"><ele>430.0</ele><time>2026-04-11T19:00:16.042Z</time></trkpt><trkpt lat="44.5889" lon="8.0041783"><ele>430.0</ele><time>2026-04-11T19:00:17.041Z</time></trkpt><trkpt lat="44.588835" lon="8.00429"><ele>430.0</ele><time>2026-04-11T19:00:18.041Z</time></trkpt><trkpt lat="44.58877" lon="8.0043983"><ele>430.0</ele><time>2026-04-11T19:00:19.041Z</time></trkpt><trkpt lat="44.5887067" lon="8.0045067"><ele>428.0</ele><time>2026-04-11T19:00:20.042Z</time></trkpt><trkpt lat="44.5886467" lon="8.004615"><ele>426.0</ele><time>2026-04-11T19:00:21.042Z</time></trkpt><trkpt lat="44.5885917" lon="8.00472"><ele>424.0</ele><time>2026-04-11T19:00:22.041Z</time></trkpt><trkpt lat="44.5885383" lon="8.004825"><ele>422.0</ele><time>2026-04-11T19:00:23.041Z</time></trkpt><trkpt lat="44.58849" lon="8.0049333"><ele>420.0</ele><time>2026-04-11T19:00:24.042Z</time></trkpt><trkpt lat="44.5884467" lon="8.0050433"><ele>420.0</ele><time>2026-04-11T19:00:25.043Z</time></trkpt><trkpt lat="44.5884083" lon="8.0051583"><ele>420.0</ele><time>2026-04-11T19:00:26.041Z</time></trkpt><trkpt lat="44.58838" lon="8.005275"><ele>420.0</ele><time>2026-04-11T19:00:27.042Z</time></trkpt><trkpt lat="44.58836" lon="8.0053933"><ele>420.0</ele><time>2026-04-11T19:00:28.042Z</time></trkpt><trkpt lat="44.5883517" lon="8.00551"><ele>420.0</ele><time>2026-04-11T19:00:29.042Z</time></trkpt><trkpt lat="44.58835" lon="8.0056267"><ele>420.0</ele><time>2026-04-11T19:00:30.041Z</time></trkpt><trkpt lat="44.5883533" lon="8.0057367"><ele>421.1666666666667</ele><time>2026-04-11T19:00:31.043Z</time></trkpt><trkpt lat="44.588365" lon="8.0058367"><ele>422.33333333333337</ele><time>2026-04-11T19:00:32.041Z</time></trkpt><trkpt lat="44.5883833" lon="8.00593"><ele>423.5</ele><time>2026-04-11T19:00:33.042Z</time></trkpt><trkpt lat="44.5884" lon="8.0060183"><ele>424.6666666666667</ele><time>2026-04-11T19:00:34.04Z</time></trkpt><trkpt lat="44.58843" lon="8.0061667"><ele>425.83333333333337</ele><time>2026-04-11T19:00:36.042Z</time></trkpt><trkpt lat="44.588465" lon="8.00629"><ele>427.0</ele><time>2026-04-11T19:00:38.04Z</time></trkpt><trkpt lat="44.58849" lon="8.0064083"><ele>427.00000000000006</ele><time>2026-04-11T19:00:40.04Z</time></trkpt><trkpt lat="44.5885133" lon="8.006515"><ele>427.0</ele><time>2026-04-11T19:00:42.041Z</time></trkpt><trkpt lat="44.588535" lon="8.0066067"><ele>427.0</ele><time>2026-04-11T19:00:44.041Z</time></trkpt><trkpt lat="44.58854" lon="8.006725"><ele>427.0</ele><time>2026-04-11T19:00:47.041Z</time></trkpt><trkpt lat="44.5884983" lon="8.0068117"><ele>427.00000000000006</ele><time>2026-04-11T19:00:50.042Z</time></trkpt><trkpt lat="44.5884317" lon="8.0068767"><ele>427.0</ele><time>2026-04-11T19:00:53.04Z</time></trkpt><trkpt lat="44.58835" lon="8.0068917"><ele>428.33333333333337</ele><time>2026-04-11T19:00:56.042Z</time></trkpt><trkpt lat="44.5882717" lon="8.0068867"><ele>429.6666666666667</ele><time>2026-04-11T19:00:59.043Z</time></trkpt><trkpt lat="44.5881917" lon="8.006895"><ele>431.0</ele><time>2026-04-11T19:01:02.042Z</time></trkpt><trkpt lat="44.588115" lon="8.0068817"><ele>432.33333333333337</ele><time>2026-04-11T19:01:05.042Z</time></trkpt><trkpt lat="44.5880367" lon="8.00688"><ele>433.6666666666667</ele><time>2026-04-11T19:01:08.042Z</time></trkpt><trkpt lat="44.5879633" lon="8.00687"><ele>435.0</ele><time>2026-04-11T19:01:11.042Z</time></trkpt><trkpt lat="44.5878967" lon="8.006845"><ele>435.00000000000006</ele><time>2026-04-11T19:01:14.044Z</time></trkpt><trkpt lat="44.5878183" lon="8.0068217"><ele>435.0</ele><time>2026-04-11T19:01:18.044Z</time></trkpt><trkpt lat="44.5877533" lon="8.0068167"><ele>435.0</ele><time>2026-04-11T19:01:21.041Z</time></trkpt><trkpt lat="44.5876883" lon="8.0068167"><ele>435.0</ele><time>2026-04-11T19:01:24.041Z</time></trkpt><trkpt lat="44.58762" lon="8.00681"><ele>435.0</ele><time>2026-04-11T19:01:27.041Z</time></trkpt><trkpt lat="44.5875433" lon="8.0068"><ele>435.00000000000006</ele><time>2026-04-11T19:01:31.041Z</time></trkpt><trkpt lat="44.58748" lon="8.0068033"><ele>435.0</ele><time>2026-04-11T19:01:34.042Z</time></trkpt><trkpt lat="44.5874017" lon="8.0068283"><ele>435.00000000000006</ele><time>2026-04-11T19:01:38.041Z</time></trkpt><trkpt lat="44.5873367" lon="8.0068417"><ele>435.0</ele><time>2026-04-11T19:01:41.041Z</time></trkpt><trkpt lat="44.5872617" lon="8.0068833"><ele>435.0</ele><time>2026-04-11T19:01:45.041Z</time></trkpt><trkpt lat="44.5872" lon="8.0069483"><ele>435.0</ele><time>2026-04-11T19:01:49.04Z</time></trkpt><trkpt lat="44.58714" lon="8.006985"><ele>435.0</ele><time>2026-04-11T19:01:52.043Z</time></trkpt><trkpt lat="44.5870933" lon="8.007045"><ele>435.00000000000006</ele><time>2026-04-11T19:01:55.041Z</time></trkpt><trkpt lat="44.5870383" lon="8.007105"><ele>435.0</ele><time>2026-04-11T19:01:58.041Z</time></trkpt><trkpt lat="44.5869867" lon="8.0071917"><ele>435.7142857142857</ele><time>2026-04-11T19:02:02.041Z</time></trkpt><trkpt lat="44.5869417" lon="8.007275"><ele>436.42857142857144</ele><time>2026-04-11T19:02:06.042Z</time></trkpt><trkpt lat="44.5869033" lon="8.0073683"><ele>437.1428571428571</ele><time>2026-04-11T19:02:10.041Z</time></trkpt><trkpt lat="44.586885" lon="8.00746"><ele>437.8571428571429</ele><time>2026-04-11T19:02:14.041Z</time></trkpt><trkpt lat="44.5868667" lon="8.0075683"><ele>438.57142857142856</ele><time>2026-04-11T19:02:18.041Z</time></trkpt><trkpt lat="44.58686" lon="8.0076567"><ele>439.2857142857143</ele><time>2026-04-11T19:02:21.042Z</time></trkpt><trkpt lat="44.5868583" lon="8.0077683"><ele>440.0</ele><time>2026-04-11T19:02:25.04Z</time></trkpt><trkpt lat="44.5868667" lon="8.0078783"><ele>439.99999999999994</ele><time>2026-04-11T19:02:29.04Z</time></trkpt><trkpt lat="44.5868817" lon="8.00798"><ele>440.0</ele><time>2026-04-11T19:02:33.041Z</time></trkpt><trkpt lat="44.5868967" lon="8.0080817"><ele>440.0</ele><time>2026-04-11T19:02:37.041Z</time></trkpt><trkpt lat="44.5869117" lon="8.00818"><ele>440.0</ele><time>2026-04-11T19:02:41.041Z</time></trkpt><trkpt lat="44.5869317" lon="8.0082767"><ele>439.99999999999994</ele><time>2026-04-11T19:02:45.042Z</time></trkpt><trkpt lat="44.5869433" lon="8.008385"><ele>440.0</ele><time>2026-04-11T19:02:49.04Z</time></trkpt><trkpt lat="44.5869483" lon="8.0085"><ele>441.3333333333333</ele><time>2026-04-11T19:02:53.041Z</time></trkpt><trkpt lat="44.586925" lon="8.00861"><ele>442.66666666666663</ele><time>2026-04-11T19:02:57.041Z</time></trkpt><trkpt lat="44.586885" lon="8.0087067"><ele>444.0</ele><time>2026-04-11T19:03:01.04Z</time></trkpt><trkpt lat="44.5868317" lon="8.008785"><ele>445.33333333333337</ele><time>2026-04-11T19:03:05.041Z</time></trkpt><trkpt lat="44.58677" lon="8.0088533"><ele>446.6666666666667</ele><time>2026-04-11T19:03:09.041Z</time></trkpt><trkpt lat="44.5867167" lon="8.0089267"><ele>448.0</ele><time>2026-04-11T19:03:13.04Z</time></trkpt><trkpt lat="44.5866517" lon="8.0089933"><ele>448.0</ele><time>2026-04-11T19:03:17.041Z</time></trkpt><trkpt lat="44.5865917" lon="8.00905"><ele>448.0</ele><time>2026-04-11T19:03:21.041Z</time></trkpt><trkpt lat="44.5865433" lon="8.0091233"><ele>448.0</ele><time>2026-04-11T19:03:25.04Z</time></trkpt><trkpt lat="44.58649" lon="8.009185"><ele>448.0</ele><time>2026-04-11T19:03:29.04Z</time></trkpt><trkpt lat="44.5864467" lon="8.0092733"><ele>448.0</ele><time>2026-04-11T19:03:33.041Z</time></trkpt><trkpt lat="44.5863983" lon="8.0093617"><ele>448.0</ele><time>2026-04-11T19:03:37.04Z</time></trkpt><trkpt lat="44.586355" lon="8.0094467"><ele>448.0</ele><time>2026-04-11T19:03:41.041Z</time></trkpt><trkpt lat="44.5863217" lon="8.0095467"><ele>447.85714285714283</ele><time>2026-04-11T19:03:45.042Z</time></trkpt><trkpt lat="44.5862817" lon="8.009615"><ele>447.7142857142857</ele><time>2026-04-11T19:03:48.04Z</time></trkpt><trkpt lat="44.5862433" lon="8.0097067"><ele>447.57142857142856</ele><time>2026-04-11T19:03:52.04Z</time></trkpt><trkpt lat="44.5862" lon="8.0097833"><ele>447.42857142857144</ele><time>2026-04-11T19:03:56.041Z</time></trkpt><trkpt lat="44.58617" lon="8.0098717"><ele>447.2857142857143</ele><time>2026-04-11T19:04:00.04Z</time></trkpt><trkpt lat="44.5861167" lon="8.0099533"><ele>447.1428571428571</ele><time>2026-04-11T19:04:04.04Z</time></trkpt><trkpt lat="44.5860583" lon="8.0100333"><ele>447.0</ele><time>2026-04-11T19:04:08.04Z</time></trkpt><trkpt lat="44.58599" lon="8.0100967"><ele>449.85714285714283</ele><time>2026-04-11T19:04:12.04Z</time></trkpt><trkpt lat="44.585925" lon="8.01016"><ele>452.71428571428567</ele><time>2026-04-11T19:04:16.041Z</time></trkpt><trkpt lat="44.5858633" lon="8.0101983"><ele>455.57142857142856</ele><time>2026-04-11T19:04:19.041Z</time></trkpt><trkpt lat="44.5857867" lon="8.0102133"><ele>458.4285714285714</ele><time>2026-04-11T19:04:23.04Z</time></trkpt><trkpt lat="44.58572" lon="8.0101983"><ele>461.2857142857143</ele><time>2026-04-11T19:04:26.041Z</time></trkpt><trkpt lat="44.5856467" lon="8.01018"><ele>464.14285714285705</ele><time>2026-04-11T19:04:30.04Z</time></trkpt><trkpt lat="44.5855733" lon="8.0101683"><ele>466.99999999999994</ele><time>2026-04-11T19:04:35.04Z</time></trkpt><trkpt lat="44.5854933" lon="8.010185"><ele>466.99999999999994</ele><time>2026-04-11T19:04:39.041Z</time></trkpt><trkpt lat="44.58543" lon="8.0102"><ele>467.0</ele><time>2026-04-11T19:04:42.041Z</time></trkpt><trkpt lat="44.5853583" lon="8.01025"><ele>467.0</ele><time>2026-04-11T19:04:46.042Z</time></trkpt><trkpt lat="44.5853067" lon="8.010335"><ele>467.0</ele><time>2026-04-11T19:04:50.042Z</time></trkpt><trkpt lat="44.5852783" lon="8.0104383"><ele>466.99999999999994</ele><time>2026-04-11T19:04:54.042Z</time></trkpt><trkpt lat="44.5852733" lon="8.01054"><ele>467.0</ele><time>2026-04-11T19:04:58.041Z</time></trkpt><trkpt lat="44.585295" lon="8.010645"><ele>466.99999999999994</ele><time>2026-04-11T19:05:02.04Z</time></trkpt><trkpt lat="44.5853367" lon="8.01074"><ele>467.0</ele><time>2026-04-11T19:05:06.041Z</time></trkpt><trkpt lat="44.585415" lon="8.0107733"><ele>467.0</ele><time>2026-04-11T19:05:10.041Z</time></trkpt><trkpt lat="44.5854967" lon="8.0108033"><ele>467.0</ele><time>2026-04-11T19:05:14.04Z</time></trkpt><trkpt lat="44.5855767" lon="8.0108133"><ele>466.99999999999994</ele><time>2026-04-11T19:05:18.041Z</time></trkpt><trkpt lat="44.5856467" lon="8.0108233"><ele>467.0</ele><time>2026-04-11T19:05:21.041Z</time></trkpt><trkpt lat="44.5857167" lon="8.0108333"><ele>466.99999999999994</ele><time>2026-04-11T19:05:24.04Z</time></trkpt><trkpt lat="44.5858033" lon="8.01083"><ele>467.0</ele><time>2026-04-11T19:05:27.041Z</time></trkpt><trkpt lat="44.5858683" lon="8.0108333"><ele>467.0</ele><time>2026-04-11T19:05:30.04Z</time></trkpt><trkpt lat="44.5859517" lon="8.0108283"><ele>467.0</ele><time>2026-04-11T19:05:33.042Z</time></trkpt><trkpt lat="44.5860367" lon="8.010815"><ele>466.99999999999994</ele><time>2026-04-11T19:05:36.04Z</time></trkpt><trkpt lat="44.5861133" lon="8.010765"><ele>467.0</ele><time>2026-04-11T19:05:39.041Z</time></trkpt><trkpt lat="44.5861833" lon="8.0107083"><ele>468.71428571428567</ele><time>2026-04-11T19:05:42.041Z</time></trkpt><trkpt lat="44.5862533" lon="8.0106483"><ele>470.42857142857144</ele><time>2026-04-11T19:05:45.042Z</time></trkpt><trkpt lat="44.5863133" lon="8.0105817"><ele>472.1428571428571</ele><time>2026-04-11T19:05:48.041Z</time></trkpt><trkpt lat="44.5863717" lon="8.0105067"><ele>473.85714285714283</ele><time>2026-04-11T19:05:51.042Z</time></trkpt><trkpt lat="44.5864317" lon="8.0104383"><ele>475.57142857142856</ele><time>2026-04-11T19:05:54.041Z</time></trkpt><trkpt lat="44.5864983" lon="8.0104133"><ele>477.2857142857143</ele><time>2026-04-11T19:05:57.042Z</time></trkpt><trkpt lat="44.5865567" lon="8.0104483"><ele>479.0</ele><time>2026-04-11T19:06:00.04Z</time></trkpt><trkpt lat="44.58657" lon="8.01055"><ele>478.99999999999994</ele><time>2026-04-11T19:06:04.04Z</time></trkpt><trkpt lat="44.5865267" lon="8.0106333"><ele>479.0</ele><time>2026-04-11T19:06:08.04Z</time></trkpt><trkpt lat="44.5864633" lon="8.010695"><ele>479.0</ele><time>2026-04-11T19:06:12.041Z</time></trkpt><trkpt lat="44.5863983" lon="8.0107667"><ele>479.0</ele><time>2026-04-11T19:06:16.04Z</time></trkpt><trkpt lat="44.58633" lon="8.0108233"><ele>478.99999999999994</ele><time>2026-04-11T19:06:20.041Z</time></trkpt><trkpt lat="44.586275" lon="8.010885"><ele>479.0</ele><time>2026-04-11T19:06:24.041Z</time></trkpt><trkpt lat="44.586215" lon="8.0109633"><ele>479.57142857142856</ele><time>2026-04-11T19:06:28.042Z</time></trkpt><trkpt lat="44.58615" lon="8.011035"><ele>480.14285714285717</ele><time>2026-04-11T19:06:32.04Z</time></trkpt><trkpt lat="44.5860867" lon="8.0111033"><ele>480.7142857142857</ele><time>2026-04-11T19:06:36.041Z</time></trkpt><trkpt lat="44.58603" lon="8.011165"><ele>481.2857142857143</ele><time>2026-04-11T19:06:40.04Z</time></trkpt><trkpt lat="44.5859867" lon="8.0112333"><ele>481.8571428571429</ele><time>2026-04-11T19:06:44.041Z</time></trkpt><trkpt lat="44.5859183" lon="8.01128"><ele>482.42857142857144</ele><time>2026-04-11T19:06:48.04Z</time></trkpt><trkpt lat="44.5858733" lon="8.0113467"><ele>483.0</ele><time>2026-04-11T19:06:52.041Z</time></trkpt><trkpt lat="44.5858267" lon="8.0114317"><ele>483.0</ele><time>2026-04-11T19:06:56.041Z</time></trkpt><trkpt lat="44.5857733" lon="8.0114983"><ele>483.0</ele><time>2026-04-11T19:07:00.04Z</time></trkpt><trkpt lat="44.58573" lon="8.0115733"><ele>483.0</ele><time>2026-04-11T19:07:04.041Z</time></trkpt><trkpt lat="44.5857117" lon="8.0116667"><ele>483.0</ele><time>2026-04-11T19:07:08.04Z</time></trkpt><trkpt lat="44.5856617" lon="8.01174"><ele>483.0</ele><time>2026-04-11T19:07:12.04Z</time></trkpt><trkpt lat="44.5856183" lon="8.0118083"><ele>483.0</ele><time>2026-04-11T19:07:15.041Z</time></trkpt><trkpt lat="44.5855783" lon="8.0119033"><ele>483.0</ele><time>2026-04-11T19:07:19.041Z</time></trkpt><trkpt lat="44.5855367" lon="8.0119833"><ele>484.0</ele><time>2026-04-11T19:07:23.042Z</time></trkpt><trkpt lat="44.5855117" lon="8.01207"><ele>485.0</ele><time>2026-04-11T19:07:27.042Z</time></trkpt><trkpt lat="44.58548" lon="8.01215"><ele>486.0</ele><time>2026-04-11T19:07:31.041Z</time></trkpt><trkpt lat="44.58544" lon="8.0122383"><ele>487.0</ele><time>2026-04-11T19:07:35.041Z</time></trkpt><trkpt lat="44.5854033" lon="8.0123133"><ele>488.0</ele><time>2026-04-11T19:07:39.041Z</time></trkpt><trkpt lat="44.585355" lon="8.01238"><ele>489.0</ele><time>2026-04-11T19:07:43.041Z</time></trkpt><trkpt lat="44.5852967" lon="8.0124483"><ele>490.0</ele><time>2026-04-11T19:07:47.041Z</time></trkpt><trkpt lat="44.5852483" lon="8.0125117"><ele>492.00000000000006</ele><time>2026-04-11T19:07:51.041Z</time></trkpt><trkpt lat="44.58519" lon="8.0125717"><ele>494.0</ele><time>2026-04-11T19:07:55.041Z</time></trkpt><trkpt lat="44.58518" lon="8.0126717"><ele>496.0</ele><time>2026-04-11T19:07:59.041Z</time></trkpt><trkpt lat="44.58519" lon="8.0127683"><ele>498.0</ele><time>2026-04-11T19:08:02.041Z</time></trkpt><trkpt lat="44.5852233" lon="8.0128933"><ele>500.00000000000006</ele><time>2026-04-11T19:08:05.042Z</time></trkpt><trkpt lat="44.5852467" lon="8.0130483"><ele>502.0</ele><time>2026-04-11T19:08:08.041Z</time></trkpt><trkpt lat="44.5852633" lon="8.0131767"><ele>502.0</ele><time>2026-04-11T19:08:10.041Z</time></trkpt><trkpt lat="44.585275" lon="8.0133017"><ele>502.00000000000006</ele><time>2026-04-11T19:08:12.042Z</time></trkpt><trkpt lat="44.5852917" lon="8.0134233"><ele>502.00000000000006</ele><time>2026-04-11T19:08:14.041Z</time></trkpt><trkpt lat="44.5853033" lon="8.0135717"><ele>502.0</ele><time>2026-04-11T19:08:16.041Z</time></trkpt><trkpt lat="44.5853283" lon="8.0137283"><ele>502.0</ele><time>2026-04-11T19:08:18.041Z</time></trkpt><trkpt lat="44.585375" lon="8.0138867"><ele>499.99999999999994</ele><time>2026-04-11T19:08:20.043Z</time></trkpt><trkpt lat="44.585405" lon="8.0139683"><ele>498.0</ele><time>2026-04-11T19:08:21.041Z</time></trkpt><trkpt lat="44.58544" lon="8.01405"><ele>495.99999999999994</ele><time>2026-04-11T19:08:22.041Z</time></trkpt><trkpt lat="44.5854833" lon="8.0141317"><ele>493.99999999999994</ele><time>2026-04-11T19:08:23.043Z</time></trkpt><trkpt lat="44.58553" lon="8.014215"><ele>492.0</ele><time>2026-04-11T19:08:24.041Z</time></trkpt><trkpt lat="44.5855767" lon="8.0143017"><ele>489.99999999999994</ele><time>2026-04-11T19:08:25.041Z</time></trkpt><trkpt lat="44.5856183" lon="8.0143867"><ele>487.99999999999994</ele><time>2026-04-11T19:08:26.041Z</time></trkpt><trkpt lat="44.585665" lon="8.0144717"><ele>487.99999999999994</ele><time>2026-04-11T19:08:27.042Z</time></trkpt><trkpt lat="44.5857083" lon="8.0145517"><ele>488.0</ele><time>2026-04-11T19:08:28.04Z</time></trkpt><trkpt lat="44.58575" lon="8.0146283"><ele>487.99999999999994</ele><time>2026-04-11T19:08:29.04Z</time></trkpt><trkpt lat="44.585785" lon="8.01471"><ele>487.99999999999994</ele><time>2026-04-11T19:08:30.041Z</time></trkpt><trkpt lat="44.585815" lon="8.0147967"><ele>488.0</ele><time>2026-04-11T19:08:31.041Z</time></trkpt><trkpt lat="44.585835" lon="8.0148933"><ele>487.99999999999994</ele><time>2026-04-11T19:08:32.04Z</time></trkpt><trkpt lat="44.5858433" lon="8.0149933"><ele>487.99999999999994</ele><time>2026-04-11T19:08:33.041Z</time></trkpt><trkpt lat="44.58584" lon="8.015095"><ele>488.16666666666663</ele><time>2026-04-11T19:08:34.042Z</time></trkpt><trkpt lat="44.5858217" lon="8.0152"><ele>488.3333333333333</ele><time>2026-04-11T19:08:35.041Z</time></trkpt><trkpt lat="44.5858033" lon="8.015305"><ele>488.5</ele><time>2026-04-11T19:08:36.041Z</time></trkpt><trkpt lat="44.5857967" lon="8.0154117"><ele>488.66666666666663</ele><time>2026-04-11T19:08:37.04Z</time></trkpt><trkpt lat="44.5858033" lon="8.0155183"><ele>488.8333333333333</ele><time>2026-04-11T19:08:38.041Z</time></trkpt><trkpt lat="44.5858167" lon="8.0156233"><ele>489.0</ele><time>2026-04-11T19:08:39.041Z</time></trkpt><trkpt lat="44.585855" lon="8.0157283"><ele>489.0</ele><time>2026-04-11T19:08:40.04Z</time></trkpt><trkpt lat="44.5859" lon="8.01582"><ele>489.0</ele><time>2026-04-11T19:08:41.041Z</time></trkpt><trkpt lat="44.5859533" lon="8.0158917"><ele>489.0</ele><time>2026-04-11T19:08:42.041Z</time></trkpt><trkpt lat="44.586005" lon="8.01595"><ele>489.0</ele><time>2026-04-11T19:08:43.041Z</time></trkpt><trkpt lat="44.5861067" lon="8.0160517"><ele>489.0</ele><time>2026-04-11T19:08:45.041Z</time></trkpt><trkpt lat="44.5861533" lon="8.01612"><ele>489.0</ele><time>2026-04-11T19:08:46.04Z</time></trkpt><trkpt lat="44.58622" lon="8.01625"><ele>488.1666666666667</ele><time>2026-04-11T19:08:48.041Z</time></trkpt><trkpt lat="44.5862533" lon="8.016355"><ele>487.33333333333337</ele><time>2026-04-11T19:08:50.04Z</time></trkpt><trkpt lat="44.5862717" lon="8.01645"><ele>486.5</ele><time>2026-04-11T19:08:53.041Z</time></trkpt><trkpt lat="44.5863033" lon="8.0165417"><ele>485.6666666666667</ele><time>2026-04-11T19:08:57.04Z</time></trkpt><trkpt lat="44.58632" lon="8.0166467"><ele>484.83333333333337</ele><time>2026-04-11T19:09:01.041Z</time></trkpt><trkpt lat="44.5863417" lon="8.01675"><ele>484.0</ele><time>2026-04-11T19:09:05.04Z</time></trkpt><trkpt lat="44.58629" lon="8.0168317"><ele>484.00000000000006</ele><time>2026-04-11T19:09:09.041Z</time></trkpt><trkpt lat="44.5862167" lon="8.016835"><ele>484.0</ele><time>2026-04-11T19:09:13.041Z</time></trkpt><trkpt lat="44.586145" lon="8.016825"><ele>484.0</ele><time>2026-04-11T19:09:17.04Z</time></trkpt><trkpt lat="44.5860683" lon="8.016805"><ele>484.0</ele><time>2026-04-11T19:09:21.042Z</time></trkpt><trkpt lat="44.58599" lon="8.0167733"><ele>484.00000000000006</ele><time>2026-04-11T19:09:25.041Z</time></trkpt><trkpt lat="44.585925" lon="8.0167217"><ele>484.0</ele><time>2026-04-11T19:09:29.041Z</time></trkpt><trkpt lat="44.5858683" lon="8.016655"><ele>484.85714285714283</ele><time>2026-04-11T19:09:33.042Z</time></trkpt><trkpt lat="44.58582" lon="8.016575"><ele>485.71428571428567</ele><time>2026-04-11T19:09:38.041Z</time></trkpt><trkpt lat="44.585765" lon="8.0165017"><ele>486.57142857142856</ele><time>2026-04-11T19:09:43.041Z</time></trkpt><trkpt lat="44.5857083" lon="8.0164317"><ele>487.42857142857144</ele><time>2026-04-11T19:09:47.042Z</time></trkpt><trkpt lat="44.5856567" lon="8.0163733"><ele>488.2857142857143</ele><time>2026-04-11T19:09:51.04Z</time></trkpt><trkpt lat="44.5855983" lon="8.0163367"><ele>489.1428571428571</ele><time>2026-04-11T19:09:55.04Z</time></trkpt><trkpt lat="44.5855283" lon="8.0162917"><ele>490.0</ele><time>2026-04-11T19:10:00.041Z</time></trkpt><trkpt lat="44.585465" lon="8.0162667"><ele>490.0</ele><time>2026-04-11T19:10:04.04Z</time></trkpt><trkpt lat="44.5853983" lon="8.0162383"><ele>490.0</ele><time>2026-04-11T19:10:08.04Z</time></trkpt><trkpt lat="44.5853267" lon="8.0162133"><ele>490.0</ele><time>2026-04-11T19:10:12.041Z</time></trkpt><trkpt lat="44.5852567" lon="8.0161833"><ele>490.0</ele><time>2026-04-11T19:10:17.042Z</time></trkpt><trkpt lat="44.585195" lon="8.0161483"><ele>490.0</ele><time>2026-04-11T19:10:22.04Z</time></trkpt><trkpt lat="44.585145" lon="8.01609"><ele>490.0</ele><time>2026-04-11T19:10:27.042Z</time></trkpt><trkpt lat="44.5851" lon="8.0160083"><ele>490.0</ele><time>2026-04-11T19:10:33.042Z</time></trkpt><trkpt lat="44.585065" lon="8.0159233"><ele>491.0</ele><time>2026-04-11T19:10:38.04Z</time></trkpt><trkpt lat="44.5850267" lon="8.0158317"><ele>492.0</ele><time>2026-04-11T19:10:44.04Z</time></trkpt><trkpt lat="44.58499" lon="8.01575"><ele>493.0</ele><time>2026-04-11T19:10:50.041Z</time></trkpt><trkpt lat="44.5849483" lon="8.0156617"><ele>494.0</ele><time>2026-04-11T19:10:56.04Z</time></trkpt><trkpt lat="44.5848967" lon="8.0155917"><ele>495.0</ele><time>2026-04-11T19:11:01.041Z</time></trkpt><trkpt lat="44.584845" lon="8.01552"><ele>496.0</ele><time>2026-04-11T19:11:07.04Z</time></trkpt><trkpt lat="44.5847967" lon="8.0154617"><ele>497.0</ele><time>2026-04-11T19:11:12.041Z</time></trkpt><trkpt lat="44.5847383" lon="8.0153933"><ele>498.42857142857144</ele><time>2026-04-11T19:11:17.041Z</time></trkpt><trkpt lat="44.584695" lon="8.0153267"><ele>499.8571428571429</ele><time>2026-04-11T19:11:21.042Z</time></trkpt><trkpt lat="44.5846417" lon="8.0152717"><ele>501.2857142857143</ele><time>2026-04-11T19:11:25.041Z</time></trkpt><trkpt lat="44.584575" lon="8.01523"><ele>502.7142857142857</ele><time>2026-04-11T19:11:30.041Z</time></trkpt><trkpt lat="44.58451" lon="8.015165"><ele>504.14285714285717</ele><time>2026-04-11T19:11:36.041Z</time></trkpt><trkpt lat="44.5844367" lon="8.0151167"><ele>505.57142857142856</ele><time>2026-04-11T19:11:41.042Z</time></trkpt><trkpt lat="44.58437" lon="8.0150917"><ele>507.0</ele><time>2026-04-11T19:11:45.042Z</time></trkpt><trkpt lat="44.584305" lon="8.0150817"><ele>507.85714285714283</ele><time>2026-04-11T19:11:49.042Z</time></trkpt><trkpt lat="44.5842333" lon="8.0150717"><ele>508.7142857142858</ele><time>2026-04-11T19:11:54.041Z</time></trkpt><trkpt lat="44.5841617" lon="8.015085"><ele>509.5714285714286</ele><time>2026-04-11T19:11:59.04Z</time></trkpt><trkpt lat="44.5840983" lon="8.015085"><ele>510.42857142857144</ele><time>2026-04-11T19:12:03.041Z</time></trkpt><trkpt lat="44.584035" lon="8.01508"><ele>511.28571428571433</ele><time>2026-04-11T19:12:07.041Z</time></trkpt><trkpt lat="44.5839617" lon="8.0150883"><ele>512.1428571428572</ele><time>2026-04-11T19:12:12.042Z</time></trkpt><trkpt lat="44.5839" lon="8.01507"><ele>513.0</ele><time>2026-04-11T19:12:16.041Z</time></trkpt><trkpt lat="44.58384" lon="8.01503"><ele>515.1428571428572</ele><time>2026-04-11T19:12:21.042Z</time></trkpt><trkpt lat="44.5837733" lon="8.0149783"><ele>517.2857142857143</ele><time>2026-04-11T19:12:27.042Z</time></trkpt><trkpt lat="44.5837117" lon="8.0149267"><ele>519.4285714285714</ele><time>2026-04-11T19:12:32.042Z</time></trkpt><trkpt lat="44.5836517" lon="8.01488"><ele>521.5714285714287</ele><time>2026-04-11T19:12:38.041Z</time></trkpt><trkpt lat="44.5836017" lon="8.0148167"><ele>523.7142857142858</ele><time>2026-04-11T19:12:44.04Z</time></trkpt><trkpt lat="44.58355" lon="8.0147333"><ele>525.8571428571429</ele><time>2026-04-11T19:12:53.042Z</time></trkpt><trkpt lat="44.5835133" lon="8.0146567"><ele>528.0</ele><time>2026-04-11T19:12:58.04Z</time></trkpt><trkpt lat="44.583455" lon="8.0146"><ele>528.4285714285714</ele><time>2026-04-11T19:13:04.04Z</time></trkpt><trkpt lat="44.58339" lon="8.014545"><ele>528.8571428571429</ele><time>2026-04-11T19:13:09.042Z</time></trkpt><trkpt lat="44.5833367" lon="8.014495"><ele>529.2857142857143</ele><time>2026-04-11T19:13:13.041Z</time></trkpt><trkpt lat="44.5832767" lon="8.0144367"><ele>529.7142857142858</ele><time>2026-04-11T19:13:18.041Z</time></trkpt><trkpt lat="44.5832117" lon="8.0143933"><ele>530.1428571428572</ele><time>2026-04-11T19:13:22.04Z</time></trkpt><trkpt lat="44.583145" lon="8.014355"><ele>530.5714285714286</ele><time>2026-04-11T19:13:26.039Z</time></trkpt><trkpt lat="44.58307" lon="8.01434"><ele>531.0</ele><time>2026-04-11T19:13:29.042Z</time></trkpt><trkpt lat="44.5829867" lon="8.0143367"><ele>531.0</ele><time>2026-04-11T19:13:32.041Z</time></trkpt><trkpt lat="44.5829183" lon="8.014335"><ele>531.0</ele><time>2026-04-11T19:13:34.04Z</time></trkpt><trkpt lat="44.5828333" lon="8.014325"><ele>531.0</ele><time>2026-04-11T19:13:37.041Z</time></trkpt><trkpt lat="44.5827567" lon="8.01432"><ele>531.0</ele><time>2026-04-11T19:13:40.04Z</time></trkpt><trkpt lat="44.5826783" lon="8.01431"><ele>531.0</ele><time>2026-04-11T19:13:43.04Z</time></trkpt><trkpt lat="44.5825917" lon="8.0142967"><ele>531.0</ele><time>2026-04-11T19:13:46.04Z</time></trkpt><trkpt lat="44.582505" lon="8.01428"><ele>530.0</ele><time>2026-04-11T19:13:49.04Z</time></trkpt><trkpt lat="44.582425" lon="8.014265"><ele>529.0</ele><time>2026-04-11T19:13:52.04Z</time></trkpt><trkpt lat="44.58235" lon="8.014255"><ele>528.0</ele><time>2026-04-11T19:13:55.04Z</time></trkpt><trkpt lat="44.58228" lon="8.014225"><ele>527.0</ele><time>2026-04-11T19:13:58.041Z</time></trkpt><trkpt lat="44.5822" lon="8.0141767"><ele>526.0</ele><time>2026-04-11T19:14:01.04Z</time></trkpt><trkpt lat="44.582135" lon="8.014165"><ele>525.0</ele><time>2026-04-11T19:14:03.042Z</time></trkpt><trkpt lat="44.582065" lon="8.0141617"><ele>524.7142857142857</ele><time>2026-04-11T19:14:05.04Z</time></trkpt><trkpt lat="44.581995" lon="8.0141633"><ele>524.4285714285714</ele><time>2026-04-11T19:14:07.04Z</time></trkpt><trkpt lat="44.581925" lon="8.01417"><ele>524.1428571428571</ele><time>2026-04-11T19:14:09.042Z</time></trkpt><trkpt lat="44.5818583" lon="8.0141667"><ele>523.8571428571429</ele><time>2026-04-11T19:14:11.041Z</time></trkpt><trkpt lat="44.5817917" lon="8.0141567"><ele>523.5714285714286</ele><time>2026-04-11T19:14:13.042Z</time></trkpt><trkpt lat="44.5817217" lon="8.0141367"><ele>523.2857142857142</ele><time>2026-04-11T19:14:15.042Z</time></trkpt><trkpt lat="44.581655" lon="8.014115"><ele>523.0</ele><time>2026-04-11T19:14:17.04Z</time></trkpt><trkpt lat="44.5815883" lon="8.0140967"><ele>522.1666666666667</ele><time>2026-04-11T19:14:19.04Z</time></trkpt><trkpt lat="44.581525" lon="8.01407"><ele>521.3333333333334</ele><time>2026-04-11T19:14:21.041Z</time></trkpt><trkpt lat="44.581435" lon="8.0140383"><ele>520.5</ele><time>2026-04-11T19:14:24.041Z</time></trkpt><trkpt lat="44.5813467" lon="8.0140067"><ele>519.6666666666666</ele><time>2026-04-11T19:14:27.041Z</time></trkpt><trkpt lat="44.58126" lon="8.013985"><ele>518.8333333333333</ele><time>2026-04-11T19:14:30.04Z</time></trkpt><trkpt lat="44.5811717" lon="8.0139733"><ele>518.0</ele><time>2026-04-11T19:14:33.041Z</time></trkpt><trkpt lat="44.5810883" lon="8.0139617"><ele>518.0</ele><time>2026-04-11T19:14:36.041Z</time></trkpt><trkpt lat="44.5810117" lon="8.0139583"><ele>518.0</ele><time>2026-04-11T19:14:39.041Z</time></trkpt><trkpt lat="44.580935" lon="8.0139567"><ele>518.0</ele><time>2026-04-11T19:14:42.041Z</time></trkpt><trkpt lat="44.580855" lon="8.0139583"><ele>518.0</ele><time>2026-04-11T19:14:45.04Z</time></trkpt><trkpt lat="44.580775" lon="8.0139533"><ele>518.0</ele><time>2026-04-11T19:14:48.04Z</time></trkpt><trkpt lat="44.5806933" lon="8.0139583"><ele>518.0</ele><time>2026-04-11T19:14:51.041Z</time></trkpt><trkpt lat="44.5806167" lon="8.0139617"><ele>518.0</ele><time>2026-04-11T19:14:54.039Z</time></trkpt><trkpt lat="44.580535" lon="8.0139617"><ele>518.0</ele><time>2026-04-11T19:14:57.04Z</time></trkpt><trkpt lat="44.580455" lon="8.0139667"><ele>518.0</ele><time>2026-04-11T19:15:00.04Z</time></trkpt><trkpt lat="44.5803767" lon="8.01397"><ele>518.0</ele><time>2026-04-11T19:15:03.04Z</time></trkpt><trkpt lat="44.5803" lon="8.01396"><ele>518.0</ele><time>2026-04-11T19:15:06.041Z</time></trkpt><trkpt lat="44.5802283" lon="8.0139617"><ele>518.0</ele><time>2026-04-11T19:15:09.043Z</time></trkpt><trkpt lat="44.5801617" lon="8.01397"><ele>519.1666666666666</ele><time>2026-04-11T19:15:12.042Z</time></trkpt><trkpt lat="44.5800868" lon="8.0139756"><ele>520.3333333333333</ele><time>2026-04-11T19:15:15.041Z</time></trkpt><trkpt lat="44.5800131" lon="8.01397"><ele>521.5</ele><time>2026-04-11T19:15:18.05Z</time></trkpt><trkpt lat="44.5799328" lon="8.0139644"><ele>522.6666666666666</ele><time>2026-04-11T19:15:21.066Z</time></trkpt><trkpt lat="44.5798433" lon="8.0139815"><ele>523.8333333333334</ele><time>2026-04-11T19:15:25.122Z</time></trkpt><trkpt lat="44.579764" lon="8.013993"><ele>525.0</ele><time>2026-04-11T19:15:29.137Z</time></trkpt><trkpt lat="44.5796967" lon="8.0139467"><ele>525.0</ele><time>2026-04-11T19:15:33.041Z</time></trkpt><trkpt lat="44.5796283" lon="8.01389"><ele>525.0</ele><time>2026-04-11T19:15:37.04Z</time></trkpt><trkpt lat="44.5795633" lon="8.013835"><ele>525.0</ele><time>2026-04-11T19:15:41.04Z</time></trkpt><trkpt lat="44.579505" lon="8.0137717"><ele>525.0</ele><time>2026-04-11T19:15:45.041Z</time></trkpt><trkpt lat="44.5794583" lon="8.0136867"><ele>525.0</ele><time>2026-04-11T19:15:49.042Z</time></trkpt><trkpt lat="44.5794217" lon="8.0135967"><ele>525.0</ele><time>2026-04-11T19:15:53.041Z</time></trkpt><trkpt lat="44.5793817" lon="8.0135083"><ele>526.8333333333334</ele><time>2026-04-11T19:15:57.042Z</time></trkpt><trkpt lat="44.579355" lon="8.0134133"><ele>528.6666666666666</ele><time>2026-04-11T19:16:01.041Z</time></trkpt><trkpt lat="44.5793233" lon="8.0133167"><ele>530.5</ele><time>2026-04-11T19:16:05.041Z</time></trkpt><trkpt lat="44.579285" lon="8.0132267"><ele>532.3333333333333</ele><time>2026-04-11T19:16:09.042Z</time></trkpt><trkpt lat="44.5792183" lon="8.0131667"><ele>534.1666666666666</ele><time>2026-04-11T19:16:13.044Z</time></trkpt><trkpt lat="44.5791767" lon="8.0130933"><ele>536.0</ele><time>2026-04-11T19:16:18.04Z</time></trkpt><trkpt lat="44.5763604" lon="8.0150321"><ele>561.0</ele><time>2026-04-11T19:22:21.064Z</time></trkpt><trkpt lat="44.5778657" lon="8.013406"><ele>568.0</ele><time>2026-04-11T19:23:12.842Z</time></trkpt><trkpt lat="44.5760168" lon="8.0152378"><ele>568.0</ele><time>2026-04-11T19:23:31.944Z</time></trkpt><trkpt lat="44.576008" lon="8.0153566"><ele>568.0</ele><time>2026-04-11T19:23:38.276Z</time></trkpt><trkpt lat="44.5763794" lon="8.0152134"><ele>567.3333333333334</ele><time>2026-04-11T19:24:02.474Z</time></trkpt><trkpt lat="44.5763929" lon="8.0150654"><ele>566.6666666666666</ele><time>2026-04-11T19:24:08.817Z</time></trkpt><trkpt lat="44.5765595" lon="8.0149474"><ele>566.0</ele><time>2026-04-11T19:24:15.458Z</time></trkpt><trkpt lat="44.5763998" lon="8.0150506"><ele>567.0</ele><time>2026-04-11T19:24:27.954Z</time></trkpt><trkpt lat="44.5762308" lon="8.0148236"><ele>568.0</ele><time>2026-04-11T19:24:34.608Z</time></trkpt><trkpt lat="44.5761625" lon="8.0153132"><ele>568.0</ele><time>2026-04-11T19:24:40.748Z</time></trkpt><trkpt lat="44.5759592" lon="8.0154681"><ele>568.0</ele><time>2026-04-11T19:24:53.64Z</time></trkpt><trkpt lat="44.575922" lon="8.0158748"><ele>571.0</ele><time>2026-04-11T19:25:08.231Z</time></trkpt><trkpt lat="44.5759416" lon="8.0160076"><ele>574.0</ele><time>2026-04-11T19:25:13.493Z</time></trkpt><trkpt lat="44.5755004" lon="8.0170224"><ele>585.0</ele><time>2026-04-11T19:25:46.7Z</time></trkpt><trkpt lat="44.5750243" lon="8.0182924"><ele>582.5</ele><time>2026-04-11T19:26:36.563Z</time></trkpt><trkpt lat="44.5747697" lon="8.0183566"><ele>580.0</ele><time>2026-04-11T19:26:44.315Z</time></trkpt><trkpt lat="44.574468" lon="8.018421"><ele>586.0</ele><time>2026-04-11T19:26:50.637Z</time></trkpt><trkpt lat="44.5744843" lon="8.0204668"><ele>586.0</ele><time>2026-04-11T19:27:09.638Z</time></trkpt><trkpt lat="44.574434" lon="8.0206355"><ele>586.0</ele><time>2026-04-11T19:27:15.893Z</time></trkpt><trkpt lat="44.5745457" lon="8.0207253"><ele>586.0</ele><time>2026-04-11T19:27:22.205Z</time></trkpt><trkpt lat="44.5748364" lon="8.0227063"><ele>602.0</ele><time>2026-04-11T19:27:28.441Z</time></trkpt><trkpt lat="44.5736432" lon="8.0195592"><ele>570.0</ele><time>2026-04-11T19:27:33.92Z</time></trkpt><trkpt lat="44.5747924" lon="8.0220241"><ele>602.0</ele><time>2026-04-11T19:28:19.224Z</time></trkpt><trkpt lat="44.5736483" lon="8.0194371"><ele>552.0</ele><time>2026-04-11T19:29:28.506Z</time></trkpt><trkpt lat="44.5781246" lon="8.0302762"><ele>552.0</ele><time>2026-04-11T19:31:42.414Z</time></trkpt><trkpt lat="44.5782468" lon="8.0304235"><ele>552.0</ele><time>2026-04-11T19:31:48.813Z</time></trkpt><trkpt lat="44.5796495" lon="8.0317566"><ele>541.0</ele><time>2026-04-11T19:31:55.181Z</time></trkpt><trkpt lat="44.5801794" lon="8.0336328"><ele>539.0</ele><time>2026-04-11T19:32:06.67Z</time></trkpt><trkpt lat="44.5795931" lon="8.0328257"><ele>551.0</ele><time>2026-04-11T19:33:18.182Z</time></trkpt><trkpt lat="44.578" lon="8.0351383"><ele>551.0</ele><time>2026-04-11T19:34:56.948Z</time></trkpt><trkpt lat="44.5779483" lon="8.035085"><ele>551.0</ele><time>2026-04-11T19:35:09.041Z</time></trkpt><trkpt lat="44.5778617" lon="8.03507"><ele>551.0</ele><time>2026-04-11T19:36:05.041Z</time></trkpt><trkpt lat="44.57779" lon="8.0350767"><ele>551.0</ele><time>2026-04-11T19:36:08.044Z</time></trkpt><trkpt lat="44.5777217" lon="8.0350817"><ele>551.0</ele><time>2026-04-11T19:36:11.042Z</time></trkpt><trkpt lat="44.5776183" lon="8.0351217"><ele>551.0</ele><time>2026-04-11T19:36:54.042Z</time></trkpt><trkpt lat="44.5775567" lon="8.035215"><ele>551.3333333333333</ele><time>2026-04-11T19:36:57.042Z</time></trkpt><trkpt lat="44.577505" lon="8.0353033"><ele>551.6666666666666</ele><time>2026-04-11T19:36:59.043Z</time></trkpt><trkpt lat="44.5774633" lon="8.0354"><ele>552.0</ele><time>2026-04-11T19:37:01.042Z</time></trkpt><trkpt lat="44.5774283" lon="8.0355067"><ele>552.3333333333334</ele><time>2026-04-11T19:37:03.044Z</time></trkpt><trkpt lat="44.577405" lon="8.03562"><ele>552.6666666666667</ele><time>2026-04-11T19:37:05.045Z</time></trkpt><trkpt lat="44.57737" lon="8.03576"><ele>553.0</ele><time>2026-04-11T19:37:07.042Z</time></trkpt><trkpt lat="44.5773433" lon="8.03591"><ele>553.0</ele><time>2026-04-11T19:37:09.043Z</time></trkpt><trkpt lat="44.57732" lon="8.036005"><ele>553.0</ele><time>2026-04-11T19:37:10.042Z</time></trkpt><trkpt lat="44.5773067" lon="8.0360983"><ele>553.0</ele><time>2026-04-11T19:37:11.042Z</time></trkpt><trkpt lat="44.5772917" lon="8.036245"><ele>553.0</ele><time>2026-04-11T19:37:13.043Z</time></trkpt><trkpt lat="44.5772617" lon="8.0363567"><ele>553.0</ele><time>2026-04-11T19:37:15.043Z</time></trkpt><trkpt lat="44.5772317" lon="8.0364717"><ele>553.0</ele><time>2026-04-11T19:37:17.041Z</time></trkpt><trkpt lat="44.5772283" lon="8.0365917"><ele>553.0</ele><time>2026-04-11T19:37:19.043Z</time></trkpt><trkpt lat="44.5772217" lon="8.036725"><ele>553.0</ele><time>2026-04-11T19:37:21.041Z</time></trkpt><trkpt lat="44.577195" lon="8.036865"><ele>553.0</ele><time>2026-04-11T19:37:23.042Z</time></trkpt><trkpt lat="44.5771633" lon="8.0370033"><ele>553.0</ele><time>2026-04-11T19:37:25.041Z</time></trkpt><trkpt lat="44.5771083" lon="8.0371467"><ele>553.0</ele><time>2026-04-11T19:37:27.042Z</time></trkpt><trkpt lat="44.5770583" lon="8.0372733"><ele>548.6666666666667</ele><time>2026-04-11T19:37:29.042Z</time></trkpt><trkpt lat="44.5770067" lon="8.03738"><ele>544.3333333333334</ele><time>2026-04-11T19:37:31.041Z</time></trkpt><trkpt lat="44.5769433" lon="8.0375233"><ele>540.0</ele><time>2026-04-11T19:37:33.043Z</time></trkpt><trkpt lat="44.57691" lon="8.0376083"><ele>535.6666666666666</ele><time>2026-04-11T19:37:34.043Z</time></trkpt><trkpt lat="44.5768733" lon="8.037695"><ele>531.3333333333333</ele><time>2026-04-11T19:37:35.041Z</time></trkpt><trkpt lat="44.5768367" lon="8.037775"><ele>527.0</ele><time>2026-04-11T19:37:36.042Z</time></trkpt><trkpt lat="44.5767967" lon="8.0378483"><ele>527.0</ele><time>2026-04-11T19:37:37.043Z</time></trkpt><trkpt lat="44.5767467" lon="8.0379283"><ele>527.0</ele><time>2026-04-11T19:37:38.042Z</time></trkpt><trkpt lat="44.5766967" lon="8.038005"><ele>527.0</ele><time>2026-04-11T19:37:39.043Z</time></trkpt><trkpt lat="44.576665" lon="8.0380967"><ele>527.0</ele><time>2026-04-11T19:37:40.042Z</time></trkpt><trkpt lat="44.5766" lon="8.03823"><ele>527.0</ele><time>2026-04-11T19:37:42.043Z</time></trkpt><trkpt lat="44.57655" lon="8.0383667"><ele>527.0</ele><time>2026-04-11T19:37:44.137Z</time></trkpt><trkpt lat="44.5764967" lon="8.038485"><ele>529.25</ele><time>2026-04-11T19:37:46.042Z</time></trkpt><trkpt lat="44.57643" lon="8.03861"><ele>531.5</ele><time>2026-04-11T19:37:48.042Z</time></trkpt><trkpt lat="44.57635" lon="8.0387367"><ele>533.75</ele><time>2026-04-11T19:37:50.042Z</time></trkpt><trkpt lat="44.5762867" lon="8.0388667"><ele>536.0</ele><time>2026-04-11T19:37:52.041Z</time></trkpt><trkpt lat="44.57622" lon="8.0390183"><ele>534.1666666666666</ele><time>2026-04-11T19:37:54.042Z</time></trkpt><trkpt lat="44.576185" lon="8.039105"><ele>532.3333333333333</ele><time>2026-04-11T19:37:55.045Z</time></trkpt><trkpt lat="44.5761483" lon="8.0391933"><ele>530.5</ele><time>2026-04-11T19:37:56.044Z</time></trkpt><trkpt lat="44.5761133" lon="8.0392817"><ele>528.6666666666666</ele><time>2026-04-11T19:37:57.044Z</time></trkpt><trkpt lat="44.57607" lon="8.0393567"><ele>526.8333333333334</ele><time>2026-04-11T19:37:58.044Z</time></trkpt><trkpt lat="44.5760183" lon="8.0394083"><ele>525.0</ele><time>2026-04-11T19:37:59.044Z</time></trkpt><trkpt lat="44.5759267" lon="8.0394933"><ele>524.6666666666666</ele><time>2026-04-11T19:38:01.043Z</time></trkpt><trkpt lat="44.5758533" lon="8.0395617"><ele>524.3333333333334</ele><time>2026-04-11T19:38:03.043Z</time></trkpt><trkpt lat="44.5757667" lon="8.03963"><ele>524.0</ele><time>2026-04-11T19:38:05.043Z</time></trkpt><trkpt lat="44.575695" lon="8.0396917"><ele>523.6666666666667</ele><time>2026-04-11T19:38:07.044Z</time></trkpt><trkpt lat="44.5756283" lon="8.0397717"><ele>523.3333333333334</ele><time>2026-04-11T19:38:09.043Z</time></trkpt><trkpt lat="44.5755683" lon="8.03984"><ele>523.0</ele><time>2026-04-11T19:38:11.043Z</time></trkpt><trkpt lat="44.57551" lon="8.0398917"><ele>525.1666666666667</ele><time>2026-04-11T19:38:13.043Z</time></trkpt><trkpt lat="44.5754683" lon="8.0399883"><ele>527.3333333333334</ele><time>2026-04-11T19:38:15.044Z</time></trkpt><trkpt lat="44.5754133" lon="8.0400867"><ele>529.5</ele><time>2026-04-11T19:38:18.044Z</time></trkpt><trkpt lat="44.57538" lon="8.040185"><ele>531.6666666666666</ele><time>2026-04-11T19:38:21.043Z</time></trkpt><trkpt lat="44.5753267" lon="8.040245"><ele>533.8333333333333</ele><time>2026-04-11T19:38:24.043Z</time></trkpt><trkpt lat="44.575295" lon="8.0403467"><ele>536.0</ele><time>2026-04-11T19:38:28.043Z</time></trkpt><trkpt lat="44.5752567" lon="8.0404367"><ele>536.0</ele><time>2026-04-11T19:38:32.043Z</time></trkpt><trkpt lat="44.57519" lon="8.0405083"><ele>536.0</ele><time>2026-04-11T19:38:35.044Z</time></trkpt><trkpt lat="44.5751483" lon="8.0406083"><ele>536.0</ele><time>2026-04-11T19:38:38.044Z</time></trkpt><trkpt lat="44.57509" lon="8.0406667"><ele>536.0</ele><time>2026-04-11T19:38:41.043Z</time></trkpt><trkpt lat="44.575035" lon="8.04072"><ele>536.0</ele><time>2026-04-11T19:38:43.044Z</time></trkpt><trkpt lat="44.5749783" lon="8.040765"><ele>536.0</ele><time>2026-04-11T19:38:45.043Z</time></trkpt><trkpt lat="44.5749267" lon="8.0408183"><ele>536.0</ele><time>2026-04-11T19:39:09.043Z</time></trkpt><trkpt lat="44.5748483" lon="8.0409083"><ele>535.6</ele><time>2026-04-11T19:39:10.043Z</time></trkpt><trkpt lat="44.5748483" lon="8.0409967"><ele>535.2</ele><time>2026-04-11T19:39:17.043Z</time></trkpt><trkpt lat="44.5748149" lon="8.0410737"><ele>534.8</ele><time>2026-04-11T19:39:24.114Z</time></trkpt><trkpt lat="44.5747268" lon="8.0412234"><ele>534.4</ele><time>2026-04-11T19:39:37.114Z</time></trkpt><trkpt lat="44.5747183" lon="8.0410625"><ele>534.0</ele><time>2026-04-11T19:40:22.146Z</time></trkpt><trkpt lat="44.5747461" lon="8.0409669"><ele>534.0</ele><time>2026-04-11T19:40:28.074Z</time></trkpt><trkpt lat="44.5747583" lon="8.0408677"><ele>534.0</ele><time>2026-04-11T19:40:32.13Z</time></trkpt><trkpt lat="44.5747533" lon="8.0407667"><ele>534.0</ele><time>2026-04-11T19:40:35.043Z</time></trkpt><trkpt lat="44.5747717" lon="8.040675"><ele>534.0</ele><time>2026-04-11T19:40:39.044Z</time></trkpt><trkpt lat="44.5748683" lon="8.0405333"><ele>534.0</ele><time>2026-04-11T19:40:48.043Z</time></trkpt><trkpt lat="44.5749233" lon="8.0404883"><ele>534.0</ele><time>2026-04-11T19:40:51.045Z</time></trkpt><trkpt lat="44.5749533" lon="8.040385"><ele>534.2857142857143</ele><time>2026-04-11T19:40:56.043Z</time></trkpt><trkpt lat="44.57492" lon="8.040305"><ele>534.5714285714286</ele><time>2026-04-11T19:41:01.043Z</time></trkpt><trkpt lat="44.5749117" lon="8.0402"><ele>534.8571428571429</ele><time>2026-04-11T19:41:07.043Z</time></trkpt><trkpt lat="44.5749433" lon="8.04012"><ele>535.1428571428571</ele><time>2026-04-11T19:41:11.044Z</time></trkpt><trkpt lat="44.5749517" lon="8.04003"><ele>535.4285714285714</ele><time>2026-04-11T19:41:15.044Z</time></trkpt><trkpt lat="44.5749383" lon="8.0399333"><ele>535.7142857142858</ele><time>2026-04-11T19:41:21.044Z</time></trkpt><trkpt lat="44.5749133" lon="8.039805"><ele>536.0</ele><time>2026-04-11T19:41:28.042Z</time></trkpt><trkpt lat="44.5748667" lon="8.039725"><ele>536.0</ele><time>2026-04-11T19:41:34.043Z</time></trkpt><trkpt lat="44.5748083" lon="8.039685"><ele>536.0</ele><time>2026-04-11T19:42:41.04Z</time></trkpt><trkpt lat="44.574715" lon="8.0396717"><ele>536.0</ele><time>2026-04-11T19:42:42.041Z</time></trkpt><trkpt lat="44.574655" lon="8.03954"><ele>536.0</ele><time>2026-04-11T19:43:08.04Z</time></trkpt><trkpt lat="44.5746433" lon="8.039285"><ele>536.0</ele><time>2026-04-11T19:43:24.041Z</time></trkpt><trkpt lat="44.5746783" lon="8.0391967"><ele>536.0</ele><time>2026-04-11T19:43:29.042Z</time></trkpt><trkpt lat="44.5746883" lon="8.0391083"><ele>536.0</ele><time>2026-04-11T19:43:34.042Z</time></trkpt><trkpt lat="44.5746833" lon="8.0390067"><ele>536.0</ele><time>2026-04-11T19:43:39.043Z</time></trkpt><trkpt lat="44.574675" lon="8.0389017"><ele>536.0</ele><time>2026-04-11T19:43:44.042Z</time></trkpt><trkpt lat="44.5747233" lon="8.0388"><ele>536.0</ele><time>2026-04-11T19:43:49.042Z</time></trkpt><trkpt lat="44.57477" lon="8.038715"><ele>536.0</ele><time>2026-04-11T19:43:52.041Z</time></trkpt><trkpt lat="44.5748183" lon="8.0386083"><ele>536.0</ele><time>2026-04-11T19:43:55.042Z</time></trkpt><trkpt lat="44.5748467" lon="8.0385267"><ele>536.0</ele><time>2026-04-11T19:43:57.042Z</time></trkpt><trkpt lat="44.5748617" lon="8.0384017"><ele>536.0</ele><time>2026-04-11T19:44:00.041Z</time></trkpt><trkpt lat="44.5748583" lon="8.0383067"><ele>536.0</ele><time>2026-04-11T19:44:02.041Z</time></trkpt><trkpt lat="44.5748483" lon="8.0381983"><ele>536.0</ele><time>2026-04-11T19:44:04.041Z</time></trkpt><trkpt lat="44.5748333" lon="8.0380683"><ele>536.0</ele><time>2026-04-11T19:44:07.041Z</time></trkpt><trkpt lat="44.5748167" lon="8.0379767"><ele>535.8333333333333</ele><time>2026-04-11T19:44:09.043Z</time></trkpt><trkpt lat="44.574775" lon="8.0378867"><ele>535.6666666666666</ele><time>2026-04-11T19:44:12.04Z</time></trkpt><trkpt lat="44.57474" lon="8.0377967"><ele>535.5</ele><time>2026-04-11T19:44:15.041Z</time></trkpt><trkpt lat="44.5747083" lon="8.0377067"><ele>535.3333333333334</ele><time>2026-04-11T19:44:18.04Z</time></trkpt><trkpt lat="44.574675" lon="8.0376117"><ele>535.1666666666667</ele><time>2026-04-11T19:44:21.041Z</time></trkpt><trkpt lat="44.5746417" lon="8.037525"><ele>535.0</ele><time>2026-04-11T19:44:24.041Z</time></trkpt><trkpt lat="44.5746017" lon="8.0374167"><ele>534.8333333333334</ele><time>2026-04-11T19:44:27.041Z</time></trkpt><trkpt lat="44.5745533" lon="8.03732"><ele>534.6666666666667</ele><time>2026-04-11T19:44:30.041Z</time></trkpt><trkpt lat="44.5745033" lon="8.0372117"><ele>534.5</ele><time>2026-04-11T19:44:33.041Z</time></trkpt><trkpt lat="44.57445" lon="8.0371133"><ele>534.3333333333334</ele><time>2026-04-11T19:44:36.041Z</time></trkpt><trkpt lat="44.574405" lon="8.0370283"><ele>534.1666666666666</ele><time>2026-04-11T19:44:39.042Z</time></trkpt><trkpt lat="44.5743617" lon="8.0369417"><ele>534.0</ele><time>2026-04-11T19:44:42.041Z</time></trkpt><trkpt lat="44.5743267" lon="8.0368567"><ele>536.0</ele><time>2026-04-11T19:44:45.041Z</time></trkpt><trkpt lat="44.57429" lon="8.03676"><ele>538.0</ele><time>2026-04-11T19:44:49.041Z</time></trkpt><trkpt lat="44.574245" lon="8.0366717"><ele>540.0</ele><time>2026-04-11T19:44:53.041Z</time></trkpt><trkpt lat="44.574195" lon="8.03657"><ele>542.0</ele><time>2026-04-11T19:44:57.041Z</time></trkpt><trkpt lat="44.5741467" lon="8.0364717"><ele>544.0</ele><time>2026-04-11T19:45:00.042Z</time></trkpt><trkpt lat="44.5741017" lon="8.036365"><ele>546.0</ele><time>2026-04-11T19:45:03.042Z</time></trkpt><trkpt lat="44.57407" lon="8.036285"><ele>545.7142857142857</ele><time>2026-04-11T19:45:06.041Z</time></trkpt><trkpt lat="44.5740917" lon="8.0361917"><ele>545.4285714285714</ele><time>2026-04-11T19:45:09.041Z</time></trkpt><trkpt lat="44.5740833" lon="8.0360967"><ele>545.1428571428571</ele><time>2026-04-11T19:45:11.042Z</time></trkpt><trkpt lat="44.5740633" lon="8.0359967"><ele>544.8571428571429</ele><time>2026-04-11T19:45:14.041Z</time></trkpt><trkpt lat="44.5740583" lon="8.0359083"><ele>544.5714285714286</ele><time>2026-04-11T19:45:17.042Z</time></trkpt><trkpt lat="44.574045" lon="8.0358183"><ele>544.2857142857142</ele><time>2026-04-11T19:45:20.041Z</time></trkpt><trkpt lat="44.5740283" lon="8.035725"><ele>544.0</ele><time>2026-04-11T19:45:23.04Z</time></trkpt><trkpt lat="44.5740117" lon="8.0356283"><ele>544.0</ele><time>2026-04-11T19:45:25.041Z</time></trkpt><trkpt lat="44.574" lon="8.0355283"><ele>544.0</ele><time>2026-04-11T19:45:27.041Z</time></trkpt><trkpt lat="44.57399" lon="8.035425"><ele>544.0</ele><time>2026-04-11T19:45:29.04Z</time></trkpt><trkpt lat="44.5739883" lon="8.0353017"><ele>544.0</ele><time>2026-04-11T19:45:32.041Z</time></trkpt><trkpt lat="44.5739933" lon="8.0352"><ele>544.0</ele><time>2026-04-11T19:45:34.041Z</time></trkpt><trkpt lat="44.5739917" lon="8.0351"><ele>544.0</ele><time>2026-04-11T19:45:36.041Z</time></trkpt><trkpt lat="44.5740067" lon="8.034985"><ele>543.0</ele><time>2026-04-11T19:45:38.041Z</time></trkpt><trkpt lat="44.574005" lon="8.03489"><ele>542.0</ele><time>2026-04-11T19:45:40.041Z</time></trkpt><trkpt lat="44.574005" lon="8.0347917"><ele>541.0</ele><time>2026-04-11T19:45:42.041Z</time></trkpt><trkpt lat="44.5739983" lon="8.0346783"><ele>540.0</ele><time>2026-04-11T19:45:44.125Z</time></trkpt><trkpt lat="44.5740017" lon="8.0345733"><ele>539.0</ele><time>2026-04-11T19:45:46.041Z</time></trkpt><trkpt lat="44.573965" lon="8.03445"><ele>538.0</ele><time>2026-04-11T19:45:49.041Z</time></trkpt><trkpt lat="44.5739417" lon="8.0343633"><ele>538.0</ele><time>2026-04-11T19:45:51.041Z</time></trkpt><trkpt lat="44.5739217" lon="8.0342517"><ele>538.0</ele><time>2026-04-11T19:45:53.041Z</time></trkpt><trkpt lat="44.5739033" lon="8.034115"><ele>538.0</ele><time>2026-04-11T19:45:55.041Z</time></trkpt><trkpt lat="44.57387" lon="8.0339767"><ele>538.0</ele><time>2026-04-11T19:45:57.042Z</time></trkpt><trkpt lat="44.5738333" lon="8.0338533"><ele>538.0</ele><time>2026-04-11T19:45:59.04Z</time></trkpt><trkpt lat="44.573765" lon="8.033715"><ele>536.6666666666667</ele><time>2026-04-11T19:46:02.041Z</time></trkpt><trkpt lat="44.5737183" lon="8.0336417"><ele>535.3333333333334</ele><time>2026-04-11T19:46:04.041Z</time></trkpt><trkpt lat="44.5736483" lon="8.0335633"><ele>534.0</ele><time>2026-04-11T19:46:07.043Z</time></trkpt><trkpt lat="44.5735817" lon="8.0334733"><ele>532.6666666666666</ele><time>2026-04-11T19:46:10.04Z</time></trkpt><trkpt lat="44.5735333" lon="8.03337"><ele>531.3333333333333</ele><time>2026-04-11T19:46:13.041Z</time></trkpt><trkpt lat="44.5734983" lon="8.0332833"><ele>530.0</ele><time>2026-04-11T19:46:15.042Z</time></trkpt><trkpt lat="44.5734567" lon="8.0331933"><ele>530.0</ele><time>2026-04-11T19:46:17.04Z</time></trkpt><trkpt lat="44.5734033" lon="8.0331"><ele>530.0</ele><time>2026-04-11T19:46:19.04Z</time></trkpt><trkpt lat="44.5733467" lon="8.0330283"><ele>530.0</ele><time>2026-04-11T19:46:21.041Z</time></trkpt><trkpt lat="44.5733017" lon="8.032965"><ele>530.0</ele><time>2026-04-11T19:46:23.041Z</time></trkpt><trkpt lat="44.57324" lon="8.03288"><ele>530.0</ele><time>2026-04-11T19:46:26.041Z</time></trkpt><trkpt lat="44.5731783" lon="8.032805"><ele>530.0</ele><time>2026-04-11T19:46:28.04Z</time></trkpt><trkpt lat="44.57312" lon="8.0327183"><ele>530.0</ele><time>2026-04-11T19:46:30.041Z</time></trkpt><trkpt lat="44.5730683" lon="8.0326417"><ele>530.0</ele><time>2026-04-11T19:46:32.041Z</time></trkpt><trkpt lat="44.573005" lon="8.0325717"><ele>530.0</ele><time>2026-04-11T19:46:34.042Z</time></trkpt><trkpt lat="44.572945" lon="8.0325033"><ele>530.0</ele><time>2026-04-11T19:46:36.04Z</time></trkpt><trkpt lat="44.572865" lon="8.0324233"><ele>530.0</ele><time>2026-04-11T19:46:38.04Z</time></trkpt><trkpt lat="44.5727717" lon="8.0323217"><ele>530.0</ele><time>2026-04-11T19:46:40.04Z</time></trkpt><trkpt lat="44.5726933" lon="8.0322283"><ele>530.1666666666666</ele><time>2026-04-11T19:46:42.04Z</time></trkpt><trkpt lat="44.5726167" lon="8.0321533"><ele>530.3333333333333</ele><time>2026-04-11T19:46:44.043Z</time></trkpt><trkpt lat="44.5725467" lon="8.0320917"><ele>530.5</ele><time>2026-04-11T19:46:46.041Z</time></trkpt><trkpt lat="44.5724883" lon="8.0320283"><ele>530.6666666666666</ele><time>2026-04-11T19:46:48.041Z</time></trkpt><trkpt lat="44.5724317" lon="8.0319667"><ele>530.8333333333334</ele><time>2026-04-11T19:46:50.043Z</time></trkpt><trkpt lat="44.572375" lon="8.0319067"><ele>531.0</ele><time>2026-04-11T19:46:52.041Z</time></trkpt><trkpt lat="44.5723167" lon="8.0318583"><ele>531.0</ele><time>2026-04-11T19:46:54.041Z</time></trkpt><trkpt lat="44.572235" lon="8.0317967"><ele>531.0</ele><time>2026-04-11T19:46:57.041Z</time></trkpt><trkpt lat="44.5721633" lon="8.03175"><ele>531.0</ele><time>2026-04-11T19:47:00.041Z</time></trkpt><trkpt lat="44.572085" lon="8.0317233"><ele>531.0</ele><time>2026-04-11T19:47:03.042Z</time></trkpt><trkpt lat="44.5720017" lon="8.0317167"><ele>531.0</ele><time>2026-04-11T19:47:06.041Z</time></trkpt><trkpt lat="44.57192" lon="8.03171"><ele>531.0</ele><time>2026-04-11T19:47:09.041Z</time></trkpt><trkpt lat="44.57184" lon="8.0316967"><ele>531.0</ele><time>2026-04-11T19:47:13.042Z</time></trkpt><trkpt lat="44.571765" lon="8.031685"><ele>531.0</ele><time>2026-04-11T19:47:17.041Z</time></trkpt><trkpt lat="44.571685" lon="8.0316517"><ele>531.0</ele><time>2026-04-11T19:47:21.041Z</time></trkpt><trkpt lat="44.5716083" lon="8.0316133"><ele>531.0</ele><time>2026-04-11T19:47:25.042Z</time></trkpt><trkpt lat="44.5715333" lon="8.0315633"><ele>531.0</ele><time>2026-04-11T19:47:29.041Z</time></trkpt><trkpt lat="44.5714717" lon="8.0315167"><ele>531.0</ele><time>2026-04-11T19:47:32.041Z</time></trkpt><trkpt lat="44.57141" lon="8.0314783"><ele>531.0</ele><time>2026-04-11T19:47:35.04Z</time></trkpt><trkpt lat="44.5713483" lon="8.0314367"><ele>531.0</ele><time>2026-04-11T19:47:38.041Z</time></trkpt><trkpt lat="44.57129" lon="8.0313867"><ele>531.0</ele><time>2026-04-11T19:47:41.041Z</time></trkpt><trkpt lat="44.5712283" lon="8.0313283"><ele>531.0</ele><time>2026-04-11T19:47:44.041Z</time></trkpt><trkpt lat="44.5711683" lon="8.0313"><ele>531.0</ele><time>2026-04-11T19:47:47.041Z</time></trkpt><trkpt lat="44.57111" lon="8.0312633"><ele>531.0</ele><time>2026-04-11T19:47:50.041Z</time></trkpt><trkpt lat="44.5710483" lon="8.0312267"><ele>531.0</ele><time>2026-04-11T19:47:53.04Z</time></trkpt><trkpt lat="44.5709817" lon="8.0312033"><ele>532.2857142857143</ele><time>2026-04-11T19:47:56.04Z</time></trkpt><trkpt lat="44.5709117" lon="8.0311517"><ele>533.5714285714287</ele><time>2026-04-11T19:47:59.041Z</time></trkpt><trkpt lat="44.57085" lon="8.031105"><ele>534.8571428571429</ele><time>2026-04-11T19:48:02.042Z</time></trkpt><trkpt lat="44.5707867" lon="8.0310933"><ele>536.1428571428571</ele><time>2026-04-11T19:48:05.041Z</time></trkpt><trkpt lat="44.5707117" lon="8.0310717"><ele>537.4285714285713</ele><time>2026-04-11T19:48:08.04Z</time></trkpt><trkpt lat="44.5706467" lon="8.031075"><ele>538.7142857142857</ele><time>2026-04-11T19:48:11.041Z</time></trkpt><trkpt lat="44.5705717" lon="8.031065"><ele>540.0</ele><time>2026-04-11T19:48:15.041Z</time></trkpt><trkpt lat="44.5705017" lon="8.0310783"><ele>540.0</ele><time>2026-04-11T19:48:19.041Z</time></trkpt><trkpt lat="44.5704367" lon="8.0310667"><ele>540.0</ele><time>2026-04-11T19:48:23.041Z</time></trkpt><trkpt lat="44.5703717" lon="8.031035"><ele>540.0</ele><time>2026-04-11T19:48:27.041Z</time></trkpt><trkpt lat="44.5703033" lon="8.0310333"><ele>540.0</ele><time>2026-04-11T19:48:31.041Z</time></trkpt><trkpt lat="44.570235" lon="8.0309883"><ele>540.0</ele><time>2026-04-11T19:48:35.041Z</time></trkpt><trkpt lat="44.5701617" lon="8.0309567"><ele>540.0</ele><time>2026-04-11T19:48:39.041Z</time></trkpt><trkpt lat="44.570095" lon="8.0309067"><ele>540.0</ele><time>2026-04-11T19:48:43.041Z</time></trkpt><trkpt lat="44.5700267" lon="8.030885"><ele>540.2857142857142</ele><time>2026-04-11T19:48:47.041Z</time></trkpt><trkpt lat="44.5699583" lon="8.0309167"><ele>540.5714285714286</ele><time>2026-04-11T19:48:51.041Z</time></trkpt><trkpt lat="44.5698883" lon="8.0309367"><ele>540.8571428571429</ele><time>2026-04-11T19:48:56.041Z</time></trkpt><trkpt lat="44.56982" lon="8.0309683"><ele>541.1428571428571</ele><time>2026-04-11T19:49:01.041Z</time></trkpt><trkpt lat="44.569755" lon="8.0309933"><ele>541.4285714285714</ele><time>2026-04-11T19:49:05.041Z</time></trkpt><trkpt lat="44.5697" lon="8.0310567"><ele>541.7142857142857</ele><time>2026-04-11T19:49:10.041Z</time></trkpt><trkpt lat="44.5696483" lon="8.031125"><ele>542.0</ele><time>2026-04-11T19:49:15.041Z</time></trkpt><trkpt lat="44.5695967" lon="8.0311917"><ele>542.0</ele><time>2026-04-11T19:49:20.041Z</time></trkpt><trkpt lat="44.5695567" lon="8.0312783"><ele>542.0</ele><time>2026-04-11T19:49:25.041Z</time></trkpt><trkpt lat="44.569515" lon="8.0313617"><ele>542.0</ele><time>2026-04-11T19:49:31.041Z</time></trkpt><trkpt lat="44.56947" lon="8.0314283"><ele>542.0</ele><time>2026-04-11T19:49:36.041Z</time></trkpt><trkpt lat="44.56944" lon="8.031525"><ele>542.0</ele><time>2026-04-11T19:49:42.042Z</time></trkpt><trkpt lat="44.5694033" lon="8.03161"><ele>542.0</ele><time>2026-04-11T19:49:48.04Z</time></trkpt><trkpt lat="44.5693567" lon="8.03168"><ele>542.0</ele><time>2026-04-11T19:49:53.041Z</time></trkpt><trkpt lat="44.5693233" lon="8.031755"><ele>544.0</ele><time>2026-04-11T19:49:59.041Z</time></trkpt><trkpt lat="44.5692883" lon="8.0318483"><ele>546.0</ele><time>2026-04-11T19:50:05.041Z</time></trkpt><trkpt lat="44.5692717" lon="8.031945"><ele>548.0</ele><time>2026-04-11T19:50:12.04Z</time></trkpt><trkpt lat="44.569225" lon="8.0320267"><ele>550.0</ele><time>2026-04-11T19:50:18.042Z</time></trkpt><trkpt lat="44.5691917" lon="8.0321333"><ele>552.0</ele><time>2026-04-11T19:50:26.041Z</time></trkpt><trkpt lat="44.5691883" lon="8.032225"><ele>554.0</ele><time>2026-04-11T19:50:32.043Z</time></trkpt><trkpt lat="44.56917" lon="8.0323183"><ele>556.0</ele><time>2026-04-11T19:50:37.041Z</time></trkpt><trkpt lat="44.5691733" lon="8.0324217"><ele>557.7142857142857</ele><time>2026-04-11T19:50:43.041Z</time></trkpt><trkpt lat="44.5691633" lon="8.0325167"><ele>559.4285714285714</ele><time>2026-04-11T19:50:49.041Z</time></trkpt><trkpt lat="44.5691633" lon="8.0326083"><ele>561.1428571428571</ele><time>2026-04-11T19:50:55.04Z</time></trkpt><trkpt lat="44.5691467" lon="8.0327033"><ele>562.8571428571429</ele><time>2026-04-11T19:51:01.041Z</time></trkpt><trkpt lat="44.5691683" lon="8.0328033"><ele>564.5714285714286</ele><time>2026-04-11T19:51:07.041Z</time></trkpt><trkpt lat="44.569175" lon="8.0328983"><ele>566.2857142857142</ele><time>2026-04-11T19:51:13.041Z</time></trkpt><trkpt lat="44.56916" lon="8.0329933"><ele>568.0</ele><time>2026-04-11T19:51:19.043Z</time></trkpt><trkpt lat="44.5691483" lon="8.033085"><ele>568.0</ele><time>2026-04-11T19:51:25.042Z</time></trkpt><trkpt lat="44.5691283" lon="8.0331867"><ele>568.0</ele><time>2026-04-11T19:51:30.041Z</time></trkpt><trkpt lat="44.569115" lon="8.0332883"><ele>568.0</ele><time>2026-04-11T19:51:36.042Z</time></trkpt><trkpt lat="44.5691017" lon="8.033385"><ele>568.0</ele><time>2026-04-11T19:51:42.041Z</time></trkpt><trkpt lat="44.5690783" lon="8.0334917"><ele>568.0</ele><time>2026-04-11T19:51:48.043Z</time></trkpt><trkpt lat="44.5690617" lon="8.0335967"><ele>568.0</ele><time>2026-04-11T19:51:53.041Z</time></trkpt><trkpt lat="44.569055" lon="8.033685"><ele>568.0</ele><time>2026-04-11T19:51:58.041Z</time></trkpt><trkpt lat="44.5690517" lon="8.033775"><ele>569.5714285714286</ele><time>2026-04-11T19:52:03.042Z</time></trkpt><trkpt lat="44.569045" lon="8.0338733"><ele>571.1428571428571</ele><time>2026-04-11T19:52:09.042Z</time></trkpt><trkpt lat="44.5690533" lon="8.0339733"><ele>572.7142857142857</ele><time>2026-04-11T19:52:15.041Z</time></trkpt><trkpt lat="44.56905" lon="8.03407"><ele>574.2857142857142</ele><time>2026-04-11T19:52:20.042Z</time></trkpt><trkpt lat="44.5690617" lon="8.034165"><ele>575.8571428571429</ele><time>2026-04-11T19:52:25.041Z</time></trkpt><trkpt lat="44.5690667" lon="8.03427"><ele>577.4285714285713</ele><time>2026-04-11T19:52:30.041Z</time></trkpt><trkpt lat="44.5690717" lon="8.0343617"><ele>579.0</ele><time>2026-04-11T19:52:35.041Z</time></trkpt><trkpt lat="44.5690617" lon="8.0344583"><ele>580.5714285714286</ele><time>2026-04-11T19:52:41.041Z</time></trkpt><trkpt lat="44.56905" lon="8.0345667"><ele>582.1428571428571</ele><time>2026-04-11T19:52:46.042Z</time></trkpt><trkpt lat="44.5690367" lon="8.034675"><ele>583.7142857142858</ele><time>2026-04-11T19:52:52.041Z</time></trkpt><trkpt lat="44.5690317" lon="8.0347683"><ele>585.2857142857142</ele><time>2026-04-11T19:52:57.041Z</time></trkpt><trkpt lat="44.5690267" lon="8.0348617"><ele>586.8571428571429</ele><time>2026-04-11T19:53:02.041Z</time></trkpt><trkpt lat="44.5689933" lon="8.03495"><ele>588.4285714285714</ele><time>2026-04-11T19:53:07.04Z</time></trkpt><trkpt lat="44.5689833" lon="8.0350467"><ele>590.0</ele><time>2026-04-11T19:53:12.04Z</time></trkpt><trkpt lat="44.5689783" lon="8.0351483"><ele>591.5</ele><time>2026-04-11T19:53:17.042Z</time></trkpt><trkpt lat="44.568965" lon="8.0352483"><ele>593.0</ele><time>2026-04-11T19:53:22.041Z</time></trkpt><trkpt lat="44.5689383" lon="8.0353633"><ele>594.5</ele><time>2026-04-11T19:53:27.041Z</time></trkpt><trkpt lat="44.5689183" lon="8.0354483"><ele>596.0</ele><time>2026-04-11T19:53:30.042Z</time></trkpt><trkpt lat="44.5688833" lon="8.0355267"><ele>597.5</ele><time>2026-04-11T19:53:33.042Z</time></trkpt><trkpt lat="44.5688267" lon="8.03562"><ele>599.0</ele><time>2026-04-11T19:53:37.041Z</time></trkpt><trkpt lat="44.5687867" lon="8.0357167"><ele>599.0</ele><time>2026-04-11T19:53:41.04Z</time></trkpt><trkpt lat="44.5687483" lon="8.0357933"><ele>599.0</ele><time>2026-04-11T19:53:44.042Z</time></trkpt><trkpt lat="44.5686917" lon="8.035875"><ele>599.0</ele><time>2026-04-11T19:53:48.041Z</time></trkpt><trkpt lat="44.5686333" lon="8.0359417"><ele>599.0</ele><time>2026-04-11T19:53:51.042Z</time></trkpt><trkpt lat="44.56858" lon="8.0360067"><ele>599.0</ele><time>2026-04-11T19:53:54.041Z</time></trkpt><trkpt lat="44.568525" lon="8.0360633"><ele>599.0</ele><time>2026-04-11T19:53:57.042Z</time></trkpt><trkpt lat="44.5684617" lon="8.0361133"><ele>599.0</ele><time>2026-04-11T19:54:00.042Z</time></trkpt><trkpt lat="44.5684033" lon="8.03618"><ele>597.8333333333333</ele><time>2026-04-11T19:54:03.041Z</time></trkpt><trkpt lat="44.568345" lon="8.03624"><ele>596.6666666666666</ele><time>2026-04-11T19:54:06.041Z</time></trkpt><trkpt lat="44.5682933" lon="8.0363083"><ele>595.5</ele><time>2026-04-11T19:54:09.042Z</time></trkpt><trkpt lat="44.5682367" lon="8.0363667"><ele>594.3333333333334</ele><time>2026-04-11T19:54:12.041Z</time></trkpt><trkpt lat="44.5681817" lon="8.036445"><ele>593.1666666666667</ele><time>2026-04-11T19:54:15.041Z</time></trkpt><trkpt lat="44.5681417" lon="8.0365483"><ele>592.0</ele><time>2026-04-11T19:54:18.042Z</time></trkpt><trkpt lat="44.568105" lon="8.0366433"><ele>590.7142857142858</ele><time>2026-04-11T19:54:21.041Z</time></trkpt><trkpt lat="44.568065" lon="8.0367267"><ele>589.4285714285714</ele><time>2026-04-11T19:54:24.042Z</time></trkpt><trkpt lat="44.5680283" lon="8.036815"><ele>588.1428571428571</ele><time>2026-04-11T19:54:27.041Z</time></trkpt><trkpt lat="44.5679933" lon="8.0368933"><ele>586.8571428571429</ele><time>2026-04-11T19:54:30.042Z</time></trkpt><trkpt lat="44.5679467" lon="8.036965"><ele>585.5714285714286</ele><time>2026-04-11T19:54:33.042Z</time></trkpt><trkpt lat="44.567915" lon="8.0370517"><ele>584.2857142857143</ele><time>2026-04-11T19:54:36.041Z</time></trkpt><trkpt lat="44.56787" lon="8.0371383"><ele>583.0</ele><time>2026-04-11T19:54:39.042Z</time></trkpt><trkpt lat="44.5678283" lon="8.0372283"><ele>583.0000000000001</ele><time>2026-04-11T19:54:42.041Z</time></trkpt><trkpt lat="44.5677933" lon="8.037315"><ele>583.0</ele><time>2026-04-11T19:54:45.041Z</time></trkpt><trkpt lat="44.5677483" lon="8.0373917"><ele>583.0</ele><time>2026-04-11T19:54:48.042Z</time></trkpt><trkpt lat="44.567715" lon="8.0374717"><ele>583.0</ele><time>2026-04-11T19:54:51.042Z</time></trkpt><trkpt lat="44.5676933" lon="8.037565"><ele>583.0</ele><time>2026-04-11T19:54:54.041Z</time></trkpt><trkpt lat="44.5676733" lon="8.0376533"><ele>583.0000000000001</ele><time>2026-04-11T19:54:57.041Z</time></trkpt><trkpt lat="44.5676633" lon="8.0377517"><ele>583.0</ele><time>2026-04-11T19:55:00.041Z</time></trkpt><trkpt lat="44.5676733" lon="8.037845"><ele>585.5</ele><time>2026-04-11T19:55:03.041Z</time></trkpt><trkpt lat="44.5677033" lon="8.037955"><ele>588.0</ele><time>2026-04-11T19:55:06.041Z</time></trkpt><trkpt lat="44.56773" lon="8.0380633"><ele>590.5</ele><time>2026-04-11T19:55:09.041Z</time></trkpt><trkpt lat="44.5677583" lon="8.038175"><ele>593.0</ele><time>2026-04-11T19:55:12.042Z</time></trkpt><trkpt lat="44.5677933" lon="8.0382983"><ele>595.5</ele><time>2026-04-11T19:55:15.042Z</time></trkpt><trkpt lat="44.56782" lon="8.0383917"><ele>598.0</ele><time>2026-04-11T19:55:17.041Z</time></trkpt><trkpt lat="44.5678483" lon="8.0384833"><ele>602.5714285714286</ele><time>2026-04-11T19:55:19.041Z</time></trkpt><trkpt lat="44.56787" lon="8.03858"><ele>607.1428571428571</ele><time>2026-04-11T19:55:21.041Z</time></trkpt><trkpt lat="44.5678867" lon="8.038675"><ele>611.7142857142858</ele><time>2026-04-11T19:55:23.042Z</time></trkpt><trkpt lat="44.5678933" lon="8.0387667"><ele>616.2857142857142</ele><time>2026-04-11T19:55:25.042Z</time></trkpt><trkpt lat="44.5678867" lon="8.03886"><ele>620.8571428571429</ele><time>2026-04-11T19:55:27.041Z</time></trkpt><trkpt lat="44.5678967" lon="8.03896"><ele>625.4285714285714</ele><time>2026-04-11T19:55:30.043Z</time></trkpt><trkpt lat="44.5678867" lon="8.0390583"><ele>630.0</ele><time>2026-04-11T19:55:33.041Z</time></trkpt><trkpt lat="44.56795" lon="8.0390483"><ele>630.0</ele><time>2026-04-11T19:55:40.041Z</time></trkpt><trkpt lat="44.5679783" lon="8.0389617"><ele>630.0</ele><time>2026-04-11T19:55:44.041Z</time></trkpt><trkpt lat="44.5679883" lon="8.038865"><ele>630.0</ele><time>2026-04-11T19:55:49.042Z</time></trkpt><trkpt lat="44.5679983" lon="8.038775"><ele>630.0</ele><time>2026-04-11T19:55:53.041Z</time></trkpt><trkpt lat="44.5679967" lon="8.03867"><ele>630.0</ele><time>2026-04-11T19:55:59.041Z</time></trkpt><trkpt lat="44.567995" lon="8.03858"><ele>630.0</ele><time>2026-04-11T19:56:04.041Z</time></trkpt><trkpt lat="44.5679783" lon="8.0384933"><ele>630.0</ele><time>2026-04-11T19:56:08.041Z</time></trkpt><trkpt lat="44.5679733" lon="8.03839"><ele>629.0</ele><time>2026-04-11T19:56:13.041Z</time></trkpt><trkpt lat="44.5679533" lon="8.03829"><ele>628.0</ele><time>2026-04-11T19:56:18.041Z</time></trkpt><trkpt lat="44.5679433" lon="8.0382"><ele>627.0</ele><time>2026-04-11T19:56:23.042Z</time></trkpt><trkpt lat="44.5679267" lon="8.0381033"><ele>626.0</ele><time>2026-04-11T19:56:28.041Z</time></trkpt><trkpt lat="44.567915" lon="8.0380117"><ele>625.0</ele><time>2026-04-11T19:56:33.041Z</time></trkpt><trkpt lat="44.5679167" lon="8.037915"><ele>624.0</ele><time>2026-04-11T19:56:39.043Z</time></trkpt><trkpt lat="44.5679433" lon="8.037825"><ele>623.0</ele><time>2026-04-11T19:56:45.041Z</time></trkpt><trkpt lat="44.5680067" lon="8.0377817"><ele>623.0</ele><time>2026-04-11T19:56:50.041Z</time></trkpt><trkpt lat="44.568055" lon="8.0378483"><ele>623.0</ele><time>2026-04-11T19:56:57.042Z</time></trkpt><trkpt lat="44.5680717" lon="8.0379533"><ele>623.0</ele><time>2026-04-11T19:57:04.04Z</time></trkpt><trkpt lat="44.56809" lon="8.038045"><ele>623.0</ele><time>2026-04-11T19:57:10.041Z</time></trkpt><trkpt lat="44.5681117" lon="8.03814"><ele>623.0</ele><time>2026-04-11T19:57:16.04Z</time></trkpt><trkpt lat="44.5681517" lon="8.038225"><ele>623.0</ele><time>2026-04-11T19:57:22.04Z</time></trkpt><trkpt lat="44.5681717" lon="8.0383267"><ele>623.0</ele><time>2026-04-11T19:57:29.04Z</time></trkpt><trkpt lat="44.5682167" lon="8.038405"><ele>624.0</ele><time>2026-04-11T19:57:35.04Z</time></trkpt><trkpt lat="44.5682633" lon="8.03849"><ele>625.0</ele><time>2026-04-11T19:57:41.04Z</time></trkpt><trkpt lat="44.5683033" lon="8.03856"><ele>626.0</ele><time>2026-04-11T19:57:46.041Z</time></trkpt><trkpt lat="44.5683483" lon="8.0386433"><ele>627.0</ele><time>2026-04-11T19:57:52.041Z</time></trkpt><trkpt lat="44.568395" lon="8.0387167"><ele>628.0</ele><time>2026-04-11T19:57:58.041Z</time></trkpt><trkpt lat="44.56845" lon="8.0387783"><ele>629.0</ele><time>2026-04-11T19:58:04.04Z</time></trkpt><trkpt lat="44.568485" lon="8.0388567"><ele>630.0</ele><time>2026-04-11T19:58:11.04Z</time></trkpt><trkpt lat="44.5684933" lon="8.0389583"><ele>630.0</ele><time>2026-04-11T19:58:17.041Z</time></trkpt><trkpt lat="44.5685233" lon="8.0390367"><ele>630.0</ele><time>2026-04-11T19:58:22.04Z</time></trkpt><trkpt lat="44.5685433" lon="8.03913"><ele>630.0</ele><time>2026-04-11T19:58:28.04Z</time></trkpt><trkpt lat="44.5685867" lon="8.0392117"><ele>630.0</ele><time>2026-04-11T19:58:34.04Z</time></trkpt><trkpt lat="44.56866" lon="8.0391217"><ele>630.0</ele><time>2026-04-11T19:58:46.04Z</time></trkpt><trkpt lat="44.5686733" lon="8.0390283"><ele>630.0</ele><time>2026-04-11T19:58:51.041Z</time></trkpt><trkpt lat="44.5686817" lon="8.03894"><ele>630.0</ele><time>2026-04-11T19:58:56.041Z</time></trkpt><trkpt lat="44.5687" lon="8.0388333"><ele>630.0</ele><time>2026-04-11T19:59:01.041Z</time></trkpt><trkpt lat="44.5686883" lon="8.0387217"><ele>630.0</ele><time>2026-04-11T19:59:05.041Z</time></trkpt><trkpt lat="44.56868" lon="8.038625"><ele>630.0</ele><time>2026-04-11T19:59:10.042Z</time></trkpt><trkpt lat="44.568675" lon="8.0385233"><ele>630.0</ele><time>2026-04-11T19:59:15.043Z</time></trkpt><trkpt lat="44.568695" lon="8.0384383"><ele>630.0</ele><time>2026-04-11T19:59:19.041Z</time></trkpt><trkpt lat="44.56871" lon="8.0383433"><ele>630.0</ele><time>2026-04-11T19:59:24.04Z</time></trkpt><trkpt lat="44.568715" lon="8.0382533"><ele>630.0</ele><time>2026-04-11T19:59:29.041Z</time></trkpt><trkpt lat="44.56873" lon="8.038165"><ele>630.8571428571429</ele><time>2026-04-11T19:59:34.04Z</time></trkpt><trkpt lat="44.5687783" lon="8.0381033"><ele>631.7142857142858</ele><time>2026-04-11T19:59:41.04Z</time></trkpt><trkpt lat="44.56883" lon="8.0381667"><ele>632.5714285714286</ele><time>2026-04-11T19:59:47.04Z</time></trkpt><trkpt lat="44.56886" lon="8.0382517"><ele>633.4285714285714</ele><time>2026-04-11T19:59:52.043Z</time></trkpt><trkpt lat="44.568895" lon="8.03834"><ele>634.2857142857143</ele><time>2026-04-11T19:59:56.042Z</time></trkpt><trkpt lat="44.5689333" lon="8.0384233"><ele>635.1428571428571</ele><time>2026-04-11T20:00:00.042Z</time></trkpt><trkpt lat="44.5689633" lon="8.0385083"><ele>636.0</ele><time>2026-04-11T20:00:03.042Z</time></trkpt><trkpt lat="44.5689967" lon="8.0386017"><ele>637.1428571428571</ele><time>2026-04-11T20:00:06.041Z</time></trkpt><trkpt lat="44.5690217" lon="8.03869"><ele>638.2857142857143</ele><time>2026-04-11T20:00:09.044Z</time></trkpt><trkpt lat="44.56904" lon="8.0387933"><ele>639.4285714285714</ele><time>2026-04-11T20:00:13.042Z</time></trkpt><trkpt lat="44.5690683" lon="8.038895"><ele>640.5714285714286</ele><time>2026-04-11T20:00:18.042Z</time></trkpt><trkpt lat="44.5690683" lon="8.0389983"><ele>641.7142857142858</ele><time>2026-04-11T20:00:23.043Z</time></trkpt><trkpt lat="44.5690683" lon="8.0390967"><ele>642.8571428571429</ele><time>2026-04-11T20:00:29.041Z</time></trkpt><trkpt lat="44.5690783" lon="8.039195"><ele>644.0</ele><time>2026-04-11T20:00:35.041Z</time></trkpt><trkpt lat="44.5690917" lon="8.03929"><ele>644.8571428571429</ele><time>2026-04-11T20:00:40.041Z</time></trkpt><trkpt lat="44.569125" lon="8.0393683"><ele>645.7142857142858</ele><time>2026-04-11T20:00:44.041Z</time></trkpt><trkpt lat="44.5691667" lon="8.039435"><ele>646.5714285714286</ele><time>2026-04-11T20:00:48.041Z</time></trkpt><trkpt lat="44.5692067" lon="8.03953"><ele>647.4285714285714</ele><time>2026-04-11T20:00:54.041Z</time></trkpt><trkpt lat="44.56924" lon="8.0396183"><ele>648.2857142857143</ele><time>2026-04-11T20:00:59.042Z</time></trkpt><trkpt lat="44.569245" lon="8.0397117"><ele>649.1428571428571</ele><time>2026-04-11T20:01:04.041Z</time></trkpt><trkpt lat="44.5692417" lon="8.0398167"><ele>650.0</ele><time>2026-04-11T20:01:09.043Z</time></trkpt><trkpt lat="44.569235" lon="8.0399183"><ele>650.8333333333333</ele><time>2026-04-11T20:01:14.042Z</time></trkpt><trkpt lat="44.569225" lon="8.0400183"><ele>651.6666666666666</ele><time>2026-04-11T20:01:19.041Z</time></trkpt><trkpt lat="44.56919" lon="8.0401083"><ele>652.5</ele><time>2026-04-11T20:01:25.042Z</time></trkpt><trkpt lat="44.56916" lon="8.0402017"><ele>653.3333333333334</ele><time>2026-04-11T20:01:29.041Z</time></trkpt><trkpt lat="44.569135" lon="8.04029"><ele>654.1666666666667</ele><time>2026-04-11T20:01:33.042Z</time></trkpt><trkpt lat="44.5690867" lon="8.0403867"><ele>655.0</ele><time>2026-04-11T20:01:36.041Z</time></trkpt><trkpt lat="44.5690433" lon="8.0404833"><ele>655.0</ele><time>2026-04-11T20:01:40.042Z</time></trkpt><trkpt lat="44.5689917" lon="8.0405633"><ele>655.0</ele><time>2026-04-11T20:01:44.042Z</time></trkpt><trkpt lat="44.5689617" lon="8.040665"><ele>655.0</ele><time>2026-04-11T20:01:48.042Z</time></trkpt><trkpt lat="44.5689233" lon="8.0407583"><ele>655.0</ele><time>2026-04-11T20:01:52.043Z</time></trkpt><trkpt lat="44.5689067" lon="8.0408667"><ele>655.0</ele><time>2026-04-11T20:01:57.043Z</time></trkpt><trkpt lat="44.5688883" lon="8.04096"><ele>655.0</ele><time>2026-04-11T20:02:00.043Z</time></trkpt><trkpt lat="44.5688817" lon="8.0410567"><ele>655.0</ele><time>2026-04-11T20:02:02.044Z</time></trkpt><trkpt lat="44.56887" lon="8.0411517"><ele>654.8333333333334</ele><time>2026-04-11T20:02:04.043Z</time></trkpt><trkpt lat="44.5688483" lon="8.0412483"><ele>654.6666666666667</ele><time>2026-04-11T20:02:06.043Z</time></trkpt><trkpt lat="44.5688233" lon="8.0413483"><ele>654.5</ele><time>2026-04-11T20:02:08.043Z</time></trkpt><trkpt lat="44.5688017" lon="8.0414417"><ele>654.3333333333334</ele><time>2026-04-11T20:02:10.043Z</time></trkpt><trkpt lat="44.5687533" lon="8.0415633"><ele>654.1666666666666</ele><time>2026-04-11T20:02:12.043Z</time></trkpt><trkpt lat="44.5687083" lon="8.0416833"><ele>654.0</ele><time>2026-04-11T20:02:14.042Z</time></trkpt><trkpt lat="44.56866" lon="8.0417917"><ele>654.0</ele><time>2026-04-11T20:02:16.043Z</time></trkpt><trkpt lat="44.56861" lon="8.041895"><ele>654.0</ele><time>2026-04-11T20:02:18.043Z</time></trkpt><trkpt lat="44.5685733" lon="8.0419767"><ele>654.0</ele><time>2026-04-11T20:02:20.044Z</time></trkpt><trkpt lat="44.56854" lon="8.0420817"><ele>654.0</ele><time>2026-04-11T20:02:23.043Z</time></trkpt><trkpt lat="44.5685067" lon="8.0421883"><ele>654.0</ele><time>2026-04-11T20:02:26.042Z</time></trkpt><trkpt lat="44.56848" lon="8.04231"><ele>654.0</ele><time>2026-04-11T20:02:29.043Z</time></trkpt><trkpt lat="44.5684467" lon="8.04241"><ele>656.2857142857142</ele><time>2026-04-11T20:02:32.042Z</time></trkpt><trkpt lat="44.568435" lon="8.0425033"><ele>658.5714285714286</ele><time>2026-04-11T20:02:35.043Z</time></trkpt><trkpt lat="44.5684033" lon="8.0426167"><ele>660.8571428571429</ele><time>2026-04-11T20:02:39.044Z</time></trkpt><trkpt lat="44.5683733" lon="8.042695"><ele>663.1428571428571</ele><time>2026-04-11T20:02:42.042Z</time></trkpt><trkpt lat="44.5683467" lon="8.0428083"><ele>665.4285714285714</ele><time>2026-04-11T20:02:46.043Z</time></trkpt><trkpt lat="44.5683167" lon="8.042895"><ele>667.7142857142857</ele><time>2026-04-11T20:02:49.044Z</time></trkpt><trkpt lat="44.5682817" lon="8.04298"><ele>670.0</ele><time>2026-04-11T20:02:52.043Z</time></trkpt><trkpt lat="44.56825" lon="8.0430667"><ele>669.9999999999999</ele><time>2026-04-11T20:02:55.044Z</time></trkpt><trkpt lat="44.5682133" lon="8.04314"><ele>670.0</ele><time>2026-04-11T20:02:58.043Z</time></trkpt><trkpt lat="44.5681833" lon="8.0432417"><ele>670.0</ele><time>2026-04-11T20:03:02.042Z</time></trkpt><trkpt lat="44.56816" lon="8.043325"><ele>670.0</ele><time>2026-04-11T20:03:05.042Z</time></trkpt><trkpt lat="44.5681117" lon="8.0434217"><ele>670.0</ele><time>2026-04-11T20:03:09.044Z</time></trkpt><trkpt lat="44.5680733" lon="8.0435133"><ele>669.9999999999999</ele><time>2026-04-11T20:03:13.043Z</time></trkpt><trkpt lat="44.5680433" lon="8.0436217"><ele>670.0</ele><time>2026-04-11T20:03:17.042Z</time></trkpt><trkpt lat="44.5680083" lon="8.043725"><ele>669.6666666666667</ele><time>2026-04-11T20:03:21.042Z</time></trkpt><trkpt lat="44.567975" lon="8.0438283"><ele>669.3333333333334</ele><time>2026-04-11T20:03:25.041Z</time></trkpt><trkpt lat="44.5679517" lon="8.0439383"><ele>669.0</ele><time>2026-04-11T20:03:29.041Z</time></trkpt><trkpt lat="44.5679233" lon="8.0440483"><ele>668.6666666666666</ele><time>2026-04-11T20:03:33.042Z</time></trkpt><trkpt lat="44.5678717" lon="8.044135"><ele>668.3333333333333</ele><time>2026-04-11T20:03:37.042Z</time></trkpt><trkpt lat="44.5678217" lon="8.0441933"><ele>668.0</ele><time>2026-04-11T20:03:41.041Z</time></trkpt><trkpt lat="44.5677733" lon="8.0442567"><ele>668.0</ele><time>2026-04-11T20:03:46.04Z</time></trkpt><trkpt lat="44.56773" lon="8.0443267"><ele>668.0</ele><time>2026-04-11T20:03:51.041Z</time></trkpt><trkpt lat="44.5676733" lon="8.0443867"><ele>668.0</ele><time>2026-04-11T20:03:56.042Z</time></trkpt><trkpt lat="44.567625" lon="8.0444667"><ele>668.0</ele><time>2026-04-11T20:04:02.04Z</time></trkpt><trkpt lat="44.567585" lon="8.0445417"><ele>668.0</ele><time>2026-04-11T20:04:07.041Z</time></trkpt><trkpt lat="44.5675367" lon="8.04461"><ele>668.0</ele><time>2026-04-11T20:04:12.041Z</time></trkpt><trkpt lat="44.56748" lon="8.0446833"><ele>668.0</ele><time>2026-04-11T20:04:18.042Z</time></trkpt><trkpt lat="44.5674367" lon="8.0447483"><ele>668.0</ele><time>2026-04-11T20:04:23.041Z</time></trkpt><trkpt lat="44.5674" lon="8.0448283"><ele>668.0</ele><time>2026-04-11T20:04:28.041Z</time></trkpt><trkpt lat="44.567365" lon="8.0449217"><ele>668.0</ele><time>2026-04-11T20:04:32.041Z</time></trkpt><trkpt lat="44.5673183" lon="8.0450217"><ele>668.0</ele><time>2026-04-11T20:04:36.041Z</time></trkpt><trkpt lat="44.5672767" lon="8.04511"><ele>668.0</ele><time>2026-04-11T20:04:39.041Z</time></trkpt><trkpt lat="44.56725" lon="8.045225"><ele>668.0</ele><time>2026-04-11T20:04:42.043Z</time></trkpt><trkpt lat="44.567215" lon="8.04532"><ele>668.5</ele><time>2026-04-11T20:04:45.042Z</time></trkpt><trkpt lat="44.5671783" lon="8.0454067"><ele>669.0</ele><time>2026-04-11T20:04:48.044Z</time></trkpt><trkpt lat="44.5671383" lon="8.0455083"><ele>669.5</ele><time>2026-04-11T20:04:52.042Z</time></trkpt><trkpt lat="44.5671083" lon="8.0455983"><ele>670.0</ele><time>2026-04-11T20:04:55.041Z</time></trkpt><trkpt lat="44.5670733" lon="8.045685"><ele>670.5</ele><time>2026-04-11T20:04:58.041Z</time></trkpt><trkpt lat="44.5670283" lon="8.0457767"><ele>671.0</ele><time>2026-04-11T20:05:01.043Z</time></trkpt><trkpt lat="44.5669917" lon="8.045875"><ele>671.4285714285714</ele><time>2026-04-11T20:05:05.041Z</time></trkpt><trkpt lat="44.5669817" lon="8.0459817"><ele>671.8571428571429</ele><time>2026-04-11T20:05:09.042Z</time></trkpt><trkpt lat="44.5669567" lon="8.0460633"><ele>672.2857142857143</ele><time>2026-04-11T20:05:12.042Z</time></trkpt><trkpt lat="44.56693" lon="8.0461667"><ele>672.7142857142858</ele><time>2026-04-11T20:05:16.043Z</time></trkpt><trkpt lat="44.5669" lon="8.0462467"><ele>673.1428571428571</ele><time>2026-04-11T20:05:20.042Z</time></trkpt><trkpt lat="44.56687" lon="8.0463367"><ele>673.5714285714287</ele><time>2026-04-11T20:05:23.041Z</time></trkpt><trkpt lat="44.5668267" lon="8.0464367"><ele>674.0</ele><time>2026-04-11T20:05:26.041Z</time></trkpt><trkpt lat="44.5667867" lon="8.0465433"><ele>675.0</ele><time>2026-04-11T20:05:29.041Z</time></trkpt><trkpt lat="44.56675" lon="8.04666"><ele>676.0</ele><time>2026-04-11T20:05:32.041Z</time></trkpt><trkpt lat="44.5667167" lon="8.0467633"><ele>677.0</ele><time>2026-04-11T20:05:35.041Z</time></trkpt><trkpt lat="44.5667017" lon="8.04688"><ele>678.0</ele><time>2026-04-11T20:05:38.041Z</time></trkpt><trkpt lat="44.566685" lon="8.04699"><ele>679.0</ele><time>2026-04-11T20:05:41.041Z</time></trkpt><trkpt lat="44.5666817" lon="8.0470817"><ele>680.0</ele><time>2026-04-11T20:05:44.041Z</time></trkpt><trkpt lat="44.5666767" lon="8.0471733"><ele>680.0</ele><time>2026-04-11T20:05:47.041Z</time></trkpt><trkpt lat="44.5666633" lon="8.0472667"><ele>680.0</ele><time>2026-04-11T20:05:50.041Z</time></trkpt><trkpt lat="44.56667" lon="8.0473617"><ele>680.0</ele><time>2026-04-11T20:05:53.042Z</time></trkpt><trkpt lat="44.5666767" lon="8.0474617"><ele>680.0</ele><time>2026-04-11T20:05:56.041Z</time></trkpt><trkpt lat="44.5666833" lon="8.047575"><ele>680.0</ele><time>2026-04-11T20:05:59.041Z</time></trkpt><trkpt lat="44.5666933" lon="8.0476883"><ele>680.0</ele><time>2026-04-11T20:06:03.042Z</time></trkpt><trkpt lat="44.566695" lon="8.0477783"><ele>680.0</ele><time>2026-04-11T20:06:06.042Z</time></trkpt><trkpt lat="44.5666883" lon="8.0478817"><ele>680.3333333333333</ele><time>2026-04-11T20:06:10.042Z</time></trkpt><trkpt lat="44.5666817" lon="8.0479933"><ele>680.6666666666666</ele><time>2026-04-11T20:06:14.042Z</time></trkpt><trkpt lat="44.566685" lon="8.0481"><ele>681.0</ele><time>2026-04-11T20:06:18.041Z</time></trkpt><trkpt lat="44.56667" lon="8.0482"><ele>681.3333333333334</ele><time>2026-04-11T20:06:23.042Z</time></trkpt><trkpt lat="44.5666667" lon="8.048305"><ele>681.6666666666667</ele><time>2026-04-11T20:06:28.041Z</time></trkpt><trkpt lat="44.5666567" lon="8.0484033"><ele>682.0</ele><time>2026-04-11T20:06:32.042Z</time></trkpt><trkpt lat="44.5666467" lon="8.0485083"><ele>682.5714285714286</ele><time>2026-04-11T20:06:37.042Z</time></trkpt><trkpt lat="44.5666317" lon="8.0486117"><ele>683.1428571428571</ele><time>2026-04-11T20:06:42.041Z</time></trkpt><trkpt lat="44.5666233" lon="8.0487217"><ele>683.7142857142858</ele><time>2026-04-11T20:06:47.041Z</time></trkpt><trkpt lat="44.56661" lon="8.0488283"><ele>684.2857142857142</ele><time>2026-04-11T20:06:52.043Z</time></trkpt><trkpt lat="44.5665883" lon="8.0489317"><ele>684.8571428571429</ele><time>2026-04-11T20:06:56.041Z</time></trkpt><trkpt lat="44.5665567" lon="8.049015"><ele>685.4285714285714</ele><time>2026-04-11T20:06:59.042Z</time></trkpt><trkpt lat="44.56654" lon="8.049105"><ele>686.0</ele><time>2026-04-11T20:07:02.041Z</time></trkpt><trkpt lat="44.566515" lon="8.0492"><ele>686.7142857142857</ele><time>2026-04-11T20:07:05.043Z</time></trkpt><trkpt lat="44.5664917" lon="8.0492833"><ele>687.4285714285714</ele><time>2026-04-11T20:07:08.041Z</time></trkpt><trkpt lat="44.56646" lon="8.0493883"><ele>688.1428571428571</ele><time>2026-04-11T20:07:12.041Z</time></trkpt><trkpt lat="44.56646" lon="8.0494967"><ele>688.8571428571429</ele><time>2026-04-11T20:07:16.042Z</time></trkpt><trkpt lat="44.5664433" lon="8.0495933"><ele>689.5714285714286</ele><time>2026-04-11T20:07:20.041Z</time></trkpt><trkpt lat="44.5664133" lon="8.049685"><ele>690.2857142857142</ele><time>2026-04-11T20:07:25.042Z</time></trkpt><trkpt lat="44.5664133" lon="8.0497767"><ele>691.0</ele><time>2026-04-11T20:07:29.041Z</time></trkpt><trkpt lat="44.5664167" lon="8.049875"><ele>691.5</ele><time>2026-04-11T20:07:33.041Z</time></trkpt><trkpt lat="44.5664083" lon="8.04999"><ele>692.0</ele><time>2026-04-11T20:07:37.042Z</time></trkpt><trkpt lat="44.566405" lon="8.0500783"><ele>692.5</ele><time>2026-04-11T20:07:40.04Z</time></trkpt><trkpt lat="44.566415" lon="8.0501833"><ele>693.0</ele><time>2026-04-11T20:07:44.041Z</time></trkpt><trkpt lat="44.5664" lon="8.050305"><ele>693.5</ele><time>2026-04-11T20:07:48.041Z</time></trkpt><trkpt lat="44.566405" lon="8.050405"><ele>694.0</ele><time>2026-04-11T20:07:51.042Z</time></trkpt><trkpt lat="44.5664" lon="8.050505"><ele>694.0</ele><time>2026-04-11T20:07:54.041Z</time></trkpt><trkpt lat="44.5664" lon="8.0506067"><ele>694.0</ele><time>2026-04-11T20:07:57.042Z</time></trkpt><trkpt lat="44.566405" lon="8.0507017"><ele>694.0</ele><time>2026-04-11T20:08:00.04Z</time></trkpt><trkpt lat="44.5663983" lon="8.0508"><ele>694.0</ele><time>2026-04-11T20:08:03.041Z</time></trkpt><trkpt lat="44.566395" lon="8.05089"><ele>694.0</ele><time>2026-04-11T20:08:06.04Z</time></trkpt><trkpt lat="44.5663883" lon="8.05099"><ele>694.0</ele><time>2026-04-11T20:08:10.04Z</time></trkpt><trkpt lat="44.5663867" lon="8.051085"><ele>694.0</ele><time>2026-04-11T20:08:14.042Z</time></trkpt><trkpt lat="44.56639" lon="8.05118"><ele>694.2857142857143</ele><time>2026-04-11T20:08:18.041Z</time></trkpt><trkpt lat="44.5663967" lon="8.0512733"><ele>694.5714285714286</ele><time>2026-04-11T20:08:23.04Z</time></trkpt><trkpt lat="44.5664" lon="8.051375"><ele>694.8571428571429</ele><time>2026-04-11T20:08:29.04Z</time></trkpt><trkpt lat="44.5663967" lon="8.0514667"><ele>695.1428571428571</ele><time>2026-04-11T20:08:34.04Z</time></trkpt><trkpt lat="44.5664" lon="8.0515667"><ele>695.4285714285714</ele><time>2026-04-11T20:08:39.041Z</time></trkpt><trkpt lat="44.566385" lon="8.0516533"><ele>695.7142857142857</ele><time>2026-04-11T20:08:45.041Z</time></trkpt><trkpt lat="44.5663533" lon="8.0517483"><ele>696.0</ele><time>2026-04-11T20:08:51.041Z</time></trkpt><trkpt lat="44.5663133" lon="8.0518333"><ele>697.5</ele><time>2026-04-11T20:08:57.043Z</time></trkpt><trkpt lat="44.5662833" lon="8.051915"><ele>699.0</ele><time>2026-04-11T20:09:02.04Z</time></trkpt><trkpt lat="44.56624" lon="8.0519917"><ele>700.5</ele><time>2026-04-11T20:09:07.041Z</time></trkpt><trkpt lat="44.56619" lon="8.052075"><ele>702.0</ele><time>2026-04-11T20:09:12.041Z</time></trkpt><trkpt lat="44.5661467" lon="8.0521467"><ele>703.5</ele><time>2026-04-11T20:09:15.043Z</time></trkpt><trkpt lat="44.56609" lon="8.0522367"><ele>705.0</ele><time>2026-04-11T20:09:18.045Z</time></trkpt><trkpt lat="44.5660483" lon="8.0523467"><ele>705.0</ele><time>2026-04-11T20:09:21.043Z</time></trkpt><trkpt lat="44.5660067" lon="8.05245"><ele>705.0</ele><time>2026-04-11T20:09:24.041Z</time></trkpt><trkpt lat="44.5659633" lon="8.0525567"><ele>705.0</ele><time>2026-04-11T20:09:27.042Z</time></trkpt><trkpt lat="44.5659233" lon="8.05267"><ele>705.0</ele><time>2026-04-11T20:09:30.041Z</time></trkpt><trkpt lat="44.5658733" lon="8.0527817"><ele>705.0</ele><time>2026-04-11T20:09:33.042Z</time></trkpt><trkpt lat="44.56584" lon="8.0528617"><ele>705.0</ele><time>2026-04-11T20:09:35.04Z</time></trkpt><trkpt lat="44.5658083" lon="8.05294"><ele>706.5714285714286</ele><time>2026-04-11T20:09:37.042Z</time></trkpt><trkpt lat="44.565775" lon="8.05304"><ele>708.1428571428571</ele><time>2026-04-11T20:09:40.041Z</time></trkpt><trkpt lat="44.5657533" lon="8.0531267"><ele>709.7142857142858</ele><time>2026-04-11T20:09:43.041Z</time></trkpt><trkpt lat="44.5657217" lon="8.0532033"><ele>711.2857142857142</ele><time>2026-04-11T20:09:46.041Z</time></trkpt><trkpt lat="44.565675" lon="8.0532933"><ele>712.8571428571429</ele><time>2026-04-11T20:09:50.042Z</time></trkpt><trkpt lat="44.5656417" lon="8.0533917"><ele>714.4285714285714</ele><time>2026-04-11T20:09:54.041Z</time></trkpt><trkpt lat="44.5656133" lon="8.0534717"><ele>716.0</ele><time>2026-04-11T20:09:57.041Z</time></trkpt><trkpt lat="44.56559" lon="8.0535583"><ele>716.0</ele><time>2026-04-11T20:10:01.041Z</time></trkpt><trkpt lat="44.5655667" lon="8.0536483"><ele>716.0</ele><time>2026-04-11T20:10:05.04Z</time></trkpt><trkpt lat="44.5655217" lon="8.053735"><ele>716.0</ele><time>2026-04-11T20:10:10.041Z</time></trkpt><trkpt lat="44.5655" lon="8.0538383"><ele>716.0</ele><time>2026-04-11T20:10:15.041Z</time></trkpt><trkpt lat="44.5654367" lon="8.0539283"><ele>716.0</ele><time>2026-04-11T20:10:23.04Z</time></trkpt><trkpt lat="44.5654017" lon="8.054005"><ele>716.0</ele><time>2026-04-11T20:10:28.041Z</time></trkpt><trkpt lat="44.5653433" lon="8.05407"><ele>717.1666666666666</ele><time>2026-04-11T20:10:33.041Z</time></trkpt><trkpt lat="44.5652817" lon="8.0541383"><ele>718.3333333333333</ele><time>2026-04-11T20:10:38.041Z</time></trkpt><trkpt lat="44.5652167" lon="8.05421"><ele>719.5</ele><time>2026-04-11T20:10:42.04Z</time></trkpt><trkpt lat="44.565145" lon="8.0542783"><ele>720.6666666666666</ele><time>2026-04-11T20:10:45.041Z</time></trkpt><trkpt lat="44.56508" lon="8.05433"><ele>721.8333333333334</ele><time>2026-04-11T20:10:47.041Z</time></trkpt><trkpt lat="44.5650117" lon="8.0543817"><ele>723.0</ele><time>2026-04-11T20:10:49.044Z</time></trkpt><trkpt lat="44.564935" lon="8.0544367"><ele>723.0</ele><time>2026-04-11T20:10:52.042Z</time></trkpt><trkpt lat="44.5648517" lon="8.0544833"><ele>723.0</ele><time>2026-04-11T20:10:55.041Z</time></trkpt><trkpt lat="44.5647867" lon="8.0545433"><ele>723.0</ele><time>2026-04-11T20:10:57.041Z</time></trkpt><trkpt lat="44.5647083" lon="8.0546067"><ele>723.0</ele><time>2026-04-11T20:11:00.042Z</time></trkpt><trkpt lat="44.5646517" lon="8.0546483"><ele>723.0</ele><time>2026-04-11T20:11:02.042Z</time></trkpt><trkpt lat="44.5645667" lon="8.054685"><ele>723.0</ele><time>2026-04-11T20:11:05.041Z</time></trkpt><trkpt lat="44.5644983" lon="8.0547283"><ele>721.1666666666666</ele><time>2026-04-11T20:11:07.041Z</time></trkpt><trkpt lat="44.56444" lon="8.05478"><ele>719.3333333333334</ele><time>2026-04-11T20:11:09.041Z</time></trkpt><trkpt lat="44.5643767" lon="8.0548467"><ele>717.5</ele><time>2026-04-11T20:11:11.041Z</time></trkpt><trkpt lat="44.564315" lon="8.0549183"><ele>715.6666666666667</ele><time>2026-04-11T20:11:13.041Z</time></trkpt><trkpt lat="44.5642633" lon="8.0550083"><ele>713.8333333333334</ele><time>2026-04-11T20:11:15.042Z</time></trkpt><trkpt lat="44.564215" lon="8.05509"><ele>712.0</ele><time>2026-04-11T20:11:17.041Z</time></trkpt><trkpt lat="44.5641533" lon="8.0551767"><ele>711.9999999999999</ele><time>2026-04-11T20:11:20.04Z</time></trkpt><trkpt lat="44.5641067" lon="8.0552583"><ele>712.0</ele><time>2026-04-11T20:11:23.042Z</time></trkpt><trkpt lat="44.5640733" lon="8.0553483"><ele>712.0</ele><time>2026-04-11T20:11:26.041Z</time></trkpt><trkpt lat="44.5640267" lon="8.055435"><ele>712.0</ele><time>2026-04-11T20:11:29.041Z</time></trkpt><trkpt lat="44.5639733" lon="8.05552"><ele>712.0</ele><time>2026-04-11T20:11:32.041Z</time></trkpt><trkpt lat="44.5639233" lon="8.0555933"><ele>711.9999999999999</ele><time>2026-04-11T20:11:35.041Z</time></trkpt><trkpt lat="44.56388" lon="8.0556733"><ele>712.0</ele><time>2026-04-11T20:11:38.041Z</time></trkpt><trkpt lat="44.563845" lon="8.0557483"><ele>711.7142857142857</ele><time>2026-04-11T20:11:41.042Z</time></trkpt><trkpt lat="44.56381" lon="8.055825"><ele>711.4285714285714</ele><time>2026-04-11T20:11:45.042Z</time></trkpt><trkpt lat="44.5637767" lon="8.0559017"><ele>711.1428571428571</ele><time>2026-04-11T20:11:49.04Z</time></trkpt><trkpt lat="44.5637367" lon="8.0559783"><ele>710.8571428571429</ele><time>2026-04-11T20:11:55.041Z</time></trkpt><trkpt lat="44.5636867" lon="8.0560467"><ele>710.5714285714286</ele><time>2026-04-11T20:12:01.041Z</time></trkpt><trkpt lat="44.563635" lon="8.0561067"><ele>710.2857142857142</ele><time>2026-04-11T20:12:07.041Z</time></trkpt><trkpt lat="44.563585" lon="8.0561933"><ele>710.0</ele><time>2026-04-11T20:12:15.042Z</time></trkpt><trkpt lat="44.563485" lon="8.056315"><ele>711.8333333333333</ele><time>2026-04-11T20:12:28.041Z</time></trkpt><trkpt lat="44.5634167" lon="8.0564217"><ele>713.6666666666666</ele><time>2026-04-11T20:12:38.041Z</time></trkpt><trkpt lat="44.5633667" lon="8.0564833"><ele>715.5</ele><time>2026-04-11T20:12:43.042Z</time></trkpt><trkpt lat="44.563295" lon="8.056565"><ele>717.3333333333334</ele><time>2026-04-11T20:12:52.042Z</time></trkpt><trkpt lat="44.56321" lon="8.0566217"><ele>719.1666666666667</ele><time>2026-04-11T20:13:00.041Z</time></trkpt><trkpt lat="44.5631717" lon="8.0566933"><ele>721.0</ele><time>2026-04-11T20:13:05.041Z</time></trkpt><trkpt lat="44.5631117" lon="8.0567283"><ele>722.5714285714286</ele><time>2026-04-11T20:13:10.041Z</time></trkpt><trkpt lat="44.5630483" lon="8.0567767"><ele>724.1428571428571</ele><time>2026-04-11T20:13:16.041Z</time></trkpt><trkpt lat="44.5629933" lon="8.0568433"><ele>725.7142857142858</ele><time>2026-04-11T20:13:22.041Z</time></trkpt><trkpt lat="44.5629383" lon="8.05689"><ele>727.2857142857142</ele><time>2026-04-11T20:13:28.041Z</time></trkpt><trkpt lat="44.56288" lon="8.0569267"><ele>728.8571428571429</ele><time>2026-04-11T20:13:33.042Z</time></trkpt><trkpt lat="44.5628283" lon="8.0569917"><ele>730.4285714285714</ele><time>2026-04-11T20:13:38.041Z</time></trkpt><trkpt lat="44.56279" lon="8.057065"><ele>732.0</ele><time>2026-04-11T20:13:43.041Z</time></trkpt><trkpt lat="44.5627383" lon="8.0571183"><ele>732.7142857142858</ele><time>2026-04-11T20:13:48.041Z</time></trkpt><trkpt lat="44.5626883" lon="8.0571817"><ele>733.4285714285714</ele><time>2026-04-11T20:13:53.041Z</time></trkpt><trkpt lat="44.5626317" lon="8.057235"><ele>734.1428571428571</ele><time>2026-04-11T20:13:58.042Z</time></trkpt><trkpt lat="44.5625917" lon="8.0573183"><ele>734.8571428571429</ele><time>2026-04-11T20:14:03.042Z</time></trkpt><trkpt lat="44.5625167" lon="8.0573167"><ele>735.5714285714286</ele><time>2026-04-11T20:14:08.041Z</time></trkpt><trkpt lat="44.5624483" lon="8.0573233"><ele>736.2857142857143</ele><time>2026-04-11T20:14:13.041Z</time></trkpt><trkpt lat="44.562385" lon="8.05733"><ele>737.0</ele><time>2026-04-11T20:14:17.041Z</time></trkpt><trkpt lat="44.5623067" lon="8.0573167"><ele>737.0</ele><time>2026-04-11T20:14:22.041Z</time></trkpt><trkpt lat="44.5622383" lon="8.0573117"><ele>737.0</ele><time>2026-04-11T20:14:26.04Z</time></trkpt><trkpt lat="44.562165" lon="8.0573133"><ele>737.0</ele><time>2026-04-11T20:14:30.041Z</time></trkpt><trkpt lat="44.5620867" lon="8.0573083"><ele>737.0</ele><time>2026-04-11T20:14:34.041Z</time></trkpt><trkpt lat="44.5620133" lon="8.0572817"><ele>737.0</ele><time>2026-04-11T20:14:37.042Z</time></trkpt><trkpt lat="44.5619267" lon="8.0572467"><ele>737.0</ele><time>2026-04-11T20:14:40.041Z</time></trkpt><trkpt lat="44.5618617" lon="8.0572117"><ele>737.3333333333333</ele><time>2026-04-11T20:14:42.041Z</time></trkpt><trkpt lat="44.5617917" lon="8.05718"><ele>737.6666666666666</ele><time>2026-04-11T20:14:44.042Z</time></trkpt><trkpt lat="44.56171" lon="8.05716"><ele>738.0</ele><time>2026-04-11T20:14:46.042Z</time></trkpt><trkpt lat="44.5616333" lon="8.0571433"><ele>738.3333333333334</ele><time>2026-04-11T20:14:48.04Z</time></trkpt><trkpt lat="44.5615567" lon="8.0571217"><ele>738.6666666666667</ele><time>2026-04-11T20:14:50.04Z</time></trkpt><trkpt lat="44.5614833" lon="8.0571"><ele>739.0</ele><time>2026-04-11T20:14:52.04Z</time></trkpt><trkpt lat="44.561415" lon="8.057075"><ele>739.0</ele><time>2026-04-11T20:14:54.042Z</time></trkpt><trkpt lat="44.5613367" lon="8.0570617"><ele>739.0</ele><time>2026-04-11T20:14:56.041Z</time></trkpt><trkpt lat="44.5612583" lon="8.0570433"><ele>739.0</ele><time>2026-04-11T20:14:58.041Z</time></trkpt><trkpt lat="44.5611833" lon="8.0570167"><ele>739.0</ele><time>2026-04-11T20:15:00.041Z</time></trkpt><trkpt lat="44.5611117" lon="8.0569883"><ele>739.0</ele><time>2026-04-11T20:15:02.042Z</time></trkpt><trkpt lat="44.5610383" lon="8.0569617"><ele>739.0</ele><time>2026-04-11T20:15:04.041Z</time></trkpt><trkpt lat="44.560965" lon="8.0569333"><ele>739.7142857142858</ele><time>2026-04-11T20:15:06.042Z</time></trkpt><trkpt lat="44.5608917" lon="8.0569133"><ele>740.4285714285714</ele><time>2026-04-11T20:15:08.041Z</time></trkpt><trkpt lat="44.5608283" lon="8.0569133"><ele>741.1428571428571</ele><time>2026-04-11T20:15:10.04Z</time></trkpt><trkpt lat="44.560745" lon="8.05694"><ele>741.8571428571429</ele><time>2026-04-11T20:15:13.042Z</time></trkpt><trkpt lat="44.5606617" lon="8.056965"><ele>742.5714285714286</ele><time>2026-04-11T20:15:16.041Z</time></trkpt><trkpt lat="44.5605983" lon="8.0569983"><ele>743.2857142857143</ele><time>2026-04-11T20:15:19.041Z</time></trkpt><trkpt lat="44.56054" lon="8.0570417"><ele>744.0</ele><time>2026-04-11T20:15:22.042Z</time></trkpt><trkpt lat="44.560475" lon="8.0570817"><ele>744.0000000000001</ele><time>2026-04-11T20:15:26.042Z</time></trkpt><trkpt lat="44.5604433" lon="8.0571583"><ele>744.0</ele><time>2026-04-11T20:15:30.041Z</time></trkpt><trkpt lat="44.5604067" lon="8.0572417"><ele>744.0</ele><time>2026-04-11T20:15:35.041Z</time></trkpt><trkpt lat="44.5603733" lon="8.0573317"><ele>744.0</ele><time>2026-04-11T20:15:43.041Z</time></trkpt><trkpt lat="44.5603383" lon="8.0574367"><ele>744.0</ele><time>2026-04-11T20:15:48.041Z</time></trkpt><trkpt lat="44.5602833" lon="8.05754"><ele>744.0000000000001</ele><time>2026-04-11T20:15:51.042Z</time></trkpt><trkpt lat="44.5602567" lon="8.0576217"><ele>744.0</ele><time>2026-04-11T20:15:53.042Z</time></trkpt><trkpt lat="44.5602233" lon="8.0577017"><ele>745.0</ele><time>2026-04-11T20:15:55.041Z</time></trkpt><trkpt lat="44.5601817" lon="8.0577967"><ele>746.0</ele><time>2026-04-11T20:15:58.042Z</time></trkpt><trkpt lat="44.5601617" lon="8.0578917"><ele>747.0</ele><time>2026-04-11T20:16:01.042Z</time></trkpt><trkpt lat="44.5601433" lon="8.0579983"><ele>748.0</ele><time>2026-04-11T20:16:04.042Z</time></trkpt><trkpt lat="44.5601267" lon="8.05812"><ele>749.0</ele><time>2026-04-11T20:16:07.043Z</time></trkpt><trkpt lat="44.5600733" lon="8.0582367"><ele>750.0</ele><time>2026-04-11T20:16:10.042Z</time></trkpt><trkpt lat="44.5600267" lon="8.0583167"><ele>750.8333333333334</ele><time>2026-04-11T20:16:12.043Z</time></trkpt><trkpt lat="44.5599683" lon="8.0583717"><ele>751.6666666666666</ele><time>2026-04-11T20:16:14.043Z</time></trkpt><trkpt lat="44.5599017" lon="8.0584083"><ele>752.5</ele><time>2026-04-11T20:16:16.042Z</time></trkpt><trkpt lat="44.5598217" lon="8.0584617"><ele>753.3333333333333</ele><time>2026-04-11T20:16:18.042Z</time></trkpt><trkpt lat="44.5597283" lon="8.0585117"><ele>754.1666666666666</ele><time>2026-04-11T20:16:20.043Z</time></trkpt><trkpt lat="44.5596283" lon="8.05857"><ele>755.0</ele><time>2026-04-11T20:16:22.043Z</time></trkpt><trkpt lat="44.5595317" lon="8.05864"><ele>752.3333333333333</ele><time>2026-04-11T20:16:24.044Z</time></trkpt><trkpt lat="44.55942" lon="8.05872"><ele>749.6666666666666</ele><time>2026-04-11T20:16:26.042Z</time></trkpt><trkpt lat="44.5593583" lon="8.0587667"><ele>747.0</ele><time>2026-04-11T20:16:27.045Z</time></trkpt><trkpt lat="44.5592917" lon="8.0588117"><ele>744.3333333333334</ele><time>2026-04-11T20:16:28.042Z</time></trkpt><trkpt lat="44.55923" lon="8.058855"><ele>741.6666666666667</ele><time>2026-04-11T20:16:29.042Z</time></trkpt><trkpt lat="44.5591633" lon="8.0589"><ele>739.0</ele><time>2026-04-11T20:16:30.041Z</time></trkpt><trkpt lat="44.5591033" lon="8.0589367"><ele>739.0</ele><time>2026-04-11T20:16:31.041Z</time></trkpt><trkpt lat="44.55899" lon="8.05903"><ele>739.0</ele><time>2026-04-11T20:16:33.043Z</time></trkpt><trkpt lat="44.55893" lon="8.0590733"><ele>739.0</ele><time>2026-04-11T20:16:34.041Z</time></trkpt><trkpt lat="44.5588633" lon="8.0591317"><ele>739.0</ele><time>2026-04-11T20:16:35.042Z</time></trkpt><trkpt lat="44.55879" lon="8.0591733"><ele>739.0</ele><time>2026-04-11T20:16:36.041Z</time></trkpt><trkpt lat="44.5587183" lon="8.0592183"><ele>739.0</ele><time>2026-04-11T20:16:37.042Z</time></trkpt><trkpt lat="44.5586533" lon="8.0592633"><ele>738.1666666666667</ele><time>2026-04-11T20:16:38.041Z</time></trkpt><trkpt lat="44.5586" lon="8.05932"><ele>737.3333333333334</ele><time>2026-04-11T20:16:39.043Z</time></trkpt><trkpt lat="44.558505" lon="8.0593833"><ele>736.5</ele><time>2026-04-11T20:16:41.041Z</time></trkpt><trkpt lat="44.55842" lon="8.059425"><ele>735.6666666666666</ele><time>2026-04-11T20:16:43.043Z</time></trkpt><trkpt lat="44.558345" lon="8.059475"><ele>734.8333333333333</ele><time>2026-04-11T20:16:46.041Z</time></trkpt><trkpt lat="44.5582767" lon="8.0595233"><ele>734.0</ele><time>2026-04-11T20:16:49.043Z</time></trkpt><trkpt lat="44.5582117" lon="8.059565"><ele>734.0</ele><time>2026-04-11T20:16:52.043Z</time></trkpt><trkpt lat="44.55815" lon="8.0595433"><ele>734.0</ele><time>2026-04-11T20:16:55.043Z</time></trkpt><trkpt lat="44.5580683" lon="8.0595767"><ele>734.0</ele><time>2026-04-11T20:29:28.326Z</time></trkpt><trkpt lat="44.5578295" lon="8.0597533"><ele>734.0</ele><time>2026-04-11T20:29:40.095Z</time></trkpt><trkpt lat="44.5577222" lon="8.0597247"><ele>734.0</ele><time>2026-04-11T20:30:03.12Z</time></trkpt><trkpt lat="44.5580584" lon="8.059544"><ele>734.0</ele><time>2026-04-11T20:30:09.583Z</time></trkpt><trkpt lat="44.5579354" lon="8.0596116"><ele>734.0</ele><time>2026-04-11T20:30:14.932Z</time></trkpt><trkpt lat="44.5582301" lon="8.0595547"><ele>734.0</ele><time>2026-04-11T20:30:28.849Z</time></trkpt><trkpt lat="44.5581046" lon="8.0596064"><ele>734.0</ele><time>2026-04-11T20:33:15.056Z</time></trkpt><trkpt lat="44.5577896" lon="8.0597241"><ele>723.0</ele><time>2026-04-11T20:34:32.298Z</time></trkpt><trkpt lat="44.5573439" lon="8.059905"><ele>466.0</ele><time>2026-04-11T20:34:45.398Z</time></trkpt><trkpt lat="44.5819156" lon="7.96862"><ele>734.0</ele><time>2026-04-11T20:37:51.795Z</time></trkpt><trkpt lat="44.5413251" lon="8.0568716"><ele>724.0</ele><time>2026-04-11T20:43:05.247Z</time></trkpt><trkpt lat="44.5395949" lon="8.0535859"><ele>700.0</ele><time>2026-04-11T20:44:13.663Z</time></trkpt><trkpt lat="44.5379843" lon="8.0456894"><ele>704.5</ele><time>2026-04-11T20:48:25.499Z</time></trkpt><trkpt lat="44.5378596" lon="8.0455877"><ele>709.0</ele><time>2026-04-11T20:48:37.392Z</time></trkpt><trkpt lat="44.5374851" lon="8.0456746"><ele>729.0</ele><time>2026-04-11T20:48:57.955Z</time></trkpt><trkpt lat="44.534053" lon="8.0459459"><ele>730.0</ele><time>2026-04-11T20:50:04.926Z</time></trkpt><trkpt lat="44.5328002" lon="8.0467053"><ele>733.5</ele><time>2026-04-11T20:50:55.221Z</time></trkpt><trkpt lat="44.5330049" lon="8.0465591"><ele>737.0</ele><time>2026-04-11T20:51:01.655Z</time></trkpt><trkpt lat="44.5332556" lon="8.0458806"><ele>737.0</ele><time>2026-04-11T20:51:07.987Z</time></trkpt><trkpt lat="44.5333134" lon="8.0458337"><ele>737.0</ele><time>2026-04-11T20:51:14.38Z</time></trkpt><trkpt lat="44.5337005" lon="8.0455624"><ele>717.0</ele><time>2026-04-11T20:52:06.413Z</time></trkpt><trkpt lat="44.5372747" lon="8.038298"><ele>717.0</ele><time>2026-04-11T20:54:00.774Z</time></trkpt><trkpt lat="44.5377321" lon="8.0380509"><ele>466.0</ele><time>2026-04-11T20:54:11.133Z</time></trkpt><trkpt lat="44.581914" lon="7.9686309"><ele>612.0</ele><time>2026-04-11T21:06:14.23Z</time></trkpt><trkpt lat="44.5407624" lon="8.0164733"><ele>466.0</ele><time>2026-04-11T21:06:44.057Z</time></trkpt><trkpt lat="44.5819208" lon="7.9686275"><ele>551.0</ele><time>2026-04-11T21:11:30.75Z</time></trkpt><trkpt lat="44.5373052" lon="8.0121987"><ele>525.0</ele><time>2026-04-11T21:12:32.232Z</time></trkpt><trkpt lat="44.5365289" lon="8.0116775"><ele>525.0</ele><time>2026-04-11T21:13:39.81Z</time></trkpt><trkpt lat="44.5365559" lon="8.0117737"><ele>525.0</ele><time>2026-04-11T21:14:40.562Z</time></trkpt><trkpt lat="44.5366958" lon="8.0121714"><ele>525.0</ele><time>2026-04-11T21:15:29.088Z</time></trkpt><trkpt lat="44.5363474" lon="8.0118242"><ele>525.5</ele><time>2026-04-11T21:16:37.881Z</time></trkpt><trkpt lat="44.5359692" lon="8.0115907"><ele>526.0</ele><time>2026-04-11T21:16:55.18Z</time></trkpt><trkpt lat="44.5332344" lon="8.0130004"><ele>545.0</ele><time>2026-04-11T21:18:08.86Z</time></trkpt><trkpt lat="44.5196015" lon="7.9935501"><ele>339.0</ele><time>2026-04-11T21:26:03.833Z</time></trkpt><trkpt lat="44.5269076" lon="7.9766108"><ele>306.0</ele><time>2026-04-11T21:31:41.776Z</time></trkpt><trkpt lat="44.5327776" lon="7.965821"><ele>308.0</ele><time>2026-04-11T21:33:52.962Z</time></trkpt><trkpt lat="44.5334025" lon="7.9629663"><ele>306.0</ele><time>2026-04-11T21:34:14.067Z</time></trkpt><trkpt lat="44.5337094" lon="7.9622949"><ele>298.0</ele><time>2026-04-11T21:34:30.908Z</time></trkpt><trkpt lat="44.5337082" lon="7.9600275"><ele>306.0</ele><time>2026-04-11T21:34:53.322Z</time></trkpt><trkpt lat="44.533883" lon="7.9577233"><ele>303.0</ele><time>2026-04-11T21:35:06.561Z</time></trkpt><trkpt lat="44.533359" lon="7.9566556"><ele>295.0</ele><time>2026-04-11T21:35:22.692Z</time></trkpt><trkpt lat="44.5324193" lon="7.9505121"><ele>288.0</ele><time>2026-04-11T21:36:23.5Z</time></trkpt><trkpt lat="44.5307273" lon="7.9496067"><ele>286.0</ele><time>2026-04-11T21:36:40.979Z</time></trkpt><trkpt lat="44.5309731" lon="7.9473383"><ele>287.0</ele><time>2026-04-11T21:37:11.085Z</time></trkpt><trkpt lat="44.531088" lon="7.9459135"><ele>282.0</ele><time>2026-04-11T21:37:26.842Z</time></trkpt><trkpt lat="44.5312324" lon="7.9430847"><ele>277.0</ele><time>2026-04-11T21:38:28.439Z</time></trkpt><trkpt lat="44.5319183" lon="7.9405833"><ele>275.0</ele><time>2026-04-11T21:39:08.647Z</time></trkpt><trkpt lat="44.5315017" lon="7.9387303"><ele>275.0</ele><time>2026-04-11T21:39:35.233Z</time></trkpt><trkpt lat="44.5314135" lon="7.9385737"><ele>275.0</ele><time>2026-04-11T21:40:25.611Z</time></trkpt><trkpt lat="44.5334512" lon="7.9356388"><ele>273.0</ele><time>2026-04-11T21:40:40.049Z</time></trkpt></trkseg></trk></gpx>